<?xml version="1.0" encoding="UTF-8" standalone="no" ?>
<gpx xmlns="http://www.topografix.com/GPX/1/1" xmlns:xsi="http://www.w3.org/2001/XMLSchema-instance" xsi:schemaLocation="http://www.topografix.com/GPX/1/1 http://www.topografix.com/GPX/1/1/gpx.xsd" version="1.1" creator="VisuGPX - https://www.visugpx.com">
  <metadata>
    <name>Recherche du soleil en Buech</name>
    <desc><![CDATA[Sortie Grenoble VTT]]></desc>
  </metadata>
  <trk>
    <name><![CDATA[2015-04-05-01]]></name>
    <trkseg>
      <trkpt lat="44.52092" lon="5.74988">
        <ele>780.2</ele>
        <time>2015-04-05T06:33:38Z</time>
      </trkpt>
      <trkpt lat="44.52091" lon="5.74988">
        <ele>780.1</ele>
        <time>2015-04-05T06:33:39Z</time>
      </trkpt>
      <trkpt lat="44.52096" lon="5.74977">
        <ele>780</ele>
        <time>2015-04-05T06:34:45Z</time>
      </trkpt>
      <trkpt lat="44.52101" lon="5.74966">
        <ele>780</ele>
        <time>2015-04-05T06:37:18Z</time>
      </trkpt>
      <trkpt lat="44.52106" lon="5.74955">
        <ele>779.8</ele>
        <time>2015-04-05T06:37:28Z</time>
      </trkpt>
      <trkpt lat="44.52104" lon="5.74969">
        <ele>780.3</ele>
        <time>2015-04-05T06:37:37Z</time>
      </trkpt>
      <trkpt lat="44.52092" lon="5.74967">
        <ele>779.2</ele>
        <time>2015-04-05T06:37:50Z</time>
      </trkpt>
      <trkpt lat="44.52085" lon="5.74977">
        <ele>779</ele>
        <time>2015-04-05T06:37:53Z</time>
      </trkpt>
      <trkpt lat="44.52076" lon="5.7499">
        <ele>778.6</ele>
        <time>2015-04-05T06:37:56Z</time>
      </trkpt>
      <trkpt lat="44.5207" lon="5.74999">
        <ele>778.1</ele>
        <time>2015-04-05T06:37:58Z</time>
      </trkpt>
      <trkpt lat="44.52063" lon="5.75009">
        <ele>777.1</ele>
        <time>2015-04-05T06:38:00Z</time>
      </trkpt>
      <trkpt lat="44.52055" lon="5.75019">
        <ele>775.9</ele>
        <time>2015-04-05T06:38:02Z</time>
      </trkpt>
      <trkpt lat="44.52048" lon="5.75029">
        <ele>774.8</ele>
        <time>2015-04-05T06:38:04Z</time>
      </trkpt>
      <trkpt lat="44.52046" lon="5.75044">
        <ele>774.3</ele>
        <time>2015-04-05T06:38:07Z</time>
      </trkpt>
      <trkpt lat="44.52051" lon="5.75056">
        <ele>774.7</ele>
        <time>2015-04-05T06:38:11Z</time>
      </trkpt>
      <trkpt lat="44.52055" lon="5.75068">
        <ele>775</ele>
        <time>2015-04-05T06:38:15Z</time>
      </trkpt>
      <trkpt lat="44.52059" lon="5.75081">
        <ele>775.1</ele>
        <time>2015-04-05T06:38:19Z</time>
      </trkpt>
      <trkpt lat="44.5206" lon="5.75094">
        <ele>774.6</ele>
        <time>2015-04-05T06:38:23Z</time>
      </trkpt>
      <trkpt lat="44.5206" lon="5.75109">
        <ele>773.8</ele>
        <time>2015-04-05T06:38:28Z</time>
      </trkpt>
      <trkpt lat="44.5206" lon="5.75122">
        <ele>773</ele>
        <time>2015-04-05T06:38:33Z</time>
      </trkpt>
      <trkpt lat="44.5206" lon="5.75136">
        <ele>772.2</ele>
        <time>2015-04-05T06:38:43Z</time>
      </trkpt>
      <trkpt lat="44.52061" lon="5.75151">
        <ele>771.4</ele>
        <time>2015-04-05T06:38:49Z</time>
      </trkpt>
      <trkpt lat="44.52058" lon="5.75164">
        <ele>770.6</ele>
        <time>2015-04-05T06:38:57Z</time>
      </trkpt>
      <trkpt lat="44.52057" lon="5.75177">
        <ele>770.1</ele>
        <time>2015-04-05T06:39:08Z</time>
      </trkpt>
      <trkpt lat="44.52056" lon="5.75189">
        <ele>769.8</ele>
        <time>2015-04-05T06:39:13Z</time>
      </trkpt>
      <trkpt lat="44.52055" lon="5.75204">
        <ele>769.4</ele>
        <time>2015-04-05T06:39:17Z</time>
      </trkpt>
      <trkpt lat="44.52053" lon="5.75219">
        <ele>769</ele>
        <time>2015-04-05T06:39:21Z</time>
      </trkpt>
      <trkpt lat="44.5205" lon="5.75234">
        <ele>768.6</ele>
        <time>2015-04-05T06:39:25Z</time>
      </trkpt>
      <trkpt lat="44.52042" lon="5.75247">
        <ele>768.1</ele>
        <time>2015-04-05T06:39:28Z</time>
      </trkpt>
      <trkpt lat="44.52031" lon="5.75257">
        <ele>767.7</ele>
        <time>2015-04-05T06:39:31Z</time>
      </trkpt>
      <trkpt lat="44.52022" lon="5.75264">
        <ele>767.4</ele>
        <time>2015-04-05T06:39:33Z</time>
      </trkpt>
      <trkpt lat="44.52013" lon="5.7527">
        <ele>767.1</ele>
        <time>2015-04-05T06:39:35Z</time>
      </trkpt>
      <trkpt lat="44.52004" lon="5.75276">
        <ele>766.8</ele>
        <time>2015-04-05T06:39:37Z</time>
      </trkpt>
      <trkpt lat="44.51994" lon="5.75281">
        <ele>766.3</ele>
        <time>2015-04-05T06:39:39Z</time>
      </trkpt>
      <trkpt lat="44.51984" lon="5.75287">
        <ele>765.6</ele>
        <time>2015-04-05T06:39:41Z</time>
      </trkpt>
      <trkpt lat="44.51973" lon="5.75293">
        <ele>764.9</ele>
        <time>2015-04-05T06:39:43Z</time>
      </trkpt>
      <trkpt lat="44.51964" lon="5.75301">
        <ele>764.2</ele>
        <time>2015-04-05T06:39:45Z</time>
      </trkpt>
      <trkpt lat="44.51953" lon="5.75308">
        <ele>763.5</ele>
        <time>2015-04-05T06:39:47Z</time>
      </trkpt>
      <trkpt lat="44.51942" lon="5.75315">
        <ele>762.8</ele>
        <time>2015-04-05T06:39:49Z</time>
      </trkpt>
      <trkpt lat="44.51932" lon="5.75322">
        <ele>762.1</ele>
        <time>2015-04-05T06:39:51Z</time>
      </trkpt>
      <trkpt lat="44.5192" lon="5.75329">
        <ele>761.3</ele>
        <time>2015-04-05T06:39:53Z</time>
      </trkpt>
      <trkpt lat="44.51907" lon="5.75338">
        <ele>760.8</ele>
        <time>2015-04-05T06:39:55Z</time>
      </trkpt>
      <trkpt lat="44.51893" lon="5.75346">
        <ele>760.6</ele>
        <time>2015-04-05T06:39:57Z</time>
      </trkpt>
      <trkpt lat="44.51878" lon="5.75355">
        <ele>760.5</ele>
        <time>2015-04-05T06:39:59Z</time>
      </trkpt>
      <trkpt lat="44.51864" lon="5.75364">
        <ele>760.3</ele>
        <time>2015-04-05T06:40:01Z</time>
      </trkpt>
      <trkpt lat="44.51851" lon="5.75373">
        <ele>760.3</ele>
        <time>2015-04-05T06:40:03Z</time>
      </trkpt>
      <trkpt lat="44.51837" lon="5.75382">
        <ele>760.2</ele>
        <time>2015-04-05T06:40:05Z</time>
      </trkpt>
      <trkpt lat="44.51823" lon="5.75389">
        <ele>759.9</ele>
        <time>2015-04-05T06:40:07Z</time>
      </trkpt>
      <trkpt lat="44.51809" lon="5.75398">
        <ele>759.5</ele>
        <time>2015-04-05T06:40:09Z</time>
      </trkpt>
      <trkpt lat="44.51796" lon="5.75406">
        <ele>759.3</ele>
        <time>2015-04-05T06:40:11Z</time>
      </trkpt>
      <trkpt lat="44.51783" lon="5.75414">
        <ele>759.1</ele>
        <time>2015-04-05T06:40:13Z</time>
      </trkpt>
      <trkpt lat="44.5177" lon="5.75422">
        <ele>758.7</ele>
        <time>2015-04-05T06:40:15Z</time>
      </trkpt>
      <trkpt lat="44.51758" lon="5.75429">
        <ele>758.1</ele>
        <time>2015-04-05T06:40:17Z</time>
      </trkpt>
      <trkpt lat="44.51746" lon="5.75437">
        <ele>757.7</ele>
        <time>2015-04-05T06:40:19Z</time>
      </trkpt>
      <trkpt lat="44.51734" lon="5.75444">
        <ele>757.4</ele>
        <time>2015-04-05T06:40:21Z</time>
      </trkpt>
      <trkpt lat="44.51723" lon="5.75451">
        <ele>757.1</ele>
        <time>2015-04-05T06:40:23Z</time>
      </trkpt>
      <trkpt lat="44.51711" lon="5.75456">
        <ele>757</ele>
        <time>2015-04-05T06:40:25Z</time>
      </trkpt>
      <trkpt lat="44.51702" lon="5.75462">
        <ele>757</ele>
        <time>2015-04-05T06:40:27Z</time>
      </trkpt>
      <trkpt lat="44.51696" lon="5.75475">
        <ele>757.2</ele>
        <time>2015-04-05T06:40:30Z</time>
      </trkpt>
      <trkpt lat="44.51699" lon="5.75489">
        <ele>757.4</ele>
        <time>2015-04-05T06:40:33Z</time>
      </trkpt>
      <trkpt lat="44.51702" lon="5.75503">
        <ele>757.5</ele>
        <time>2015-04-05T06:40:40Z</time>
      </trkpt>
      <trkpt lat="44.51703" lon="5.75516">
        <ele>757.2</ele>
        <time>2015-04-05T06:40:50Z</time>
      </trkpt>
      <trkpt lat="44.51706" lon="5.75528">
        <ele>756.9</ele>
        <time>2015-04-05T06:40:58Z</time>
      </trkpt>
      <trkpt lat="44.51697" lon="5.75528">
        <ele>757</ele>
        <time>2015-04-05T06:41:17Z</time>
      </trkpt>
      <trkpt lat="44.51692" lon="5.75517">
        <ele>757.3</ele>
        <time>2015-04-05T06:41:20Z</time>
      </trkpt>
      <trkpt lat="44.51689" lon="5.75505">
        <ele>757.6</ele>
        <time>2015-04-05T06:41:23Z</time>
      </trkpt>
      <trkpt lat="44.51685" lon="5.75491">
        <ele>757.5</ele>
        <time>2015-04-05T06:41:27Z</time>
      </trkpt>
      <trkpt lat="44.51675" lon="5.75488">
        <ele>757.5</ele>
        <time>2015-04-05T06:41:30Z</time>
      </trkpt>
      <trkpt lat="44.51664" lon="5.75493">
        <ele>757.7</ele>
        <time>2015-04-05T06:41:34Z</time>
      </trkpt>
      <trkpt lat="44.51653" lon="5.755">
        <ele>757.7</ele>
        <time>2015-04-05T06:41:38Z</time>
      </trkpt>
      <trkpt lat="44.51643" lon="5.75506">
        <ele>757.3</ele>
        <time>2015-04-05T06:41:42Z</time>
      </trkpt>
      <trkpt lat="44.51634" lon="5.75513">
        <ele>757.1</ele>
        <time>2015-04-05T06:41:46Z</time>
      </trkpt>
      <trkpt lat="44.51624" lon="5.75523">
        <ele>756.9</ele>
        <time>2015-04-05T06:41:50Z</time>
      </trkpt>
      <trkpt lat="44.51617" lon="5.75531">
        <ele>756.7</ele>
        <time>2015-04-05T06:41:53Z</time>
      </trkpt>
      <trkpt lat="44.5161" lon="5.7554">
        <ele>756.7</ele>
        <time>2015-04-05T06:41:56Z</time>
      </trkpt>
      <trkpt lat="44.51603" lon="5.75552">
        <ele>756.7</ele>
        <time>2015-04-05T06:42:00Z</time>
      </trkpt>
      <trkpt lat="44.51597" lon="5.75565">
        <ele>756.7</ele>
        <time>2015-04-05T06:42:04Z</time>
      </trkpt>
      <trkpt lat="44.51589" lon="5.75576">
        <ele>756.9</ele>
        <time>2015-04-05T06:42:08Z</time>
      </trkpt>
      <trkpt lat="44.51581" lon="5.75585">
        <ele>756.9</ele>
        <time>2015-04-05T06:42:12Z</time>
      </trkpt>
      <trkpt lat="44.51579" lon="5.75597">
        <ele>756.7</ele>
        <time>2015-04-05T06:42:27Z</time>
      </trkpt>
      <trkpt lat="44.51587" lon="5.75607">
        <ele>756.4</ele>
        <time>2015-04-05T06:42:31Z</time>
      </trkpt>
      <trkpt lat="44.51594" lon="5.75615">
        <ele>756.2</ele>
        <time>2015-04-05T06:42:39Z</time>
      </trkpt>
      <trkpt lat="44.51602" lon="5.75622">
        <ele>756</ele>
        <time>2015-04-05T06:42:52Z</time>
      </trkpt>
      <trkpt lat="44.51611" lon="5.75632">
        <ele>755.7</ele>
        <time>2015-04-05T06:42:57Z</time>
      </trkpt>
      <trkpt lat="44.51621" lon="5.7564">
        <ele>755.5</ele>
        <time>2015-04-05T06:43:00Z</time>
      </trkpt>
      <trkpt lat="44.5163" lon="5.7565">
        <ele>755.3</ele>
        <time>2015-04-05T06:43:03Z</time>
      </trkpt>
      <trkpt lat="44.5164" lon="5.7566">
        <ele>755.1</ele>
        <time>2015-04-05T06:43:06Z</time>
      </trkpt>
      <trkpt lat="44.51649" lon="5.7567">
        <ele>755.1</ele>
        <time>2015-04-05T06:43:09Z</time>
      </trkpt>
      <trkpt lat="44.51657" lon="5.75679">
        <ele>755.5</ele>
        <time>2015-04-05T06:43:12Z</time>
      </trkpt>
      <trkpt lat="44.51665" lon="5.75687">
        <ele>755.7</ele>
        <time>2015-04-05T06:43:15Z</time>
      </trkpt>
      <trkpt lat="44.51674" lon="5.75696">
        <ele>756.1</ele>
        <time>2015-04-05T06:43:18Z</time>
      </trkpt>
      <trkpt lat="44.51682" lon="5.75703">
        <ele>756.4</ele>
        <time>2015-04-05T06:43:24Z</time>
      </trkpt>
      <trkpt lat="44.5169" lon="5.75707">
        <ele>756.6</ele>
        <time>2015-04-05T06:43:42Z</time>
      </trkpt>
      <trkpt lat="44.51699" lon="5.75715">
        <ele>756.9</ele>
        <time>2015-04-05T06:43:51Z</time>
      </trkpt>
      <trkpt lat="44.51706" lon="5.75722">
        <ele>757.1</ele>
        <time>2015-04-05T06:43:56Z</time>
      </trkpt>
      <trkpt lat="44.51715" lon="5.75726">
        <ele>757.3</ele>
        <time>2015-04-05T06:44:18Z</time>
      </trkpt>
      <trkpt lat="44.51708" lon="5.75716">
        <ele>757</ele>
        <time>2015-04-05T06:44:45Z</time>
      </trkpt>
      <trkpt lat="44.51702" lon="5.75726">
        <ele>757.2</ele>
        <time>2015-04-05T06:44:56Z</time>
      </trkpt>
      <trkpt lat="44.51706" lon="5.75738">
        <ele>757.6</ele>
        <time>2015-04-05T06:45:26Z</time>
      </trkpt>
      <trkpt lat="44.51701" lon="5.75726">
        <ele>757.2</ele>
        <time>2015-04-05T06:46:30Z</time>
      </trkpt>
      <trkpt lat="44.51711" lon="5.75726">
        <ele>757.3</ele>
        <time>2015-04-05T06:46:44Z</time>
      </trkpt>
      <trkpt lat="44.51722" lon="5.75731">
        <ele>757.4</ele>
        <time>2015-04-05T06:46:48Z</time>
      </trkpt>
      <trkpt lat="44.51731" lon="5.75732">
        <ele>757.5</ele>
        <time>2015-04-05T06:46:51Z</time>
      </trkpt>
      <trkpt lat="44.5174" lon="5.75732">
        <ele>757.5</ele>
        <time>2015-04-05T06:46:54Z</time>
      </trkpt>
      <trkpt lat="44.51752" lon="5.7573">
        <ele>757.4</ele>
        <time>2015-04-05T06:46:58Z</time>
      </trkpt>
      <trkpt lat="44.51761" lon="5.75728">
        <ele>757</ele>
        <time>2015-04-05T06:47:03Z</time>
      </trkpt>
      <trkpt lat="44.5177" lon="5.75723">
        <ele>756.6</ele>
        <time>2015-04-05T06:47:20Z</time>
      </trkpt>
      <trkpt lat="44.5178" lon="5.75718">
        <ele>756.2</ele>
        <time>2015-04-05T06:47:25Z</time>
      </trkpt>
      <trkpt lat="44.5179" lon="5.7571">
        <ele>755.8</ele>
        <time>2015-04-05T06:47:30Z</time>
      </trkpt>
      <trkpt lat="44.51798" lon="5.75703">
        <ele>755.5</ele>
        <time>2015-04-05T06:47:33Z</time>
      </trkpt>
      <trkpt lat="44.51806" lon="5.75696">
        <ele>755.3</ele>
        <time>2015-04-05T06:47:36Z</time>
      </trkpt>
      <trkpt lat="44.51814" lon="5.75688">
        <ele>755.2</ele>
        <time>2015-04-05T06:47:40Z</time>
      </trkpt>
      <trkpt lat="44.51822" lon="5.7568">
        <ele>755</ele>
        <time>2015-04-05T06:47:44Z</time>
      </trkpt>
      <trkpt lat="44.51831" lon="5.75672">
        <ele>755</ele>
        <time>2015-04-05T06:47:48Z</time>
      </trkpt>
      <trkpt lat="44.51838" lon="5.75664">
        <ele>755.1</ele>
        <time>2015-04-05T06:47:52Z</time>
      </trkpt>
      <trkpt lat="44.51843" lon="5.75652">
        <ele>755.5</ele>
        <time>2015-04-05T06:48:01Z</time>
      </trkpt>
      <trkpt lat="44.51837" lon="5.75666">
        <ele>755.1</ele>
        <time>2015-04-05T06:48:25Z</time>
      </trkpt>
      <trkpt lat="44.51827" lon="5.75675">
        <ele>755</ele>
        <time>2015-04-05T06:48:29Z</time>
      </trkpt>
      <trkpt lat="44.51818" lon="5.75683">
        <ele>755.1</ele>
        <time>2015-04-05T06:48:32Z</time>
      </trkpt>
      <trkpt lat="44.51809" lon="5.75691">
        <ele>755.2</ele>
        <time>2015-04-05T06:48:35Z</time>
      </trkpt>
      <trkpt lat="44.518" lon="5.75699">
        <ele>755.5</ele>
        <time>2015-04-05T06:48:38Z</time>
      </trkpt>
      <trkpt lat="44.51791" lon="5.75707">
        <ele>755.8</ele>
        <time>2015-04-05T06:48:41Z</time>
      </trkpt>
      <trkpt lat="44.51783" lon="5.75712">
        <ele>756.1</ele>
        <time>2015-04-05T06:48:48Z</time>
      </trkpt>
      <trkpt lat="44.51777" lon="5.75723">
        <ele>756.4</ele>
        <time>2015-04-05T06:49:02Z</time>
      </trkpt>
      <trkpt lat="44.51781" lon="5.75735">
        <ele>756.4</ele>
        <time>2015-04-05T06:49:17Z</time>
      </trkpt>
      <trkpt lat="44.51785" lon="5.75747">
        <ele>756.3</ele>
        <time>2015-04-05T06:49:24Z</time>
      </trkpt>
      <trkpt lat="44.51792" lon="5.75757">
        <ele>756.3</ele>
        <time>2015-04-05T06:49:27Z</time>
      </trkpt>
      <trkpt lat="44.51799" lon="5.75767">
        <ele>756.4</ele>
        <time>2015-04-05T06:49:30Z</time>
      </trkpt>
      <trkpt lat="44.51807" lon="5.75778">
        <ele>756.6</ele>
        <time>2015-04-05T06:49:33Z</time>
      </trkpt>
      <trkpt lat="44.51815" lon="5.75788">
        <ele>756.8</ele>
        <time>2015-04-05T06:49:36Z</time>
      </trkpt>
      <trkpt lat="44.51825" lon="5.75799">
        <ele>757.1</ele>
        <time>2015-04-05T06:49:39Z</time>
      </trkpt>
      <trkpt lat="44.51834" lon="5.75809">
        <ele>757.5</ele>
        <time>2015-04-05T06:49:42Z</time>
      </trkpt>
      <trkpt lat="44.51844" lon="5.7582">
        <ele>758.2</ele>
        <time>2015-04-05T06:49:45Z</time>
      </trkpt>
      <trkpt lat="44.51851" lon="5.75829">
        <ele>758.7</ele>
        <time>2015-04-05T06:49:48Z</time>
      </trkpt>
      <trkpt lat="44.51859" lon="5.75837">
        <ele>759.3</ele>
        <time>2015-04-05T06:49:51Z</time>
      </trkpt>
      <trkpt lat="44.51868" lon="5.75844">
        <ele>759.8</ele>
        <time>2015-04-05T06:49:54Z</time>
      </trkpt>
      <trkpt lat="44.51876" lon="5.7585">
        <ele>760.2</ele>
        <time>2015-04-05T06:49:57Z</time>
      </trkpt>
      <trkpt lat="44.51887" lon="5.75857">
        <ele>760.6</ele>
        <time>2015-04-05T06:50:00Z</time>
      </trkpt>
      <trkpt lat="44.51897" lon="5.75865">
        <ele>760.9</ele>
        <time>2015-04-05T06:50:03Z</time>
      </trkpt>
      <trkpt lat="44.51907" lon="5.75871">
        <ele>761</ele>
        <time>2015-04-05T06:50:06Z</time>
      </trkpt>
      <trkpt lat="44.51916" lon="5.75879">
        <ele>761.2</ele>
        <time>2015-04-05T06:50:09Z</time>
      </trkpt>
      <trkpt lat="44.51924" lon="5.75887">
        <ele>761.3</ele>
        <time>2015-04-05T06:50:12Z</time>
      </trkpt>
      <trkpt lat="44.51932" lon="5.75897">
        <ele>761.4</ele>
        <time>2015-04-05T06:50:15Z</time>
      </trkpt>
      <trkpt lat="44.51939" lon="5.75906">
        <ele>761.5</ele>
        <time>2015-04-05T06:50:18Z</time>
      </trkpt>
      <trkpt lat="44.51946" lon="5.75915">
        <ele>761.5</ele>
        <time>2015-04-05T06:50:21Z</time>
      </trkpt>
      <trkpt lat="44.51954" lon="5.75924">
        <ele>761.3</ele>
        <time>2015-04-05T06:50:24Z</time>
      </trkpt>
      <trkpt lat="44.51962" lon="5.75934">
        <ele>761.2</ele>
        <time>2015-04-05T06:50:27Z</time>
      </trkpt>
      <trkpt lat="44.5197" lon="5.75945">
        <ele>761.2</ele>
        <time>2015-04-05T06:50:30Z</time>
      </trkpt>
      <trkpt lat="44.51979" lon="5.75956">
        <ele>761.2</ele>
        <time>2015-04-05T06:50:33Z</time>
      </trkpt>
      <trkpt lat="44.51987" lon="5.75967">
        <ele>761.2</ele>
        <time>2015-04-05T06:50:36Z</time>
      </trkpt>
      <trkpt lat="44.51995" lon="5.75977">
        <ele>761.3</ele>
        <time>2015-04-05T06:50:39Z</time>
      </trkpt>
      <trkpt lat="44.52003" lon="5.75987">
        <ele>761.4</ele>
        <time>2015-04-05T06:50:42Z</time>
      </trkpt>
      <trkpt lat="44.52011" lon="5.75999">
        <ele>761.4</ele>
        <time>2015-04-05T06:50:45Z</time>
      </trkpt>
      <trkpt lat="44.52018" lon="5.76008">
        <ele>761.3</ele>
        <time>2015-04-05T06:50:48Z</time>
      </trkpt>
      <trkpt lat="44.52025" lon="5.76018">
        <ele>761.2</ele>
        <time>2015-04-05T06:50:51Z</time>
      </trkpt>
      <trkpt lat="44.52031" lon="5.76029">
        <ele>761.1</ele>
        <time>2015-04-05T06:50:55Z</time>
      </trkpt>
      <trkpt lat="44.52037" lon="5.76039">
        <ele>760.9</ele>
        <time>2015-04-05T06:50:59Z</time>
      </trkpt>
      <trkpt lat="44.52043" lon="5.7605">
        <ele>760.8</ele>
        <time>2015-04-05T06:51:02Z</time>
      </trkpt>
      <trkpt lat="44.5205" lon="5.76064">
        <ele>760.7</ele>
        <time>2015-04-05T06:51:06Z</time>
      </trkpt>
      <trkpt lat="44.52056" lon="5.76075">
        <ele>760.5</ele>
        <time>2015-04-05T06:51:09Z</time>
      </trkpt>
      <trkpt lat="44.52062" lon="5.76087">
        <ele>760.3</ele>
        <time>2015-04-05T06:51:12Z</time>
      </trkpt>
      <trkpt lat="44.5207" lon="5.76099">
        <ele>760</ele>
        <time>2015-04-05T06:51:15Z</time>
      </trkpt>
      <trkpt lat="44.52077" lon="5.76111">
        <ele>759.5</ele>
        <time>2015-04-05T06:51:18Z</time>
      </trkpt>
      <trkpt lat="44.52083" lon="5.76123">
        <ele>759</ele>
        <time>2015-04-05T06:51:21Z</time>
      </trkpt>
      <trkpt lat="44.52091" lon="5.76138">
        <ele>759.1</ele>
        <time>2015-04-05T06:51:24Z</time>
      </trkpt>
      <trkpt lat="44.52098" lon="5.76151">
        <ele>759.2</ele>
        <time>2015-04-05T06:51:27Z</time>
      </trkpt>
      <trkpt lat="44.52105" lon="5.76164">
        <ele>759.3</ele>
        <time>2015-04-05T06:51:30Z</time>
      </trkpt>
      <trkpt lat="44.52113" lon="5.76176">
        <ele>759.5</ele>
        <time>2015-04-05T06:51:33Z</time>
      </trkpt>
      <trkpt lat="44.5212" lon="5.76189">
        <ele>759.8</ele>
        <time>2015-04-05T06:51:36Z</time>
      </trkpt>
      <trkpt lat="44.52127" lon="5.76201">
        <ele>760.1</ele>
        <time>2015-04-05T06:51:39Z</time>
      </trkpt>
      <trkpt lat="44.52133" lon="5.76213">
        <ele>760.4</ele>
        <time>2015-04-05T06:51:42Z</time>
      </trkpt>
      <trkpt lat="44.52141" lon="5.76226">
        <ele>760.6</ele>
        <time>2015-04-05T06:51:45Z</time>
      </trkpt>
      <trkpt lat="44.52148" lon="5.76239">
        <ele>760.8</ele>
        <time>2015-04-05T06:51:48Z</time>
      </trkpt>
      <trkpt lat="44.52155" lon="5.7625">
        <ele>761</ele>
        <time>2015-04-05T06:51:51Z</time>
      </trkpt>
      <trkpt lat="44.52161" lon="5.76261">
        <ele>761.3</ele>
        <time>2015-04-05T06:51:58Z</time>
      </trkpt>
      <trkpt lat="44.5217" lon="5.76267">
        <ele>761.5</ele>
        <time>2015-04-05T06:52:24Z</time>
      </trkpt>
      <trkpt lat="44.52175" lon="5.7628">
        <ele>762.1</ele>
        <time>2015-04-05T06:52:29Z</time>
      </trkpt>
      <trkpt lat="44.52182" lon="5.76293">
        <ele>762.6</ele>
        <time>2015-04-05T06:52:32Z</time>
      </trkpt>
      <trkpt lat="44.52189" lon="5.76306">
        <ele>763.2</ele>
        <time>2015-04-05T06:52:36Z</time>
      </trkpt>
      <trkpt lat="44.52195" lon="5.76316">
        <ele>763.7</ele>
        <time>2015-04-05T06:52:39Z</time>
      </trkpt>
      <trkpt lat="44.522" lon="5.76329">
        <ele>764.1</ele>
        <time>2015-04-05T06:52:43Z</time>
      </trkpt>
      <trkpt lat="44.52206" lon="5.76339">
        <ele>764.4</ele>
        <time>2015-04-05T06:52:46Z</time>
      </trkpt>
      <trkpt lat="44.52212" lon="5.7635">
        <ele>764.6</ele>
        <time>2015-04-05T06:52:49Z</time>
      </trkpt>
      <trkpt lat="44.52218" lon="5.76361">
        <ele>764.8</ele>
        <time>2015-04-05T06:52:52Z</time>
      </trkpt>
      <trkpt lat="44.52223" lon="5.76371">
        <ele>765</ele>
        <time>2015-04-05T06:52:55Z</time>
      </trkpt>
      <trkpt lat="44.52229" lon="5.76381">
        <ele>765.3</ele>
        <time>2015-04-05T06:52:58Z</time>
      </trkpt>
      <trkpt lat="44.52235" lon="5.76392">
        <ele>765.5</ele>
        <time>2015-04-05T06:53:01Z</time>
      </trkpt>
      <trkpt lat="44.52242" lon="5.76403">
        <ele>765.7</ele>
        <time>2015-04-05T06:53:04Z</time>
      </trkpt>
      <trkpt lat="44.52248" lon="5.76414">
        <ele>765.9</ele>
        <time>2015-04-05T06:53:07Z</time>
      </trkpt>
      <trkpt lat="44.52255" lon="5.76426">
        <ele>765.7</ele>
        <time>2015-04-05T06:53:10Z</time>
      </trkpt>
      <trkpt lat="44.52261" lon="5.76437">
        <ele>765.5</ele>
        <time>2015-04-05T06:53:13Z</time>
      </trkpt>
      <trkpt lat="44.52267" lon="5.76448">
        <ele>765.2</ele>
        <time>2015-04-05T06:53:16Z</time>
      </trkpt>
      <trkpt lat="44.52273" lon="5.76459">
        <ele>765.1</ele>
        <time>2015-04-05T06:53:19Z</time>
      </trkpt>
      <trkpt lat="44.5228" lon="5.76471">
        <ele>765</ele>
        <time>2015-04-05T06:53:22Z</time>
      </trkpt>
      <trkpt lat="44.52286" lon="5.76483">
        <ele>764.9</ele>
        <time>2015-04-05T06:53:25Z</time>
      </trkpt>
      <trkpt lat="44.52293" lon="5.76496">
        <ele>765</ele>
        <time>2015-04-05T06:53:28Z</time>
      </trkpt>
      <trkpt lat="44.52299" lon="5.76507">
        <ele>765</ele>
        <time>2015-04-05T06:53:31Z</time>
      </trkpt>
      <trkpt lat="44.52306" lon="5.76521">
        <ele>765.2</ele>
        <time>2015-04-05T06:53:35Z</time>
      </trkpt>
      <trkpt lat="44.52312" lon="5.76532">
        <ele>765.3</ele>
        <time>2015-04-05T06:53:38Z</time>
      </trkpt>
      <trkpt lat="44.5232" lon="5.76543">
        <ele>765.4</ele>
        <time>2015-04-05T06:53:41Z</time>
      </trkpt>
      <trkpt lat="44.5233" lon="5.76553">
        <ele>765.6</ele>
        <time>2015-04-05T06:53:44Z</time>
      </trkpt>
      <trkpt lat="44.5234" lon="5.76561">
        <ele>765.9</ele>
        <time>2015-04-05T06:53:47Z</time>
      </trkpt>
      <trkpt lat="44.52351" lon="5.76567">
        <ele>766.2</ele>
        <time>2015-04-05T06:53:50Z</time>
      </trkpt>
      <trkpt lat="44.5236" lon="5.76572">
        <ele>766.5</ele>
        <time>2015-04-05T06:53:53Z</time>
      </trkpt>
      <trkpt lat="44.5237" lon="5.76576">
        <ele>766.8</ele>
        <time>2015-04-05T06:53:56Z</time>
      </trkpt>
      <trkpt lat="44.52381" lon="5.76581">
        <ele>767.1</ele>
        <time>2015-04-05T06:53:59Z</time>
      </trkpt>
      <trkpt lat="44.52391" lon="5.76584">
        <ele>767.4</ele>
        <time>2015-04-05T06:54:02Z</time>
      </trkpt>
      <trkpt lat="44.524" lon="5.76588">
        <ele>767.5</ele>
        <time>2015-04-05T06:54:05Z</time>
      </trkpt>
      <trkpt lat="44.52412" lon="5.76592">
        <ele>767.7</ele>
        <time>2015-04-05T06:54:09Z</time>
      </trkpt>
      <trkpt lat="44.52422" lon="5.76595">
        <ele>767.7</ele>
        <time>2015-04-05T06:54:12Z</time>
      </trkpt>
      <trkpt lat="44.52433" lon="5.76599">
        <ele>767.7</ele>
        <time>2015-04-05T06:54:15Z</time>
      </trkpt>
      <trkpt lat="44.52444" lon="5.76602">
        <ele>767.6</ele>
        <time>2015-04-05T06:54:18Z</time>
      </trkpt>
      <trkpt lat="44.52455" lon="5.76605">
        <ele>767.6</ele>
        <time>2015-04-05T06:54:21Z</time>
      </trkpt>
      <trkpt lat="44.52467" lon="5.76608">
        <ele>767.6</ele>
        <time>2015-04-05T06:54:24Z</time>
      </trkpt>
      <trkpt lat="44.52479" lon="5.76612">
        <ele>767.6</ele>
        <time>2015-04-05T06:54:27Z</time>
      </trkpt>
      <trkpt lat="44.5249" lon="5.76614">
        <ele>767.6</ele>
        <time>2015-04-05T06:54:30Z</time>
      </trkpt>
      <trkpt lat="44.52502" lon="5.76617">
        <ele>767.6</ele>
        <time>2015-04-05T06:54:33Z</time>
      </trkpt>
      <trkpt lat="44.52512" lon="5.76622">
        <ele>767.5</ele>
        <time>2015-04-05T06:54:36Z</time>
      </trkpt>
      <trkpt lat="44.52523" lon="5.76626">
        <ele>767.4</ele>
        <time>2015-04-05T06:54:39Z</time>
      </trkpt>
      <trkpt lat="44.52533" lon="5.76629">
        <ele>767.3</ele>
        <time>2015-04-05T06:54:42Z</time>
      </trkpt>
      <trkpt lat="44.52544" lon="5.76632">
        <ele>767.2</ele>
        <time>2015-04-05T06:54:45Z</time>
      </trkpt>
      <trkpt lat="44.52555" lon="5.76635">
        <ele>767.1</ele>
        <time>2015-04-05T06:54:48Z</time>
      </trkpt>
      <trkpt lat="44.52566" lon="5.76638">
        <ele>767.1</ele>
        <time>2015-04-05T06:54:51Z</time>
      </trkpt>
      <trkpt lat="44.52577" lon="5.76642">
        <ele>767</ele>
        <time>2015-04-05T06:54:54Z</time>
      </trkpt>
      <trkpt lat="44.52589" lon="5.76644">
        <ele>767.1</ele>
        <time>2015-04-05T06:54:57Z</time>
      </trkpt>
      <trkpt lat="44.526" lon="5.76646">
        <ele>767.3</ele>
        <time>2015-04-05T06:55:00Z</time>
      </trkpt>
      <trkpt lat="44.52609" lon="5.76649">
        <ele>767.5</ele>
        <time>2015-04-05T06:55:03Z</time>
      </trkpt>
      <trkpt lat="44.5262" lon="5.76654">
        <ele>767.7</ele>
        <time>2015-04-05T06:55:07Z</time>
      </trkpt>
      <trkpt lat="44.52631" lon="5.76659">
        <ele>768</ele>
        <time>2015-04-05T06:55:11Z</time>
      </trkpt>
      <trkpt lat="44.52639" lon="5.76663">
        <ele>768.3</ele>
        <time>2015-04-05T06:55:18Z</time>
      </trkpt>
      <trkpt lat="44.52648" lon="5.76663">
        <ele>768.5</ele>
        <time>2015-04-05T06:55:44Z</time>
      </trkpt>
      <trkpt lat="44.52656" lon="5.76671">
        <ele>768.7</ele>
        <time>2015-04-05T06:57:36Z</time>
      </trkpt>
      <trkpt lat="44.52663" lon="5.76681">
        <ele>768.9</ele>
        <time>2015-04-05T06:57:39Z</time>
      </trkpt>
      <trkpt lat="44.52671" lon="5.76693">
        <ele>769</ele>
        <time>2015-04-05T06:57:42Z</time>
      </trkpt>
      <trkpt lat="44.52679" lon="5.76703">
        <ele>768.9</ele>
        <time>2015-04-05T06:57:45Z</time>
      </trkpt>
      <trkpt lat="44.52688" lon="5.76714">
        <ele>768.9</ele>
        <time>2015-04-05T06:57:48Z</time>
      </trkpt>
      <trkpt lat="44.52696" lon="5.76725">
        <ele>768.9</ele>
        <time>2015-04-05T06:57:51Z</time>
      </trkpt>
      <trkpt lat="44.52704" lon="5.76736">
        <ele>768.9</ele>
        <time>2015-04-05T06:57:54Z</time>
      </trkpt>
      <trkpt lat="44.52713" lon="5.76747">
        <ele>769</ele>
        <time>2015-04-05T06:57:57Z</time>
      </trkpt>
      <trkpt lat="44.52723" lon="5.76758">
        <ele>769.1</ele>
        <time>2015-04-05T06:58:00Z</time>
      </trkpt>
      <trkpt lat="44.52731" lon="5.7677">
        <ele>769.2</ele>
        <time>2015-04-05T06:58:03Z</time>
      </trkpt>
      <trkpt lat="44.52739" lon="5.7678">
        <ele>769.3</ele>
        <time>2015-04-05T06:58:06Z</time>
      </trkpt>
      <trkpt lat="44.52747" lon="5.7679">
        <ele>769.5</ele>
        <time>2015-04-05T06:58:09Z</time>
      </trkpt>
      <trkpt lat="44.52754" lon="5.76799">
        <ele>769.5</ele>
        <time>2015-04-05T06:58:12Z</time>
      </trkpt>
      <trkpt lat="44.52761" lon="5.76809">
        <ele>769.5</ele>
        <time>2015-04-05T06:58:15Z</time>
      </trkpt>
      <trkpt lat="44.52769" lon="5.76819">
        <ele>769.6</ele>
        <time>2015-04-05T06:58:18Z</time>
      </trkpt>
      <trkpt lat="44.52777" lon="5.76829">
        <ele>769.6</ele>
        <time>2015-04-05T06:58:21Z</time>
      </trkpt>
      <trkpt lat="44.52785" lon="5.76839">
        <ele>769.5</ele>
        <time>2015-04-05T06:58:24Z</time>
      </trkpt>
      <trkpt lat="44.52793" lon="5.7685">
        <ele>769.4</ele>
        <time>2015-04-05T06:58:27Z</time>
      </trkpt>
      <trkpt lat="44.52801" lon="5.7686">
        <ele>769.3</ele>
        <time>2015-04-05T06:58:30Z</time>
      </trkpt>
      <trkpt lat="44.52809" lon="5.76871">
        <ele>769.2</ele>
        <time>2015-04-05T06:58:33Z</time>
      </trkpt>
      <trkpt lat="44.52817" lon="5.76882">
        <ele>769.1</ele>
        <time>2015-04-05T06:58:36Z</time>
      </trkpt>
      <trkpt lat="44.52825" lon="5.76892">
        <ele>769</ele>
        <time>2015-04-05T06:58:39Z</time>
      </trkpt>
      <trkpt lat="44.52834" lon="5.76902">
        <ele>769</ele>
        <time>2015-04-05T06:58:42Z</time>
      </trkpt>
      <trkpt lat="44.52842" lon="5.76913">
        <ele>769</ele>
        <time>2015-04-05T06:58:45Z</time>
      </trkpt>
      <trkpt lat="44.5285" lon="5.76923">
        <ele>769</ele>
        <time>2015-04-05T06:58:48Z</time>
      </trkpt>
      <trkpt lat="44.52858" lon="5.76934">
        <ele>769</ele>
        <time>2015-04-05T06:58:51Z</time>
      </trkpt>
      <trkpt lat="44.52866" lon="5.76945">
        <ele>769</ele>
        <time>2015-04-05T06:58:54Z</time>
      </trkpt>
      <trkpt lat="44.52874" lon="5.76955">
        <ele>769</ele>
        <time>2015-04-05T06:58:57Z</time>
      </trkpt>
      <trkpt lat="44.52882" lon="5.76965">
        <ele>769</ele>
        <time>2015-04-05T06:59:00Z</time>
      </trkpt>
      <trkpt lat="44.52889" lon="5.76973">
        <ele>769</ele>
        <time>2015-04-05T06:59:03Z</time>
      </trkpt>
      <trkpt lat="44.52897" lon="5.76983">
        <ele>769</ele>
        <time>2015-04-05T06:59:07Z</time>
      </trkpt>
      <trkpt lat="44.52903" lon="5.76992">
        <ele>769</ele>
        <time>2015-04-05T06:59:11Z</time>
      </trkpt>
      <trkpt lat="44.5291" lon="5.77002">
        <ele>769</ele>
        <time>2015-04-05T06:59:14Z</time>
      </trkpt>
      <trkpt lat="44.52918" lon="5.77012">
        <ele>769.2</ele>
        <time>2015-04-05T06:59:17Z</time>
      </trkpt>
      <trkpt lat="44.52927" lon="5.77023">
        <ele>769.5</ele>
        <time>2015-04-05T06:59:20Z</time>
      </trkpt>
      <trkpt lat="44.52934" lon="5.77033">
        <ele>769.7</ele>
        <time>2015-04-05T06:59:23Z</time>
      </trkpt>
      <trkpt lat="44.52942" lon="5.77043">
        <ele>770</ele>
        <time>2015-04-05T06:59:26Z</time>
      </trkpt>
      <trkpt lat="44.5295" lon="5.77054">
        <ele>770.2</ele>
        <time>2015-04-05T06:59:29Z</time>
      </trkpt>
      <trkpt lat="44.52958" lon="5.77063">
        <ele>770.4</ele>
        <time>2015-04-05T06:59:32Z</time>
      </trkpt>
      <trkpt lat="44.52967" lon="5.77073">
        <ele>770.5</ele>
        <time>2015-04-05T06:59:35Z</time>
      </trkpt>
      <trkpt lat="44.52974" lon="5.77083">
        <ele>770.7</ele>
        <time>2015-04-05T06:59:38Z</time>
      </trkpt>
      <trkpt lat="44.52983" lon="5.77093">
        <ele>770.9</ele>
        <time>2015-04-05T06:59:41Z</time>
      </trkpt>
      <trkpt lat="44.5299" lon="5.77104">
        <ele>771.1</ele>
        <time>2015-04-05T06:59:44Z</time>
      </trkpt>
      <trkpt lat="44.52998" lon="5.77114">
        <ele>771.3</ele>
        <time>2015-04-05T06:59:47Z</time>
      </trkpt>
      <trkpt lat="44.53006" lon="5.77124">
        <ele>771.5</ele>
        <time>2015-04-05T06:59:50Z</time>
      </trkpt>
      <trkpt lat="44.53015" lon="5.77134">
        <ele>771.7</ele>
        <time>2015-04-05T06:59:53Z</time>
      </trkpt>
      <trkpt lat="44.53023" lon="5.77145">
        <ele>771.9</ele>
        <time>2015-04-05T06:59:56Z</time>
      </trkpt>
      <trkpt lat="44.53031" lon="5.77155">
        <ele>772.2</ele>
        <time>2015-04-05T06:59:59Z</time>
      </trkpt>
      <trkpt lat="44.53039" lon="5.77166">
        <ele>772.4</ele>
        <time>2015-04-05T07:00:02Z</time>
      </trkpt>
      <trkpt lat="44.53047" lon="5.77176">
        <ele>772.7</ele>
        <time>2015-04-05T07:00:05Z</time>
      </trkpt>
      <trkpt lat="44.53055" lon="5.77186">
        <ele>772.9</ele>
        <time>2015-04-05T07:00:08Z</time>
      </trkpt>
      <trkpt lat="44.53062" lon="5.77195">
        <ele>773.1</ele>
        <time>2015-04-05T07:00:11Z</time>
      </trkpt>
      <trkpt lat="44.5307" lon="5.77206">
        <ele>773.3</ele>
        <time>2015-04-05T07:00:14Z</time>
      </trkpt>
      <trkpt lat="44.53078" lon="5.77217">
        <ele>773.5</ele>
        <time>2015-04-05T07:00:17Z</time>
      </trkpt>
      <trkpt lat="44.53086" lon="5.77227">
        <ele>773.7</ele>
        <time>2015-04-05T07:00:20Z</time>
      </trkpt>
      <trkpt lat="44.53094" lon="5.77237">
        <ele>773.7</ele>
        <time>2015-04-05T07:00:23Z</time>
      </trkpt>
      <trkpt lat="44.53101" lon="5.77247">
        <ele>773.7</ele>
        <time>2015-04-05T07:00:26Z</time>
      </trkpt>
      <trkpt lat="44.53108" lon="5.77256">
        <ele>773.7</ele>
        <time>2015-04-05T07:00:29Z</time>
      </trkpt>
      <trkpt lat="44.53116" lon="5.77266">
        <ele>773.7</ele>
        <time>2015-04-05T07:00:32Z</time>
      </trkpt>
      <trkpt lat="44.53124" lon="5.77276">
        <ele>773.7</ele>
        <time>2015-04-05T07:00:35Z</time>
      </trkpt>
      <trkpt lat="44.53131" lon="5.77285">
        <ele>773.7</ele>
        <time>2015-04-05T07:00:38Z</time>
      </trkpt>
      <trkpt lat="44.53139" lon="5.77296">
        <ele>773.7</ele>
        <time>2015-04-05T07:00:41Z</time>
      </trkpt>
      <trkpt lat="44.53147" lon="5.77306">
        <ele>773.7</ele>
        <time>2015-04-05T07:00:44Z</time>
      </trkpt>
      <trkpt lat="44.53154" lon="5.77316">
        <ele>773.8</ele>
        <time>2015-04-05T07:00:47Z</time>
      </trkpt>
      <trkpt lat="44.53162" lon="5.77325">
        <ele>773.9</ele>
        <time>2015-04-05T07:00:52Z</time>
      </trkpt>
      <trkpt lat="44.5317" lon="5.77337">
        <ele>774</ele>
        <time>2015-04-05T07:00:56Z</time>
      </trkpt>
      <trkpt lat="44.53178" lon="5.77346">
        <ele>774.2</ele>
        <time>2015-04-05T07:00:59Z</time>
      </trkpt>
      <trkpt lat="44.53185" lon="5.77356">
        <ele>774.3</ele>
        <time>2015-04-05T07:01:02Z</time>
      </trkpt>
      <trkpt lat="44.53193" lon="5.77365">
        <ele>774.4</ele>
        <time>2015-04-05T07:01:05Z</time>
      </trkpt>
      <trkpt lat="44.53199" lon="5.77374">
        <ele>774.6</ele>
        <time>2015-04-05T07:01:08Z</time>
      </trkpt>
      <trkpt lat="44.53206" lon="5.77383">
        <ele>774.7</ele>
        <time>2015-04-05T07:01:13Z</time>
      </trkpt>
      <trkpt lat="44.53212" lon="5.77393">
        <ele>774.9</ele>
        <time>2015-04-05T07:01:29Z</time>
      </trkpt>
      <trkpt lat="44.53219" lon="5.77403">
        <ele>775.1</ele>
        <time>2015-04-05T07:01:38Z</time>
      </trkpt>
      <trkpt lat="44.53228" lon="5.77414">
        <ele>775.4</ele>
        <time>2015-04-05T07:01:42Z</time>
      </trkpt>
      <trkpt lat="44.53236" lon="5.77425">
        <ele>775.7</ele>
        <time>2015-04-05T07:01:45Z</time>
      </trkpt>
      <trkpt lat="44.53245" lon="5.77435">
        <ele>775.9</ele>
        <time>2015-04-05T07:01:48Z</time>
      </trkpt>
      <trkpt lat="44.53252" lon="5.77445">
        <ele>776</ele>
        <time>2015-04-05T07:01:51Z</time>
      </trkpt>
      <trkpt lat="44.5326" lon="5.77457">
        <ele>776</ele>
        <time>2015-04-05T07:01:54Z</time>
      </trkpt>
      <trkpt lat="44.53269" lon="5.77468">
        <ele>776</ele>
        <time>2015-04-05T07:01:57Z</time>
      </trkpt>
      <trkpt lat="44.53278" lon="5.7748">
        <ele>776</ele>
        <time>2015-04-05T07:02:00Z</time>
      </trkpt>
      <trkpt lat="44.53286" lon="5.77492">
        <ele>776</ele>
        <time>2015-04-05T07:02:03Z</time>
      </trkpt>
      <trkpt lat="44.53295" lon="5.77503">
        <ele>776</ele>
        <time>2015-04-05T07:02:06Z</time>
      </trkpt>
      <trkpt lat="44.53304" lon="5.77514">
        <ele>776.2</ele>
        <time>2015-04-05T07:02:09Z</time>
      </trkpt>
      <trkpt lat="44.53312" lon="5.77525">
        <ele>776.3</ele>
        <time>2015-04-05T07:02:12Z</time>
      </trkpt>
      <trkpt lat="44.5332" lon="5.77535">
        <ele>776.4</ele>
        <time>2015-04-05T07:02:15Z</time>
      </trkpt>
      <trkpt lat="44.53329" lon="5.77546">
        <ele>776.5</ele>
        <time>2015-04-05T07:02:18Z</time>
      </trkpt>
      <trkpt lat="44.53338" lon="5.77558">
        <ele>776.7</ele>
        <time>2015-04-05T07:02:21Z</time>
      </trkpt>
      <trkpt lat="44.53347" lon="5.7757">
        <ele>777</ele>
        <time>2015-04-05T07:02:24Z</time>
      </trkpt>
      <trkpt lat="44.53355" lon="5.77581">
        <ele>777.2</ele>
        <time>2015-04-05T07:02:27Z</time>
      </trkpt>
      <trkpt lat="44.53363" lon="5.77591">
        <ele>777.4</ele>
        <time>2015-04-05T07:02:30Z</time>
      </trkpt>
      <trkpt lat="44.53371" lon="5.77602">
        <ele>777.7</ele>
        <time>2015-04-05T07:02:33Z</time>
      </trkpt>
      <trkpt lat="44.5338" lon="5.77614">
        <ele>777.9</ele>
        <time>2015-04-05T07:02:36Z</time>
      </trkpt>
      <trkpt lat="44.53389" lon="5.77625">
        <ele>778.2</ele>
        <time>2015-04-05T07:02:39Z</time>
      </trkpt>
      <trkpt lat="44.53397" lon="5.77636">
        <ele>778.4</ele>
        <time>2015-04-05T07:02:42Z</time>
      </trkpt>
      <trkpt lat="44.53405" lon="5.77648">
        <ele>778.6</ele>
        <time>2015-04-05T07:02:45Z</time>
      </trkpt>
      <trkpt lat="44.53413" lon="5.77659">
        <ele>778.9</ele>
        <time>2015-04-05T07:02:48Z</time>
      </trkpt>
      <trkpt lat="44.53422" lon="5.77671">
        <ele>779</ele>
        <time>2015-04-05T07:02:51Z</time>
      </trkpt>
      <trkpt lat="44.5343" lon="5.77682">
        <ele>779.2</ele>
        <time>2015-04-05T07:02:54Z</time>
      </trkpt>
      <trkpt lat="44.53438" lon="5.77693">
        <ele>779.3</ele>
        <time>2015-04-05T07:02:57Z</time>
      </trkpt>
      <trkpt lat="44.53446" lon="5.77703">
        <ele>779.4</ele>
        <time>2015-04-05T07:03:00Z</time>
      </trkpt>
      <trkpt lat="44.53454" lon="5.77713">
        <ele>779.6</ele>
        <time>2015-04-05T07:03:03Z</time>
      </trkpt>
      <trkpt lat="44.53462" lon="5.77724">
        <ele>779.7</ele>
        <time>2015-04-05T07:03:06Z</time>
      </trkpt>
      <trkpt lat="44.5347" lon="5.77735">
        <ele>779.8</ele>
        <time>2015-04-05T07:03:09Z</time>
      </trkpt>
      <trkpt lat="44.53479" lon="5.77745">
        <ele>779.9</ele>
        <time>2015-04-05T07:03:12Z</time>
      </trkpt>
      <trkpt lat="44.53487" lon="5.77756">
        <ele>780</ele>
        <time>2015-04-05T07:03:15Z</time>
      </trkpt>
      <trkpt lat="44.53496" lon="5.77767">
        <ele>780</ele>
        <time>2015-04-05T07:03:18Z</time>
      </trkpt>
      <trkpt lat="44.53506" lon="5.77777">
        <ele>780</ele>
        <time>2015-04-05T07:03:21Z</time>
      </trkpt>
      <trkpt lat="44.53515" lon="5.77787">
        <ele>780.2</ele>
        <time>2015-04-05T07:03:24Z</time>
      </trkpt>
      <trkpt lat="44.53525" lon="5.77796">
        <ele>780.3</ele>
        <time>2015-04-05T07:03:27Z</time>
      </trkpt>
      <trkpt lat="44.53535" lon="5.77805">
        <ele>780.6</ele>
        <time>2015-04-05T07:03:30Z</time>
      </trkpt>
      <trkpt lat="44.53545" lon="5.77815">
        <ele>780.8</ele>
        <time>2015-04-05T07:03:33Z</time>
      </trkpt>
      <trkpt lat="44.53556" lon="5.77823">
        <ele>781.2</ele>
        <time>2015-04-05T07:03:36Z</time>
      </trkpt>
      <trkpt lat="44.53567" lon="5.77831">
        <ele>781.5</ele>
        <time>2015-04-05T07:03:39Z</time>
      </trkpt>
      <trkpt lat="44.53577" lon="5.77837">
        <ele>781.9</ele>
        <time>2015-04-05T07:03:42Z</time>
      </trkpt>
      <trkpt lat="44.53587" lon="5.77845">
        <ele>782</ele>
        <time>2015-04-05T07:03:45Z</time>
      </trkpt>
      <trkpt lat="44.53598" lon="5.77851">
        <ele>781.8</ele>
        <time>2015-04-05T07:03:48Z</time>
      </trkpt>
      <trkpt lat="44.53608" lon="5.77857">
        <ele>781.7</ele>
        <time>2015-04-05T07:03:51Z</time>
      </trkpt>
      <trkpt lat="44.53619" lon="5.77862">
        <ele>781.6</ele>
        <time>2015-04-05T07:03:54Z</time>
      </trkpt>
      <trkpt lat="44.53629" lon="5.77867">
        <ele>781.4</ele>
        <time>2015-04-05T07:03:57Z</time>
      </trkpt>
      <trkpt lat="44.53639" lon="5.77873">
        <ele>781.3</ele>
        <time>2015-04-05T07:04:00Z</time>
      </trkpt>
      <trkpt lat="44.5365" lon="5.77877">
        <ele>781.2</ele>
        <time>2015-04-05T07:04:03Z</time>
      </trkpt>
      <trkpt lat="44.53662" lon="5.77882">
        <ele>781.1</ele>
        <time>2015-04-05T07:04:06Z</time>
      </trkpt>
      <trkpt lat="44.53674" lon="5.77885">
        <ele>781.1</ele>
        <time>2015-04-05T07:04:09Z</time>
      </trkpt>
      <trkpt lat="44.53686" lon="5.77889">
        <ele>781.3</ele>
        <time>2015-04-05T07:04:12Z</time>
      </trkpt>
      <trkpt lat="44.53698" lon="5.77892">
        <ele>781.5</ele>
        <time>2015-04-05T07:04:15Z</time>
      </trkpt>
      <trkpt lat="44.5371" lon="5.77895">
        <ele>781.7</ele>
        <time>2015-04-05T07:04:18Z</time>
      </trkpt>
      <trkpt lat="44.53721" lon="5.77898">
        <ele>781.8</ele>
        <time>2015-04-05T07:04:21Z</time>
      </trkpt>
      <trkpt lat="44.53733" lon="5.77901">
        <ele>781.9</ele>
        <time>2015-04-05T07:04:24Z</time>
      </trkpt>
      <trkpt lat="44.53743" lon="5.77904">
        <ele>782.1</ele>
        <time>2015-04-05T07:04:27Z</time>
      </trkpt>
      <trkpt lat="44.53754" lon="5.77906">
        <ele>782.2</ele>
        <time>2015-04-05T07:04:30Z</time>
      </trkpt>
      <trkpt lat="44.53765" lon="5.77908">
        <ele>782.3</ele>
        <time>2015-04-05T07:04:33Z</time>
      </trkpt>
      <trkpt lat="44.53777" lon="5.77911">
        <ele>782.4</ele>
        <time>2015-04-05T07:04:36Z</time>
      </trkpt>
      <trkpt lat="44.53788" lon="5.77913">
        <ele>782.5</ele>
        <time>2015-04-05T07:04:39Z</time>
      </trkpt>
      <trkpt lat="44.53798" lon="5.77915">
        <ele>782.6</ele>
        <time>2015-04-05T07:04:42Z</time>
      </trkpt>
      <trkpt lat="44.53809" lon="5.77916">
        <ele>782.7</ele>
        <time>2015-04-05T07:04:45Z</time>
      </trkpt>
      <trkpt lat="44.5382" lon="5.77918">
        <ele>782.9</ele>
        <time>2015-04-05T07:04:48Z</time>
      </trkpt>
      <trkpt lat="44.53832" lon="5.77918">
        <ele>783</ele>
        <time>2015-04-05T07:04:51Z</time>
      </trkpt>
      <trkpt lat="44.53843" lon="5.77919">
        <ele>783.3</ele>
        <time>2015-04-05T07:04:54Z</time>
      </trkpt>
      <trkpt lat="44.53855" lon="5.77919">
        <ele>783.6</ele>
        <time>2015-04-05T07:04:57Z</time>
      </trkpt>
      <trkpt lat="44.53866" lon="5.77919">
        <ele>783.9</ele>
        <time>2015-04-05T07:05:00Z</time>
      </trkpt>
      <trkpt lat="44.53879" lon="5.7792">
        <ele>784.2</ele>
        <time>2015-04-05T07:05:03Z</time>
      </trkpt>
      <trkpt lat="44.53888" lon="5.77921">
        <ele>784.5</ele>
        <time>2015-04-05T07:05:06Z</time>
      </trkpt>
      <trkpt lat="44.53898" lon="5.77922">
        <ele>784.7</ele>
        <time>2015-04-05T07:05:09Z</time>
      </trkpt>
      <trkpt lat="44.53909" lon="5.77922">
        <ele>785</ele>
        <time>2015-04-05T07:05:13Z</time>
      </trkpt>
      <trkpt lat="44.5392" lon="5.77922">
        <ele>785.2</ele>
        <time>2015-04-05T07:05:16Z</time>
      </trkpt>
      <trkpt lat="44.53932" lon="5.77924">
        <ele>785.3</ele>
        <time>2015-04-05T07:05:19Z</time>
      </trkpt>
      <trkpt lat="44.53944" lon="5.77925">
        <ele>785.3</ele>
        <time>2015-04-05T07:05:22Z</time>
      </trkpt>
      <trkpt lat="44.53953" lon="5.77923">
        <ele>785.3</ele>
        <time>2015-04-05T07:07:19Z</time>
      </trkpt>
      <trkpt lat="44.53962" lon="5.77924">
        <ele>785.3</ele>
        <time>2015-04-05T07:10:32Z</time>
      </trkpt>
      <trkpt lat="44.53972" lon="5.77925">
        <ele>785.3</ele>
        <time>2015-04-05T07:10:36Z</time>
      </trkpt>
      <trkpt lat="44.53982" lon="5.77925">
        <ele>785.4</ele>
        <time>2015-04-05T07:10:39Z</time>
      </trkpt>
      <trkpt lat="44.53992" lon="5.77926">
        <ele>785.4</ele>
        <time>2015-04-05T07:10:42Z</time>
      </trkpt>
      <trkpt lat="44.54002" lon="5.77927">
        <ele>785.5</ele>
        <time>2015-04-05T07:10:45Z</time>
      </trkpt>
      <trkpt lat="44.54014" lon="5.77928">
        <ele>785.5</ele>
        <time>2015-04-05T07:10:48Z</time>
      </trkpt>
      <trkpt lat="44.54025" lon="5.77928">
        <ele>785.4</ele>
        <time>2015-04-05T07:10:51Z</time>
      </trkpt>
      <trkpt lat="44.54037" lon="5.7793">
        <ele>785.5</ele>
        <time>2015-04-05T07:10:54Z</time>
      </trkpt>
      <trkpt lat="44.54048" lon="5.7793">
        <ele>785.4</ele>
        <time>2015-04-05T07:10:57Z</time>
      </trkpt>
      <trkpt lat="44.54058" lon="5.77932">
        <ele>785.5</ele>
        <time>2015-04-05T07:11:00Z</time>
      </trkpt>
      <trkpt lat="44.54069" lon="5.77934">
        <ele>785.5</ele>
        <time>2015-04-05T07:11:03Z</time>
      </trkpt>
      <trkpt lat="44.54079" lon="5.77935">
        <ele>785.4</ele>
        <time>2015-04-05T07:11:07Z</time>
      </trkpt>
      <trkpt lat="44.54082" lon="5.77921">
        <ele>785.1</ele>
        <time>2015-04-05T07:11:19Z</time>
      </trkpt>
      <trkpt lat="44.54076" lon="5.77911">
        <ele>784.9</ele>
        <time>2015-04-05T07:11:22Z</time>
      </trkpt>
      <trkpt lat="44.54074" lon="5.77898">
        <ele>784.8</ele>
        <time>2015-04-05T07:11:25Z</time>
      </trkpt>
      <trkpt lat="44.54083" lon="5.77887">
        <ele>784.6</ele>
        <time>2015-04-05T07:11:29Z</time>
      </trkpt>
      <trkpt lat="44.54093" lon="5.77885">
        <ele>784.8</ele>
        <time>2015-04-05T07:11:32Z</time>
      </trkpt>
      <trkpt lat="44.54103" lon="5.77888">
        <ele>785</ele>
        <time>2015-04-05T07:11:35Z</time>
      </trkpt>
      <trkpt lat="44.54112" lon="5.77892">
        <ele>785.2</ele>
        <time>2015-04-05T07:11:38Z</time>
      </trkpt>
      <trkpt lat="44.54121" lon="5.77896">
        <ele>785.4</ele>
        <time>2015-04-05T07:11:41Z</time>
      </trkpt>
      <trkpt lat="44.54132" lon="5.779">
        <ele>785.6</ele>
        <time>2015-04-05T07:11:44Z</time>
      </trkpt>
      <trkpt lat="44.54142" lon="5.77903">
        <ele>785.8</ele>
        <time>2015-04-05T07:11:47Z</time>
      </trkpt>
      <trkpt lat="44.54154" lon="5.77903">
        <ele>786</ele>
        <time>2015-04-05T07:11:50Z</time>
      </trkpt>
      <trkpt lat="44.54166" lon="5.77902">
        <ele>786.2</ele>
        <time>2015-04-05T07:11:53Z</time>
      </trkpt>
      <trkpt lat="44.54178" lon="5.77898">
        <ele>786.2</ele>
        <time>2015-04-05T07:11:56Z</time>
      </trkpt>
      <trkpt lat="44.5419" lon="5.77892">
        <ele>786.3</ele>
        <time>2015-04-05T07:11:59Z</time>
      </trkpt>
      <trkpt lat="44.54201" lon="5.77886">
        <ele>786.4</ele>
        <time>2015-04-05T07:12:02Z</time>
      </trkpt>
      <trkpt lat="44.54212" lon="5.77879">
        <ele>786.5</ele>
        <time>2015-04-05T07:12:05Z</time>
      </trkpt>
      <trkpt lat="44.54225" lon="5.77872">
        <ele>786.5</ele>
        <time>2015-04-05T07:12:08Z</time>
      </trkpt>
      <trkpt lat="44.54233" lon="5.77867">
        <ele>786.6</ele>
        <time>2015-04-05T07:12:10Z</time>
      </trkpt>
      <trkpt lat="44.54241" lon="5.77862">
        <ele>786.7</ele>
        <time>2015-04-05T07:12:12Z</time>
      </trkpt>
      <trkpt lat="44.5425" lon="5.77857">
        <ele>786.7</ele>
        <time>2015-04-05T07:12:14Z</time>
      </trkpt>
      <trkpt lat="44.54258" lon="5.77851">
        <ele>786.8</ele>
        <time>2015-04-05T07:12:16Z</time>
      </trkpt>
      <trkpt lat="44.5427" lon="5.77844">
        <ele>786.9</ele>
        <time>2015-04-05T07:12:19Z</time>
      </trkpt>
      <trkpt lat="44.54279" lon="5.77839">
        <ele>786.9</ele>
        <time>2015-04-05T07:12:21Z</time>
      </trkpt>
      <trkpt lat="44.54291" lon="5.77831">
        <ele>787.2</ele>
        <time>2015-04-05T07:12:24Z</time>
      </trkpt>
      <trkpt lat="44.543" lon="5.77826">
        <ele>787.8</ele>
        <time>2015-04-05T07:12:26Z</time>
      </trkpt>
      <trkpt lat="44.54308" lon="5.77822">
        <ele>788.3</ele>
        <time>2015-04-05T07:12:28Z</time>
      </trkpt>
      <trkpt lat="44.54317" lon="5.77817">
        <ele>788.9</ele>
        <time>2015-04-05T07:12:30Z</time>
      </trkpt>
      <trkpt lat="44.54326" lon="5.77812">
        <ele>789.5</ele>
        <time>2015-04-05T07:12:32Z</time>
      </trkpt>
      <trkpt lat="44.54335" lon="5.77807">
        <ele>790.4</ele>
        <time>2015-04-05T07:12:34Z</time>
      </trkpt>
      <trkpt lat="44.54345" lon="5.77802">
        <ele>791.5</ele>
        <time>2015-04-05T07:12:36Z</time>
      </trkpt>
      <trkpt lat="44.54353" lon="5.77798">
        <ele>792.5</ele>
        <time>2015-04-05T07:12:38Z</time>
      </trkpt>
      <trkpt lat="44.54366" lon="5.77794">
        <ele>793.9</ele>
        <time>2015-04-05T07:12:41Z</time>
      </trkpt>
      <trkpt lat="44.54379" lon="5.7779">
        <ele>795.3</ele>
        <time>2015-04-05T07:12:44Z</time>
      </trkpt>
      <trkpt lat="44.5439" lon="5.77789">
        <ele>796.3</ele>
        <time>2015-04-05T07:12:47Z</time>
      </trkpt>
      <trkpt lat="44.54402" lon="5.77788">
        <ele>797.2</ele>
        <time>2015-04-05T07:12:50Z</time>
      </trkpt>
      <trkpt lat="44.54415" lon="5.77788">
        <ele>798.1</ele>
        <time>2015-04-05T07:12:53Z</time>
      </trkpt>
      <trkpt lat="44.54428" lon="5.7779">
        <ele>799.3</ele>
        <time>2015-04-05T07:12:56Z</time>
      </trkpt>
      <trkpt lat="44.54441" lon="5.77792">
        <ele>800.6</ele>
        <time>2015-04-05T07:12:59Z</time>
      </trkpt>
      <trkpt lat="44.54454" lon="5.77794">
        <ele>801.8</ele>
        <time>2015-04-05T07:13:02Z</time>
      </trkpt>
      <trkpt lat="44.54466" lon="5.77798">
        <ele>802.2</ele>
        <time>2015-04-05T07:13:05Z</time>
      </trkpt>
      <trkpt lat="44.54478" lon="5.77802">
        <ele>802.8</ele>
        <time>2015-04-05T07:13:08Z</time>
      </trkpt>
      <trkpt lat="44.5449" lon="5.77806">
        <ele>803</ele>
        <time>2015-04-05T07:13:11Z</time>
      </trkpt>
      <trkpt lat="44.54503" lon="5.7781">
        <ele>802.9</ele>
        <time>2015-04-05T07:13:14Z</time>
      </trkpt>
      <trkpt lat="44.54516" lon="5.77815">
        <ele>801.9</ele>
        <time>2015-04-05T07:13:17Z</time>
      </trkpt>
      <trkpt lat="44.54528" lon="5.77821">
        <ele>800.8</ele>
        <time>2015-04-05T07:13:20Z</time>
      </trkpt>
      <trkpt lat="44.54541" lon="5.77826">
        <ele>799.7</ele>
        <time>2015-04-05T07:13:23Z</time>
      </trkpt>
      <trkpt lat="44.54553" lon="5.7783">
        <ele>798.4</ele>
        <time>2015-04-05T07:13:26Z</time>
      </trkpt>
      <trkpt lat="44.54564" lon="5.77835">
        <ele>797.5</ele>
        <time>2015-04-05T07:13:29Z</time>
      </trkpt>
      <trkpt lat="44.54576" lon="5.7784">
        <ele>797.4</ele>
        <time>2015-04-05T07:13:32Z</time>
      </trkpt>
      <trkpt lat="44.54588" lon="5.77845">
        <ele>797.2</ele>
        <time>2015-04-05T07:13:35Z</time>
      </trkpt>
      <trkpt lat="44.546" lon="5.77851">
        <ele>797</ele>
        <time>2015-04-05T07:13:38Z</time>
      </trkpt>
      <trkpt lat="44.54611" lon="5.77854">
        <ele>797</ele>
        <time>2015-04-05T07:13:41Z</time>
      </trkpt>
      <trkpt lat="44.54622" lon="5.77857">
        <ele>797.2</ele>
        <time>2015-04-05T07:13:44Z</time>
      </trkpt>
      <trkpt lat="44.54633" lon="5.7786">
        <ele>797.4</ele>
        <time>2015-04-05T07:13:47Z</time>
      </trkpt>
      <trkpt lat="44.54645" lon="5.77861">
        <ele>797.7</ele>
        <time>2015-04-05T07:13:50Z</time>
      </trkpt>
      <trkpt lat="44.54656" lon="5.77861">
        <ele>798</ele>
        <time>2015-04-05T07:13:53Z</time>
      </trkpt>
      <trkpt lat="44.54668" lon="5.7786">
        <ele>798.3</ele>
        <time>2015-04-05T07:13:56Z</time>
      </trkpt>
      <trkpt lat="44.5468" lon="5.77857">
        <ele>798.3</ele>
        <time>2015-04-05T07:13:59Z</time>
      </trkpt>
      <trkpt lat="44.54692" lon="5.77854">
        <ele>798.2</ele>
        <time>2015-04-05T07:14:02Z</time>
      </trkpt>
      <trkpt lat="44.54704" lon="5.7785">
        <ele>798</ele>
        <time>2015-04-05T07:14:05Z</time>
      </trkpt>
      <trkpt lat="44.54715" lon="5.77847">
        <ele>797.7</ele>
        <time>2015-04-05T07:14:08Z</time>
      </trkpt>
      <trkpt lat="44.54726" lon="5.77845">
        <ele>797.5</ele>
        <time>2015-04-05T07:14:11Z</time>
      </trkpt>
      <trkpt lat="44.54736" lon="5.77842">
        <ele>797.1</ele>
        <time>2015-04-05T07:14:14Z</time>
      </trkpt>
      <trkpt lat="44.54747" lon="5.77839">
        <ele>796.7</ele>
        <time>2015-04-05T07:14:17Z</time>
      </trkpt>
      <trkpt lat="44.54758" lon="5.77836">
        <ele>796.2</ele>
        <time>2015-04-05T07:14:20Z</time>
      </trkpt>
      <trkpt lat="44.54769" lon="5.77833">
        <ele>795.7</ele>
        <time>2015-04-05T07:14:23Z</time>
      </trkpt>
      <trkpt lat="44.5478" lon="5.7783">
        <ele>796.1</ele>
        <time>2015-04-05T07:14:26Z</time>
      </trkpt>
      <trkpt lat="44.54791" lon="5.77827">
        <ele>796.3</ele>
        <time>2015-04-05T07:14:29Z</time>
      </trkpt>
      <trkpt lat="44.54802" lon="5.77824">
        <ele>796.5</ele>
        <time>2015-04-05T07:14:32Z</time>
      </trkpt>
      <trkpt lat="44.54812" lon="5.77821">
        <ele>796.5</ele>
        <time>2015-04-05T07:14:35Z</time>
      </trkpt>
      <trkpt lat="44.54823" lon="5.77819">
        <ele>796.5</ele>
        <time>2015-04-05T07:14:38Z</time>
      </trkpt>
      <trkpt lat="44.54833" lon="5.77815">
        <ele>796.4</ele>
        <time>2015-04-05T07:14:41Z</time>
      </trkpt>
      <trkpt lat="44.54843" lon="5.77812">
        <ele>797.5</ele>
        <time>2015-04-05T07:14:44Z</time>
      </trkpt>
      <trkpt lat="44.54854" lon="5.7781">
        <ele>798.5</ele>
        <time>2015-04-05T07:14:47Z</time>
      </trkpt>
      <trkpt lat="44.54865" lon="5.77807">
        <ele>799.3</ele>
        <time>2015-04-05T07:14:50Z</time>
      </trkpt>
      <trkpt lat="44.54877" lon="5.77804">
        <ele>799.9</ele>
        <time>2015-04-05T07:14:53Z</time>
      </trkpt>
      <trkpt lat="44.54888" lon="5.778">
        <ele>800.4</ele>
        <time>2015-04-05T07:14:56Z</time>
      </trkpt>
      <trkpt lat="44.549" lon="5.77795">
        <ele>800.5</ele>
        <time>2015-04-05T07:14:59Z</time>
      </trkpt>
      <trkpt lat="44.54911" lon="5.77789">
        <ele>800.1</ele>
        <time>2015-04-05T07:15:02Z</time>
      </trkpt>
      <trkpt lat="44.54921" lon="5.77782">
        <ele>800.1</ele>
        <time>2015-04-05T07:15:05Z</time>
      </trkpt>
      <trkpt lat="44.54931" lon="5.77773">
        <ele>800.4</ele>
        <time>2015-04-05T07:15:08Z</time>
      </trkpt>
      <trkpt lat="44.54941" lon="5.77763">
        <ele>800.2</ele>
        <time>2015-04-05T07:15:11Z</time>
      </trkpt>
      <trkpt lat="44.54951" lon="5.77753">
        <ele>799.3</ele>
        <time>2015-04-05T07:15:14Z</time>
      </trkpt>
      <trkpt lat="44.5496" lon="5.77742">
        <ele>800.1</ele>
        <time>2015-04-05T07:15:17Z</time>
      </trkpt>
      <trkpt lat="44.54969" lon="5.77732">
        <ele>800.9</ele>
        <time>2015-04-05T07:15:20Z</time>
      </trkpt>
      <trkpt lat="44.54978" lon="5.77721">
        <ele>801.3</ele>
        <time>2015-04-05T07:15:23Z</time>
      </trkpt>
      <trkpt lat="44.54987" lon="5.77711">
        <ele>801.3</ele>
        <time>2015-04-05T07:15:26Z</time>
      </trkpt>
      <trkpt lat="44.54995" lon="5.77702">
        <ele>800.8</ele>
        <time>2015-04-05T07:15:29Z</time>
      </trkpt>
      <trkpt lat="44.55003" lon="5.77692">
        <ele>801</ele>
        <time>2015-04-05T07:15:32Z</time>
      </trkpt>
      <trkpt lat="44.55011" lon="5.77683">
        <ele>802</ele>
        <time>2015-04-05T07:15:35Z</time>
      </trkpt>
      <trkpt lat="44.55019" lon="5.77675">
        <ele>802.5</ele>
        <time>2015-04-05T07:15:38Z</time>
      </trkpt>
      <trkpt lat="44.55026" lon="5.77667">
        <ele>802.8</ele>
        <time>2015-04-05T07:15:41Z</time>
      </trkpt>
      <trkpt lat="44.55034" lon="5.77659">
        <ele>804.2</ele>
        <time>2015-04-05T07:15:44Z</time>
      </trkpt>
      <trkpt lat="44.55042" lon="5.77651">
        <ele>805.4</ele>
        <time>2015-04-05T07:15:47Z</time>
      </trkpt>
      <trkpt lat="44.55051" lon="5.77644">
        <ele>806.4</ele>
        <time>2015-04-05T07:15:50Z</time>
      </trkpt>
      <trkpt lat="44.5506" lon="5.77638">
        <ele>807.1</ele>
        <time>2015-04-05T07:15:53Z</time>
      </trkpt>
      <trkpt lat="44.55069" lon="5.77632">
        <ele>807.6</ele>
        <time>2015-04-05T07:15:56Z</time>
      </trkpt>
      <trkpt lat="44.55078" lon="5.77627">
        <ele>807.9</ele>
        <time>2015-04-05T07:15:59Z</time>
      </trkpt>
      <trkpt lat="44.55088" lon="5.77623">
        <ele>810.4</ele>
        <time>2015-04-05T07:16:02Z</time>
      </trkpt>
      <trkpt lat="44.55098" lon="5.77619">
        <ele>815.3</ele>
        <time>2015-04-05T07:16:05Z</time>
      </trkpt>
      <trkpt lat="44.55108" lon="5.77614">
        <ele>820.4</ele>
        <time>2015-04-05T07:16:08Z</time>
      </trkpt>
      <trkpt lat="44.55118" lon="5.7761">
        <ele>825.9</ele>
        <time>2015-04-05T07:16:11Z</time>
      </trkpt>
      <trkpt lat="44.55129" lon="5.77606">
        <ele>831.9</ele>
        <time>2015-04-05T07:16:14Z</time>
      </trkpt>
      <trkpt lat="44.5514" lon="5.77602">
        <ele>838</ele>
        <time>2015-04-05T07:16:17Z</time>
      </trkpt>
      <trkpt lat="44.5515" lon="5.77601">
        <ele>843.7</ele>
        <time>2015-04-05T07:16:20Z</time>
      </trkpt>
      <trkpt lat="44.55158" lon="5.77607">
        <ele>848.1</ele>
        <time>2015-04-05T07:16:23Z</time>
      </trkpt>
      <trkpt lat="44.55167" lon="5.77612">
        <ele>852.8</ele>
        <time>2015-04-05T07:16:26Z</time>
      </trkpt>
      <trkpt lat="44.55176" lon="5.77612">
        <ele>859.3</ele>
        <time>2015-04-05T07:16:30Z</time>
      </trkpt>
      <trkpt lat="44.55183" lon="5.77603">
        <ele>865</ele>
        <time>2015-04-05T07:19:46Z</time>
      </trkpt>
      <trkpt lat="44.55187" lon="5.7759">
        <ele>868.8</ele>
        <time>2015-04-05T07:19:52Z</time>
      </trkpt>
      <trkpt lat="44.5519" lon="5.77575">
        <ele>871.3</ele>
        <time>2015-04-05T07:19:57Z</time>
      </trkpt>
      <trkpt lat="44.55194" lon="5.77561">
        <ele>874.8</ele>
        <time>2015-04-05T07:20:02Z</time>
      </trkpt>
      <trkpt lat="44.55198" lon="5.77548">
        <ele>877.9</ele>
        <time>2015-04-05T07:20:07Z</time>
      </trkpt>
      <trkpt lat="44.55203" lon="5.77535">
        <ele>881.1</ele>
        <time>2015-04-05T07:20:12Z</time>
      </trkpt>
      <trkpt lat="44.55206" lon="5.77521">
        <ele>883.8</ele>
        <time>2015-04-05T07:20:17Z</time>
      </trkpt>
      <trkpt lat="44.5521" lon="5.77508">
        <ele>886.5</ele>
        <time>2015-04-05T07:20:22Z</time>
      </trkpt>
      <trkpt lat="44.55213" lon="5.77493">
        <ele>887.9</ele>
        <time>2015-04-05T07:20:27Z</time>
      </trkpt>
      <trkpt lat="44.55218" lon="5.77479">
        <ele>889</ele>
        <time>2015-04-05T07:20:32Z</time>
      </trkpt>
      <trkpt lat="44.55221" lon="5.77466">
        <ele>889.7</ele>
        <time>2015-04-05T07:20:37Z</time>
      </trkpt>
      <trkpt lat="44.55225" lon="5.77452">
        <ele>890.2</ele>
        <time>2015-04-05T07:20:42Z</time>
      </trkpt>
      <trkpt lat="44.55229" lon="5.77439">
        <ele>891</ele>
        <time>2015-04-05T07:20:47Z</time>
      </trkpt>
      <trkpt lat="44.55232" lon="5.77425">
        <ele>891.4</ele>
        <time>2015-04-05T07:20:52Z</time>
      </trkpt>
      <trkpt lat="44.55236" lon="5.77411">
        <ele>891.9</ele>
        <time>2015-04-05T07:20:57Z</time>
      </trkpt>
      <trkpt lat="44.55239" lon="5.77397">
        <ele>892.2</ele>
        <time>2015-04-05T07:21:02Z</time>
      </trkpt>
      <trkpt lat="44.55243" lon="5.77382">
        <ele>892.4</ele>
        <time>2015-04-05T07:21:07Z</time>
      </trkpt>
      <trkpt lat="44.55247" lon="5.77369">
        <ele>893.2</ele>
        <time>2015-04-05T07:21:12Z</time>
      </trkpt>
      <trkpt lat="44.5525" lon="5.77356">
        <ele>893.9</ele>
        <time>2015-04-05T07:21:17Z</time>
      </trkpt>
      <trkpt lat="44.55255" lon="5.77344">
        <ele>894.4</ele>
        <time>2015-04-05T07:21:22Z</time>
      </trkpt>
      <trkpt lat="44.55259" lon="5.77333">
        <ele>895</ele>
        <time>2015-04-05T07:21:27Z</time>
      </trkpt>
      <trkpt lat="44.55265" lon="5.7732">
        <ele>894</ele>
        <time>2015-04-05T07:21:33Z</time>
      </trkpt>
      <trkpt lat="44.55269" lon="5.77309">
        <ele>893</ele>
        <time>2015-04-05T07:21:38Z</time>
      </trkpt>
      <trkpt lat="44.55274" lon="5.77298">
        <ele>892</ele>
        <time>2015-04-05T07:21:43Z</time>
      </trkpt>
      <trkpt lat="44.55278" lon="5.77286">
        <ele>890.8</ele>
        <time>2015-04-05T07:21:48Z</time>
      </trkpt>
      <trkpt lat="44.55282" lon="5.77275">
        <ele>889.9</ele>
        <time>2015-04-05T07:21:53Z</time>
      </trkpt>
      <trkpt lat="44.55286" lon="5.77263">
        <ele>889</ele>
        <time>2015-04-05T07:21:58Z</time>
      </trkpt>
      <trkpt lat="44.5529" lon="5.77252">
        <ele>888.2</ele>
        <time>2015-04-05T07:22:03Z</time>
      </trkpt>
      <trkpt lat="44.55295" lon="5.7724">
        <ele>888.4</ele>
        <time>2015-04-05T07:22:08Z</time>
      </trkpt>
      <trkpt lat="44.553" lon="5.77229">
        <ele>889.3</ele>
        <time>2015-04-05T07:22:13Z</time>
      </trkpt>
      <trkpt lat="44.55305" lon="5.77218">
        <ele>889.6</ele>
        <time>2015-04-05T07:22:18Z</time>
      </trkpt>
      <trkpt lat="44.55309" lon="5.77206">
        <ele>889.1</ele>
        <time>2015-04-05T07:22:23Z</time>
      </trkpt>
      <trkpt lat="44.55313" lon="5.77195">
        <ele>889</ele>
        <time>2015-04-05T07:22:28Z</time>
      </trkpt>
      <trkpt lat="44.55318" lon="5.77184">
        <ele>889.7</ele>
        <time>2015-04-05T07:22:33Z</time>
      </trkpt>
      <trkpt lat="44.55324" lon="5.77172">
        <ele>891.3</ele>
        <time>2015-04-05T07:22:39Z</time>
      </trkpt>
      <trkpt lat="44.5533" lon="5.7716">
        <ele>892.8</ele>
        <time>2015-04-05T07:22:45Z</time>
      </trkpt>
      <trkpt lat="44.55335" lon="5.77147">
        <ele>894</ele>
        <time>2015-04-05T07:22:51Z</time>
      </trkpt>
      <trkpt lat="44.55339" lon="5.77135">
        <ele>893.4</ele>
        <time>2015-04-05T07:22:57Z</time>
      </trkpt>
      <trkpt lat="44.55344" lon="5.77123">
        <ele>893</ele>
        <time>2015-04-05T07:23:04Z</time>
      </trkpt>
      <trkpt lat="44.55348" lon="5.77111">
        <ele>892.2</ele>
        <time>2015-04-05T07:23:10Z</time>
      </trkpt>
      <trkpt lat="44.55351" lon="5.77097">
        <ele>890.8</ele>
        <time>2015-04-05T07:23:17Z</time>
      </trkpt>
      <trkpt lat="44.55353" lon="5.77082">
        <ele>889.2</ele>
        <time>2015-04-05T07:23:23Z</time>
      </trkpt>
      <trkpt lat="44.5536" lon="5.77092">
        <ele>891.7</ele>
        <time>2015-04-05T07:23:37Z</time>
      </trkpt>
      <trkpt lat="44.5536" lon="5.77105">
        <ele>893.5</ele>
        <time>2015-04-05T07:23:43Z</time>
      </trkpt>
      <trkpt lat="44.55358" lon="5.77117">
        <ele>895</ele>
        <time>2015-04-05T07:23:49Z</time>
      </trkpt>
      <trkpt lat="44.55356" lon="5.7713">
        <ele>896.3</ele>
        <time>2015-04-05T07:23:55Z</time>
      </trkpt>
      <trkpt lat="44.55355" lon="5.77144">
        <ele>898.1</ele>
        <time>2015-04-05T07:24:02Z</time>
      </trkpt>
      <trkpt lat="44.55354" lon="5.77157">
        <ele>899.7</ele>
        <time>2015-04-05T07:24:08Z</time>
      </trkpt>
      <trkpt lat="44.55352" lon="5.77169">
        <ele>901.2</ele>
        <time>2015-04-05T07:24:14Z</time>
      </trkpt>
      <trkpt lat="44.55349" lon="5.77182">
        <ele>903.2</ele>
        <time>2015-04-05T07:24:20Z</time>
      </trkpt>
      <trkpt lat="44.55345" lon="5.77194">
        <ele>904.8</ele>
        <time>2015-04-05T07:24:25Z</time>
      </trkpt>
      <trkpt lat="44.55339" lon="5.77205">
        <ele>906.1</ele>
        <time>2015-04-05T07:24:30Z</time>
      </trkpt>
      <trkpt lat="44.5535" lon="5.77194">
        <ele>905.9</ele>
        <time>2015-04-05T07:24:44Z</time>
      </trkpt>
      <trkpt lat="44.55355" lon="5.77182">
        <ele>904.5</ele>
        <time>2015-04-05T07:24:50Z</time>
      </trkpt>
      <trkpt lat="44.55361" lon="5.77171">
        <ele>903.8</ele>
        <time>2015-04-05T07:24:56Z</time>
      </trkpt>
      <trkpt lat="44.55367" lon="5.77159">
        <ele>903.2</ele>
        <time>2015-04-05T07:25:01Z</time>
      </trkpt>
      <trkpt lat="44.55372" lon="5.77148">
        <ele>902.8</ele>
        <time>2015-04-05T07:25:06Z</time>
      </trkpt>
      <trkpt lat="44.55378" lon="5.77137">
        <ele>902.3</ele>
        <time>2015-04-05T07:25:11Z</time>
      </trkpt>
      <trkpt lat="44.55385" lon="5.77128">
        <ele>902.3</ele>
        <time>2015-04-05T07:25:16Z</time>
      </trkpt>
      <trkpt lat="44.55391" lon="5.77117">
        <ele>901.5</ele>
        <time>2015-04-05T07:25:22Z</time>
      </trkpt>
      <trkpt lat="44.55395" lon="5.77105">
        <ele>900.1</ele>
        <time>2015-04-05T07:25:28Z</time>
      </trkpt>
      <trkpt lat="44.55397" lon="5.77091">
        <ele>898.1</ele>
        <time>2015-04-05T07:25:34Z</time>
      </trkpt>
      <trkpt lat="44.55399" lon="5.77077">
        <ele>895.9</ele>
        <time>2015-04-05T07:25:40Z</time>
      </trkpt>
      <trkpt lat="44.55399" lon="5.77062">
        <ele>893.8</ele>
        <time>2015-04-05T07:25:46Z</time>
      </trkpt>
      <trkpt lat="44.55401" lon="5.77049">
        <ele>892</ele>
        <time>2015-04-05T07:25:52Z</time>
      </trkpt>
      <trkpt lat="44.55404" lon="5.77035">
        <ele>890.2</ele>
        <time>2015-04-05T07:25:58Z</time>
      </trkpt>
      <trkpt lat="44.55406" lon="5.77022">
        <ele>888.2</ele>
        <time>2015-04-05T07:26:04Z</time>
      </trkpt>
      <trkpt lat="44.55407" lon="5.77008">
        <ele>886.1</ele>
        <time>2015-04-05T07:26:10Z</time>
      </trkpt>
      <trkpt lat="44.55408" lon="5.76995">
        <ele>883.3</ele>
        <time>2015-04-05T07:26:16Z</time>
      </trkpt>
      <trkpt lat="44.55409" lon="5.76981">
        <ele>879.9</ele>
        <time>2015-04-05T07:26:22Z</time>
      </trkpt>
      <trkpt lat="44.55412" lon="5.76967">
        <ele>876.1</ele>
        <time>2015-04-05T07:26:28Z</time>
      </trkpt>
      <trkpt lat="44.55415" lon="5.76953">
        <ele>872.1</ele>
        <time>2015-04-05T07:26:34Z</time>
      </trkpt>
      <trkpt lat="44.55417" lon="5.76939">
        <ele>867.8</ele>
        <time>2015-04-05T07:26:40Z</time>
      </trkpt>
      <trkpt lat="44.55418" lon="5.76925">
        <ele>863.5</ele>
        <time>2015-04-05T07:26:46Z</time>
      </trkpt>
      <trkpt lat="44.55419" lon="5.7691">
        <ele>857.6</ele>
        <time>2015-04-05T07:26:52Z</time>
      </trkpt>
      <trkpt lat="44.55421" lon="5.76898">
        <ele>851.4</ele>
        <time>2015-04-05T07:26:57Z</time>
      </trkpt>
      <trkpt lat="44.55426" lon="5.76886">
        <ele>844.5</ele>
        <time>2015-04-05T07:27:03Z</time>
      </trkpt>
      <trkpt lat="44.55431" lon="5.76898">
        <ele>847.8</ele>
        <time>2015-04-05T07:27:11Z</time>
      </trkpt>
      <trkpt lat="44.55425" lon="5.76911">
        <ele>855.3</ele>
        <time>2015-04-05T07:27:17Z</time>
      </trkpt>
      <trkpt lat="44.55425" lon="5.76924">
        <ele>859.9</ele>
        <time>2015-04-05T07:27:22Z</time>
      </trkpt>
      <trkpt lat="44.55428" lon="5.76937">
        <ele>862.3</ele>
        <time>2015-04-05T07:27:27Z</time>
      </trkpt>
      <trkpt lat="44.55429" lon="5.7695">
        <ele>865.1</ele>
        <time>2015-04-05T07:27:32Z</time>
      </trkpt>
      <trkpt lat="44.55429" lon="5.76963">
        <ele>868.5</ele>
        <time>2015-04-05T07:27:37Z</time>
      </trkpt>
      <trkpt lat="44.55429" lon="5.76976">
        <ele>871.8</ele>
        <time>2015-04-05T07:27:43Z</time>
      </trkpt>
      <trkpt lat="44.55432" lon="5.76989">
        <ele>873.7</ele>
        <time>2015-04-05T07:27:49Z</time>
      </trkpt>
      <trkpt lat="44.55436" lon="5.77003">
        <ele>874.7</ele>
        <time>2015-04-05T07:27:55Z</time>
      </trkpt>
      <trkpt lat="44.55439" lon="5.77016">
        <ele>875.6</ele>
        <time>2015-04-05T07:28:01Z</time>
      </trkpt>
      <trkpt lat="44.55439" lon="5.7703">
        <ele>878.4</ele>
        <time>2015-04-05T07:28:07Z</time>
      </trkpt>
      <trkpt lat="44.55437" lon="5.77043">
        <ele>881.4</ele>
        <time>2015-04-05T07:28:13Z</time>
      </trkpt>
      <trkpt lat="44.55437" lon="5.77059">
        <ele>884.4</ele>
        <time>2015-04-05T07:28:19Z</time>
      </trkpt>
      <trkpt lat="44.55438" lon="5.77073">
        <ele>886.6</ele>
        <time>2015-04-05T07:28:25Z</time>
      </trkpt>
      <trkpt lat="44.55439" lon="5.77087">
        <ele>888.5</ele>
        <time>2015-04-05T07:28:31Z</time>
      </trkpt>
      <trkpt lat="44.5544" lon="5.77101">
        <ele>890.9</ele>
        <time>2015-04-05T07:28:37Z</time>
      </trkpt>
      <trkpt lat="44.55441" lon="5.77115">
        <ele>893.6</ele>
        <time>2015-04-05T07:28:43Z</time>
      </trkpt>
      <trkpt lat="44.5544" lon="5.7713">
        <ele>897.2</ele>
        <time>2015-04-05T07:28:49Z</time>
      </trkpt>
      <trkpt lat="44.55439" lon="5.77144">
        <ele>900.5</ele>
        <time>2015-04-05T07:28:55Z</time>
      </trkpt>
      <trkpt lat="44.55437" lon="5.77157">
        <ele>904.6</ele>
        <time>2015-04-05T07:29:06Z</time>
      </trkpt>
      <trkpt lat="44.55436" lon="5.7717">
        <ele>907.5</ele>
        <time>2015-04-05T07:29:39Z</time>
      </trkpt>
      <trkpt lat="44.55432" lon="5.77181">
        <ele>911</ele>
        <time>2015-04-05T07:40:27Z</time>
      </trkpt>
      <trkpt lat="44.55428" lon="5.77194">
        <ele>914.3</ele>
        <time>2015-04-05T07:40:33Z</time>
      </trkpt>
      <trkpt lat="44.55424" lon="5.77208">
        <ele>917.7</ele>
        <time>2015-04-05T07:40:39Z</time>
      </trkpt>
      <trkpt lat="44.5542" lon="5.77221">
        <ele>921</ele>
        <time>2015-04-05T07:40:45Z</time>
      </trkpt>
      <trkpt lat="44.55417" lon="5.77234">
        <ele>924.2</ele>
        <time>2015-04-05T07:40:51Z</time>
      </trkpt>
      <trkpt lat="44.55414" lon="5.77246">
        <ele>925.2</ele>
        <time>2015-04-05T07:40:56Z</time>
      </trkpt>
      <trkpt lat="44.55411" lon="5.77259">
        <ele>926.2</ele>
        <time>2015-04-05T07:41:01Z</time>
      </trkpt>
      <trkpt lat="44.55408" lon="5.77273">
        <ele>927.4</ele>
        <time>2015-04-05T07:41:07Z</time>
      </trkpt>
      <trkpt lat="44.55403" lon="5.77286">
        <ele>928.6</ele>
        <time>2015-04-05T07:41:13Z</time>
      </trkpt>
      <trkpt lat="44.55396" lon="5.77295">
        <ele>929.5</ele>
        <time>2015-04-05T07:41:18Z</time>
      </trkpt>
      <trkpt lat="44.55388" lon="5.77304">
        <ele>930.5</ele>
        <time>2015-04-05T07:41:24Z</time>
      </trkpt>
      <trkpt lat="44.5538" lon="5.7731">
        <ele>931.4</ele>
        <time>2015-04-05T07:41:29Z</time>
      </trkpt>
      <trkpt lat="44.55374" lon="5.7732">
        <ele>933.1</ele>
        <time>2015-04-05T07:41:34Z</time>
      </trkpt>
      <trkpt lat="44.5537" lon="5.77332">
        <ele>935.4</ele>
        <time>2015-04-05T07:41:39Z</time>
      </trkpt>
      <trkpt lat="44.55367" lon="5.77346">
        <ele>937.4</ele>
        <time>2015-04-05T07:41:45Z</time>
      </trkpt>
      <trkpt lat="44.55367" lon="5.77359">
        <ele>939.1</ele>
        <time>2015-04-05T07:41:50Z</time>
      </trkpt>
      <trkpt lat="44.55369" lon="5.77371">
        <ele>940.5</ele>
        <time>2015-04-05T07:41:55Z</time>
      </trkpt>
      <trkpt lat="44.55371" lon="5.77385">
        <ele>942.2</ele>
        <time>2015-04-05T07:42:01Z</time>
      </trkpt>
      <trkpt lat="44.55371" lon="5.77398">
        <ele>943.9</ele>
        <time>2015-04-05T07:42:07Z</time>
      </trkpt>
      <trkpt lat="44.5537" lon="5.77411">
        <ele>945.7</ele>
        <time>2015-04-05T07:42:13Z</time>
      </trkpt>
      <trkpt lat="44.55367" lon="5.77424">
        <ele>947.5</ele>
        <time>2015-04-05T07:42:19Z</time>
      </trkpt>
      <trkpt lat="44.55363" lon="5.77437">
        <ele>949.3</ele>
        <time>2015-04-05T07:42:25Z</time>
      </trkpt>
      <trkpt lat="44.55358" lon="5.77449">
        <ele>951.1</ele>
        <time>2015-04-05T07:42:31Z</time>
      </trkpt>
      <trkpt lat="44.55352" lon="5.77459">
        <ele>952.9</ele>
        <time>2015-04-05T07:42:38Z</time>
      </trkpt>
      <trkpt lat="44.55347" lon="5.77469">
        <ele>954.7</ele>
        <time>2015-04-05T07:42:45Z</time>
      </trkpt>
      <trkpt lat="44.55343" lon="5.77482">
        <ele>956.6</ele>
        <time>2015-04-05T07:42:51Z</time>
      </trkpt>
      <trkpt lat="44.55346" lon="5.77497">
        <ele>958</ele>
        <time>2015-04-05T07:42:57Z</time>
      </trkpt>
      <trkpt lat="44.55349" lon="5.77509">
        <ele>957.9</ele>
        <time>2015-04-05T07:43:03Z</time>
      </trkpt>
      <trkpt lat="44.55352" lon="5.77523">
        <ele>957.7</ele>
        <time>2015-04-05T07:43:09Z</time>
      </trkpt>
      <trkpt lat="44.55355" lon="5.77537">
        <ele>957.7</ele>
        <time>2015-04-05T07:43:15Z</time>
      </trkpt>
      <trkpt lat="44.55356" lon="5.77552">
        <ele>957.8</ele>
        <time>2015-04-05T07:43:21Z</time>
      </trkpt>
      <trkpt lat="44.55358" lon="5.77565">
        <ele>958</ele>
        <time>2015-04-05T07:43:27Z</time>
      </trkpt>
      <trkpt lat="44.55367" lon="5.77573">
        <ele>958</ele>
        <time>2015-04-05T07:44:09Z</time>
      </trkpt>
      <trkpt lat="44.55374" lon="5.77581">
        <ele>958.4</ele>
        <time>2015-04-05T07:44:14Z</time>
      </trkpt>
      <trkpt lat="44.5538" lon="5.77592">
        <ele>959.1</ele>
        <time>2015-04-05T07:44:19Z</time>
      </trkpt>
      <trkpt lat="44.55386" lon="5.77604">
        <ele>960.3</ele>
        <time>2015-04-05T07:44:24Z</time>
      </trkpt>
      <trkpt lat="44.5539" lon="5.77615">
        <ele>961.6</ele>
        <time>2015-04-05T07:44:29Z</time>
      </trkpt>
      <trkpt lat="44.55395" lon="5.77627">
        <ele>963.5</ele>
        <time>2015-04-05T07:44:34Z</time>
      </trkpt>
      <trkpt lat="44.554" lon="5.77639">
        <ele>965.7</ele>
        <time>2015-04-05T07:44:39Z</time>
      </trkpt>
      <trkpt lat="44.55407" lon="5.77651">
        <ele>968.4</ele>
        <time>2015-04-05T07:44:44Z</time>
      </trkpt>
      <trkpt lat="44.55415" lon="5.77661">
        <ele>971.5</ele>
        <time>2015-04-05T07:44:49Z</time>
      </trkpt>
      <trkpt lat="44.55421" lon="5.77671">
        <ele>972.4</ele>
        <time>2015-04-05T07:44:54Z</time>
      </trkpt>
      <trkpt lat="44.55427" lon="5.7768">
        <ele>971.8</ele>
        <time>2015-04-05T07:44:59Z</time>
      </trkpt>
      <trkpt lat="44.55434" lon="5.7769">
        <ele>971.3</ele>
        <time>2015-04-05T07:45:05Z</time>
      </trkpt>
      <trkpt lat="44.55442" lon="5.777">
        <ele>970.9</ele>
        <time>2015-04-05T07:45:11Z</time>
      </trkpt>
      <trkpt lat="44.55449" lon="5.77709">
        <ele>970.7</ele>
        <time>2015-04-05T07:45:16Z</time>
      </trkpt>
      <trkpt lat="44.55456" lon="5.77718">
        <ele>970.5</ele>
        <time>2015-04-05T07:45:21Z</time>
      </trkpt>
      <trkpt lat="44.55463" lon="5.77728">
        <ele>970.7</ele>
        <time>2015-04-05T07:45:26Z</time>
      </trkpt>
      <trkpt lat="44.55468" lon="5.77741">
        <ele>971.4</ele>
        <time>2015-04-05T07:45:31Z</time>
      </trkpt>
      <trkpt lat="44.55472" lon="5.77754">
        <ele>972.4</ele>
        <time>2015-04-05T07:45:36Z</time>
      </trkpt>
      <trkpt lat="44.55475" lon="5.77767">
        <ele>973.9</ele>
        <time>2015-04-05T07:45:41Z</time>
      </trkpt>
      <trkpt lat="44.55476" lon="5.77781">
        <ele>975.4</ele>
        <time>2015-04-05T07:45:46Z</time>
      </trkpt>
      <trkpt lat="44.55469" lon="5.7779">
        <ele>976.9</ele>
        <time>2015-04-05T07:45:52Z</time>
      </trkpt>
      <trkpt lat="44.55459" lon="5.7779">
        <ele>977.4</ele>
        <time>2015-04-05T07:45:58Z</time>
      </trkpt>
      <trkpt lat="44.55449" lon="5.7779">
        <ele>978</ele>
        <time>2015-04-05T07:46:04Z</time>
      </trkpt>
      <trkpt lat="44.55438" lon="5.77793">
        <ele>978.9</ele>
        <time>2015-04-05T07:46:10Z</time>
      </trkpt>
      <trkpt lat="44.55429" lon="5.77799">
        <ele>980</ele>
        <time>2015-04-05T07:46:16Z</time>
      </trkpt>
      <trkpt lat="44.55421" lon="5.77806">
        <ele>981.1</ele>
        <time>2015-04-05T07:46:21Z</time>
      </trkpt>
      <trkpt lat="44.55414" lon="5.77814">
        <ele>981.6</ele>
        <time>2015-04-05T07:46:26Z</time>
      </trkpt>
      <trkpt lat="44.55407" lon="5.77825">
        <ele>981.5</ele>
        <time>2015-04-05T07:46:32Z</time>
      </trkpt>
      <trkpt lat="44.55402" lon="5.77836">
        <ele>982</ele>
        <time>2015-04-05T07:46:37Z</time>
      </trkpt>
      <trkpt lat="44.55398" lon="5.77849">
        <ele>983.9</ele>
        <time>2015-04-05T07:46:43Z</time>
      </trkpt>
      <trkpt lat="44.55394" lon="5.77863">
        <ele>986.1</ele>
        <time>2015-04-05T07:46:49Z</time>
      </trkpt>
      <trkpt lat="44.55392" lon="5.77877">
        <ele>988.4</ele>
        <time>2015-04-05T07:46:55Z</time>
      </trkpt>
      <trkpt lat="44.55389" lon="5.7789">
        <ele>990.5</ele>
        <time>2015-04-05T07:47:01Z</time>
      </trkpt>
      <trkpt lat="44.55387" lon="5.77904">
        <ele>992.8</ele>
        <time>2015-04-05T07:47:07Z</time>
      </trkpt>
      <trkpt lat="44.55385" lon="5.77917">
        <ele>995.1</ele>
        <time>2015-04-05T07:47:13Z</time>
      </trkpt>
      <trkpt lat="44.55386" lon="5.77931">
        <ele>995.8</ele>
        <time>2015-04-05T07:47:19Z</time>
      </trkpt>
      <trkpt lat="44.55386" lon="5.77943">
        <ele>996.4</ele>
        <time>2015-04-05T07:47:25Z</time>
      </trkpt>
      <trkpt lat="44.55387" lon="5.77957">
        <ele>997.3</ele>
        <time>2015-04-05T07:47:31Z</time>
      </trkpt>
      <trkpt lat="44.55389" lon="5.7797">
        <ele>998.2</ele>
        <time>2015-04-05T07:47:37Z</time>
      </trkpt>
      <trkpt lat="44.55391" lon="5.77983">
        <ele>999.3</ele>
        <time>2015-04-05T07:47:43Z</time>
      </trkpt>
      <trkpt lat="44.55394" lon="5.77997">
        <ele>1000.5</ele>
        <time>2015-04-05T07:47:49Z</time>
      </trkpt>
      <trkpt lat="44.55398" lon="5.78009">
        <ele>1001.4</ele>
        <time>2015-04-05T07:47:55Z</time>
      </trkpt>
      <trkpt lat="44.55405" lon="5.7802">
        <ele>1002.6</ele>
        <time>2015-04-05T07:48:01Z</time>
      </trkpt>
      <trkpt lat="44.55411" lon="5.7803">
        <ele>1004.1</ele>
        <time>2015-04-05T07:48:07Z</time>
      </trkpt>
      <trkpt lat="44.55418" lon="5.78039">
        <ele>1005.7</ele>
        <time>2015-04-05T07:48:13Z</time>
      </trkpt>
      <trkpt lat="44.55426" lon="5.78047">
        <ele>1006.9</ele>
        <time>2015-04-05T07:48:19Z</time>
      </trkpt>
      <trkpt lat="44.55434" lon="5.78055">
        <ele>1008.3</ele>
        <time>2015-04-05T07:48:25Z</time>
      </trkpt>
      <trkpt lat="44.55442" lon="5.78065">
        <ele>1009.9</ele>
        <time>2015-04-05T07:48:31Z</time>
      </trkpt>
      <trkpt lat="44.55449" lon="5.78075">
        <ele>1011.8</ele>
        <time>2015-04-05T07:48:37Z</time>
      </trkpt>
      <trkpt lat="44.55456" lon="5.78085">
        <ele>1013.5</ele>
        <time>2015-04-05T07:48:42Z</time>
      </trkpt>
      <trkpt lat="44.55462" lon="5.78094">
        <ele>1014.7</ele>
        <time>2015-04-05T07:48:47Z</time>
      </trkpt>
      <trkpt lat="44.55469" lon="5.78104">
        <ele>1016</ele>
        <time>2015-04-05T07:48:52Z</time>
      </trkpt>
      <trkpt lat="44.55475" lon="5.78114">
        <ele>1017.5</ele>
        <time>2015-04-05T07:48:57Z</time>
      </trkpt>
      <trkpt lat="44.5548" lon="5.78124">
        <ele>1019</ele>
        <time>2015-04-05T07:49:02Z</time>
      </trkpt>
      <trkpt lat="44.55484" lon="5.78136">
        <ele>1020.3</ele>
        <time>2015-04-05T07:49:08Z</time>
      </trkpt>
      <trkpt lat="44.55487" lon="5.78149">
        <ele>1021.4</ele>
        <time>2015-04-05T07:49:15Z</time>
      </trkpt>
      <trkpt lat="44.55492" lon="5.78138">
        <ele>1022.5</ele>
        <time>2015-04-05T07:51:58Z</time>
      </trkpt>
      <trkpt lat="44.55489" lon="5.78126">
        <ele>1021.2</ele>
        <time>2015-04-05T07:52:03Z</time>
      </trkpt>
      <trkpt lat="44.55485" lon="5.78114">
        <ele>1019.8</ele>
        <time>2015-04-05T07:52:07Z</time>
      </trkpt>
      <trkpt lat="44.5548" lon="5.78101">
        <ele>1018.4</ele>
        <time>2015-04-05T07:52:11Z</time>
      </trkpt>
      <trkpt lat="44.55475" lon="5.78087">
        <ele>1017.2</ele>
        <time>2015-04-05T07:52:15Z</time>
      </trkpt>
      <trkpt lat="44.55469" lon="5.78073">
        <ele>1015.2</ele>
        <time>2015-04-05T07:52:19Z</time>
      </trkpt>
      <trkpt lat="44.55463" lon="5.78059">
        <ele>1013.2</ele>
        <time>2015-04-05T07:52:23Z</time>
      </trkpt>
      <trkpt lat="44.55458" lon="5.78045">
        <ele>1011.3</ele>
        <time>2015-04-05T07:52:27Z</time>
      </trkpt>
      <trkpt lat="44.55451" lon="5.78031">
        <ele>1009.6</ele>
        <time>2015-04-05T07:52:31Z</time>
      </trkpt>
      <trkpt lat="44.55444" lon="5.78019">
        <ele>1008.2</ele>
        <time>2015-04-05T07:52:35Z</time>
      </trkpt>
      <trkpt lat="44.55436" lon="5.78007">
        <ele>1006.9</ele>
        <time>2015-04-05T07:52:39Z</time>
      </trkpt>
      <trkpt lat="44.5543" lon="5.77994">
        <ele>1005.6</ele>
        <time>2015-04-05T07:52:43Z</time>
      </trkpt>
      <trkpt lat="44.55427" lon="5.7798">
        <ele>1004.4</ele>
        <time>2015-04-05T07:52:47Z</time>
      </trkpt>
      <trkpt lat="44.5543" lon="5.77968">
        <ele>1003.6</ele>
        <time>2015-04-05T07:52:51Z</time>
      </trkpt>
      <trkpt lat="44.55438" lon="5.7796">
        <ele>1003.2</ele>
        <time>2015-04-05T07:52:55Z</time>
      </trkpt>
      <trkpt lat="44.55448" lon="5.77957">
        <ele>1003.3</ele>
        <time>2015-04-05T07:52:59Z</time>
      </trkpt>
      <trkpt lat="44.55458" lon="5.77959">
        <ele>1003.8</ele>
        <time>2015-04-05T07:53:03Z</time>
      </trkpt>
      <trkpt lat="44.55469" lon="5.77964">
        <ele>1004.7</ele>
        <time>2015-04-05T07:53:07Z</time>
      </trkpt>
      <trkpt lat="44.55478" lon="5.77972">
        <ele>1006.1</ele>
        <time>2015-04-05T07:53:11Z</time>
      </trkpt>
      <trkpt lat="44.55487" lon="5.77982">
        <ele>1008</ele>
        <time>2015-04-05T07:53:15Z</time>
      </trkpt>
      <trkpt lat="44.55495" lon="5.77993">
        <ele>1010.3</ele>
        <time>2015-04-05T07:53:19Z</time>
      </trkpt>
      <trkpt lat="44.55502" lon="5.78004">
        <ele>1012.2</ele>
        <time>2015-04-05T07:53:23Z</time>
      </trkpt>
      <trkpt lat="44.5551" lon="5.78016">
        <ele>1013.1</ele>
        <time>2015-04-05T07:53:27Z</time>
      </trkpt>
      <trkpt lat="44.55518" lon="5.78026">
        <ele>1013.9</ele>
        <time>2015-04-05T07:53:31Z</time>
      </trkpt>
      <trkpt lat="44.55528" lon="5.78034">
        <ele>1014.6</ele>
        <time>2015-04-05T07:53:35Z</time>
      </trkpt>
      <trkpt lat="44.55538" lon="5.78036">
        <ele>1014.5</ele>
        <time>2015-04-05T07:53:39Z</time>
      </trkpt>
      <trkpt lat="44.55548" lon="5.78034">
        <ele>1013.7</ele>
        <time>2015-04-05T07:53:43Z</time>
      </trkpt>
      <trkpt lat="44.55558" lon="5.78028">
        <ele>1011.8</ele>
        <time>2015-04-05T07:53:47Z</time>
      </trkpt>
      <trkpt lat="44.55568" lon="5.7802">
        <ele>1009.3</ele>
        <time>2015-04-05T07:53:51Z</time>
      </trkpt>
      <trkpt lat="44.55576" lon="5.78011">
        <ele>1006.4</ele>
        <time>2015-04-05T07:53:55Z</time>
      </trkpt>
      <trkpt lat="44.55584" lon="5.78002">
        <ele>1003.3</ele>
        <time>2015-04-05T07:53:59Z</time>
      </trkpt>
      <trkpt lat="44.55592" lon="5.77995">
        <ele>1000.4</ele>
        <time>2015-04-05T07:54:03Z</time>
      </trkpt>
      <trkpt lat="44.55603" lon="5.77993">
        <ele>998.6</ele>
        <time>2015-04-05T07:54:07Z</time>
      </trkpt>
      <trkpt lat="44.55612" lon="5.77998">
        <ele>999.5</ele>
        <time>2015-04-05T07:54:10Z</time>
      </trkpt>
      <trkpt lat="44.55621" lon="5.78003">
        <ele>1000.1</ele>
        <time>2015-04-05T07:54:13Z</time>
      </trkpt>
      <trkpt lat="44.55629" lon="5.78008">
        <ele>1000.5</ele>
        <time>2015-04-05T07:54:16Z</time>
      </trkpt>
      <trkpt lat="44.55638" lon="5.78013">
        <ele>1000.8</ele>
        <time>2015-04-05T07:54:19Z</time>
      </trkpt>
      <trkpt lat="44.55646" lon="5.78018">
        <ele>1001.1</ele>
        <time>2015-04-05T07:54:22Z</time>
      </trkpt>
      <trkpt lat="44.55657" lon="5.78023">
        <ele>1001.2</ele>
        <time>2015-04-05T07:54:26Z</time>
      </trkpt>
      <trkpt lat="44.55667" lon="5.78027">
        <ele>1000.9</ele>
        <time>2015-04-05T07:54:29Z</time>
      </trkpt>
      <trkpt lat="44.55677" lon="5.78029">
        <ele>1000.9</ele>
        <time>2015-04-05T07:54:32Z</time>
      </trkpt>
      <trkpt lat="44.55688" lon="5.78031">
        <ele>1000.7</ele>
        <time>2015-04-05T07:54:35Z</time>
      </trkpt>
      <trkpt lat="44.55699" lon="5.78033">
        <ele>1000.4</ele>
        <time>2015-04-05T07:54:38Z</time>
      </trkpt>
      <trkpt lat="44.55709" lon="5.78036">
        <ele>1000.3</ele>
        <time>2015-04-05T07:54:41Z</time>
      </trkpt>
      <trkpt lat="44.55719" lon="5.7804">
        <ele>1000.6</ele>
        <time>2015-04-05T07:54:44Z</time>
      </trkpt>
      <trkpt lat="44.55728" lon="5.78045">
        <ele>1001.1</ele>
        <time>2015-04-05T07:54:47Z</time>
      </trkpt>
      <trkpt lat="44.55737" lon="5.78053">
        <ele>1002</ele>
        <time>2015-04-05T07:54:50Z</time>
      </trkpt>
      <trkpt lat="44.55746" lon="5.78061">
        <ele>1003</ele>
        <time>2015-04-05T07:54:53Z</time>
      </trkpt>
      <trkpt lat="44.55754" lon="5.7807">
        <ele>1004.8</ele>
        <time>2015-04-05T07:54:56Z</time>
      </trkpt>
      <trkpt lat="44.55762" lon="5.7808">
        <ele>1007.4</ele>
        <time>2015-04-05T07:54:59Z</time>
      </trkpt>
      <trkpt lat="44.5577" lon="5.7809">
        <ele>1009.8</ele>
        <time>2015-04-05T07:55:02Z</time>
      </trkpt>
      <trkpt lat="44.55778" lon="5.781">
        <ele>1011.9</ele>
        <time>2015-04-05T07:55:05Z</time>
      </trkpt>
      <trkpt lat="44.55786" lon="5.78111">
        <ele>1014.1</ele>
        <time>2015-04-05T07:55:08Z</time>
      </trkpt>
      <trkpt lat="44.55795" lon="5.78121">
        <ele>1016.2</ele>
        <time>2015-04-05T07:55:11Z</time>
      </trkpt>
      <trkpt lat="44.55803" lon="5.78131">
        <ele>1018.1</ele>
        <time>2015-04-05T07:55:14Z</time>
      </trkpt>
      <trkpt lat="44.55812" lon="5.7814">
        <ele>1020</ele>
        <time>2015-04-05T07:55:17Z</time>
      </trkpt>
      <trkpt lat="44.55821" lon="5.78148">
        <ele>1021.7</ele>
        <time>2015-04-05T07:55:20Z</time>
      </trkpt>
      <trkpt lat="44.5583" lon="5.78153">
        <ele>1023.1</ele>
        <time>2015-04-05T07:55:23Z</time>
      </trkpt>
      <trkpt lat="44.55841" lon="5.78154">
        <ele>1021.9</ele>
        <time>2015-04-05T07:55:26Z</time>
      </trkpt>
      <trkpt lat="44.55852" lon="5.78149">
        <ele>1019.2</ele>
        <time>2015-04-05T07:55:29Z</time>
      </trkpt>
      <trkpt lat="44.55861" lon="5.78138">
        <ele>1016.5</ele>
        <time>2015-04-05T07:55:32Z</time>
      </trkpt>
      <trkpt lat="44.55867" lon="5.78125">
        <ele>1014.2</ele>
        <time>2015-04-05T07:55:35Z</time>
      </trkpt>
      <trkpt lat="44.55871" lon="5.78112">
        <ele>1012.3</ele>
        <time>2015-04-05T07:55:38Z</time>
      </trkpt>
      <trkpt lat="44.55873" lon="5.78098">
        <ele>1010.6</ele>
        <time>2015-04-05T07:55:41Z</time>
      </trkpt>
      <trkpt lat="44.55876" lon="5.78085">
        <ele>1009</ele>
        <time>2015-04-05T07:55:44Z</time>
      </trkpt>
      <trkpt lat="44.5588" lon="5.78073">
        <ele>1005.9</ele>
        <time>2015-04-05T07:55:47Z</time>
      </trkpt>
      <trkpt lat="44.55889" lon="5.78065">
        <ele>1003.2</ele>
        <time>2015-04-05T07:55:50Z</time>
      </trkpt>
      <trkpt lat="44.559" lon="5.78063">
        <ele>1001.6</ele>
        <time>2015-04-05T07:55:53Z</time>
      </trkpt>
      <trkpt lat="44.5591" lon="5.78063">
        <ele>1000.2</ele>
        <time>2015-04-05T07:55:56Z</time>
      </trkpt>
      <trkpt lat="44.5592" lon="5.78062">
        <ele>997.6</ele>
        <time>2015-04-05T07:55:59Z</time>
      </trkpt>
      <trkpt lat="44.55931" lon="5.78061">
        <ele>992.2</ele>
        <time>2015-04-05T07:56:02Z</time>
      </trkpt>
      <trkpt lat="44.55942" lon="5.7806">
        <ele>986.6</ele>
        <time>2015-04-05T07:56:05Z</time>
      </trkpt>
      <trkpt lat="44.55953" lon="5.78059">
        <ele>981.2</ele>
        <time>2015-04-05T07:56:08Z</time>
      </trkpt>
      <trkpt lat="44.55962" lon="5.78062">
        <ele>976.9</ele>
        <time>2015-04-05T07:56:11Z</time>
      </trkpt>
      <trkpt lat="44.5597" lon="5.78073">
        <ele>974.8</ele>
        <time>2015-04-05T07:56:14Z</time>
      </trkpt>
      <trkpt lat="44.55973" lon="5.78087">
        <ele>974.7</ele>
        <time>2015-04-05T07:56:17Z</time>
      </trkpt>
      <trkpt lat="44.55976" lon="5.78101">
        <ele>975</ele>
        <time>2015-04-05T07:56:20Z</time>
      </trkpt>
      <trkpt lat="44.55979" lon="5.78115">
        <ele>975.1</ele>
        <time>2015-04-05T07:56:23Z</time>
      </trkpt>
      <trkpt lat="44.55982" lon="5.7813">
        <ele>975.4</ele>
        <time>2015-04-05T07:56:26Z</time>
      </trkpt>
      <trkpt lat="44.55985" lon="5.78145">
        <ele>976</ele>
        <time>2015-04-05T07:56:29Z</time>
      </trkpt>
      <trkpt lat="44.55987" lon="5.7816">
        <ele>976.9</ele>
        <time>2015-04-05T07:56:32Z</time>
      </trkpt>
      <trkpt lat="44.55988" lon="5.78176">
        <ele>978.5</ele>
        <time>2015-04-05T07:56:35Z</time>
      </trkpt>
      <trkpt lat="44.55988" lon="5.78193">
        <ele>980.9</ele>
        <time>2015-04-05T07:56:38Z</time>
      </trkpt>
      <trkpt lat="44.55986" lon="5.78209">
        <ele>983.6</ele>
        <time>2015-04-05T07:56:41Z</time>
      </trkpt>
      <trkpt lat="44.55986" lon="5.78225">
        <ele>986</ele>
        <time>2015-04-05T07:56:44Z</time>
      </trkpt>
      <trkpt lat="44.55984" lon="5.78241">
        <ele>988.8</ele>
        <time>2015-04-05T07:56:47Z</time>
      </trkpt>
      <trkpt lat="44.55979" lon="5.78255">
        <ele>991.8</ele>
        <time>2015-04-05T07:56:50Z</time>
      </trkpt>
      <trkpt lat="44.55972" lon="5.78269">
        <ele>994.3</ele>
        <time>2015-04-05T07:56:53Z</time>
      </trkpt>
      <trkpt lat="44.55966" lon="5.78283">
        <ele>996.3</ele>
        <time>2015-04-05T07:56:56Z</time>
      </trkpt>
      <trkpt lat="44.55961" lon="5.78295">
        <ele>997.8</ele>
        <time>2015-04-05T07:56:59Z</time>
      </trkpt>
      <trkpt lat="44.55955" lon="5.78308">
        <ele>999</ele>
        <time>2015-04-05T07:57:02Z</time>
      </trkpt>
      <trkpt lat="44.5595" lon="5.78322">
        <ele>999.8</ele>
        <time>2015-04-05T07:57:05Z</time>
      </trkpt>
      <trkpt lat="44.55947" lon="5.78336">
        <ele>1000.6</ele>
        <time>2015-04-05T07:57:08Z</time>
      </trkpt>
      <trkpt lat="44.55945" lon="5.78351">
        <ele>1002.9</ele>
        <time>2015-04-05T07:57:11Z</time>
      </trkpt>
      <trkpt lat="44.55945" lon="5.78367">
        <ele>1005.3</ele>
        <time>2015-04-05T07:57:14Z</time>
      </trkpt>
      <trkpt lat="44.55945" lon="5.78382">
        <ele>1007.6</ele>
        <time>2015-04-05T07:57:17Z</time>
      </trkpt>
      <trkpt lat="44.55949" lon="5.78395">
        <ele>1009.3</ele>
        <time>2015-04-05T07:57:20Z</time>
      </trkpt>
      <trkpt lat="44.55958" lon="5.78401">
        <ele>1009.2</ele>
        <time>2015-04-05T07:57:23Z</time>
      </trkpt>
      <trkpt lat="44.5597" lon="5.78401">
        <ele>1008</ele>
        <time>2015-04-05T07:57:26Z</time>
      </trkpt>
      <trkpt lat="44.55981" lon="5.78399">
        <ele>1006.7</ele>
        <time>2015-04-05T07:57:29Z</time>
      </trkpt>
      <trkpt lat="44.55992" lon="5.78398">
        <ele>1005.4</ele>
        <time>2015-04-05T07:57:32Z</time>
      </trkpt>
      <trkpt lat="44.56004" lon="5.78396">
        <ele>1005.4</ele>
        <time>2015-04-05T07:57:35Z</time>
      </trkpt>
      <trkpt lat="44.56015" lon="5.78396">
        <ele>1008</ele>
        <time>2015-04-05T07:57:38Z</time>
      </trkpt>
      <trkpt lat="44.56026" lon="5.78397">
        <ele>1010.7</ele>
        <time>2015-04-05T07:57:41Z</time>
      </trkpt>
      <trkpt lat="44.56035" lon="5.78405">
        <ele>1013.8</ele>
        <time>2015-04-05T07:57:44Z</time>
      </trkpt>
      <trkpt lat="44.56041" lon="5.78417">
        <ele>1016.2</ele>
        <time>2015-04-05T07:57:47Z</time>
      </trkpt>
      <trkpt lat="44.56045" lon="5.78428">
        <ele>1018.6</ele>
        <time>2015-04-05T07:57:50Z</time>
      </trkpt>
      <trkpt lat="44.5605" lon="5.7844">
        <ele>1020.9</ele>
        <time>2015-04-05T07:57:53Z</time>
      </trkpt>
      <trkpt lat="44.56056" lon="5.78452">
        <ele>1023.6</ele>
        <time>2015-04-05T07:57:56Z</time>
      </trkpt>
      <trkpt lat="44.56062" lon="5.78464">
        <ele>1026</ele>
        <time>2015-04-05T07:57:59Z</time>
      </trkpt>
      <trkpt lat="44.56066" lon="5.78476">
        <ele>1028.3</ele>
        <time>2015-04-05T07:58:02Z</time>
      </trkpt>
      <trkpt lat="44.5607" lon="5.7849">
        <ele>1030.4</ele>
        <time>2015-04-05T07:58:05Z</time>
      </trkpt>
      <trkpt lat="44.56072" lon="5.78504">
        <ele>1032.2</ele>
        <time>2015-04-05T07:58:08Z</time>
      </trkpt>
      <trkpt lat="44.56074" lon="5.78518">
        <ele>1034.3</ele>
        <time>2015-04-05T07:58:11Z</time>
      </trkpt>
      <trkpt lat="44.56075" lon="5.78533">
        <ele>1036.2</ele>
        <time>2015-04-05T07:58:14Z</time>
      </trkpt>
      <trkpt lat="44.56076" lon="5.78545">
        <ele>1037.9</ele>
        <time>2015-04-05T07:58:17Z</time>
      </trkpt>
      <trkpt lat="44.56079" lon="5.7856">
        <ele>1040.4</ele>
        <time>2015-04-05T07:58:21Z</time>
      </trkpt>
      <trkpt lat="44.56088" lon="5.78566">
        <ele>1042.7</ele>
        <time>2015-04-05T07:58:24Z</time>
      </trkpt>
      <trkpt lat="44.56097" lon="5.78562">
        <ele>1043.7</ele>
        <time>2015-04-05T07:58:27Z</time>
      </trkpt>
      <trkpt lat="44.56105" lon="5.7855">
        <ele>1043.6</ele>
        <time>2015-04-05T07:58:31Z</time>
      </trkpt>
      <trkpt lat="44.56113" lon="5.78537">
        <ele>1043.4</ele>
        <time>2015-04-05T07:58:35Z</time>
      </trkpt>
      <trkpt lat="44.56119" lon="5.78527">
        <ele>1043.2</ele>
        <time>2015-04-05T07:58:38Z</time>
      </trkpt>
      <trkpt lat="44.56125" lon="5.78515">
        <ele>1042.8</ele>
        <time>2015-04-05T07:58:41Z</time>
      </trkpt>
      <trkpt lat="44.56129" lon="5.78504">
        <ele>1042.1</ele>
        <time>2015-04-05T07:58:44Z</time>
      </trkpt>
      <trkpt lat="44.56134" lon="5.78489">
        <ele>1041.3</ele>
        <time>2015-04-05T07:58:48Z</time>
      </trkpt>
      <trkpt lat="44.56138" lon="5.78473">
        <ele>1040.3</ele>
        <time>2015-04-05T07:58:52Z</time>
      </trkpt>
      <trkpt lat="44.56141" lon="5.78458">
        <ele>1039.3</ele>
        <time>2015-04-05T07:58:56Z</time>
      </trkpt>
      <trkpt lat="44.56144" lon="5.78444">
        <ele>1038.3</ele>
        <time>2015-04-05T07:59:00Z</time>
      </trkpt>
      <trkpt lat="44.56147" lon="5.7843">
        <ele>1037.2</ele>
        <time>2015-04-05T07:59:04Z</time>
      </trkpt>
      <trkpt lat="44.5615" lon="5.78416">
        <ele>1036.3</ele>
        <time>2015-04-05T07:59:08Z</time>
      </trkpt>
      <trkpt lat="44.56153" lon="5.78403">
        <ele>1035.9</ele>
        <time>2015-04-05T07:59:12Z</time>
      </trkpt>
      <trkpt lat="44.56157" lon="5.78389">
        <ele>1035.5</ele>
        <time>2015-04-05T07:59:16Z</time>
      </trkpt>
      <trkpt lat="44.56161" lon="5.78375">
        <ele>1035.1</ele>
        <time>2015-04-05T07:59:20Z</time>
      </trkpt>
      <trkpt lat="44.56164" lon="5.78363">
        <ele>1034.6</ele>
        <time>2015-04-05T07:59:24Z</time>
      </trkpt>
      <trkpt lat="44.56167" lon="5.78349">
        <ele>1034.1</ele>
        <time>2015-04-05T07:59:28Z</time>
      </trkpt>
      <trkpt lat="44.5617" lon="5.78334">
        <ele>1032.6</ele>
        <time>2015-04-05T07:59:32Z</time>
      </trkpt>
      <trkpt lat="44.56175" lon="5.78319">
        <ele>1031</ele>
        <time>2015-04-05T07:59:36Z</time>
      </trkpt>
      <trkpt lat="44.5618" lon="5.78305">
        <ele>1029.4</ele>
        <time>2015-04-05T07:59:40Z</time>
      </trkpt>
      <trkpt lat="44.56185" lon="5.78291">
        <ele>1027.7</ele>
        <time>2015-04-05T07:59:44Z</time>
      </trkpt>
      <trkpt lat="44.56192" lon="5.7828">
        <ele>1025.9</ele>
        <time>2015-04-05T07:59:48Z</time>
      </trkpt>
      <trkpt lat="44.56199" lon="5.78269">
        <ele>1024.2</ele>
        <time>2015-04-05T07:59:52Z</time>
      </trkpt>
      <trkpt lat="44.56206" lon="5.7826">
        <ele>1022.6</ele>
        <time>2015-04-05T07:59:55Z</time>
      </trkpt>
      <trkpt lat="44.56214" lon="5.7825">
        <ele>1020.6</ele>
        <time>2015-04-05T07:59:59Z</time>
      </trkpt>
      <trkpt lat="44.56223" lon="5.78242">
        <ele>1017.7</ele>
        <time>2015-04-05T08:00:03Z</time>
      </trkpt>
      <trkpt lat="44.56232" lon="5.78238">
        <ele>1015.8</ele>
        <time>2015-04-05T08:00:07Z</time>
      </trkpt>
      <trkpt lat="44.56241" lon="5.78243">
        <ele>1015.7</ele>
        <time>2015-04-05T08:00:11Z</time>
      </trkpt>
      <trkpt lat="44.56247" lon="5.78257">
        <ele>1017</ele>
        <time>2015-04-05T08:00:15Z</time>
      </trkpt>
      <trkpt lat="44.56249" lon="5.78272">
        <ele>1018.2</ele>
        <time>2015-04-05T08:00:19Z</time>
      </trkpt>
      <trkpt lat="44.56251" lon="5.78287">
        <ele>1019.6</ele>
        <time>2015-04-05T08:00:23Z</time>
      </trkpt>
      <trkpt lat="44.56252" lon="5.78302">
        <ele>1021.5</ele>
        <time>2015-04-05T08:00:27Z</time>
      </trkpt>
      <trkpt lat="44.56254" lon="5.78318">
        <ele>1023.4</ele>
        <time>2015-04-05T08:00:31Z</time>
      </trkpt>
      <trkpt lat="44.56256" lon="5.78333">
        <ele>1025.5</ele>
        <time>2015-04-05T08:00:35Z</time>
      </trkpt>
      <trkpt lat="44.56257" lon="5.78348">
        <ele>1027.6</ele>
        <time>2015-04-05T08:00:39Z</time>
      </trkpt>
      <trkpt lat="44.56259" lon="5.78362">
        <ele>1030</ele>
        <time>2015-04-05T08:00:43Z</time>
      </trkpt>
      <trkpt lat="44.56262" lon="5.78378">
        <ele>1032.5</ele>
        <time>2015-04-05T08:00:47Z</time>
      </trkpt>
      <trkpt lat="44.56264" lon="5.78391">
        <ele>1034.6</ele>
        <time>2015-04-05T08:00:51Z</time>
      </trkpt>
      <trkpt lat="44.56267" lon="5.78403">
        <ele>1036.8</ele>
        <time>2015-04-05T08:00:56Z</time>
      </trkpt>
      <trkpt lat="44.56271" lon="5.78416">
        <ele>1039.1</ele>
        <time>2015-04-05T08:01:01Z</time>
      </trkpt>
      <trkpt lat="44.56276" lon="5.78427">
        <ele>1041.1</ele>
        <time>2015-04-05T08:01:05Z</time>
      </trkpt>
      <trkpt lat="44.56283" lon="5.78437">
        <ele>1043.3</ele>
        <time>2015-04-05T08:01:09Z</time>
      </trkpt>
      <trkpt lat="44.5629" lon="5.78448">
        <ele>1045.4</ele>
        <time>2015-04-05T08:01:13Z</time>
      </trkpt>
      <trkpt lat="44.56297" lon="5.78457">
        <ele>1047.4</ele>
        <time>2015-04-05T08:01:17Z</time>
      </trkpt>
      <trkpt lat="44.56305" lon="5.78468">
        <ele>1049.5</ele>
        <time>2015-04-05T08:01:21Z</time>
      </trkpt>
      <trkpt lat="44.56312" lon="5.78479">
        <ele>1051.3</ele>
        <time>2015-04-05T08:01:25Z</time>
      </trkpt>
      <trkpt lat="44.56319" lon="5.7849">
        <ele>1053.1</ele>
        <time>2015-04-05T08:01:29Z</time>
      </trkpt>
      <trkpt lat="44.56326" lon="5.78502">
        <ele>1054.9</ele>
        <time>2015-04-05T08:01:33Z</time>
      </trkpt>
      <trkpt lat="44.56331" lon="5.78514">
        <ele>1056.1</ele>
        <time>2015-04-05T08:01:37Z</time>
      </trkpt>
      <trkpt lat="44.56335" lon="5.78527">
        <ele>1057.1</ele>
        <time>2015-04-05T08:01:41Z</time>
      </trkpt>
      <trkpt lat="44.56336" lon="5.78541">
        <ele>1057.7</ele>
        <time>2015-04-05T08:01:45Z</time>
      </trkpt>
      <trkpt lat="44.56339" lon="5.78556">
        <ele>1058.5</ele>
        <time>2015-04-05T08:01:49Z</time>
      </trkpt>
      <trkpt lat="44.56347" lon="5.78565">
        <ele>1059.5</ele>
        <time>2015-04-05T08:01:53Z</time>
      </trkpt>
      <trkpt lat="44.56357" lon="5.78567">
        <ele>1060.4</ele>
        <time>2015-04-05T08:01:57Z</time>
      </trkpt>
      <trkpt lat="44.56366" lon="5.78562">
        <ele>1061.1</ele>
        <time>2015-04-05T08:02:01Z</time>
      </trkpt>
      <trkpt lat="44.56373" lon="5.78552">
        <ele>1061.4</ele>
        <time>2015-04-05T08:02:05Z</time>
      </trkpt>
      <trkpt lat="44.56377" lon="5.78538">
        <ele>1061.3</ele>
        <time>2015-04-05T08:02:09Z</time>
      </trkpt>
      <trkpt lat="44.56381" lon="5.78523">
        <ele>1061.2</ele>
        <time>2015-04-05T08:02:12Z</time>
      </trkpt>
      <trkpt lat="44.56383" lon="5.78508">
        <ele>1061</ele>
        <time>2015-04-05T08:02:15Z</time>
      </trkpt>
      <trkpt lat="44.56385" lon="5.78492">
        <ele>1060.7</ele>
        <time>2015-04-05T08:02:19Z</time>
      </trkpt>
      <trkpt lat="44.56386" lon="5.78476">
        <ele>1060.3</ele>
        <time>2015-04-05T08:02:23Z</time>
      </trkpt>
      <trkpt lat="44.56387" lon="5.78461">
        <ele>1059.9</ele>
        <time>2015-04-05T08:02:27Z</time>
      </trkpt>
      <trkpt lat="44.56388" lon="5.78445">
        <ele>1059.5</ele>
        <time>2015-04-05T08:02:31Z</time>
      </trkpt>
      <trkpt lat="44.5639" lon="5.78432">
        <ele>1059.3</ele>
        <time>2015-04-05T08:02:34Z</time>
      </trkpt>
      <trkpt lat="44.56393" lon="5.78417">
        <ele>1059.1</ele>
        <time>2015-04-05T08:02:38Z</time>
      </trkpt>
      <trkpt lat="44.56397" lon="5.78401">
        <ele>1058</ele>
        <time>2015-04-05T08:02:42Z</time>
      </trkpt>
      <trkpt lat="44.56401" lon="5.78386">
        <ele>1057</ele>
        <time>2015-04-05T08:02:46Z</time>
      </trkpt>
      <trkpt lat="44.56405" lon="5.78374">
        <ele>1056.2</ele>
        <time>2015-04-05T08:02:49Z</time>
      </trkpt>
      <trkpt lat="44.56409" lon="5.78362">
        <ele>1055.4</ele>
        <time>2015-04-05T08:02:52Z</time>
      </trkpt>
      <trkpt lat="44.56414" lon="5.78352">
        <ele>1054.7</ele>
        <time>2015-04-05T08:02:55Z</time>
      </trkpt>
      <trkpt lat="44.5642" lon="5.78342">
        <ele>1053.1</ele>
        <time>2015-04-05T08:02:58Z</time>
      </trkpt>
      <trkpt lat="44.56429" lon="5.7833">
        <ele>1049.4</ele>
        <time>2015-04-05T08:03:02Z</time>
      </trkpt>
      <trkpt lat="44.56436" lon="5.78322">
        <ele>1045.6</ele>
        <time>2015-04-05T08:03:05Z</time>
      </trkpt>
      <trkpt lat="44.56444" lon="5.78314">
        <ele>1041.3</ele>
        <time>2015-04-05T08:03:08Z</time>
      </trkpt>
      <trkpt lat="44.56454" lon="5.78308">
        <ele>1036.9</ele>
        <time>2015-04-05T08:03:11Z</time>
      </trkpt>
      <trkpt lat="44.56464" lon="5.78304">
        <ele>1033</ele>
        <time>2015-04-05T08:03:14Z</time>
      </trkpt>
      <trkpt lat="44.56473" lon="5.78303">
        <ele>1030</ele>
        <time>2015-04-05T08:03:17Z</time>
      </trkpt>
      <trkpt lat="44.56485" lon="5.78307">
        <ele>1028.2</ele>
        <time>2015-04-05T08:03:21Z</time>
      </trkpt>
      <trkpt lat="44.56493" lon="5.78316">
        <ele>1029.3</ele>
        <time>2015-04-05T08:03:24Z</time>
      </trkpt>
      <trkpt lat="44.56501" lon="5.78327">
        <ele>1031.8</ele>
        <time>2015-04-05T08:03:27Z</time>
      </trkpt>
      <trkpt lat="44.56506" lon="5.78338">
        <ele>1034.5</ele>
        <time>2015-04-05T08:03:30Z</time>
      </trkpt>
      <trkpt lat="44.56511" lon="5.78349">
        <ele>1035.4</ele>
        <time>2015-04-05T08:03:33Z</time>
      </trkpt>
      <trkpt lat="44.56514" lon="5.78361">
        <ele>1036.9</ele>
        <time>2015-04-05T08:03:36Z</time>
      </trkpt>
      <trkpt lat="44.56516" lon="5.78374">
        <ele>1038.8</ele>
        <time>2015-04-05T08:03:39Z</time>
      </trkpt>
      <trkpt lat="44.56518" lon="5.78386">
        <ele>1040.7</ele>
        <time>2015-04-05T08:03:42Z</time>
      </trkpt>
      <trkpt lat="44.56522" lon="5.78401">
        <ele>1043.1</ele>
        <time>2015-04-05T08:03:46Z</time>
      </trkpt>
      <trkpt lat="44.56525" lon="5.78416">
        <ele>1045.8</ele>
        <time>2015-04-05T08:03:50Z</time>
      </trkpt>
      <trkpt lat="44.56528" lon="5.78432">
        <ele>1047.1</ele>
        <time>2015-04-05T08:03:54Z</time>
      </trkpt>
      <trkpt lat="44.56531" lon="5.78447">
        <ele>1048.3</ele>
        <time>2015-04-05T08:03:58Z</time>
      </trkpt>
      <trkpt lat="44.56535" lon="5.78463">
        <ele>1049.4</ele>
        <time>2015-04-05T08:04:02Z</time>
      </trkpt>
      <trkpt lat="44.56538" lon="5.7848">
        <ele>1050.6</ele>
        <time>2015-04-05T08:04:06Z</time>
      </trkpt>
      <trkpt lat="44.56539" lon="5.78495">
        <ele>1051.7</ele>
        <time>2015-04-05T08:04:10Z</time>
      </trkpt>
      <trkpt lat="44.56539" lon="5.7851">
        <ele>1052.3</ele>
        <time>2015-04-05T08:04:14Z</time>
      </trkpt>
      <trkpt lat="44.56538" lon="5.78525">
        <ele>1052.6</ele>
        <time>2015-04-05T08:04:18Z</time>
      </trkpt>
      <trkpt lat="44.56536" lon="5.78541">
        <ele>1053.1</ele>
        <time>2015-04-05T08:04:22Z</time>
      </trkpt>
      <trkpt lat="44.56537" lon="5.78558">
        <ele>1053.4</ele>
        <time>2015-04-05T08:04:26Z</time>
      </trkpt>
      <trkpt lat="44.56542" lon="5.78572">
        <ele>1053.3</ele>
        <time>2015-04-05T08:04:30Z</time>
      </trkpt>
      <trkpt lat="44.5655" lon="5.78581">
        <ele>1052.6</ele>
        <time>2015-04-05T08:04:34Z</time>
      </trkpt>
      <trkpt lat="44.56559" lon="5.78586">
        <ele>1051.6</ele>
        <time>2015-04-05T08:04:38Z</time>
      </trkpt>
      <trkpt lat="44.56569" lon="5.7859">
        <ele>1050.3</ele>
        <time>2015-04-05T08:04:43Z</time>
      </trkpt>
      <trkpt lat="44.56578" lon="5.78594">
        <ele>1049.1</ele>
        <time>2015-04-05T08:04:47Z</time>
      </trkpt>
      <trkpt lat="44.56586" lon="5.78601">
        <ele>1047.3</ele>
        <time>2015-04-05T08:04:51Z</time>
      </trkpt>
      <trkpt lat="44.56592" lon="5.78611">
        <ele>1045.4</ele>
        <time>2015-04-05T08:04:55Z</time>
      </trkpt>
      <trkpt lat="44.56597" lon="5.78624">
        <ele>1043.9</ele>
        <time>2015-04-05T08:04:59Z</time>
      </trkpt>
      <trkpt lat="44.56598" lon="5.7864">
        <ele>1043</ele>
        <time>2015-04-05T08:05:03Z</time>
      </trkpt>
      <trkpt lat="44.56597" lon="5.78656">
        <ele>1042.6</ele>
        <time>2015-04-05T08:05:07Z</time>
      </trkpt>
      <trkpt lat="44.56595" lon="5.78669">
        <ele>1042.6</ele>
        <time>2015-04-05T08:05:10Z</time>
      </trkpt>
      <trkpt lat="44.56593" lon="5.78682">
        <ele>1044.3</ele>
        <time>2015-04-05T08:05:13Z</time>
      </trkpt>
      <trkpt lat="44.56591" lon="5.78695">
        <ele>1046</ele>
        <time>2015-04-05T08:05:16Z</time>
      </trkpt>
      <trkpt lat="44.5659" lon="5.78712">
        <ele>1047.9</ele>
        <time>2015-04-05T08:05:20Z</time>
      </trkpt>
      <trkpt lat="44.5659" lon="5.78728">
        <ele>1049.8</ele>
        <time>2015-04-05T08:05:24Z</time>
      </trkpt>
      <trkpt lat="44.56591" lon="5.78744">
        <ele>1051.4</ele>
        <time>2015-04-05T08:05:28Z</time>
      </trkpt>
      <trkpt lat="44.56593" lon="5.78757">
        <ele>1052.8</ele>
        <time>2015-04-05T08:05:31Z</time>
      </trkpt>
      <trkpt lat="44.56596" lon="5.78769">
        <ele>1054.3</ele>
        <time>2015-04-05T08:05:34Z</time>
      </trkpt>
      <trkpt lat="44.566" lon="5.78781">
        <ele>1055.4</ele>
        <time>2015-04-05T08:05:37Z</time>
      </trkpt>
      <trkpt lat="44.56605" lon="5.78793">
        <ele>1056</ele>
        <time>2015-04-05T08:05:40Z</time>
      </trkpt>
      <trkpt lat="44.56613" lon="5.78804">
        <ele>1055.7</ele>
        <time>2015-04-05T08:05:43Z</time>
      </trkpt>
      <trkpt lat="44.56622" lon="5.78812">
        <ele>1054.2</ele>
        <time>2015-04-05T08:05:46Z</time>
      </trkpt>
      <trkpt lat="44.56634" lon="5.78814">
        <ele>1051.3</ele>
        <time>2015-04-05T08:05:49Z</time>
      </trkpt>
      <trkpt lat="44.56645" lon="5.7881">
        <ele>1048.3</ele>
        <time>2015-04-05T08:05:52Z</time>
      </trkpt>
      <trkpt lat="44.56655" lon="5.78806">
        <ele>1045.8</ele>
        <time>2015-04-05T08:05:55Z</time>
      </trkpt>
      <trkpt lat="44.56666" lon="5.78809">
        <ele>1043.1</ele>
        <time>2015-04-05T08:05:59Z</time>
      </trkpt>
      <trkpt lat="44.56673" lon="5.78821">
        <ele>1041</ele>
        <time>2015-04-05T08:06:03Z</time>
      </trkpt>
      <trkpt lat="44.56673" lon="5.78835">
        <ele>1041.1</ele>
        <time>2015-04-05T08:06:06Z</time>
      </trkpt>
      <trkpt lat="44.56673" lon="5.78851">
        <ele>1041.4</ele>
        <time>2015-04-05T08:06:09Z</time>
      </trkpt>
      <trkpt lat="44.56673" lon="5.78867">
        <ele>1041.6</ele>
        <time>2015-04-05T08:06:12Z</time>
      </trkpt>
      <trkpt lat="44.56673" lon="5.78883">
        <ele>1041.8</ele>
        <time>2015-04-05T08:06:15Z</time>
      </trkpt>
      <trkpt lat="44.56673" lon="5.78899">
        <ele>1042</ele>
        <time>2015-04-05T08:06:18Z</time>
      </trkpt>
      <trkpt lat="44.56673" lon="5.78916">
        <ele>1042.1</ele>
        <time>2015-04-05T08:06:21Z</time>
      </trkpt>
      <trkpt lat="44.56674" lon="5.78933">
        <ele>1043.1</ele>
        <time>2015-04-05T08:06:24Z</time>
      </trkpt>
      <trkpt lat="44.56678" lon="5.7895">
        <ele>1043.3</ele>
        <time>2015-04-05T08:06:27Z</time>
      </trkpt>
      <trkpt lat="44.56684" lon="5.78965">
        <ele>1042.6</ele>
        <time>2015-04-05T08:06:30Z</time>
      </trkpt>
      <trkpt lat="44.56688" lon="5.78981">
        <ele>1042.2</ele>
        <time>2015-04-05T08:06:33Z</time>
      </trkpt>
      <trkpt lat="44.56691" lon="5.78998">
        <ele>1042.2</ele>
        <time>2015-04-05T08:06:36Z</time>
      </trkpt>
      <trkpt lat="44.56694" lon="5.7901">
        <ele>1042.5</ele>
        <time>2015-04-05T08:06:38Z</time>
      </trkpt>
      <trkpt lat="44.567" lon="5.79027">
        <ele>1042.2</ele>
        <time>2015-04-05T08:06:41Z</time>
      </trkpt>
      <trkpt lat="44.56705" lon="5.79037">
        <ele>1041.4</ele>
        <time>2015-04-05T08:06:43Z</time>
      </trkpt>
      <trkpt lat="44.56711" lon="5.79047">
        <ele>1040.1</ele>
        <time>2015-04-05T08:06:45Z</time>
      </trkpt>
      <trkpt lat="44.56717" lon="5.79057">
        <ele>1038.6</ele>
        <time>2015-04-05T08:06:47Z</time>
      </trkpt>
      <trkpt lat="44.56723" lon="5.79066">
        <ele>1036.7</ele>
        <time>2015-04-05T08:06:49Z</time>
      </trkpt>
      <trkpt lat="44.56734" lon="5.79078">
        <ele>1033.4</ele>
        <time>2015-04-05T08:06:52Z</time>
      </trkpt>
      <trkpt lat="44.5674" lon="5.79087">
        <ele>1031.4</ele>
        <time>2015-04-05T08:06:54Z</time>
      </trkpt>
      <trkpt lat="44.56747" lon="5.79096">
        <ele>1029.8</ele>
        <time>2015-04-05T08:06:56Z</time>
      </trkpt>
      <trkpt lat="44.56753" lon="5.79106">
        <ele>1029</ele>
        <time>2015-04-05T08:06:58Z</time>
      </trkpt>
      <trkpt lat="44.56759" lon="5.79118">
        <ele>1029.2</ele>
        <time>2015-04-05T08:07:00Z</time>
      </trkpt>
      <trkpt lat="44.56765" lon="5.7913">
        <ele>1029.2</ele>
        <time>2015-04-05T08:07:02Z</time>
      </trkpt>
      <trkpt lat="44.56771" lon="5.79142">
        <ele>1029.4</ele>
        <time>2015-04-05T08:07:04Z</time>
      </trkpt>
      <trkpt lat="44.56777" lon="5.79155">
        <ele>1029.4</ele>
        <time>2015-04-05T08:07:06Z</time>
      </trkpt>
      <trkpt lat="44.56783" lon="5.79167">
        <ele>1029.5</ele>
        <time>2015-04-05T08:07:08Z</time>
      </trkpt>
      <trkpt lat="44.56788" lon="5.79179">
        <ele>1029.9</ele>
        <time>2015-04-05T08:07:10Z</time>
      </trkpt>
      <trkpt lat="44.56794" lon="5.79191">
        <ele>1030.1</ele>
        <time>2015-04-05T08:07:12Z</time>
      </trkpt>
      <trkpt lat="44.56799" lon="5.79203">
        <ele>1030.3</ele>
        <time>2015-04-05T08:07:14Z</time>
      </trkpt>
      <trkpt lat="44.56804" lon="5.79216">
        <ele>1030.5</ele>
        <time>2015-04-05T08:07:16Z</time>
      </trkpt>
      <trkpt lat="44.56808" lon="5.7923">
        <ele>1030.9</ele>
        <time>2015-04-05T08:07:18Z</time>
      </trkpt>
      <trkpt lat="44.56813" lon="5.79246">
        <ele>1031</ele>
        <time>2015-04-05T08:07:20Z</time>
      </trkpt>
      <trkpt lat="44.56818" lon="5.79264">
        <ele>1030.9</ele>
        <time>2015-04-05T08:07:22Z</time>
      </trkpt>
      <trkpt lat="44.56823" lon="5.79284">
        <ele>1031</ele>
        <time>2015-04-05T08:07:24Z</time>
      </trkpt>
      <trkpt lat="44.56826" lon="5.79305">
        <ele>1032</ele>
        <time>2015-04-05T08:07:26Z</time>
      </trkpt>
      <trkpt lat="44.56825" lon="5.79325">
        <ele>1033.9</ele>
        <time>2015-04-05T08:07:28Z</time>
      </trkpt>
      <trkpt lat="44.56819" lon="5.79342">
        <ele>1036.5</ele>
        <time>2015-04-05T08:07:30Z</time>
      </trkpt>
      <trkpt lat="44.5681" lon="5.79354">
        <ele>1038.9</ele>
        <time>2015-04-05T08:07:32Z</time>
      </trkpt>
      <trkpt lat="44.56802" lon="5.79366">
        <ele>1040.9</ele>
        <time>2015-04-05T08:07:34Z</time>
      </trkpt>
      <trkpt lat="44.56794" lon="5.79379">
        <ele>1042.6</ele>
        <time>2015-04-05T08:07:36Z</time>
      </trkpt>
      <trkpt lat="44.56787" lon="5.79392">
        <ele>1043.9</ele>
        <time>2015-04-05T08:07:38Z</time>
      </trkpt>
      <trkpt lat="44.56779" lon="5.79403">
        <ele>1045</ele>
        <time>2015-04-05T08:07:40Z</time>
      </trkpt>
      <trkpt lat="44.56771" lon="5.79415">
        <ele>1045.7</ele>
        <time>2015-04-05T08:07:42Z</time>
      </trkpt>
      <trkpt lat="44.56768" lon="5.79427">
        <ele>1047.7</ele>
        <time>2015-04-05T08:07:44Z</time>
      </trkpt>
      <trkpt lat="44.56773" lon="5.79441">
        <ele>1049.8</ele>
        <time>2015-04-05T08:07:47Z</time>
      </trkpt>
      <trkpt lat="44.56783" lon="5.79449">
        <ele>1050.4</ele>
        <time>2015-04-05T08:07:50Z</time>
      </trkpt>
      <trkpt lat="44.56793" lon="5.79454">
        <ele>1050.7</ele>
        <time>2015-04-05T08:07:53Z</time>
      </trkpt>
      <trkpt lat="44.56803" lon="5.79463">
        <ele>1051.3</ele>
        <time>2015-04-05T08:07:56Z</time>
      </trkpt>
      <trkpt lat="44.56814" lon="5.79465">
        <ele>1050.9</ele>
        <time>2015-04-05T08:07:59Z</time>
      </trkpt>
      <trkpt lat="44.56824" lon="5.79462">
        <ele>1049.6</ele>
        <time>2015-04-05T08:08:02Z</time>
      </trkpt>
      <trkpt lat="44.56835" lon="5.7946">
        <ele>1049.7</ele>
        <time>2015-04-05T08:08:05Z</time>
      </trkpt>
      <trkpt lat="44.56847" lon="5.79465">
        <ele>1056.5</ele>
        <time>2015-04-05T08:08:08Z</time>
      </trkpt>
      <trkpt lat="44.56857" lon="5.79475">
        <ele>1063.4</ele>
        <time>2015-04-05T08:08:11Z</time>
      </trkpt>
      <trkpt lat="44.56863" lon="5.79489">
        <ele>1069.4</ele>
        <time>2015-04-05T08:08:14Z</time>
      </trkpt>
      <trkpt lat="44.56867" lon="5.795">
        <ele>1073.8</ele>
        <time>2015-04-05T08:08:16Z</time>
      </trkpt>
      <trkpt lat="44.56873" lon="5.79513">
        <ele>1077.4</ele>
        <time>2015-04-05T08:08:18Z</time>
      </trkpt>
      <trkpt lat="44.56877" lon="5.79525">
        <ele>1080.7</ele>
        <time>2015-04-05T08:08:20Z</time>
      </trkpt>
      <trkpt lat="44.56882" lon="5.79538">
        <ele>1084</ele>
        <time>2015-04-05T08:08:22Z</time>
      </trkpt>
      <trkpt lat="44.56886" lon="5.79552">
        <ele>1087.2</ele>
        <time>2015-04-05T08:08:24Z</time>
      </trkpt>
      <trkpt lat="44.56891" lon="5.79565">
        <ele>1090.6</ele>
        <time>2015-04-05T08:08:26Z</time>
      </trkpt>
      <trkpt lat="44.56896" lon="5.79579">
        <ele>1094.2</ele>
        <time>2015-04-05T08:08:28Z</time>
      </trkpt>
      <trkpt lat="44.56902" lon="5.79593">
        <ele>1097.1</ele>
        <time>2015-04-05T08:08:30Z</time>
      </trkpt>
      <trkpt lat="44.56913" lon="5.79598">
        <ele>1102.4</ele>
        <time>2015-04-05T08:08:33Z</time>
      </trkpt>
      <trkpt lat="44.56918" lon="5.79586">
        <ele>1106.9</ele>
        <time>2015-04-05T08:08:36Z</time>
      </trkpt>
      <trkpt lat="44.5692" lon="5.7957">
        <ele>1107.5</ele>
        <time>2015-04-05T08:08:40Z</time>
      </trkpt>
      <trkpt lat="44.56921" lon="5.79557">
        <ele>1107.5</ele>
        <time>2015-04-05T08:08:43Z</time>
      </trkpt>
      <trkpt lat="44.56924" lon="5.79541">
        <ele>1108.6</ele>
        <time>2015-04-05T08:08:47Z</time>
      </trkpt>
      <trkpt lat="44.56926" lon="5.79525">
        <ele>1109.1</ele>
        <time>2015-04-05T08:08:51Z</time>
      </trkpt>
      <trkpt lat="44.56928" lon="5.79511">
        <ele>1109.9</ele>
        <time>2015-04-05T08:08:55Z</time>
      </trkpt>
      <trkpt lat="44.5693" lon="5.79497">
        <ele>1109.8</ele>
        <time>2015-04-05T08:08:59Z</time>
      </trkpt>
      <trkpt lat="44.56932" lon="5.79482">
        <ele>1108.2</ele>
        <time>2015-04-05T08:09:03Z</time>
      </trkpt>
      <trkpt lat="44.56936" lon="5.79467">
        <ele>1107.4</ele>
        <time>2015-04-05T08:09:07Z</time>
      </trkpt>
      <trkpt lat="44.56941" lon="5.79453">
        <ele>1107.4</ele>
        <time>2015-04-05T08:09:11Z</time>
      </trkpt>
      <trkpt lat="44.56945" lon="5.7944">
        <ele>1107</ele>
        <time>2015-04-05T08:09:15Z</time>
      </trkpt>
      <trkpt lat="44.56949" lon="5.79426">
        <ele>1106.6</ele>
        <time>2015-04-05T08:09:19Z</time>
      </trkpt>
      <trkpt lat="44.56954" lon="5.79414">
        <ele>1107.1</ele>
        <time>2015-04-05T08:09:23Z</time>
      </trkpt>
      <trkpt lat="44.56959" lon="5.79402">
        <ele>1108.4</ele>
        <time>2015-04-05T08:09:27Z</time>
      </trkpt>
      <trkpt lat="44.56965" lon="5.79391">
        <ele>1109.9</ele>
        <time>2015-04-05T08:09:31Z</time>
      </trkpt>
      <trkpt lat="44.56971" lon="5.79378">
        <ele>1111.5</ele>
        <time>2015-04-05T08:09:35Z</time>
      </trkpt>
      <trkpt lat="44.56975" lon="5.79365">
        <ele>1111.5</ele>
        <time>2015-04-05T08:09:39Z</time>
      </trkpt>
      <trkpt lat="44.56979" lon="5.79351">
        <ele>1111.4</ele>
        <time>2015-04-05T08:09:43Z</time>
      </trkpt>
      <trkpt lat="44.56983" lon="5.79337">
        <ele>1111.4</ele>
        <time>2015-04-05T08:09:47Z</time>
      </trkpt>
      <trkpt lat="44.56987" lon="5.79323">
        <ele>1112.3</ele>
        <time>2015-04-05T08:09:51Z</time>
      </trkpt>
      <trkpt lat="44.56991" lon="5.79309">
        <ele>1113.3</ele>
        <time>2015-04-05T08:09:55Z</time>
      </trkpt>
      <trkpt lat="44.56994" lon="5.79295">
        <ele>1113.9</ele>
        <time>2015-04-05T08:09:59Z</time>
      </trkpt>
      <trkpt lat="44.56997" lon="5.79282">
        <ele>1114.3</ele>
        <time>2015-04-05T08:10:03Z</time>
      </trkpt>
      <trkpt lat="44.56999" lon="5.79267">
        <ele>1114.2</ele>
        <time>2015-04-05T08:10:07Z</time>
      </trkpt>
      <trkpt lat="44.57" lon="5.79252">
        <ele>1113.1</ele>
        <time>2015-04-05T08:10:11Z</time>
      </trkpt>
      <trkpt lat="44.56999" lon="5.79237">
        <ele>1110.6</ele>
        <time>2015-04-05T08:10:15Z</time>
      </trkpt>
      <trkpt lat="44.56999" lon="5.79222">
        <ele>1108.2</ele>
        <time>2015-04-05T08:10:19Z</time>
      </trkpt>
      <trkpt lat="44.57" lon="5.79206">
        <ele>1105.9</ele>
        <time>2015-04-05T08:10:23Z</time>
      </trkpt>
      <trkpt lat="44.56999" lon="5.79191">
        <ele>1103.4</ele>
        <time>2015-04-05T08:10:27Z</time>
      </trkpt>
      <trkpt lat="44.56998" lon="5.79177">
        <ele>1100.5</ele>
        <time>2015-04-05T08:10:31Z</time>
      </trkpt>
      <trkpt lat="44.56998" lon="5.79163">
        <ele>1098.1</ele>
        <time>2015-04-05T08:10:35Z</time>
      </trkpt>
      <trkpt lat="44.57001" lon="5.7915">
        <ele>1095.7</ele>
        <time>2015-04-05T08:10:39Z</time>
      </trkpt>
      <trkpt lat="44.57005" lon="5.79139">
        <ele>1092.3</ele>
        <time>2015-04-05T08:10:43Z</time>
      </trkpt>
      <trkpt lat="44.5701" lon="5.79125">
        <ele>1088.2</ele>
        <time>2015-04-05T08:10:48Z</time>
      </trkpt>
      <trkpt lat="44.57015" lon="5.79113">
        <ele>1084.5</ele>
        <time>2015-04-05T08:10:52Z</time>
      </trkpt>
      <trkpt lat="44.5702" lon="5.79101">
        <ele>1080.6</ele>
        <time>2015-04-05T08:10:56Z</time>
      </trkpt>
      <trkpt lat="44.57025" lon="5.79089">
        <ele>1076.5</ele>
        <time>2015-04-05T08:11:00Z</time>
      </trkpt>
      <trkpt lat="44.57031" lon="5.79077">
        <ele>1071.8</ele>
        <time>2015-04-05T08:11:04Z</time>
      </trkpt>
      <trkpt lat="44.57038" lon="5.79065">
        <ele>1066.4</ele>
        <time>2015-04-05T08:11:08Z</time>
      </trkpt>
      <trkpt lat="44.57044" lon="5.79052">
        <ele>1061</ele>
        <time>2015-04-05T08:11:12Z</time>
      </trkpt>
      <trkpt lat="44.5705" lon="5.7904">
        <ele>1055.6</ele>
        <time>2015-04-05T08:11:16Z</time>
      </trkpt>
      <trkpt lat="44.57057" lon="5.79028">
        <ele>1050.2</ele>
        <time>2015-04-05T08:11:20Z</time>
      </trkpt>
      <trkpt lat="44.57065" lon="5.79018">
        <ele>1045</ele>
        <time>2015-04-05T08:11:24Z</time>
      </trkpt>
      <trkpt lat="44.57075" lon="5.79015">
        <ele>1041.8</ele>
        <time>2015-04-05T08:11:28Z</time>
      </trkpt>
      <trkpt lat="44.57084" lon="5.79015">
        <ele>1040.4</ele>
        <time>2015-04-05T08:11:31Z</time>
      </trkpt>
      <trkpt lat="44.57094" lon="5.79017">
        <ele>1039.4</ele>
        <time>2015-04-05T08:11:34Z</time>
      </trkpt>
      <trkpt lat="44.57104" lon="5.7902">
        <ele>1038.7</ele>
        <time>2015-04-05T08:11:37Z</time>
      </trkpt>
      <trkpt lat="44.57114" lon="5.79024">
        <ele>1038.1</ele>
        <time>2015-04-05T08:11:40Z</time>
      </trkpt>
      <trkpt lat="44.57123" lon="5.79029">
        <ele>1037.6</ele>
        <time>2015-04-05T08:11:43Z</time>
      </trkpt>
      <trkpt lat="44.57131" lon="5.79035">
        <ele>1037.2</ele>
        <time>2015-04-05T08:11:46Z</time>
      </trkpt>
      <trkpt lat="44.57139" lon="5.79042">
        <ele>1036.7</ele>
        <time>2015-04-05T08:11:49Z</time>
      </trkpt>
      <trkpt lat="44.57147" lon="5.79051">
        <ele>1036.1</ele>
        <time>2015-04-05T08:11:52Z</time>
      </trkpt>
      <trkpt lat="44.57156" lon="5.79061">
        <ele>1035.2</ele>
        <time>2015-04-05T08:11:55Z</time>
      </trkpt>
      <trkpt lat="44.57165" lon="5.79073">
        <ele>1033.7</ele>
        <time>2015-04-05T08:11:58Z</time>
      </trkpt>
      <trkpt lat="44.57173" lon="5.79086">
        <ele>1035.2</ele>
        <time>2015-04-05T08:12:01Z</time>
      </trkpt>
      <trkpt lat="44.57181" lon="5.79098">
        <ele>1039.3</ele>
        <time>2015-04-05T08:12:04Z</time>
      </trkpt>
      <trkpt lat="44.57189" lon="5.79112">
        <ele>1042.6</ele>
        <time>2015-04-05T08:12:07Z</time>
      </trkpt>
      <trkpt lat="44.57199" lon="5.79125">
        <ele>1044.8</ele>
        <time>2015-04-05T08:12:10Z</time>
      </trkpt>
      <trkpt lat="44.57206" lon="5.79133">
        <ele>1045.5</ele>
        <time>2015-04-05T08:12:12Z</time>
      </trkpt>
      <trkpt lat="44.57213" lon="5.79141">
        <ele>1045.6</ele>
        <time>2015-04-05T08:12:14Z</time>
      </trkpt>
      <trkpt lat="44.57221" lon="5.79149">
        <ele>1045.1</ele>
        <time>2015-04-05T08:12:16Z</time>
      </trkpt>
      <trkpt lat="44.57229" lon="5.79156">
        <ele>1044</ele>
        <time>2015-04-05T08:12:18Z</time>
      </trkpt>
      <trkpt lat="44.57237" lon="5.79163">
        <ele>1042.3</ele>
        <time>2015-04-05T08:12:20Z</time>
      </trkpt>
      <trkpt lat="44.57245" lon="5.7917">
        <ele>1041.1</ele>
        <time>2015-04-05T08:12:22Z</time>
      </trkpt>
      <trkpt lat="44.57253" lon="5.79175">
        <ele>1042.2</ele>
        <time>2015-04-05T08:12:24Z</time>
      </trkpt>
      <trkpt lat="44.57261" lon="5.79181">
        <ele>1045.2</ele>
        <time>2015-04-05T08:12:26Z</time>
      </trkpt>
      <trkpt lat="44.57269" lon="5.79188">
        <ele>1047.9</ele>
        <time>2015-04-05T08:12:28Z</time>
      </trkpt>
      <trkpt lat="44.57277" lon="5.79195">
        <ele>1050.2</ele>
        <time>2015-04-05T08:12:30Z</time>
      </trkpt>
      <trkpt lat="44.57285" lon="5.79201">
        <ele>1051.9</ele>
        <time>2015-04-05T08:12:32Z</time>
      </trkpt>
      <trkpt lat="44.57297" lon="5.79209">
        <ele>1053.7</ele>
        <time>2015-04-05T08:12:35Z</time>
      </trkpt>
      <trkpt lat="44.57309" lon="5.79216">
        <ele>1054.4</ele>
        <time>2015-04-05T08:12:38Z</time>
      </trkpt>
      <trkpt lat="44.57318" lon="5.79221">
        <ele>1054.5</ele>
        <time>2015-04-05T08:12:40Z</time>
      </trkpt>
      <trkpt lat="44.57329" lon="5.79228">
        <ele>1054.1</ele>
        <time>2015-04-05T08:12:43Z</time>
      </trkpt>
      <trkpt lat="44.57339" lon="5.79234">
        <ele>1055.3</ele>
        <time>2015-04-05T08:12:46Z</time>
      </trkpt>
      <trkpt lat="44.57349" lon="5.79245">
        <ele>1058</ele>
        <time>2015-04-05T08:12:49Z</time>
      </trkpt>
      <trkpt lat="44.57358" lon="5.79257">
        <ele>1062.4</ele>
        <time>2015-04-05T08:12:52Z</time>
      </trkpt>
      <trkpt lat="44.57367" lon="5.79271">
        <ele>1068.8</ele>
        <time>2015-04-05T08:12:55Z</time>
      </trkpt>
      <trkpt lat="44.57375" lon="5.79286">
        <ele>1075.6</ele>
        <time>2015-04-05T08:12:58Z</time>
      </trkpt>
      <trkpt lat="44.5738" lon="5.79303">
        <ele>1082.1</ele>
        <time>2015-04-05T08:13:01Z</time>
      </trkpt>
      <trkpt lat="44.57382" lon="5.79315">
        <ele>1086.5</ele>
        <time>2015-04-05T08:13:03Z</time>
      </trkpt>
      <trkpt lat="44.57387" lon="5.79328">
        <ele>1091.9</ele>
        <time>2015-04-05T08:13:05Z</time>
      </trkpt>
      <trkpt lat="44.57395" lon="5.79335">
        <ele>1097.8</ele>
        <time>2015-04-05T08:13:07Z</time>
      </trkpt>
      <trkpt lat="44.57405" lon="5.79333">
        <ele>1101.5</ele>
        <time>2015-04-05T08:13:09Z</time>
      </trkpt>
      <trkpt lat="44.57414" lon="5.79322">
        <ele>1101.8</ele>
        <time>2015-04-05T08:13:12Z</time>
      </trkpt>
      <trkpt lat="44.5742" lon="5.79312">
        <ele>1100.2</ele>
        <time>2015-04-05T08:13:15Z</time>
      </trkpt>
      <trkpt lat="44.57427" lon="5.793">
        <ele>1097.6</ele>
        <time>2015-04-05T08:13:19Z</time>
      </trkpt>
      <trkpt lat="44.57434" lon="5.79288">
        <ele>1094.6</ele>
        <time>2015-04-05T08:13:23Z</time>
      </trkpt>
      <trkpt lat="44.5744" lon="5.79275">
        <ele>1091.3</ele>
        <time>2015-04-05T08:13:27Z</time>
      </trkpt>
      <trkpt lat="44.57446" lon="5.79263">
        <ele>1088.3</ele>
        <time>2015-04-05T08:13:31Z</time>
      </trkpt>
      <trkpt lat="44.57454" lon="5.79253">
        <ele>1086.1</ele>
        <time>2015-04-05T08:13:35Z</time>
      </trkpt>
      <trkpt lat="44.57462" lon="5.79246">
        <ele>1086.8</ele>
        <time>2015-04-05T08:13:38Z</time>
      </trkpt>
      <trkpt lat="44.57469" lon="5.79239">
        <ele>1088.6</ele>
        <time>2015-04-05T08:13:41Z</time>
      </trkpt>
      <trkpt lat="44.57478" lon="5.79233">
        <ele>1090.4</ele>
        <time>2015-04-05T08:13:44Z</time>
      </trkpt>
      <trkpt lat="44.57488" lon="5.79225">
        <ele>1092.7</ele>
        <time>2015-04-05T08:13:48Z</time>
      </trkpt>
      <trkpt lat="44.57498" lon="5.79221">
        <ele>1094.7</ele>
        <time>2015-04-05T08:13:52Z</time>
      </trkpt>
      <trkpt lat="44.57507" lon="5.79219">
        <ele>1096.6</ele>
        <time>2015-04-05T08:13:56Z</time>
      </trkpt>
      <trkpt lat="44.57517" lon="5.7922">
        <ele>1098.8</ele>
        <time>2015-04-05T08:14:00Z</time>
      </trkpt>
      <trkpt lat="44.57527" lon="5.79219">
        <ele>1100.9</ele>
        <time>2015-04-05T08:14:04Z</time>
      </trkpt>
      <trkpt lat="44.57531" lon="5.79205">
        <ele>1103</ele>
        <time>2015-04-05T08:14:08Z</time>
      </trkpt>
      <trkpt lat="44.57525" lon="5.79195">
        <ele>1102.7</ele>
        <time>2015-04-05T08:14:11Z</time>
      </trkpt>
      <trkpt lat="44.57518" lon="5.79187">
        <ele>1101.6</ele>
        <time>2015-04-05T08:14:14Z</time>
      </trkpt>
      <trkpt lat="44.5751" lon="5.79181">
        <ele>1100.3</ele>
        <time>2015-04-05T08:14:17Z</time>
      </trkpt>
      <trkpt lat="44.575" lon="5.79175">
        <ele>1098.4</ele>
        <time>2015-04-05T08:14:21Z</time>
      </trkpt>
      <trkpt lat="44.5749" lon="5.79168">
        <ele>1097</ele>
        <time>2015-04-05T08:14:25Z</time>
      </trkpt>
      <trkpt lat="44.57479" lon="5.79165">
        <ele>1095.9</ele>
        <time>2015-04-05T08:14:29Z</time>
      </trkpt>
      <trkpt lat="44.57468" lon="5.79164">
        <ele>1094.1</ele>
        <time>2015-04-05T08:14:33Z</time>
      </trkpt>
      <trkpt lat="44.57457" lon="5.79162">
        <ele>1092.8</ele>
        <time>2015-04-05T08:14:37Z</time>
      </trkpt>
      <trkpt lat="44.57448" lon="5.79159">
        <ele>1092.2</ele>
        <time>2015-04-05T08:14:40Z</time>
      </trkpt>
      <trkpt lat="44.57437" lon="5.79152">
        <ele>1092.7</ele>
        <time>2015-04-05T08:14:44Z</time>
      </trkpt>
      <trkpt lat="44.5743" lon="5.79141">
        <ele>1095.4</ele>
        <time>2015-04-05T08:14:48Z</time>
      </trkpt>
      <trkpt lat="44.57426" lon="5.79128">
        <ele>1099.4</ele>
        <time>2015-04-05T08:14:52Z</time>
      </trkpt>
      <trkpt lat="44.57422" lon="5.79115">
        <ele>1103.5</ele>
        <time>2015-04-05T08:14:56Z</time>
      </trkpt>
      <trkpt lat="44.57416" lon="5.79104">
        <ele>1106.1</ele>
        <time>2015-04-05T08:15:00Z</time>
      </trkpt>
      <trkpt lat="44.57408" lon="5.79095">
        <ele>1106.9</ele>
        <time>2015-04-05T08:15:04Z</time>
      </trkpt>
      <trkpt lat="44.574" lon="5.79085">
        <ele>1107.5</ele>
        <time>2015-04-05T08:15:08Z</time>
      </trkpt>
      <trkpt lat="44.57392" lon="5.79076">
        <ele>1108.3</ele>
        <time>2015-04-05T08:15:12Z</time>
      </trkpt>
      <trkpt lat="44.57385" lon="5.79066">
        <ele>1109.1</ele>
        <time>2015-04-05T08:15:16Z</time>
      </trkpt>
      <trkpt lat="44.57377" lon="5.79056">
        <ele>1109.7</ele>
        <time>2015-04-05T08:15:20Z</time>
      </trkpt>
      <trkpt lat="44.5737" lon="5.79045">
        <ele>1110.8</ele>
        <time>2015-04-05T08:15:24Z</time>
      </trkpt>
      <trkpt lat="44.57364" lon="5.79033">
        <ele>1112.9</ele>
        <time>2015-04-05T08:15:28Z</time>
      </trkpt>
      <trkpt lat="44.57361" lon="5.79019">
        <ele>1116.3</ele>
        <time>2015-04-05T08:15:32Z</time>
      </trkpt>
      <trkpt lat="44.57357" lon="5.79006">
        <ele>1119.3</ele>
        <time>2015-04-05T08:15:36Z</time>
      </trkpt>
      <trkpt lat="44.57351" lon="5.78993">
        <ele>1119.8</ele>
        <time>2015-04-05T08:15:40Z</time>
      </trkpt>
      <trkpt lat="44.57345" lon="5.7898">
        <ele>1119.1</ele>
        <time>2015-04-05T08:15:44Z</time>
      </trkpt>
      <trkpt lat="44.5734" lon="5.78968">
        <ele>1118.6</ele>
        <time>2015-04-05T08:15:48Z</time>
      </trkpt>
      <trkpt lat="44.57336" lon="5.78955">
        <ele>1119</ele>
        <time>2015-04-05T08:15:52Z</time>
      </trkpt>
      <trkpt lat="44.57335" lon="5.78941">
        <ele>1120.8</ele>
        <time>2015-04-05T08:15:56Z</time>
      </trkpt>
      <trkpt lat="44.57336" lon="5.78927">
        <ele>1123.3</ele>
        <time>2015-04-05T08:16:00Z</time>
      </trkpt>
      <trkpt lat="44.57338" lon="5.78914">
        <ele>1124.7</ele>
        <time>2015-04-05T08:16:04Z</time>
      </trkpt>
      <trkpt lat="44.5734" lon="5.78901">
        <ele>1122.8</ele>
        <time>2015-04-05T08:16:08Z</time>
      </trkpt>
      <trkpt lat="44.57343" lon="5.78889">
        <ele>1120.7</ele>
        <time>2015-04-05T08:16:12Z</time>
      </trkpt>
      <trkpt lat="44.57346" lon="5.78874">
        <ele>1118</ele>
        <time>2015-04-05T08:16:17Z</time>
      </trkpt>
      <trkpt lat="44.5735" lon="5.78861">
        <ele>1115.6</ele>
        <time>2015-04-05T08:16:21Z</time>
      </trkpt>
      <trkpt lat="44.57354" lon="5.78849">
        <ele>1113.3</ele>
        <time>2015-04-05T08:16:25Z</time>
      </trkpt>
      <trkpt lat="44.57359" lon="5.78836">
        <ele>1110.7</ele>
        <time>2015-04-05T08:16:29Z</time>
      </trkpt>
      <trkpt lat="44.57364" lon="5.78824">
        <ele>1107.5</ele>
        <time>2015-04-05T08:16:33Z</time>
      </trkpt>
      <trkpt lat="44.57367" lon="5.78811">
        <ele>1103.7</ele>
        <time>2015-04-05T08:16:37Z</time>
      </trkpt>
      <trkpt lat="44.57368" lon="5.78798">
        <ele>1099.7</ele>
        <time>2015-04-05T08:16:41Z</time>
      </trkpt>
      <trkpt lat="44.5737" lon="5.78783">
        <ele>1095</ele>
        <time>2015-04-05T08:16:45Z</time>
      </trkpt>
      <trkpt lat="44.57373" lon="5.78771">
        <ele>1090.8</ele>
        <time>2015-04-05T08:16:49Z</time>
      </trkpt>
      <trkpt lat="44.57377" lon="5.78759">
        <ele>1086.7</ele>
        <time>2015-04-05T08:16:53Z</time>
      </trkpt>
      <trkpt lat="44.57382" lon="5.78748">
        <ele>1082.5</ele>
        <time>2015-04-05T08:16:59Z</time>
      </trkpt>
      <trkpt lat="44.57384" lon="5.78736">
        <ele>1077.9</ele>
        <time>2015-04-05T08:17:09Z</time>
      </trkpt>
      <trkpt lat="44.57382" lon="5.78724">
        <ele>1074</ele>
        <time>2015-04-05T08:22:05Z</time>
      </trkpt>
      <trkpt lat="44.57384" lon="5.78737">
        <ele>1078.1</ele>
        <time>2015-04-05T08:24:36Z</time>
      </trkpt>
      <trkpt lat="44.57382" lon="5.78751">
        <ele>1083.5</ele>
        <time>2015-04-05T08:24:42Z</time>
      </trkpt>
      <trkpt lat="44.57378" lon="5.78763">
        <ele>1088.1</ele>
        <time>2015-04-05T08:24:47Z</time>
      </trkpt>
      <trkpt lat="44.57377" lon="5.78776">
        <ele>1092.6</ele>
        <time>2015-04-05T08:24:52Z</time>
      </trkpt>
      <trkpt lat="44.57378" lon="5.78791">
        <ele>1097.5</ele>
        <time>2015-04-05T08:24:57Z</time>
      </trkpt>
      <trkpt lat="44.57379" lon="5.78804">
        <ele>1102.3</ele>
        <time>2015-04-05T08:25:02Z</time>
      </trkpt>
      <trkpt lat="44.57378" lon="5.78819">
        <ele>1107.2</ele>
        <time>2015-04-05T08:25:07Z</time>
      </trkpt>
      <trkpt lat="44.57376" lon="5.78832">
        <ele>1111.5</ele>
        <time>2015-04-05T08:25:12Z</time>
      </trkpt>
      <trkpt lat="44.57374" lon="5.78845">
        <ele>1115.4</ele>
        <time>2015-04-05T08:25:17Z</time>
      </trkpt>
      <trkpt lat="44.57373" lon="5.78859">
        <ele>1119.2</ele>
        <time>2015-04-05T08:25:22Z</time>
      </trkpt>
      <trkpt lat="44.57372" lon="5.78874">
        <ele>1123.7</ele>
        <time>2015-04-05T08:25:27Z</time>
      </trkpt>
      <trkpt lat="44.57371" lon="5.78888">
        <ele>1127.5</ele>
        <time>2015-04-05T08:25:32Z</time>
      </trkpt>
      <trkpt lat="44.5737" lon="5.78901">
        <ele>1131.2</ele>
        <time>2015-04-05T08:25:37Z</time>
      </trkpt>
      <trkpt lat="44.5737" lon="5.78915">
        <ele>1135.2</ele>
        <time>2015-04-05T08:25:42Z</time>
      </trkpt>
      <trkpt lat="44.5737" lon="5.7893">
        <ele>1134.4</ele>
        <time>2015-04-05T08:25:47Z</time>
      </trkpt>
      <trkpt lat="44.57373" lon="5.78942">
        <ele>1134.3</ele>
        <time>2015-04-05T08:25:52Z</time>
      </trkpt>
      <trkpt lat="44.57378" lon="5.78954">
        <ele>1135</ele>
        <time>2015-04-05T08:25:57Z</time>
      </trkpt>
      <trkpt lat="44.57384" lon="5.78964">
        <ele>1136.3</ele>
        <time>2015-04-05T08:26:02Z</time>
      </trkpt>
      <trkpt lat="44.5739" lon="5.78976">
        <ele>1137.6</ele>
        <time>2015-04-05T08:26:07Z</time>
      </trkpt>
      <trkpt lat="44.57396" lon="5.78988">
        <ele>1138.9</ele>
        <time>2015-04-05T08:26:12Z</time>
      </trkpt>
      <trkpt lat="44.57401" lon="5.78999">
        <ele>1140.5</ele>
        <time>2015-04-05T08:26:17Z</time>
      </trkpt>
      <trkpt lat="44.57408" lon="5.79008">
        <ele>1140.4</ele>
        <time>2015-04-05T08:26:22Z</time>
      </trkpt>
      <trkpt lat="44.57417" lon="5.79017">
        <ele>1140.7</ele>
        <time>2015-04-05T08:26:28Z</time>
      </trkpt>
      <trkpt lat="44.57426" lon="5.79024">
        <ele>1139.7</ele>
        <time>2015-04-05T08:26:34Z</time>
      </trkpt>
      <trkpt lat="44.57435" lon="5.7903">
        <ele>1139.3</ele>
        <time>2015-04-05T08:26:40Z</time>
      </trkpt>
      <trkpt lat="44.57443" lon="5.79037">
        <ele>1138.6</ele>
        <time>2015-04-05T08:26:45Z</time>
      </trkpt>
      <trkpt lat="44.57451" lon="5.79043">
        <ele>1137.8</ele>
        <time>2015-04-05T08:26:50Z</time>
      </trkpt>
      <trkpt lat="44.57459" lon="5.7905">
        <ele>1136.7</ele>
        <time>2015-04-05T08:26:55Z</time>
      </trkpt>
      <trkpt lat="44.57468" lon="5.79058">
        <ele>1135.4</ele>
        <time>2015-04-05T08:27:00Z</time>
      </trkpt>
      <trkpt lat="44.57477" lon="5.79067">
        <ele>1133.9</ele>
        <time>2015-04-05T08:27:05Z</time>
      </trkpt>
      <trkpt lat="44.57487" lon="5.79071">
        <ele>1134.2</ele>
        <time>2015-04-05T08:27:10Z</time>
      </trkpt>
      <trkpt lat="44.57497" lon="5.79072">
        <ele>1136</ele>
        <time>2015-04-05T08:27:15Z</time>
      </trkpt>
      <trkpt lat="44.57507" lon="5.79072">
        <ele>1138.3</ele>
        <time>2015-04-05T08:27:20Z</time>
      </trkpt>
      <trkpt lat="44.57517" lon="5.79072">
        <ele>1140.5</ele>
        <time>2015-04-05T08:27:25Z</time>
      </trkpt>
      <trkpt lat="44.57526" lon="5.79072">
        <ele>1142.4</ele>
        <time>2015-04-05T08:27:30Z</time>
      </trkpt>
      <trkpt lat="44.57536" lon="5.79073">
        <ele>1143.9</ele>
        <time>2015-04-05T08:27:35Z</time>
      </trkpt>
      <trkpt lat="44.57546" lon="5.79075">
        <ele>1145.3</ele>
        <time>2015-04-05T08:27:40Z</time>
      </trkpt>
      <trkpt lat="44.57555" lon="5.79078">
        <ele>1146.3</ele>
        <time>2015-04-05T08:27:45Z</time>
      </trkpt>
      <trkpt lat="44.57564" lon="5.79081">
        <ele>1147</ele>
        <time>2015-04-05T08:27:50Z</time>
      </trkpt>
      <trkpt lat="44.57575" lon="5.79085">
        <ele>1147.7</ele>
        <time>2015-04-05T08:27:56Z</time>
      </trkpt>
      <trkpt lat="44.57585" lon="5.79088">
        <ele>1149.1</ele>
        <time>2015-04-05T08:28:02Z</time>
      </trkpt>
      <trkpt lat="44.57595" lon="5.7909">
        <ele>1151.4</ele>
        <time>2015-04-05T08:28:08Z</time>
      </trkpt>
      <trkpt lat="44.57605" lon="5.79093">
        <ele>1154</ele>
        <time>2015-04-05T08:28:14Z</time>
      </trkpt>
      <trkpt lat="44.57616" lon="5.79094">
        <ele>1157</ele>
        <time>2015-04-05T08:28:20Z</time>
      </trkpt>
      <trkpt lat="44.57626" lon="5.79096">
        <ele>1159.7</ele>
        <time>2015-04-05T08:28:26Z</time>
      </trkpt>
      <trkpt lat="44.57636" lon="5.79098">
        <ele>1162.5</ele>
        <time>2015-04-05T08:28:32Z</time>
      </trkpt>
      <trkpt lat="44.57645" lon="5.791">
        <ele>1164.8</ele>
        <time>2015-04-05T08:28:37Z</time>
      </trkpt>
      <trkpt lat="44.57655" lon="5.79104">
        <ele>1167.2</ele>
        <time>2015-04-05T08:28:43Z</time>
      </trkpt>
      <trkpt lat="44.57665" lon="5.79107">
        <ele>1169.5</ele>
        <time>2015-04-05T08:28:49Z</time>
      </trkpt>
      <trkpt lat="44.57674" lon="5.79113">
        <ele>1171.2</ele>
        <time>2015-04-05T08:28:54Z</time>
      </trkpt>
      <trkpt lat="44.57683" lon="5.79119">
        <ele>1173.2</ele>
        <time>2015-04-05T08:29:00Z</time>
      </trkpt>
      <trkpt lat="44.57692" lon="5.79127">
        <ele>1174.6</ele>
        <time>2015-04-05T08:29:05Z</time>
      </trkpt>
      <trkpt lat="44.577" lon="5.79134">
        <ele>1176.3</ele>
        <time>2015-04-05T08:29:10Z</time>
      </trkpt>
      <trkpt lat="44.57709" lon="5.7914">
        <ele>1178.1</ele>
        <time>2015-04-05T08:29:15Z</time>
      </trkpt>
      <trkpt lat="44.57716" lon="5.79149">
        <ele>1179.3</ele>
        <time>2015-04-05T08:29:20Z</time>
      </trkpt>
      <trkpt lat="44.57724" lon="5.79156">
        <ele>1180.8</ele>
        <time>2015-04-05T08:29:24Z</time>
      </trkpt>
      <trkpt lat="44.5773" lon="5.79165">
        <ele>1181.4</ele>
        <time>2015-04-05T08:29:29Z</time>
      </trkpt>
      <trkpt lat="44.57736" lon="5.79177">
        <ele>1181.9</ele>
        <time>2015-04-05T08:29:35Z</time>
      </trkpt>
      <trkpt lat="44.57742" lon="5.79188">
        <ele>1182.2</ele>
        <time>2015-04-05T08:29:41Z</time>
      </trkpt>
      <trkpt lat="44.57748" lon="5.79199">
        <ele>1182.6</ele>
        <time>2015-04-05T08:29:47Z</time>
      </trkpt>
      <trkpt lat="44.57754" lon="5.7921">
        <ele>1183</ele>
        <time>2015-04-05T08:29:53Z</time>
      </trkpt>
      <trkpt lat="44.5776" lon="5.7922">
        <ele>1183.4</ele>
        <time>2015-04-05T08:29:59Z</time>
      </trkpt>
      <trkpt lat="44.57767" lon="5.7923">
        <ele>1183.9</ele>
        <time>2015-04-05T08:30:05Z</time>
      </trkpt>
      <trkpt lat="44.57773" lon="5.7924">
        <ele>1184.5</ele>
        <time>2015-04-05T08:30:11Z</time>
      </trkpt>
      <trkpt lat="44.5778" lon="5.7925">
        <ele>1185</ele>
        <time>2015-04-05T08:30:17Z</time>
      </trkpt>
      <trkpt lat="44.57786" lon="5.79259">
        <ele>1185.6</ele>
        <time>2015-04-05T08:30:23Z</time>
      </trkpt>
      <trkpt lat="44.57793" lon="5.79272">
        <ele>1185.4</ele>
        <time>2015-04-05T08:30:29Z</time>
      </trkpt>
      <trkpt lat="44.57798" lon="5.79284">
        <ele>1185</ele>
        <time>2015-04-05T08:30:35Z</time>
      </trkpt>
      <trkpt lat="44.57804" lon="5.79294">
        <ele>1184.7</ele>
        <time>2015-04-05T08:30:40Z</time>
      </trkpt>
      <trkpt lat="44.5781" lon="5.79306">
        <ele>1184.4</ele>
        <time>2015-04-05T08:30:46Z</time>
      </trkpt>
      <trkpt lat="44.57817" lon="5.79315">
        <ele>1184.8</ele>
        <time>2015-04-05T08:30:51Z</time>
      </trkpt>
      <trkpt lat="44.57825" lon="5.79323">
        <ele>1185.7</ele>
        <time>2015-04-05T08:30:56Z</time>
      </trkpt>
      <trkpt lat="44.57833" lon="5.79328">
        <ele>1187.3</ele>
        <time>2015-04-05T08:31:01Z</time>
      </trkpt>
      <trkpt lat="44.57842" lon="5.79333">
        <ele>1188.3</ele>
        <time>2015-04-05T08:31:06Z</time>
      </trkpt>
      <trkpt lat="44.57852" lon="5.79338">
        <ele>1189.9</ele>
        <time>2015-04-05T08:31:11Z</time>
      </trkpt>
      <trkpt lat="44.57861" lon="5.79345">
        <ele>1191.2</ele>
        <time>2015-04-05T08:31:16Z</time>
      </trkpt>
      <trkpt lat="44.57869" lon="5.79354">
        <ele>1192</ele>
        <time>2015-04-05T08:31:21Z</time>
      </trkpt>
      <trkpt lat="44.57874" lon="5.79364">
        <ele>1192.2</ele>
        <time>2015-04-05T08:31:25Z</time>
      </trkpt>
      <trkpt lat="44.5788" lon="5.79374">
        <ele>1192.4</ele>
        <time>2015-04-05T08:31:29Z</time>
      </trkpt>
      <trkpt lat="44.57887" lon="5.79387">
        <ele>1192.6</ele>
        <time>2015-04-05T08:31:34Z</time>
      </trkpt>
      <trkpt lat="44.57892" lon="5.794">
        <ele>1192.1</ele>
        <time>2015-04-05T08:31:39Z</time>
      </trkpt>
      <trkpt lat="44.57888" lon="5.79415">
        <ele>1189.5</ele>
        <time>2015-04-05T08:31:44Z</time>
      </trkpt>
      <trkpt lat="44.5788" lon="5.79421">
        <ele>1187.8</ele>
        <time>2015-04-05T08:31:48Z</time>
      </trkpt>
      <trkpt lat="44.57871" lon="5.79425">
        <ele>1186</ele>
        <time>2015-04-05T08:31:53Z</time>
      </trkpt>
      <trkpt lat="44.57864" lon="5.79433">
        <ele>1185.3</ele>
        <time>2015-04-05T08:31:58Z</time>
      </trkpt>
      <trkpt lat="44.57861" lon="5.79448">
        <ele>1186.5</ele>
        <time>2015-04-05T08:32:04Z</time>
      </trkpt>
      <trkpt lat="44.57863" lon="5.79461">
        <ele>1188.7</ele>
        <time>2015-04-05T08:32:10Z</time>
      </trkpt>
      <trkpt lat="44.57867" lon="5.79473">
        <ele>1191.3</ele>
        <time>2015-04-05T08:32:16Z</time>
      </trkpt>
      <trkpt lat="44.57873" lon="5.79484">
        <ele>1193.9</ele>
        <time>2015-04-05T08:32:21Z</time>
      </trkpt>
      <trkpt lat="44.57875" lon="5.79498">
        <ele>1196.2</ele>
        <time>2015-04-05T08:32:27Z</time>
      </trkpt>
      <trkpt lat="44.57871" lon="5.79509">
        <ele>1197</ele>
        <time>2015-04-05T08:32:33Z</time>
      </trkpt>
      <trkpt lat="44.57861" lon="5.79513">
        <ele>1195.5</ele>
        <time>2015-04-05T08:32:40Z</time>
      </trkpt>
      <trkpt lat="44.57852" lon="5.79508">
        <ele>1192.6</ele>
        <time>2015-04-05T08:32:46Z</time>
      </trkpt>
      <trkpt lat="44.57842" lon="5.79503">
        <ele>1189.5</ele>
        <time>2015-04-05T08:32:52Z</time>
      </trkpt>
      <trkpt lat="44.57832" lon="5.79502">
        <ele>1187.1</ele>
        <time>2015-04-05T08:32:57Z</time>
      </trkpt>
      <trkpt lat="44.57823" lon="5.79508">
        <ele>1186.9</ele>
        <time>2015-04-05T08:33:03Z</time>
      </trkpt>
      <trkpt lat="44.57824" lon="5.79521">
        <ele>1189.7</ele>
        <time>2015-04-05T08:33:09Z</time>
      </trkpt>
      <trkpt lat="44.57833" lon="5.79526">
        <ele>1191.8</ele>
        <time>2015-04-05T08:33:15Z</time>
      </trkpt>
      <trkpt lat="44.57843" lon="5.79526">
        <ele>1194</ele>
        <time>2015-04-05T08:33:21Z</time>
      </trkpt>
      <trkpt lat="44.57852" lon="5.79532">
        <ele>1196.9</ele>
        <time>2015-04-05T08:33:27Z</time>
      </trkpt>
      <trkpt lat="44.5786" lon="5.79541">
        <ele>1200.3</ele>
        <time>2015-04-05T08:33:33Z</time>
      </trkpt>
      <trkpt lat="44.57867" lon="5.7955">
        <ele>1203.4</ele>
        <time>2015-04-05T08:33:39Z</time>
      </trkpt>
      <trkpt lat="44.57876" lon="5.79555">
        <ele>1206</ele>
        <time>2015-04-05T08:33:45Z</time>
      </trkpt>
      <trkpt lat="44.57886" lon="5.79552">
        <ele>1207.2</ele>
        <time>2015-04-05T08:33:51Z</time>
      </trkpt>
      <trkpt lat="44.57893" lon="5.79544">
        <ele>1207.5</ele>
        <time>2015-04-05T08:33:56Z</time>
      </trkpt>
      <trkpt lat="44.57902" lon="5.7954">
        <ele>1208.7</ele>
        <time>2015-04-05T08:34:01Z</time>
      </trkpt>
      <trkpt lat="44.57912" lon="5.79537">
        <ele>1210.4</ele>
        <time>2015-04-05T08:34:07Z</time>
      </trkpt>
      <trkpt lat="44.57922" lon="5.79533">
        <ele>1212.4</ele>
        <time>2015-04-05T08:34:13Z</time>
      </trkpt>
      <trkpt lat="44.57928" lon="5.79521">
        <ele>1213</ele>
        <time>2015-04-05T08:34:19Z</time>
      </trkpt>
      <trkpt lat="44.57933" lon="5.7951">
        <ele>1213.6</ele>
        <time>2015-04-05T08:34:25Z</time>
      </trkpt>
      <trkpt lat="44.5794" lon="5.79502">
        <ele>1215.1</ele>
        <time>2015-04-05T08:34:30Z</time>
      </trkpt>
      <trkpt lat="44.5795" lon="5.79498">
        <ele>1218.4</ele>
        <time>2015-04-05T08:34:36Z</time>
      </trkpt>
      <trkpt lat="44.5796" lon="5.79499">
        <ele>1222.6</ele>
        <time>2015-04-05T08:34:42Z</time>
      </trkpt>
      <trkpt lat="44.57968" lon="5.79506">
        <ele>1226.3</ele>
        <time>2015-04-05T08:34:47Z</time>
      </trkpt>
      <trkpt lat="44.57976" lon="5.79513">
        <ele>1230</ele>
        <time>2015-04-05T08:34:52Z</time>
      </trkpt>
      <trkpt lat="44.57985" lon="5.7952">
        <ele>1234</ele>
        <time>2015-04-05T08:34:57Z</time>
      </trkpt>
      <trkpt lat="44.57995" lon="5.79521">
        <ele>1237.7</ele>
        <time>2015-04-05T08:35:02Z</time>
      </trkpt>
      <trkpt lat="44.58003" lon="5.79512">
        <ele>1240.1</ele>
        <time>2015-04-05T08:35:07Z</time>
      </trkpt>
      <trkpt lat="44.58008" lon="5.79501">
        <ele>1241</ele>
        <time>2015-04-05T08:35:11Z</time>
      </trkpt>
      <trkpt lat="44.58012" lon="5.79488">
        <ele>1240.6</ele>
        <time>2015-04-05T08:35:16Z</time>
      </trkpt>
      <trkpt lat="44.58018" lon="5.79475">
        <ele>1240.6</ele>
        <time>2015-04-05T08:35:21Z</time>
      </trkpt>
      <trkpt lat="44.58025" lon="5.79464">
        <ele>1241</ele>
        <time>2015-04-05T08:35:26Z</time>
      </trkpt>
      <trkpt lat="44.58031" lon="5.79452">
        <ele>1241</ele>
        <time>2015-04-05T08:35:31Z</time>
      </trkpt>
      <trkpt lat="44.58035" lon="5.79439">
        <ele>1239.8</ele>
        <time>2015-04-05T08:35:36Z</time>
      </trkpt>
      <trkpt lat="44.58037" lon="5.79425">
        <ele>1237.5</ele>
        <time>2015-04-05T08:35:40Z</time>
      </trkpt>
      <trkpt lat="44.58038" lon="5.79409">
        <ele>1234.1</ele>
        <time>2015-04-05T08:35:44Z</time>
      </trkpt>
      <trkpt lat="44.58039" lon="5.79393">
        <ele>1230.1</ele>
        <time>2015-04-05T08:35:48Z</time>
      </trkpt>
      <trkpt lat="44.58038" lon="5.79378">
        <ele>1225.7</ele>
        <time>2015-04-05T08:35:53Z</time>
      </trkpt>
      <trkpt lat="44.58037" lon="5.79364">
        <ele>1221.7</ele>
        <time>2015-04-05T08:35:58Z</time>
      </trkpt>
      <trkpt lat="44.58032" lon="5.7935">
        <ele>1217.3</ele>
        <time>2015-04-05T08:36:03Z</time>
      </trkpt>
      <trkpt lat="44.58032" lon="5.79336">
        <ele>1213.5</ele>
        <time>2015-04-05T08:36:09Z</time>
      </trkpt>
      <trkpt lat="44.5804" lon="5.79328">
        <ele>1212.6</ele>
        <time>2015-04-05T08:36:16Z</time>
      </trkpt>
      <trkpt lat="44.58049" lon="5.79334">
        <ele>1214.7</ele>
        <time>2015-04-05T08:36:25Z</time>
      </trkpt>
      <trkpt lat="44.5805" lon="5.79346">
        <ele>1218.5</ele>
        <time>2015-04-05T08:41:30Z</time>
      </trkpt>
      <trkpt lat="44.58049" lon="5.7936">
        <ele>1222.5</ele>
        <time>2015-04-05T08:41:37Z</time>
      </trkpt>
      <trkpt lat="44.58048" lon="5.79373">
        <ele>1226.3</ele>
        <time>2015-04-05T08:41:43Z</time>
      </trkpt>
      <trkpt lat="44.58049" lon="5.79387">
        <ele>1230.6</ele>
        <time>2015-04-05T08:41:50Z</time>
      </trkpt>
      <trkpt lat="44.5805" lon="5.79401">
        <ele>1235.1</ele>
        <time>2015-04-05T08:41:56Z</time>
      </trkpt>
      <trkpt lat="44.58052" lon="5.79414">
        <ele>1239.8</ele>
        <time>2015-04-05T08:42:02Z</time>
      </trkpt>
      <trkpt lat="44.58055" lon="5.79428">
        <ele>1243.9</ele>
        <time>2015-04-05T08:42:08Z</time>
      </trkpt>
      <trkpt lat="44.58059" lon="5.79442">
        <ele>1248</ele>
        <time>2015-04-05T08:42:14Z</time>
      </trkpt>
      <trkpt lat="44.58062" lon="5.79455">
        <ele>1251.8</ele>
        <time>2015-04-05T08:42:20Z</time>
      </trkpt>
      <trkpt lat="44.58062" lon="5.7947">
        <ele>1255</ele>
        <time>2015-04-05T08:42:27Z</time>
      </trkpt>
      <trkpt lat="44.58059" lon="5.79482">
        <ele>1256.6</ele>
        <time>2015-04-05T08:42:33Z</time>
      </trkpt>
      <trkpt lat="44.58055" lon="5.79494">
        <ele>1257.9</ele>
        <time>2015-04-05T08:42:39Z</time>
      </trkpt>
      <trkpt lat="44.58053" lon="5.79507">
        <ele>1259</ele>
        <time>2015-04-05T08:42:45Z</time>
      </trkpt>
      <trkpt lat="44.58052" lon="5.79521">
        <ele>1260</ele>
        <time>2015-04-05T08:42:51Z</time>
      </trkpt>
      <trkpt lat="44.58052" lon="5.79534">
        <ele>1261.7</ele>
        <time>2015-04-05T08:42:57Z</time>
      </trkpt>
      <trkpt lat="44.58054" lon="5.79548">
        <ele>1263.8</ele>
        <time>2015-04-05T08:43:04Z</time>
      </trkpt>
      <trkpt lat="44.58056" lon="5.79562">
        <ele>1266</ele>
        <time>2015-04-05T08:43:11Z</time>
      </trkpt>
      <trkpt lat="44.58057" lon="5.79576">
        <ele>1268</ele>
        <time>2015-04-05T08:43:18Z</time>
      </trkpt>
      <trkpt lat="44.58058" lon="5.7959">
        <ele>1269.9</ele>
        <time>2015-04-05T08:43:25Z</time>
      </trkpt>
      <trkpt lat="44.58059" lon="5.79604">
        <ele>1270.8</ele>
        <time>2015-04-05T08:43:31Z</time>
      </trkpt>
      <trkpt lat="44.58059" lon="5.79618">
        <ele>1271.7</ele>
        <time>2015-04-05T08:43:37Z</time>
      </trkpt>
      <trkpt lat="44.58059" lon="5.79632">
        <ele>1272.4</ele>
        <time>2015-04-05T08:43:43Z</time>
      </trkpt>
      <trkpt lat="44.58059" lon="5.79647">
        <ele>1273</ele>
        <time>2015-04-05T08:43:49Z</time>
      </trkpt>
      <trkpt lat="44.58057" lon="5.79661">
        <ele>1272.9</ele>
        <time>2015-04-05T08:43:55Z</time>
      </trkpt>
      <trkpt lat="44.58055" lon="5.79674">
        <ele>1273.4</ele>
        <time>2015-04-05T08:44:01Z</time>
      </trkpt>
      <trkpt lat="44.58052" lon="5.79688">
        <ele>1274.2</ele>
        <time>2015-04-05T08:44:07Z</time>
      </trkpt>
      <trkpt lat="44.58049" lon="5.79701">
        <ele>1274.6</ele>
        <time>2015-04-05T08:44:13Z</time>
      </trkpt>
      <trkpt lat="44.58043" lon="5.79714">
        <ele>1274.2</ele>
        <time>2015-04-05T08:44:19Z</time>
      </trkpt>
      <trkpt lat="44.58039" lon="5.79725">
        <ele>1274.1</ele>
        <time>2015-04-05T08:44:25Z</time>
      </trkpt>
      <trkpt lat="44.58035" lon="5.79738">
        <ele>1274</ele>
        <time>2015-04-05T08:44:31Z</time>
      </trkpt>
      <trkpt lat="44.58031" lon="5.79749">
        <ele>1273.7</ele>
        <time>2015-04-05T08:44:37Z</time>
      </trkpt>
      <trkpt lat="44.58024" lon="5.79759">
        <ele>1272.9</ele>
        <time>2015-04-05T08:44:43Z</time>
      </trkpt>
      <trkpt lat="44.58017" lon="5.79769">
        <ele>1272.1</ele>
        <time>2015-04-05T08:44:49Z</time>
      </trkpt>
      <trkpt lat="44.58009" lon="5.79778">
        <ele>1270.7</ele>
        <time>2015-04-05T08:44:56Z</time>
      </trkpt>
      <trkpt lat="44.58001" lon="5.79784">
        <ele>1268.9</ele>
        <time>2015-04-05T08:45:02Z</time>
      </trkpt>
      <trkpt lat="44.57991" lon="5.79788">
        <ele>1267.8</ele>
        <time>2015-04-05T08:45:08Z</time>
      </trkpt>
      <trkpt lat="44.57981" lon="5.7979">
        <ele>1266.1</ele>
        <time>2015-04-05T08:45:14Z</time>
      </trkpt>
      <trkpt lat="44.57971" lon="5.79792">
        <ele>1264.6</ele>
        <time>2015-04-05T08:45:20Z</time>
      </trkpt>
      <trkpt lat="44.57961" lon="5.79795">
        <ele>1263.2</ele>
        <time>2015-04-05T08:45:26Z</time>
      </trkpt>
      <trkpt lat="44.57951" lon="5.79799">
        <ele>1262.2</ele>
        <time>2015-04-05T08:45:32Z</time>
      </trkpt>
      <trkpt lat="44.57941" lon="5.79805">
        <ele>1261.4</ele>
        <time>2015-04-05T08:45:38Z</time>
      </trkpt>
      <trkpt lat="44.57932" lon="5.79811">
        <ele>1260.9</ele>
        <time>2015-04-05T08:45:44Z</time>
      </trkpt>
      <trkpt lat="44.57922" lon="5.79815">
        <ele>1259.8</ele>
        <time>2015-04-05T08:45:49Z</time>
      </trkpt>
      <trkpt lat="44.57913" lon="5.79815">
        <ele>1258.6</ele>
        <time>2015-04-05T08:45:54Z</time>
      </trkpt>
      <trkpt lat="44.57903" lon="5.79814">
        <ele>1257.8</ele>
        <time>2015-04-05T08:46:00Z</time>
      </trkpt>
      <trkpt lat="44.57892" lon="5.79811">
        <ele>1256.6</ele>
        <time>2015-04-05T08:46:06Z</time>
      </trkpt>
      <trkpt lat="44.57882" lon="5.79806">
        <ele>1254.9</ele>
        <time>2015-04-05T08:46:12Z</time>
      </trkpt>
      <trkpt lat="44.57873" lon="5.798">
        <ele>1253</ele>
        <time>2015-04-05T08:46:17Z</time>
      </trkpt>
      <trkpt lat="44.57864" lon="5.79793">
        <ele>1250.9</ele>
        <time>2015-04-05T08:46:23Z</time>
      </trkpt>
      <trkpt lat="44.57854" lon="5.79788">
        <ele>1249</ele>
        <time>2015-04-05T08:46:29Z</time>
      </trkpt>
      <trkpt lat="44.57844" lon="5.79782">
        <ele>1247.1</ele>
        <time>2015-04-05T08:46:35Z</time>
      </trkpt>
      <trkpt lat="44.57835" lon="5.79777">
        <ele>1245.4</ele>
        <time>2015-04-05T08:46:40Z</time>
      </trkpt>
      <trkpt lat="44.57825" lon="5.79773">
        <ele>1245.2</ele>
        <time>2015-04-05T08:46:46Z</time>
      </trkpt>
      <trkpt lat="44.57815" lon="5.7977">
        <ele>1245.5</ele>
        <time>2015-04-05T08:46:52Z</time>
      </trkpt>
      <trkpt lat="44.57805" lon="5.79767">
        <ele>1245.9</ele>
        <time>2015-04-05T08:46:58Z</time>
      </trkpt>
      <trkpt lat="44.57796" lon="5.79764">
        <ele>1246.3</ele>
        <time>2015-04-05T08:47:03Z</time>
      </trkpt>
      <trkpt lat="44.57786" lon="5.79763">
        <ele>1247</ele>
        <time>2015-04-05T08:47:08Z</time>
      </trkpt>
      <trkpt lat="44.57776" lon="5.79762">
        <ele>1248</ele>
        <time>2015-04-05T08:47:13Z</time>
      </trkpt>
      <trkpt lat="44.57766" lon="5.79763">
        <ele>1249.4</ele>
        <time>2015-04-05T08:47:18Z</time>
      </trkpt>
      <trkpt lat="44.57756" lon="5.79764">
        <ele>1250.6</ele>
        <time>2015-04-05T08:47:23Z</time>
      </trkpt>
      <trkpt lat="44.57745" lon="5.79762">
        <ele>1251.4</ele>
        <time>2015-04-05T08:47:28Z</time>
      </trkpt>
      <trkpt lat="44.57736" lon="5.79758">
        <ele>1251.5</ele>
        <time>2015-04-05T08:47:33Z</time>
      </trkpt>
      <trkpt lat="44.57728" lon="5.79752">
        <ele>1251.3</ele>
        <time>2015-04-05T08:47:38Z</time>
      </trkpt>
      <trkpt lat="44.57719" lon="5.79745">
        <ele>1250.4</ele>
        <time>2015-04-05T08:47:43Z</time>
      </trkpt>
      <trkpt lat="44.5771" lon="5.79735">
        <ele>1248.9</ele>
        <time>2015-04-05T08:47:48Z</time>
      </trkpt>
      <trkpt lat="44.57703" lon="5.79727">
        <ele>1247.7</ele>
        <time>2015-04-05T08:47:52Z</time>
      </trkpt>
      <trkpt lat="44.57696" lon="5.79718">
        <ele>1246.3</ele>
        <time>2015-04-05T08:47:56Z</time>
      </trkpt>
      <trkpt lat="44.57688" lon="5.7971">
        <ele>1245.1</ele>
        <time>2015-04-05T08:48:00Z</time>
      </trkpt>
      <trkpt lat="44.57679" lon="5.79701">
        <ele>1244</ele>
        <time>2015-04-05T08:48:05Z</time>
      </trkpt>
      <trkpt lat="44.57671" lon="5.79694">
        <ele>1243.4</ele>
        <time>2015-04-05T08:48:09Z</time>
      </trkpt>
      <trkpt lat="44.57661" lon="5.79687">
        <ele>1243</ele>
        <time>2015-04-05T08:48:14Z</time>
      </trkpt>
      <trkpt lat="44.57652" lon="5.79685">
        <ele>1244.2</ele>
        <time>2015-04-05T08:48:18Z</time>
      </trkpt>
      <trkpt lat="44.57643" lon="5.79689">
        <ele>1246.6</ele>
        <time>2015-04-05T08:48:54Z</time>
      </trkpt>
      <trkpt lat="44.57638" lon="5.797">
        <ele>1250</ele>
        <time>2015-04-05T08:48:59Z</time>
      </trkpt>
      <trkpt lat="44.57634" lon="5.79712">
        <ele>1253.2</ele>
        <time>2015-04-05T08:49:03Z</time>
      </trkpt>
      <trkpt lat="44.57635" lon="5.79726">
        <ele>1256.2</ele>
        <time>2015-04-05T08:49:07Z</time>
      </trkpt>
      <trkpt lat="44.57639" lon="5.79739">
        <ele>1258.7</ele>
        <time>2015-04-05T08:49:11Z</time>
      </trkpt>
      <trkpt lat="44.57641" lon="5.79752">
        <ele>1261.5</ele>
        <time>2015-04-05T08:49:15Z</time>
      </trkpt>
      <trkpt lat="44.57643" lon="5.79767">
        <ele>1264.1</ele>
        <time>2015-04-05T08:49:19Z</time>
      </trkpt>
      <trkpt lat="44.57644" lon="5.79784">
        <ele>1267.2</ele>
        <time>2015-04-05T08:49:23Z</time>
      </trkpt>
      <trkpt lat="44.57642" lon="5.79799">
        <ele>1270.1</ele>
        <time>2015-04-05T08:49:27Z</time>
      </trkpt>
      <trkpt lat="44.57639" lon="5.79814">
        <ele>1272.7</ele>
        <time>2015-04-05T08:49:31Z</time>
      </trkpt>
      <trkpt lat="44.5764" lon="5.79827">
        <ele>1275.1</ele>
        <time>2015-04-05T08:49:34Z</time>
      </trkpt>
      <trkpt lat="44.57646" lon="5.7984">
        <ele>1276.1</ele>
        <time>2015-04-05T08:49:38Z</time>
      </trkpt>
      <trkpt lat="44.57655" lon="5.79851">
        <ele>1275.7</ele>
        <time>2015-04-05T08:49:42Z</time>
      </trkpt>
      <trkpt lat="44.57662" lon="5.79859">
        <ele>1275.7</ele>
        <time>2015-04-05T08:49:45Z</time>
      </trkpt>
      <trkpt lat="44.5767" lon="5.79867">
        <ele>1275.5</ele>
        <time>2015-04-05T08:49:48Z</time>
      </trkpt>
      <trkpt lat="44.57677" lon="5.79875">
        <ele>1274.7</ele>
        <time>2015-04-05T08:49:51Z</time>
      </trkpt>
      <trkpt lat="44.57685" lon="5.79882">
        <ele>1274.2</ele>
        <time>2015-04-05T08:49:54Z</time>
      </trkpt>
      <trkpt lat="44.57696" lon="5.7989">
        <ele>1274</ele>
        <time>2015-04-05T08:49:58Z</time>
      </trkpt>
      <trkpt lat="44.57705" lon="5.79894">
        <ele>1274</ele>
        <time>2015-04-05T08:50:01Z</time>
      </trkpt>
      <trkpt lat="44.57713" lon="5.79898">
        <ele>1274.2</ele>
        <time>2015-04-05T08:50:04Z</time>
      </trkpt>
      <trkpt lat="44.57722" lon="5.79902">
        <ele>1274.6</ele>
        <time>2015-04-05T08:50:07Z</time>
      </trkpt>
      <trkpt lat="44.57731" lon="5.79906">
        <ele>1275.1</ele>
        <time>2015-04-05T08:50:10Z</time>
      </trkpt>
      <trkpt lat="44.57739" lon="5.79911">
        <ele>1275.8</ele>
        <time>2015-04-05T08:50:13Z</time>
      </trkpt>
      <trkpt lat="44.57747" lon="5.79918">
        <ele>1276.8</ele>
        <time>2015-04-05T08:50:16Z</time>
      </trkpt>
      <trkpt lat="44.57755" lon="5.79924">
        <ele>1276.8</ele>
        <time>2015-04-05T08:50:19Z</time>
      </trkpt>
      <trkpt lat="44.57766" lon="5.79929">
        <ele>1277.2</ele>
        <time>2015-04-05T08:50:23Z</time>
      </trkpt>
      <trkpt lat="44.57778" lon="5.79932">
        <ele>1277.9</ele>
        <time>2015-04-05T08:50:27Z</time>
      </trkpt>
      <trkpt lat="44.57787" lon="5.79933">
        <ele>1278.6</ele>
        <time>2015-04-05T08:50:30Z</time>
      </trkpt>
      <trkpt lat="44.57796" lon="5.79934">
        <ele>1279.2</ele>
        <time>2015-04-05T08:50:33Z</time>
      </trkpt>
      <trkpt lat="44.57806" lon="5.79935">
        <ele>1279.9</ele>
        <time>2015-04-05T08:50:36Z</time>
      </trkpt>
      <trkpt lat="44.57815" lon="5.79936">
        <ele>1280.6</ele>
        <time>2015-04-05T08:50:39Z</time>
      </trkpt>
      <trkpt lat="44.57824" lon="5.79937">
        <ele>1281.4</ele>
        <time>2015-04-05T08:50:42Z</time>
      </trkpt>
      <trkpt lat="44.57833" lon="5.79939">
        <ele>1282.3</ele>
        <time>2015-04-05T08:50:46Z</time>
      </trkpt>
      <trkpt lat="44.57843" lon="5.79941">
        <ele>1283.2</ele>
        <time>2015-04-05T08:50:50Z</time>
      </trkpt>
      <trkpt lat="44.57853" lon="5.79943">
        <ele>1284.1</ele>
        <time>2015-04-05T08:50:55Z</time>
      </trkpt>
      <trkpt lat="44.57862" lon="5.79941">
        <ele>1284.6</ele>
        <time>2015-04-05T08:51:04Z</time>
      </trkpt>
      <trkpt lat="44.57871" lon="5.79948">
        <ele>1286.1</ele>
        <time>2015-04-05T08:53:15Z</time>
      </trkpt>
      <trkpt lat="44.57879" lon="5.79957">
        <ele>1288</ele>
        <time>2015-04-05T08:53:20Z</time>
      </trkpt>
      <trkpt lat="44.57887" lon="5.79966">
        <ele>1290.1</ele>
        <time>2015-04-05T08:53:25Z</time>
      </trkpt>
      <trkpt lat="44.57892" lon="5.79977">
        <ele>1292.3</ele>
        <time>2015-04-05T08:53:29Z</time>
      </trkpt>
      <trkpt lat="44.57898" lon="5.7999">
        <ele>1295</ele>
        <time>2015-04-05T08:53:33Z</time>
      </trkpt>
      <trkpt lat="44.57901" lon="5.80003">
        <ele>1297.4</ele>
        <time>2015-04-05T08:53:37Z</time>
      </trkpt>
      <trkpt lat="44.57903" lon="5.80018">
        <ele>1298.6</ele>
        <time>2015-04-05T08:53:41Z</time>
      </trkpt>
      <trkpt lat="44.57903" lon="5.80031">
        <ele>1299.7</ele>
        <time>2015-04-05T08:53:45Z</time>
      </trkpt>
      <trkpt lat="44.57903" lon="5.80045">
        <ele>1300.8</ele>
        <time>2015-04-05T08:53:49Z</time>
      </trkpt>
      <trkpt lat="44.57903" lon="5.80059">
        <ele>1301.7</ele>
        <time>2015-04-05T08:53:53Z</time>
      </trkpt>
      <trkpt lat="44.57901" lon="5.80072">
        <ele>1302.4</ele>
        <time>2015-04-05T08:53:57Z</time>
      </trkpt>
      <trkpt lat="44.57899" lon="5.80085">
        <ele>1303.1</ele>
        <time>2015-04-05T08:54:01Z</time>
      </trkpt>
      <trkpt lat="44.57896" lon="5.80097">
        <ele>1303.9</ele>
        <time>2015-04-05T08:54:05Z</time>
      </trkpt>
      <trkpt lat="44.57893" lon="5.80109">
        <ele>1304.7</ele>
        <time>2015-04-05T08:54:09Z</time>
      </trkpt>
      <trkpt lat="44.5789" lon="5.80124">
        <ele>1305.5</ele>
        <time>2015-04-05T08:54:14Z</time>
      </trkpt>
      <trkpt lat="44.57889" lon="5.80139">
        <ele>1306.8</ele>
        <time>2015-04-05T08:54:19Z</time>
      </trkpt>
      <trkpt lat="44.57888" lon="5.80154">
        <ele>1308</ele>
        <time>2015-04-05T08:54:24Z</time>
      </trkpt>
      <trkpt lat="44.57884" lon="5.80169">
        <ele>1308.8</ele>
        <time>2015-04-05T08:54:29Z</time>
      </trkpt>
      <trkpt lat="44.57881" lon="5.80181">
        <ele>1309.9</ele>
        <time>2015-04-05T08:54:33Z</time>
      </trkpt>
      <trkpt lat="44.5788" lon="5.80194">
        <ele>1311.4</ele>
        <time>2015-04-05T08:54:37Z</time>
      </trkpt>
      <trkpt lat="44.57879" lon="5.80207">
        <ele>1313</ele>
        <time>2015-04-05T08:54:41Z</time>
      </trkpt>
      <trkpt lat="44.57879" lon="5.8022">
        <ele>1314.8</ele>
        <time>2015-04-05T08:54:45Z</time>
      </trkpt>
      <trkpt lat="44.57878" lon="5.80235">
        <ele>1316.6</ele>
        <time>2015-04-05T08:54:49Z</time>
      </trkpt>
      <trkpt lat="44.57876" lon="5.80249">
        <ele>1318.2</ele>
        <time>2015-04-05T08:54:53Z</time>
      </trkpt>
      <trkpt lat="44.57875" lon="5.80262">
        <ele>1319.6</ele>
        <time>2015-04-05T08:54:57Z</time>
      </trkpt>
      <trkpt lat="44.57873" lon="5.80275">
        <ele>1320.4</ele>
        <time>2015-04-05T08:55:01Z</time>
      </trkpt>
      <trkpt lat="44.5787" lon="5.80287">
        <ele>1321</ele>
        <time>2015-04-05T08:55:05Z</time>
      </trkpt>
      <trkpt lat="44.57867" lon="5.803">
        <ele>1321.4</ele>
        <time>2015-04-05T08:55:09Z</time>
      </trkpt>
      <trkpt lat="44.57863" lon="5.80311">
        <ele>1321.5</ele>
        <time>2015-04-05T08:55:13Z</time>
      </trkpt>
      <trkpt lat="44.57859" lon="5.80324">
        <ele>1321.7</ele>
        <time>2015-04-05T08:55:17Z</time>
      </trkpt>
      <trkpt lat="44.57857" lon="5.80337">
        <ele>1322.3</ele>
        <time>2015-04-05T08:55:21Z</time>
      </trkpt>
      <trkpt lat="44.57857" lon="5.8035">
        <ele>1322.9</ele>
        <time>2015-04-05T08:55:25Z</time>
      </trkpt>
      <trkpt lat="44.57858" lon="5.80362">
        <ele>1323.8</ele>
        <time>2015-04-05T08:55:29Z</time>
      </trkpt>
      <trkpt lat="44.57857" lon="5.80375">
        <ele>1324.4</ele>
        <time>2015-04-05T08:55:33Z</time>
      </trkpt>
      <trkpt lat="44.57854" lon="5.80389">
        <ele>1324</ele>
        <time>2015-04-05T08:55:38Z</time>
      </trkpt>
      <trkpt lat="44.57852" lon="5.80403">
        <ele>1324.1</ele>
        <time>2015-04-05T08:55:43Z</time>
      </trkpt>
      <trkpt lat="44.57848" lon="5.80417">
        <ele>1323.7</ele>
        <time>2015-04-05T08:55:48Z</time>
      </trkpt>
      <trkpt lat="44.57843" lon="5.80429">
        <ele>1322.7</ele>
        <time>2015-04-05T08:55:53Z</time>
      </trkpt>
      <trkpt lat="44.57837" lon="5.80439">
        <ele>1321.6</ele>
        <time>2015-04-05T08:55:58Z</time>
      </trkpt>
      <trkpt lat="44.57833" lon="5.80451">
        <ele>1321.3</ele>
        <time>2015-04-05T08:56:03Z</time>
      </trkpt>
      <trkpt lat="44.5783" lon="5.80463">
        <ele>1321.7</ele>
        <time>2015-04-05T08:56:08Z</time>
      </trkpt>
      <trkpt lat="44.57829" lon="5.80477">
        <ele>1322.5</ele>
        <time>2015-04-05T08:56:13Z</time>
      </trkpt>
      <trkpt lat="44.57828" lon="5.80491">
        <ele>1323.4</ele>
        <time>2015-04-05T08:56:18Z</time>
      </trkpt>
      <trkpt lat="44.57827" lon="5.80505">
        <ele>1324.4</ele>
        <time>2015-04-05T08:56:23Z</time>
      </trkpt>
      <trkpt lat="44.57825" lon="5.80519">
        <ele>1325.7</ele>
        <time>2015-04-05T08:56:28Z</time>
      </trkpt>
      <trkpt lat="44.57825" lon="5.80532">
        <ele>1327.2</ele>
        <time>2015-04-05T08:56:33Z</time>
      </trkpt>
      <trkpt lat="44.57826" lon="5.80547">
        <ele>1329.1</ele>
        <time>2015-04-05T08:56:39Z</time>
      </trkpt>
      <trkpt lat="44.57827" lon="5.8056">
        <ele>1330.9</ele>
        <time>2015-04-05T08:56:44Z</time>
      </trkpt>
      <trkpt lat="44.57831" lon="5.80573">
        <ele>1333.2</ele>
        <time>2015-04-05T08:56:50Z</time>
      </trkpt>
      <trkpt lat="44.57834" lon="5.80587">
        <ele>1335.4</ele>
        <time>2015-04-05T08:56:56Z</time>
      </trkpt>
      <trkpt lat="44.57834" lon="5.80601">
        <ele>1337</ele>
        <time>2015-04-05T08:57:02Z</time>
      </trkpt>
      <trkpt lat="44.5783" lon="5.80613">
        <ele>1337.4</ele>
        <time>2015-04-05T08:57:08Z</time>
      </trkpt>
      <trkpt lat="44.57827" lon="5.80625">
        <ele>1338.1</ele>
        <time>2015-04-05T08:57:14Z</time>
      </trkpt>
      <trkpt lat="44.57827" lon="5.80639">
        <ele>1339.7</ele>
        <time>2015-04-05T08:57:20Z</time>
      </trkpt>
      <trkpt lat="44.57829" lon="5.80653">
        <ele>1341.5</ele>
        <time>2015-04-05T08:57:26Z</time>
      </trkpt>
      <trkpt lat="44.57828" lon="5.80668">
        <ele>1343.1</ele>
        <time>2015-04-05T08:57:33Z</time>
      </trkpt>
      <trkpt lat="44.57824" lon="5.80679">
        <ele>1344</ele>
        <time>2015-04-05T08:57:39Z</time>
      </trkpt>
      <trkpt lat="44.57817" lon="5.80688">
        <ele>1344.1</ele>
        <time>2015-04-05T08:57:45Z</time>
      </trkpt>
      <trkpt lat="44.5781" lon="5.80698">
        <ele>1344.1</ele>
        <time>2015-04-05T08:57:51Z</time>
      </trkpt>
      <trkpt lat="44.57804" lon="5.80709">
        <ele>1344.9</ele>
        <time>2015-04-05T08:57:57Z</time>
      </trkpt>
      <trkpt lat="44.578" lon="5.80721">
        <ele>1346.1</ele>
        <time>2015-04-05T08:58:03Z</time>
      </trkpt>
      <trkpt lat="44.57797" lon="5.80735">
        <ele>1347.7</ele>
        <time>2015-04-05T08:58:09Z</time>
      </trkpt>
      <trkpt lat="44.57795" lon="5.80748">
        <ele>1349.3</ele>
        <time>2015-04-05T08:58:15Z</time>
      </trkpt>
      <trkpt lat="44.57792" lon="5.80759">
        <ele>1348.6</ele>
        <time>2015-04-05T08:58:22Z</time>
      </trkpt>
      <trkpt lat="44.57791" lon="5.80772">
        <ele>1347.8</ele>
        <time>2015-04-05T08:58:31Z</time>
      </trkpt>
      <trkpt lat="44.5779" lon="5.80758">
        <ele>1348.2</ele>
        <time>2015-04-05T08:58:49Z</time>
      </trkpt>
      <trkpt lat="44.57783" lon="5.80749">
        <ele>1346.9</ele>
        <time>2015-04-05T08:58:56Z</time>
      </trkpt>
      <trkpt lat="44.5778" lon="5.80761">
        <ele>1345.9</ele>
        <time>2015-04-05T08:59:05Z</time>
      </trkpt>
      <trkpt lat="44.5777" lon="5.80766">
        <ele>1343.7</ele>
        <time>2015-04-05T08:59:17Z</time>
      </trkpt>
      <trkpt lat="44.57761" lon="5.80766">
        <ele>1341.8</ele>
        <time>2015-04-05T08:59:26Z</time>
      </trkpt>
      <trkpt lat="44.57751" lon="5.80767">
        <ele>1339.7</ele>
        <time>2015-04-05T08:59:34Z</time>
      </trkpt>
      <trkpt lat="44.57741" lon="5.80766">
        <ele>1339.1</ele>
        <time>2015-04-05T08:59:43Z</time>
      </trkpt>
      <trkpt lat="44.57732" lon="5.80764">
        <ele>1338.8</ele>
        <time>2015-04-05T08:59:51Z</time>
      </trkpt>
      <trkpt lat="44.57723" lon="5.80767">
        <ele>1338.2</ele>
        <time>2015-04-05T09:00:00Z</time>
      </trkpt>
      <trkpt lat="44.57715" lon="5.80772">
        <ele>1337.6</ele>
        <time>2015-04-05T09:00:15Z</time>
      </trkpt>
      <trkpt lat="44.57706" lon="5.80772">
        <ele>1337.2</ele>
        <time>2015-04-05T09:00:48Z</time>
      </trkpt>
      <trkpt lat="44.57697" lon="5.8078">
        <ele>1336.4</ele>
        <time>2015-04-05T09:08:34Z</time>
      </trkpt>
      <trkpt lat="44.57687" lon="5.80778">
        <ele>1336</ele>
        <time>2015-04-05T09:08:39Z</time>
      </trkpt>
      <trkpt lat="44.57676" lon="5.80777">
        <ele>1335.5</ele>
        <time>2015-04-05T09:08:43Z</time>
      </trkpt>
      <trkpt lat="44.57666" lon="5.80776">
        <ele>1335.2</ele>
        <time>2015-04-05T09:08:46Z</time>
      </trkpt>
      <trkpt lat="44.57657" lon="5.80774">
        <ele>1336.4</ele>
        <time>2015-04-05T09:08:49Z</time>
      </trkpt>
      <trkpt lat="44.57648" lon="5.80773">
        <ele>1337.6</ele>
        <time>2015-04-05T09:08:53Z</time>
      </trkpt>
      <trkpt lat="44.57638" lon="5.80778">
        <ele>1338.5</ele>
        <time>2015-04-05T09:08:59Z</time>
      </trkpt>
      <trkpt lat="44.57629" lon="5.80781">
        <ele>1339.3</ele>
        <time>2015-04-05T09:09:06Z</time>
      </trkpt>
      <trkpt lat="44.57619" lon="5.80786">
        <ele>1340</ele>
        <time>2015-04-05T09:09:14Z</time>
      </trkpt>
      <trkpt lat="44.5761" lon="5.80791">
        <ele>1340.6</ele>
        <time>2015-04-05T09:09:22Z</time>
      </trkpt>
      <trkpt lat="44.57602" lon="5.80797">
        <ele>1340.9</ele>
        <time>2015-04-05T09:09:27Z</time>
      </trkpt>
      <trkpt lat="44.57594" lon="5.80802">
        <ele>1341.3</ele>
        <time>2015-04-05T09:09:31Z</time>
      </trkpt>
      <trkpt lat="44.57585" lon="5.80809">
        <ele>1341.5</ele>
        <time>2015-04-05T09:09:35Z</time>
      </trkpt>
      <trkpt lat="44.57574" lon="5.80815">
        <ele>1342.1</ele>
        <time>2015-04-05T09:09:39Z</time>
      </trkpt>
      <trkpt lat="44.57565" lon="5.80821">
        <ele>1342.8</ele>
        <time>2015-04-05T09:09:42Z</time>
      </trkpt>
      <trkpt lat="44.57555" lon="5.80828">
        <ele>1344</ele>
        <time>2015-04-05T09:09:46Z</time>
      </trkpt>
      <trkpt lat="44.57545" lon="5.80831">
        <ele>1345.5</ele>
        <time>2015-04-05T09:09:50Z</time>
      </trkpt>
      <trkpt lat="44.57535" lon="5.80834">
        <ele>1347.1</ele>
        <time>2015-04-05T09:09:54Z</time>
      </trkpt>
      <trkpt lat="44.57526" lon="5.80835">
        <ele>1348.3</ele>
        <time>2015-04-05T09:09:57Z</time>
      </trkpt>
      <trkpt lat="44.57515" lon="5.80836">
        <ele>1350.1</ele>
        <time>2015-04-05T09:10:00Z</time>
      </trkpt>
      <trkpt lat="44.57506" lon="5.80836">
        <ele>1351.6</ele>
        <time>2015-04-05T09:10:03Z</time>
      </trkpt>
      <trkpt lat="44.57496" lon="5.80836">
        <ele>1352.6</ele>
        <time>2015-04-05T09:10:06Z</time>
      </trkpt>
      <trkpt lat="44.57485" lon="5.80832">
        <ele>1352.9</ele>
        <time>2015-04-05T09:10:10Z</time>
      </trkpt>
      <trkpt lat="44.57475" lon="5.8083">
        <ele>1352.8</ele>
        <time>2015-04-05T09:10:14Z</time>
      </trkpt>
      <trkpt lat="44.57466" lon="5.80831">
        <ele>1353.1</ele>
        <time>2015-04-05T09:10:17Z</time>
      </trkpt>
      <trkpt lat="44.57456" lon="5.80831">
        <ele>1353.2</ele>
        <time>2015-04-05T09:10:21Z</time>
      </trkpt>
      <trkpt lat="44.57445" lon="5.80831">
        <ele>1353.3</ele>
        <time>2015-04-05T09:10:25Z</time>
      </trkpt>
      <trkpt lat="44.57436" lon="5.80829">
        <ele>1353.2</ele>
        <time>2015-04-05T09:10:29Z</time>
      </trkpt>
      <trkpt lat="44.57426" lon="5.80828">
        <ele>1353.2</ele>
        <time>2015-04-05T09:10:33Z</time>
      </trkpt>
      <trkpt lat="44.57415" lon="5.80829">
        <ele>1353.5</ele>
        <time>2015-04-05T09:10:38Z</time>
      </trkpt>
      <trkpt lat="44.57405" lon="5.80831">
        <ele>1354.2</ele>
        <time>2015-04-05T09:10:43Z</time>
      </trkpt>
      <trkpt lat="44.57395" lon="5.80833">
        <ele>1354.7</ele>
        <time>2015-04-05T09:10:47Z</time>
      </trkpt>
      <trkpt lat="44.57386" lon="5.80834">
        <ele>1355.1</ele>
        <time>2015-04-05T09:10:53Z</time>
      </trkpt>
      <trkpt lat="44.57375" lon="5.80833">
        <ele>1355.4</ele>
        <time>2015-04-05T09:11:00Z</time>
      </trkpt>
      <trkpt lat="44.57366" lon="5.80833">
        <ele>1355.8</ele>
        <time>2015-04-05T09:11:04Z</time>
      </trkpt>
      <trkpt lat="44.57356" lon="5.80833">
        <ele>1356.2</ele>
        <time>2015-04-05T09:11:08Z</time>
      </trkpt>
      <trkpt lat="44.57346" lon="5.80834">
        <ele>1356.5</ele>
        <time>2015-04-05T09:11:12Z</time>
      </trkpt>
      <trkpt lat="44.57336" lon="5.80834">
        <ele>1356.9</ele>
        <time>2015-04-05T09:11:17Z</time>
      </trkpt>
      <trkpt lat="44.57325" lon="5.80834">
        <ele>1357.8</ele>
        <time>2015-04-05T09:11:22Z</time>
      </trkpt>
      <trkpt lat="44.57315" lon="5.80834">
        <ele>1359</ele>
        <time>2015-04-05T09:11:27Z</time>
      </trkpt>
      <trkpt lat="44.57304" lon="5.80836">
        <ele>1359.7</ele>
        <time>2015-04-05T09:11:32Z</time>
      </trkpt>
      <trkpt lat="44.57292" lon="5.80842">
        <ele>1359.3</ele>
        <time>2015-04-05T09:11:36Z</time>
      </trkpt>
      <trkpt lat="44.57283" lon="5.80844">
        <ele>1359.8</ele>
        <time>2015-04-05T09:11:39Z</time>
      </trkpt>
      <trkpt lat="44.57272" lon="5.80846">
        <ele>1360.4</ele>
        <time>2015-04-05T09:11:43Z</time>
      </trkpt>
      <trkpt lat="44.57263" lon="5.80846">
        <ele>1361.4</ele>
        <time>2015-04-05T09:11:47Z</time>
      </trkpt>
      <trkpt lat="44.57253" lon="5.80848">
        <ele>1361.8</ele>
        <time>2015-04-05T09:11:51Z</time>
      </trkpt>
      <trkpt lat="44.57242" lon="5.80854">
        <ele>1360.8</ele>
        <time>2015-04-05T09:11:55Z</time>
      </trkpt>
      <trkpt lat="44.57231" lon="5.80864">
        <ele>1358.5</ele>
        <time>2015-04-05T09:11:58Z</time>
      </trkpt>
      <trkpt lat="44.57222" lon="5.80872">
        <ele>1357.1</ele>
        <time>2015-04-05T09:12:00Z</time>
      </trkpt>
      <trkpt lat="44.57213" lon="5.80879">
        <ele>1356</ele>
        <time>2015-04-05T09:12:02Z</time>
      </trkpt>
      <trkpt lat="44.57206" lon="5.80887">
        <ele>1354.8</ele>
        <time>2015-04-05T09:12:08Z</time>
      </trkpt>
      <trkpt lat="44.57198" lon="5.80893">
        <ele>1354</ele>
        <time>2015-04-05T09:12:23Z</time>
      </trkpt>
      <trkpt lat="44.57189" lon="5.80897">
        <ele>1354</ele>
        <time>2015-04-05T09:13:22Z</time>
      </trkpt>
      <trkpt lat="44.5718" lon="5.80907">
        <ele>1353.3</ele>
        <time>2015-04-05T09:14:00Z</time>
      </trkpt>
      <trkpt lat="44.5717" lon="5.80912">
        <ele>1353.4</ele>
        <time>2015-04-05T09:14:03Z</time>
      </trkpt>
      <trkpt lat="44.5716" lon="5.80918">
        <ele>1353.1</ele>
        <time>2015-04-05T09:14:07Z</time>
      </trkpt>
      <trkpt lat="44.57149" lon="5.80923">
        <ele>1352.2</ele>
        <time>2015-04-05T09:14:13Z</time>
      </trkpt>
      <trkpt lat="44.57139" lon="5.80924">
        <ele>1352.2</ele>
        <time>2015-04-05T09:14:16Z</time>
      </trkpt>
      <trkpt lat="44.57125" lon="5.80919">
        <ele>1353.5</ele>
        <time>2015-04-05T09:14:19Z</time>
      </trkpt>
      <trkpt lat="44.57112" lon="5.80913">
        <ele>1354.2</ele>
        <time>2015-04-05T09:14:21Z</time>
      </trkpt>
      <trkpt lat="44.57098" lon="5.80907">
        <ele>1353.8</ele>
        <time>2015-04-05T09:14:23Z</time>
      </trkpt>
      <trkpt lat="44.57084" lon="5.80905">
        <ele>1353.4</ele>
        <time>2015-04-05T09:14:25Z</time>
      </trkpt>
      <trkpt lat="44.5707" lon="5.80906">
        <ele>1352</ele>
        <time>2015-04-05T09:14:27Z</time>
      </trkpt>
      <trkpt lat="44.57058" lon="5.80908">
        <ele>1350.9</ele>
        <time>2015-04-05T09:14:29Z</time>
      </trkpt>
      <trkpt lat="44.57045" lon="5.8091">
        <ele>1349.5</ele>
        <time>2015-04-05T09:14:31Z</time>
      </trkpt>
      <trkpt lat="44.57032" lon="5.80911">
        <ele>1348.3</ele>
        <time>2015-04-05T09:14:33Z</time>
      </trkpt>
      <trkpt lat="44.57021" lon="5.80914">
        <ele>1347.7</ele>
        <time>2015-04-05T09:14:35Z</time>
      </trkpt>
      <trkpt lat="44.5701" lon="5.80918">
        <ele>1346.8</ele>
        <time>2015-04-05T09:14:37Z</time>
      </trkpt>
      <trkpt lat="44.56999" lon="5.80919">
        <ele>1345.4</ele>
        <time>2015-04-05T09:14:39Z</time>
      </trkpt>
      <trkpt lat="44.56987" lon="5.80915">
        <ele>1342.9</ele>
        <time>2015-04-05T09:14:41Z</time>
      </trkpt>
      <trkpt lat="44.56973" lon="5.80909">
        <ele>1338.8</ele>
        <time>2015-04-05T09:14:43Z</time>
      </trkpt>
      <trkpt lat="44.5696" lon="5.80902">
        <ele>1334.5</ele>
        <time>2015-04-05T09:14:45Z</time>
      </trkpt>
      <trkpt lat="44.56948" lon="5.80898">
        <ele>1331.2</ele>
        <time>2015-04-05T09:14:47Z</time>
      </trkpt>
      <trkpt lat="44.5694" lon="5.80894">
        <ele>1328.7</ele>
        <time>2015-04-05T09:14:53Z</time>
      </trkpt>
      <trkpt lat="44.5693" lon="5.80892">
        <ele>1326.2</ele>
        <time>2015-04-05T09:17:05Z</time>
      </trkpt>
      <trkpt lat="44.5692" lon="5.80885">
        <ele>1322.7</ele>
        <time>2015-04-05T09:17:11Z</time>
      </trkpt>
      <trkpt lat="44.5691" lon="5.80878">
        <ele>1320.3</ele>
        <time>2015-04-05T09:17:14Z</time>
      </trkpt>
      <trkpt lat="44.56898" lon="5.80871">
        <ele>1318.2</ele>
        <time>2015-04-05T09:17:17Z</time>
      </trkpt>
      <trkpt lat="44.56886" lon="5.80863">
        <ele>1316.1</ele>
        <time>2015-04-05T09:17:20Z</time>
      </trkpt>
      <trkpt lat="44.56877" lon="5.80857">
        <ele>1314.3</ele>
        <time>2015-04-05T09:17:22Z</time>
      </trkpt>
      <trkpt lat="44.56866" lon="5.80851">
        <ele>1312.4</ele>
        <time>2015-04-05T09:17:24Z</time>
      </trkpt>
      <trkpt lat="44.56853" lon="5.80844">
        <ele>1310.3</ele>
        <time>2015-04-05T09:17:26Z</time>
      </trkpt>
      <trkpt lat="44.5684" lon="5.80838">
        <ele>1308.3</ele>
        <time>2015-04-05T09:17:28Z</time>
      </trkpt>
      <trkpt lat="44.56826" lon="5.80832">
        <ele>1306.8</ele>
        <time>2015-04-05T09:17:30Z</time>
      </trkpt>
      <trkpt lat="44.56812" lon="5.80824">
        <ele>1305</ele>
        <time>2015-04-05T09:17:32Z</time>
      </trkpt>
      <trkpt lat="44.56798" lon="5.80818">
        <ele>1303.5</ele>
        <time>2015-04-05T09:17:34Z</time>
      </trkpt>
      <trkpt lat="44.56785" lon="5.80811">
        <ele>1302.1</ele>
        <time>2015-04-05T09:17:36Z</time>
      </trkpt>
      <trkpt lat="44.56772" lon="5.80806">
        <ele>1301</ele>
        <time>2015-04-05T09:17:38Z</time>
      </trkpt>
      <trkpt lat="44.56761" lon="5.80802">
        <ele>1300.2</ele>
        <time>2015-04-05T09:17:40Z</time>
      </trkpt>
      <trkpt lat="44.56751" lon="5.80799">
        <ele>1299.8</ele>
        <time>2015-04-05T09:17:42Z</time>
      </trkpt>
      <trkpt lat="44.56741" lon="5.80795">
        <ele>1300.1</ele>
        <time>2015-04-05T09:17:44Z</time>
      </trkpt>
      <trkpt lat="44.56731" lon="5.80792">
        <ele>1301</ele>
        <time>2015-04-05T09:17:46Z</time>
      </trkpt>
      <trkpt lat="44.56722" lon="5.80789">
        <ele>1301.7</ele>
        <time>2015-04-05T09:17:48Z</time>
      </trkpt>
      <trkpt lat="44.56713" lon="5.80786">
        <ele>1302.4</ele>
        <time>2015-04-05T09:17:50Z</time>
      </trkpt>
      <trkpt lat="44.56701" lon="5.80782">
        <ele>1303.3</ele>
        <time>2015-04-05T09:17:53Z</time>
      </trkpt>
      <trkpt lat="44.56691" lon="5.80778">
        <ele>1304</ele>
        <time>2015-04-05T09:17:56Z</time>
      </trkpt>
      <trkpt lat="44.56681" lon="5.80775">
        <ele>1304.9</ele>
        <time>2015-04-05T09:17:59Z</time>
      </trkpt>
      <trkpt lat="44.5667" lon="5.80771">
        <ele>1305.8</ele>
        <time>2015-04-05T09:18:03Z</time>
      </trkpt>
      <trkpt lat="44.56659" lon="5.80769">
        <ele>1307.4</ele>
        <time>2015-04-05T09:18:07Z</time>
      </trkpt>
      <trkpt lat="44.56649" lon="5.80768">
        <ele>1309.1</ele>
        <time>2015-04-05T09:18:11Z</time>
      </trkpt>
      <trkpt lat="44.56639" lon="5.80769">
        <ele>1311.3</ele>
        <time>2015-04-05T09:18:15Z</time>
      </trkpt>
      <trkpt lat="44.56629" lon="5.80768">
        <ele>1313.2</ele>
        <time>2015-04-05T09:18:21Z</time>
      </trkpt>
      <trkpt lat="44.56619" lon="5.80766">
        <ele>1314.4</ele>
        <time>2015-04-05T09:18:26Z</time>
      </trkpt>
      <trkpt lat="44.56609" lon="5.80764">
        <ele>1316.1</ele>
        <time>2015-04-05T09:18:31Z</time>
      </trkpt>
      <trkpt lat="44.566" lon="5.80763">
        <ele>1317.9</ele>
        <time>2015-04-05T09:18:36Z</time>
      </trkpt>
      <trkpt lat="44.5659" lon="5.80762">
        <ele>1319.7</ele>
        <time>2015-04-05T09:18:41Z</time>
      </trkpt>
      <trkpt lat="44.56582" lon="5.80753">
        <ele>1318.2</ele>
        <time>2015-04-05T09:18:47Z</time>
      </trkpt>
      <trkpt lat="44.56581" lon="5.80739">
        <ele>1315.7</ele>
        <time>2015-04-05T09:18:52Z</time>
      </trkpt>
      <trkpt lat="44.56581" lon="5.80726">
        <ele>1314.1</ele>
        <time>2015-04-05T09:18:57Z</time>
      </trkpt>
      <trkpt lat="44.5658" lon="5.80711">
        <ele>1312.2</ele>
        <time>2015-04-05T09:19:03Z</time>
      </trkpt>
      <trkpt lat="44.56582" lon="5.80698">
        <ele>1309.9</ele>
        <time>2015-04-05T09:19:08Z</time>
      </trkpt>
      <trkpt lat="44.56587" lon="5.80685">
        <ele>1306.4</ele>
        <time>2015-04-05T09:19:12Z</time>
      </trkpt>
      <trkpt lat="44.56592" lon="5.80672">
        <ele>1302.7</ele>
        <time>2015-04-05T09:19:15Z</time>
      </trkpt>
      <trkpt lat="44.56599" lon="5.80658">
        <ele>1299.6</ele>
        <time>2015-04-05T09:19:18Z</time>
      </trkpt>
      <trkpt lat="44.56605" lon="5.80648">
        <ele>1297.9</ele>
        <time>2015-04-05T09:19:20Z</time>
      </trkpt>
      <trkpt lat="44.56612" lon="5.80636">
        <ele>1295.9</ele>
        <time>2015-04-05T09:19:22Z</time>
      </trkpt>
      <trkpt lat="44.56619" lon="5.80623">
        <ele>1294.1</ele>
        <time>2015-04-05T09:19:24Z</time>
      </trkpt>
      <trkpt lat="44.56625" lon="5.8061">
        <ele>1292.4</ele>
        <time>2015-04-05T09:19:26Z</time>
      </trkpt>
      <trkpt lat="44.5663" lon="5.80597">
        <ele>1291.1</ele>
        <time>2015-04-05T09:19:28Z</time>
      </trkpt>
      <trkpt lat="44.56635" lon="5.80586">
        <ele>1289.6</ele>
        <time>2015-04-05T09:19:30Z</time>
      </trkpt>
      <trkpt lat="44.56643" lon="5.8057">
        <ele>1289</ele>
        <time>2015-04-05T09:19:33Z</time>
      </trkpt>
      <trkpt lat="44.5665" lon="5.80555">
        <ele>1288.7</ele>
        <time>2015-04-05T09:19:36Z</time>
      </trkpt>
      <trkpt lat="44.56656" lon="5.80541">
        <ele>1288.5</ele>
        <time>2015-04-05T09:19:39Z</time>
      </trkpt>
      <trkpt lat="44.56663" lon="5.80529">
        <ele>1287.4</ele>
        <time>2015-04-05T09:19:42Z</time>
      </trkpt>
      <trkpt lat="44.56668" lon="5.80516">
        <ele>1287.4</ele>
        <time>2015-04-05T09:19:44Z</time>
      </trkpt>
      <trkpt lat="44.56674" lon="5.80504">
        <ele>1286.4</ele>
        <time>2015-04-05T09:19:46Z</time>
      </trkpt>
      <trkpt lat="44.56683" lon="5.80492">
        <ele>1284.3</ele>
        <time>2015-04-05T09:19:48Z</time>
      </trkpt>
      <trkpt lat="44.56693" lon="5.80478">
        <ele>1281.5</ele>
        <time>2015-04-05T09:19:50Z</time>
      </trkpt>
      <trkpt lat="44.56701" lon="5.80464">
        <ele>1279.1</ele>
        <time>2015-04-05T09:19:52Z</time>
      </trkpt>
      <trkpt lat="44.56707" lon="5.80453">
        <ele>1277.4</ele>
        <time>2015-04-05T09:19:56Z</time>
      </trkpt>
      <trkpt lat="44.5671" lon="5.8044">
        <ele>1277.5</ele>
        <time>2015-04-05T09:20:13Z</time>
      </trkpt>
      <trkpt lat="44.56714" lon="5.80428">
        <ele>1276.6</ele>
        <time>2015-04-05T09:20:26Z</time>
      </trkpt>
      <trkpt lat="44.56716" lon="5.80416">
        <ele>1276.2</ele>
        <time>2015-04-05T09:20:37Z</time>
      </trkpt>
      <trkpt lat="44.5672" lon="5.80404">
        <ele>1275.1</ele>
        <time>2015-04-05T09:20:41Z</time>
      </trkpt>
      <trkpt lat="44.56723" lon="5.80388">
        <ele>1274</ele>
        <time>2015-04-05T09:20:45Z</time>
      </trkpt>
      <trkpt lat="44.56725" lon="5.80375">
        <ele>1273</ele>
        <time>2015-04-05T09:20:48Z</time>
      </trkpt>
      <trkpt lat="44.56727" lon="5.80362">
        <ele>1272.3</ele>
        <time>2015-04-05T09:20:51Z</time>
      </trkpt>
      <trkpt lat="44.56728" lon="5.80347">
        <ele>1272.3</ele>
        <time>2015-04-05T09:20:55Z</time>
      </trkpt>
      <trkpt lat="44.56728" lon="5.80334">
        <ele>1272.5</ele>
        <time>2015-04-05T09:21:00Z</time>
      </trkpt>
      <trkpt lat="44.56727" lon="5.80319">
        <ele>1271.5</ele>
        <time>2015-04-05T09:21:04Z</time>
      </trkpt>
      <trkpt lat="44.56727" lon="5.80305">
        <ele>1270.3</ele>
        <time>2015-04-05T09:21:08Z</time>
      </trkpt>
      <trkpt lat="44.56726" lon="5.80289">
        <ele>1269.4</ele>
        <time>2015-04-05T09:21:13Z</time>
      </trkpt>
      <trkpt lat="44.56726" lon="5.80274">
        <ele>1267.9</ele>
        <time>2015-04-05T09:21:17Z</time>
      </trkpt>
      <trkpt lat="44.56727" lon="5.8026">
        <ele>1266.3</ele>
        <time>2015-04-05T09:21:21Z</time>
      </trkpt>
      <trkpt lat="44.56726" lon="5.80247">
        <ele>1265.4</ele>
        <time>2015-04-05T09:21:26Z</time>
      </trkpt>
      <trkpt lat="44.56722" lon="5.80234">
        <ele>1266.2</ele>
        <time>2015-04-05T09:21:32Z</time>
      </trkpt>
      <trkpt lat="44.56716" lon="5.80222">
        <ele>1267.9</ele>
        <time>2015-04-05T09:21:39Z</time>
      </trkpt>
      <trkpt lat="44.56712" lon="5.80208">
        <ele>1268.4</ele>
        <time>2015-04-05T09:21:45Z</time>
      </trkpt>
      <trkpt lat="44.56709" lon="5.80195">
        <ele>1268.4</ele>
        <time>2015-04-05T09:21:50Z</time>
      </trkpt>
      <trkpt lat="44.56706" lon="5.8018">
        <ele>1268.2</ele>
        <time>2015-04-05T09:21:54Z</time>
      </trkpt>
      <trkpt lat="44.56698" lon="5.80169">
        <ele>1271.4</ele>
        <time>2015-04-05T09:21:58Z</time>
      </trkpt>
      <trkpt lat="44.56692" lon="5.80158">
        <ele>1273.7</ele>
        <time>2015-04-05T09:22:03Z</time>
      </trkpt>
      <trkpt lat="44.56684" lon="5.8015">
        <ele>1276.6</ele>
        <time>2015-04-05T09:22:07Z</time>
      </trkpt>
      <trkpt lat="44.56675" lon="5.80145">
        <ele>1281.3</ele>
        <time>2015-04-05T09:22:12Z</time>
      </trkpt>
      <trkpt lat="44.56666" lon="5.80146">
        <ele>1287.3</ele>
        <time>2015-04-05T09:22:19Z</time>
      </trkpt>
      <trkpt lat="44.56657" lon="5.80148">
        <ele>1291.6</ele>
        <time>2015-04-05T09:22:33Z</time>
      </trkpt>
      <trkpt lat="44.56647" lon="5.80151">
        <ele>1296.8</ele>
        <time>2015-04-05T09:22:50Z</time>
      </trkpt>
      <trkpt lat="44.56639" lon="5.80156">
        <ele>1302</ele>
        <time>2015-04-05T09:22:59Z</time>
      </trkpt>
      <trkpt lat="44.56629" lon="5.80153">
        <ele>1305.4</ele>
        <time>2015-04-05T09:23:09Z</time>
      </trkpt>
      <trkpt lat="44.56619" lon="5.80153">
        <ele>1309.9</ele>
        <time>2015-04-05T09:23:13Z</time>
      </trkpt>
      <trkpt lat="44.56608" lon="5.80151">
        <ele>1314.1</ele>
        <time>2015-04-05T09:23:19Z</time>
      </trkpt>
      <trkpt lat="44.56599" lon="5.80151">
        <ele>1317.9</ele>
        <time>2015-04-05T09:23:23Z</time>
      </trkpt>
      <trkpt lat="44.56589" lon="5.80151">
        <ele>1322.1</ele>
        <time>2015-04-05T09:23:29Z</time>
      </trkpt>
      <trkpt lat="44.5658" lon="5.80154">
        <ele>1326.3</ele>
        <time>2015-04-05T09:23:39Z</time>
      </trkpt>
      <trkpt lat="44.56571" lon="5.80157">
        <ele>1328</ele>
        <time>2015-04-05T09:23:53Z</time>
      </trkpt>
      <trkpt lat="44.56562" lon="5.80162">
        <ele>1330.5</ele>
        <time>2015-04-05T09:24:00Z</time>
      </trkpt>
      <trkpt lat="44.56553" lon="5.80167">
        <ele>1333.1</ele>
        <time>2015-04-05T09:24:07Z</time>
      </trkpt>
      <trkpt lat="44.56544" lon="5.8017">
        <ele>1334.5</ele>
        <time>2015-04-05T09:24:14Z</time>
      </trkpt>
      <trkpt lat="44.56535" lon="5.80173">
        <ele>1336.3</ele>
        <time>2015-04-05T09:24:21Z</time>
      </trkpt>
      <trkpt lat="44.56524" lon="5.80176">
        <ele>1337.9</ele>
        <time>2015-04-05T09:24:27Z</time>
      </trkpt>
      <trkpt lat="44.56514" lon="5.80176">
        <ele>1338.6</ele>
        <time>2015-04-05T09:24:31Z</time>
      </trkpt>
      <trkpt lat="44.56505" lon="5.80174">
        <ele>1338.4</ele>
        <time>2015-04-05T09:24:34Z</time>
      </trkpt>
      <trkpt lat="44.56495" lon="5.80174">
        <ele>1337.9</ele>
        <time>2015-04-05T09:24:38Z</time>
      </trkpt>
      <trkpt lat="44.56485" lon="5.80174">
        <ele>1336.8</ele>
        <time>2015-04-05T09:24:48Z</time>
      </trkpt>
      <trkpt lat="44.56476" lon="5.80176">
        <ele>1336.9</ele>
        <time>2015-04-05T09:24:53Z</time>
      </trkpt>
      <trkpt lat="44.56466" lon="5.80176">
        <ele>1336</ele>
        <time>2015-04-05T09:24:56Z</time>
      </trkpt>
      <trkpt lat="44.56454" lon="5.80176">
        <ele>1334.8</ele>
        <time>2015-04-05T09:25:00Z</time>
      </trkpt>
      <trkpt lat="44.56443" lon="5.80176">
        <ele>1333.5</ele>
        <time>2015-04-05T09:25:03Z</time>
      </trkpt>
      <trkpt lat="44.56431" lon="5.80178">
        <ele>1333.1</ele>
        <time>2015-04-05T09:25:06Z</time>
      </trkpt>
      <trkpt lat="44.5642" lon="5.80176">
        <ele>1330.9</ele>
        <time>2015-04-05T09:25:10Z</time>
      </trkpt>
      <trkpt lat="44.56411" lon="5.80171">
        <ele>1327.1</ele>
        <time>2015-04-05T09:25:13Z</time>
      </trkpt>
      <trkpt lat="44.564" lon="5.80166">
        <ele>1323.2</ele>
        <time>2015-04-05T09:25:17Z</time>
      </trkpt>
      <trkpt lat="44.5639" lon="5.80167">
        <ele>1322.3</ele>
        <time>2015-04-05T09:25:21Z</time>
      </trkpt>
      <trkpt lat="44.56381" lon="5.80166">
        <ele>1320.6</ele>
        <time>2015-04-05T09:25:24Z</time>
      </trkpt>
      <trkpt lat="44.56371" lon="5.80167">
        <ele>1319.9</ele>
        <time>2015-04-05T09:25:28Z</time>
      </trkpt>
      <trkpt lat="44.56361" lon="5.80164">
        <ele>1316.8</ele>
        <time>2015-04-05T09:25:31Z</time>
      </trkpt>
      <trkpt lat="44.56349" lon="5.80164">
        <ele>1315.5</ele>
        <time>2015-04-05T09:25:34Z</time>
      </trkpt>
      <trkpt lat="44.56339" lon="5.80165">
        <ele>1314.4</ele>
        <time>2015-04-05T09:25:38Z</time>
      </trkpt>
      <trkpt lat="44.5633" lon="5.80165">
        <ele>1313.8</ele>
        <time>2015-04-05T09:25:44Z</time>
      </trkpt>
      <trkpt lat="44.5632" lon="5.80169">
        <ele>1315.6</ele>
        <time>2015-04-05T09:25:50Z</time>
      </trkpt>
      <trkpt lat="44.56311" lon="5.8017">
        <ele>1315.7</ele>
        <time>2015-04-05T09:25:55Z</time>
      </trkpt>
      <trkpt lat="44.56301" lon="5.80172">
        <ele>1316.6</ele>
        <time>2015-04-05T09:26:06Z</time>
      </trkpt>
      <trkpt lat="44.56292" lon="5.80171">
        <ele>1316.3</ele>
        <time>2015-04-05T09:26:16Z</time>
      </trkpt>
      <trkpt lat="44.56283" lon="5.80173">
        <ele>1316.8</ele>
        <time>2015-04-05T09:26:24Z</time>
      </trkpt>
      <trkpt lat="44.56274" lon="5.80176">
        <ele>1318.1</ele>
        <time>2015-04-05T09:26:37Z</time>
      </trkpt>
      <trkpt lat="44.56266" lon="5.80183">
        <ele>1321.8</ele>
        <time>2015-04-05T09:26:55Z</time>
      </trkpt>
      <trkpt lat="44.56258" lon="5.80188">
        <ele>1324.3</ele>
        <time>2015-04-05T09:27:09Z</time>
      </trkpt>
      <trkpt lat="44.5625" lon="5.80194">
        <ele>1327.1</ele>
        <time>2015-04-05T09:27:23Z</time>
      </trkpt>
      <trkpt lat="44.56239" lon="5.80195">
        <ele>1327</ele>
        <time>2015-04-05T09:27:38Z</time>
      </trkpt>
      <trkpt lat="44.5623" lon="5.80194">
        <ele>1325.9</ele>
        <time>2015-04-05T09:27:44Z</time>
      </trkpt>
      <trkpt lat="44.5622" lon="5.80196">
        <ele>1326.6</ele>
        <time>2015-04-05T09:27:49Z</time>
      </trkpt>
      <trkpt lat="44.56211" lon="5.80197">
        <ele>1326.2</ele>
        <time>2015-04-05T09:27:54Z</time>
      </trkpt>
      <trkpt lat="44.56201" lon="5.80196">
        <ele>1325</ele>
        <time>2015-04-05T09:27:59Z</time>
      </trkpt>
      <trkpt lat="44.56191" lon="5.80196">
        <ele>1324.8</ele>
        <time>2015-04-05T09:28:04Z</time>
      </trkpt>
      <trkpt lat="44.56181" lon="5.80197">
        <ele>1324.3</ele>
        <time>2015-04-05T09:28:08Z</time>
      </trkpt>
      <trkpt lat="44.5617" lon="5.80195">
        <ele>1322.8</ele>
        <time>2015-04-05T09:28:11Z</time>
      </trkpt>
      <trkpt lat="44.56159" lon="5.80192">
        <ele>1320.9</ele>
        <time>2015-04-05T09:28:14Z</time>
      </trkpt>
      <trkpt lat="44.56146" lon="5.80192">
        <ele>1320.3</ele>
        <time>2015-04-05T09:28:17Z</time>
      </trkpt>
      <trkpt lat="44.56135" lon="5.8019">
        <ele>1319.3</ele>
        <time>2015-04-05T09:28:20Z</time>
      </trkpt>
      <trkpt lat="44.56126" lon="5.8019">
        <ele>1318.8</ele>
        <time>2015-04-05T09:28:23Z</time>
      </trkpt>
      <trkpt lat="44.56116" lon="5.80194">
        <ele>1320.1</ele>
        <time>2015-04-05T09:28:26Z</time>
      </trkpt>
      <trkpt lat="44.56107" lon="5.80195">
        <ele>1320.3</ele>
        <time>2015-04-05T09:28:28Z</time>
      </trkpt>
      <trkpt lat="44.56097" lon="5.80198">
        <ele>1321.2</ele>
        <time>2015-04-05T09:28:30Z</time>
      </trkpt>
      <trkpt lat="44.56087" lon="5.80199">
        <ele>1321.1</ele>
        <time>2015-04-05T09:28:33Z</time>
      </trkpt>
      <trkpt lat="44.56077" lon="5.80199">
        <ele>1320.6</ele>
        <time>2015-04-05T09:28:43Z</time>
      </trkpt>
      <trkpt lat="44.56068" lon="5.80197">
        <ele>1318.7</ele>
        <time>2015-04-05T09:29:05Z</time>
      </trkpt>
      <trkpt lat="44.56057" lon="5.80196">
        <ele>1317.5</ele>
        <time>2015-04-05T09:29:21Z</time>
      </trkpt>
      <trkpt lat="44.56048" lon="5.8019">
        <ele>1314.3</ele>
        <time>2015-04-05T09:29:24Z</time>
      </trkpt>
      <trkpt lat="44.56037" lon="5.8019">
        <ele>1313.3</ele>
        <time>2015-04-05T09:29:27Z</time>
      </trkpt>
      <trkpt lat="44.56027" lon="5.80189">
        <ele>1312.3</ele>
        <time>2015-04-05T09:29:30Z</time>
      </trkpt>
      <trkpt lat="44.56017" lon="5.80187">
        <ele>1311</ele>
        <time>2015-04-05T09:29:33Z</time>
      </trkpt>
      <trkpt lat="44.56007" lon="5.80183">
        <ele>1308.7</ele>
        <time>2015-04-05T09:29:35Z</time>
      </trkpt>
      <trkpt lat="44.55998" lon="5.80181">
        <ele>1307.6</ele>
        <time>2015-04-05T09:29:37Z</time>
      </trkpt>
      <trkpt lat="44.55985" lon="5.80173">
        <ele>1304.3</ele>
        <time>2015-04-05T09:29:40Z</time>
      </trkpt>
      <trkpt lat="44.55975" lon="5.80168">
        <ele>1302.3</ele>
        <time>2015-04-05T09:29:42Z</time>
      </trkpt>
      <trkpt lat="44.55963" lon="5.80163">
        <ele>1300.7</ele>
        <time>2015-04-05T09:29:44Z</time>
      </trkpt>
      <trkpt lat="44.55952" lon="5.80158">
        <ele>1299.3</ele>
        <time>2015-04-05T09:29:46Z</time>
      </trkpt>
      <trkpt lat="44.55942" lon="5.80154">
        <ele>1298.5</ele>
        <time>2015-04-05T09:29:48Z</time>
      </trkpt>
      <trkpt lat="44.55934" lon="5.80148">
        <ele>1297.4</ele>
        <time>2015-04-05T09:29:52Z</time>
      </trkpt>
      <trkpt lat="44.55925" lon="5.80152">
        <ele>1298.2</ele>
        <time>2015-04-05T09:31:14Z</time>
      </trkpt>
      <trkpt lat="44.55916" lon="5.80162">
        <ele>1299.3</ele>
        <time>2015-04-05T09:36:17Z</time>
      </trkpt>
      <trkpt lat="44.5591" lon="5.80176">
        <ele>1301.6</ele>
        <time>2015-04-05T09:36:20Z</time>
      </trkpt>
      <trkpt lat="44.55907" lon="5.80189">
        <ele>1304.4</ele>
        <time>2015-04-05T09:36:22Z</time>
      </trkpt>
      <trkpt lat="44.55903" lon="5.80203">
        <ele>1306.9</ele>
        <time>2015-04-05T09:36:25Z</time>
      </trkpt>
      <trkpt lat="44.55898" lon="5.80214">
        <ele>1308.6</ele>
        <time>2015-04-05T09:36:28Z</time>
      </trkpt>
      <trkpt lat="44.55891" lon="5.80223">
        <ele>1309.4</ele>
        <time>2015-04-05T09:36:30Z</time>
      </trkpt>
      <trkpt lat="44.55883" lon="5.8023">
        <ele>1309.6</ele>
        <time>2015-04-05T09:36:32Z</time>
      </trkpt>
      <trkpt lat="44.55876" lon="5.8024">
        <ele>1310.3</ele>
        <time>2015-04-05T09:36:34Z</time>
      </trkpt>
      <trkpt lat="44.55869" lon="5.80249">
        <ele>1310.4</ele>
        <time>2015-04-05T09:36:36Z</time>
      </trkpt>
      <trkpt lat="44.55861" lon="5.8026">
        <ele>1311.7</ele>
        <time>2015-04-05T09:36:38Z</time>
      </trkpt>
      <trkpt lat="44.55854" lon="5.80268">
        <ele>1312.4</ele>
        <time>2015-04-05T09:36:40Z</time>
      </trkpt>
      <trkpt lat="44.55844" lon="5.80278">
        <ele>1313</ele>
        <time>2015-04-05T09:36:43Z</time>
      </trkpt>
      <trkpt lat="44.55831" lon="5.80286">
        <ele>1311.5</ele>
        <time>2015-04-05T09:36:46Z</time>
      </trkpt>
      <trkpt lat="44.55821" lon="5.80289">
        <ele>1309</ele>
        <time>2015-04-05T09:36:48Z</time>
      </trkpt>
      <trkpt lat="44.55812" lon="5.80296">
        <ele>1307.7</ele>
        <time>2015-04-05T09:36:50Z</time>
      </trkpt>
      <trkpt lat="44.55805" lon="5.8031">
        <ele>1309.1</ele>
        <time>2015-04-05T09:36:53Z</time>
      </trkpt>
      <trkpt lat="44.55806" lon="5.80326">
        <ele>1313.1</ele>
        <time>2015-04-05T09:36:57Z</time>
      </trkpt>
      <trkpt lat="44.55808" lon="5.80338">
        <ele>1317.1</ele>
        <time>2015-04-05T09:37:01Z</time>
      </trkpt>
      <trkpt lat="44.5581" lon="5.80352">
        <ele>1321.4</ele>
        <time>2015-04-05T09:37:05Z</time>
      </trkpt>
      <trkpt lat="44.55809" lon="5.80367">
        <ele>1324.7</ele>
        <time>2015-04-05T09:37:08Z</time>
      </trkpt>
      <trkpt lat="44.55802" lon="5.80381">
        <ele>1325.1</ele>
        <time>2015-04-05T09:37:12Z</time>
      </trkpt>
      <trkpt lat="44.55795" lon="5.80393">
        <ele>1325.2</ele>
        <time>2015-04-05T09:37:16Z</time>
      </trkpt>
      <trkpt lat="44.55787" lon="5.80401">
        <ele>1323.7</ele>
        <time>2015-04-05T09:37:21Z</time>
      </trkpt>
      <trkpt lat="44.5578" lon="5.80409">
        <ele>1322.4</ele>
        <time>2015-04-05T09:37:29Z</time>
      </trkpt>
      <trkpt lat="44.55774" lon="5.8042">
        <ele>1321.8</ele>
        <time>2015-04-05T09:37:44Z</time>
      </trkpt>
      <trkpt lat="44.55765" lon="5.80429">
        <ele>1319.4</ele>
        <time>2015-04-05T09:37:49Z</time>
      </trkpt>
      <trkpt lat="44.55756" lon="5.80438">
        <ele>1317.2</ele>
        <time>2015-04-05T09:37:52Z</time>
      </trkpt>
      <trkpt lat="44.55747" lon="5.80448">
        <ele>1315.3</ele>
        <time>2015-04-05T09:37:55Z</time>
      </trkpt>
      <trkpt lat="44.55739" lon="5.80455">
        <ele>1313.7</ele>
        <time>2015-04-05T09:37:58Z</time>
      </trkpt>
      <trkpt lat="44.5573" lon="5.8046">
        <ele>1311.7</ele>
        <time>2015-04-05T09:38:01Z</time>
      </trkpt>
      <trkpt lat="44.55718" lon="5.80466">
        <ele>1309.2</ele>
        <time>2015-04-05T09:38:04Z</time>
      </trkpt>
      <trkpt lat="44.55709" lon="5.80476">
        <ele>1308.4</ele>
        <time>2015-04-05T09:38:07Z</time>
      </trkpt>
      <trkpt lat="44.55702" lon="5.80487">
        <ele>1308.7</ele>
        <time>2015-04-05T09:38:10Z</time>
      </trkpt>
      <trkpt lat="44.55695" lon="5.805">
        <ele>1309.6</ele>
        <time>2015-04-05T09:38:14Z</time>
      </trkpt>
      <trkpt lat="44.5569" lon="5.8051">
        <ele>1310.9</ele>
        <time>2015-04-05T09:38:18Z</time>
      </trkpt>
      <trkpt lat="44.55686" lon="5.80522">
        <ele>1313.1</ele>
        <time>2015-04-05T09:38:24Z</time>
      </trkpt>
      <trkpt lat="44.55683" lon="5.80535">
        <ele>1315.6</ele>
        <time>2015-04-05T09:38:29Z</time>
      </trkpt>
      <trkpt lat="44.55681" lon="5.80548">
        <ele>1318.6</ele>
        <time>2015-04-05T09:38:33Z</time>
      </trkpt>
      <trkpt lat="44.55675" lon="5.80561">
        <ele>1320.2</ele>
        <time>2015-04-05T09:38:37Z</time>
      </trkpt>
      <trkpt lat="44.55671" lon="5.80574">
        <ele>1322.6</ele>
        <time>2015-04-05T09:38:43Z</time>
      </trkpt>
      <trkpt lat="44.55665" lon="5.80585">
        <ele>1323.6</ele>
        <time>2015-04-05T09:38:52Z</time>
      </trkpt>
      <trkpt lat="44.55659" lon="5.80596">
        <ele>1324.4</ele>
        <time>2015-04-05T09:38:56Z</time>
      </trkpt>
      <trkpt lat="44.55651" lon="5.80606">
        <ele>1323.7</ele>
        <time>2015-04-05T09:39:01Z</time>
      </trkpt>
      <trkpt lat="44.55643" lon="5.8061">
        <ele>1321.2</ele>
        <time>2015-04-05T09:39:05Z</time>
      </trkpt>
      <trkpt lat="44.55634" lon="5.80615">
        <ele>1319.2</ele>
        <time>2015-04-05T09:39:09Z</time>
      </trkpt>
      <trkpt lat="44.55627" lon="5.80623">
        <ele>1318.4</ele>
        <time>2015-04-05T09:39:13Z</time>
      </trkpt>
      <trkpt lat="44.55618" lon="5.80628">
        <ele>1316</ele>
        <time>2015-04-05T09:39:17Z</time>
      </trkpt>
      <trkpt lat="44.55609" lon="5.80633">
        <ele>1313.7</ele>
        <time>2015-04-05T09:39:20Z</time>
      </trkpt>
      <trkpt lat="44.55599" lon="5.8064">
        <ele>1311.5</ele>
        <time>2015-04-05T09:39:24Z</time>
      </trkpt>
      <trkpt lat="44.5559" lon="5.80645">
        <ele>1309.2</ele>
        <time>2015-04-05T09:39:28Z</time>
      </trkpt>
      <trkpt lat="44.55581" lon="5.80649">
        <ele>1306.9</ele>
        <time>2015-04-05T09:39:31Z</time>
      </trkpt>
      <trkpt lat="44.55569" lon="5.80652">
        <ele>1305.1</ele>
        <time>2015-04-05T09:39:34Z</time>
      </trkpt>
      <trkpt lat="44.5556" lon="5.80657">
        <ele>1303.9</ele>
        <time>2015-04-05T09:39:36Z</time>
      </trkpt>
      <trkpt lat="44.55548" lon="5.80663">
        <ele>1302.9</ele>
        <time>2015-04-05T09:39:39Z</time>
      </trkpt>
      <trkpt lat="44.55538" lon="5.80673">
        <ele>1302.8</ele>
        <time>2015-04-05T09:39:42Z</time>
      </trkpt>
      <trkpt lat="44.5553" lon="5.80684">
        <ele>1303.4</ele>
        <time>2015-04-05T09:39:45Z</time>
      </trkpt>
      <trkpt lat="44.55527" lon="5.80697">
        <ele>1305.2</ele>
        <time>2015-04-05T09:39:50Z</time>
      </trkpt>
      <trkpt lat="44.55526" lon="5.80715">
        <ele>1308.8</ele>
        <time>2015-04-05T09:39:53Z</time>
      </trkpt>
      <trkpt lat="44.55526" lon="5.80731">
        <ele>1312.2</ele>
        <time>2015-04-05T09:39:56Z</time>
      </trkpt>
      <trkpt lat="44.55526" lon="5.80747">
        <ele>1315.6</ele>
        <time>2015-04-05T09:40:00Z</time>
      </trkpt>
      <trkpt lat="44.55529" lon="5.80761">
        <ele>1318.3</ele>
        <time>2015-04-05T09:40:04Z</time>
      </trkpt>
      <trkpt lat="44.55526" lon="5.80778">
        <ele>1318.6</ele>
        <time>2015-04-05T09:40:07Z</time>
      </trkpt>
      <trkpt lat="44.55523" lon="5.80791">
        <ele>1318.4</ele>
        <time>2015-04-05T09:40:10Z</time>
      </trkpt>
      <trkpt lat="44.5552" lon="5.80806">
        <ele>1318.1</ele>
        <time>2015-04-05T09:40:13Z</time>
      </trkpt>
      <trkpt lat="44.55517" lon="5.80818">
        <ele>1317.5</ele>
        <time>2015-04-05T09:40:16Z</time>
      </trkpt>
      <trkpt lat="44.55512" lon="5.80834">
        <ele>1315.5</ele>
        <time>2015-04-05T09:40:19Z</time>
      </trkpt>
      <trkpt lat="44.55505" lon="5.80844">
        <ele>1313.4</ele>
        <time>2015-04-05T09:40:22Z</time>
      </trkpt>
      <trkpt lat="44.55496" lon="5.8085">
        <ele>1310</ele>
        <time>2015-04-05T09:40:25Z</time>
      </trkpt>
      <trkpt lat="44.55487" lon="5.80858">
        <ele>1307.7</ele>
        <time>2015-04-05T09:40:28Z</time>
      </trkpt>
      <trkpt lat="44.5548" lon="5.80871">
        <ele>1306.8</ele>
        <time>2015-04-05T09:40:31Z</time>
      </trkpt>
      <trkpt lat="44.55475" lon="5.80883">
        <ele>1307.1</ele>
        <time>2015-04-05T09:40:34Z</time>
      </trkpt>
      <trkpt lat="44.55468" lon="5.80896">
        <ele>1307.1</ele>
        <time>2015-04-05T09:40:38Z</time>
      </trkpt>
      <trkpt lat="44.5546" lon="5.80909">
        <ele>1306.3</ele>
        <time>2015-04-05T09:40:42Z</time>
      </trkpt>
      <trkpt lat="44.5545" lon="5.80917">
        <ele>1304.1</ele>
        <time>2015-04-05T09:40:46Z</time>
      </trkpt>
      <trkpt lat="44.55438" lon="5.80919">
        <ele>1300</ele>
        <time>2015-04-05T09:40:49Z</time>
      </trkpt>
      <trkpt lat="44.55427" lon="5.80922">
        <ele>1296.8</ele>
        <time>2015-04-05T09:40:51Z</time>
      </trkpt>
      <trkpt lat="44.55418" lon="5.80924">
        <ele>1293.8</ele>
        <time>2015-04-05T09:40:53Z</time>
      </trkpt>
      <trkpt lat="44.55405" lon="5.80924">
        <ele>1289.8</ele>
        <time>2015-04-05T09:40:56Z</time>
      </trkpt>
      <trkpt lat="44.55393" lon="5.80926">
        <ele>1287.1</ele>
        <time>2015-04-05T09:40:58Z</time>
      </trkpt>
      <trkpt lat="44.5538" lon="5.8093">
        <ele>1284.6</ele>
        <time>2015-04-05T09:41:00Z</time>
      </trkpt>
      <trkpt lat="44.55367" lon="5.80931">
        <ele>1281.2</ele>
        <time>2015-04-05T09:41:02Z</time>
      </trkpt>
      <trkpt lat="44.55354" lon="5.80935">
        <ele>1278.7</ele>
        <time>2015-04-05T09:41:04Z</time>
      </trkpt>
      <trkpt lat="44.55343" lon="5.80937">
        <ele>1275.9</ele>
        <time>2015-04-05T09:41:06Z</time>
      </trkpt>
      <trkpt lat="44.55333" lon="5.80936">
        <ele>1272.8</ele>
        <time>2015-04-05T09:41:09Z</time>
      </trkpt>
      <trkpt lat="44.55324" lon="5.80938">
        <ele>1271.7</ele>
        <time>2015-04-05T09:41:39Z</time>
      </trkpt>
      <trkpt lat="44.55316" lon="5.80948">
        <ele>1272.8</ele>
        <time>2015-04-05T09:45:50Z</time>
      </trkpt>
      <trkpt lat="44.55306" lon="5.80957">
        <ele>1273</ele>
        <time>2015-04-05T09:45:53Z</time>
      </trkpt>
      <trkpt lat="44.55297" lon="5.80961">
        <ele>1272</ele>
        <time>2015-04-05T09:45:55Z</time>
      </trkpt>
      <trkpt lat="44.55287" lon="5.80971">
        <ele>1271.5</ele>
        <time>2015-04-05T09:45:58Z</time>
      </trkpt>
      <trkpt lat="44.55279" lon="5.80978">
        <ele>1271.1</ele>
        <time>2015-04-05T09:46:01Z</time>
      </trkpt>
      <trkpt lat="44.55268" lon="5.80987">
        <ele>1269.9</ele>
        <time>2015-04-05T09:46:04Z</time>
      </trkpt>
      <trkpt lat="44.5526" lon="5.80996">
        <ele>1269</ele>
        <time>2015-04-05T09:46:07Z</time>
      </trkpt>
      <trkpt lat="44.55251" lon="5.81005">
        <ele>1267.5</ele>
        <time>2015-04-05T09:46:11Z</time>
      </trkpt>
      <trkpt lat="44.55242" lon="5.81011">
        <ele>1265.4</ele>
        <time>2015-04-05T09:46:14Z</time>
      </trkpt>
      <trkpt lat="44.55233" lon="5.81014">
        <ele>1263.1</ele>
        <time>2015-04-05T09:46:19Z</time>
      </trkpt>
      <trkpt lat="44.55234" lon="5.81028">
        <ele>1264</ele>
        <time>2015-04-05T09:46:26Z</time>
      </trkpt>
      <trkpt lat="44.55237" lon="5.81041">
        <ele>1265.4</ele>
        <time>2015-04-05T09:46:29Z</time>
      </trkpt>
      <trkpt lat="44.55233" lon="5.81053">
        <ele>1264.3</ele>
        <time>2015-04-05T09:46:33Z</time>
      </trkpt>
      <trkpt lat="44.55223" lon="5.81064">
        <ele>1260.5</ele>
        <time>2015-04-05T09:46:36Z</time>
      </trkpt>
      <trkpt lat="44.55215" lon="5.81075">
        <ele>1257.3</ele>
        <time>2015-04-05T09:46:38Z</time>
      </trkpt>
      <trkpt lat="44.55208" lon="5.81083">
        <ele>1254.1</ele>
        <time>2015-04-05T09:46:40Z</time>
      </trkpt>
      <trkpt lat="44.552" lon="5.81096">
        <ele>1251.8</ele>
        <time>2015-04-05T09:46:43Z</time>
      </trkpt>
      <trkpt lat="44.55198" lon="5.81109">
        <ele>1252.2</ele>
        <time>2015-04-05T09:46:46Z</time>
      </trkpt>
      <trkpt lat="44.55194" lon="5.81122">
        <ele>1251.9</ele>
        <time>2015-04-05T09:46:49Z</time>
      </trkpt>
      <trkpt lat="44.55189" lon="5.81134">
        <ele>1250.7</ele>
        <time>2015-04-05T09:46:55Z</time>
      </trkpt>
      <trkpt lat="44.55184" lon="5.81145">
        <ele>1249.7</ele>
        <time>2015-04-05T09:46:57Z</time>
      </trkpt>
      <trkpt lat="44.5518" lon="5.81156">
        <ele>1248.6</ele>
        <time>2015-04-05T09:46:59Z</time>
      </trkpt>
      <trkpt lat="44.55174" lon="5.81167">
        <ele>1246.9</ele>
        <time>2015-04-05T09:47:01Z</time>
      </trkpt>
      <trkpt lat="44.55164" lon="5.81179">
        <ele>1244.3</ele>
        <time>2015-04-05T09:47:04Z</time>
      </trkpt>
      <trkpt lat="44.55158" lon="5.81189">
        <ele>1243.3</ele>
        <time>2015-04-05T09:47:06Z</time>
      </trkpt>
      <trkpt lat="44.55151" lon="5.81199">
        <ele>1242</ele>
        <time>2015-04-05T09:47:08Z</time>
      </trkpt>
      <trkpt lat="44.55141" lon="5.81213">
        <ele>1240.2</ele>
        <time>2015-04-05T09:47:11Z</time>
      </trkpt>
      <trkpt lat="44.55135" lon="5.81227">
        <ele>1240</ele>
        <time>2015-04-05T09:47:14Z</time>
      </trkpt>
      <trkpt lat="44.55135" lon="5.81241">
        <ele>1242.6</ele>
        <time>2015-04-05T09:47:17Z</time>
      </trkpt>
      <trkpt lat="44.55133" lon="5.81257">
        <ele>1244.8</ele>
        <time>2015-04-05T09:47:20Z</time>
      </trkpt>
      <trkpt lat="44.55126" lon="5.81266">
        <ele>1243.4</ele>
        <time>2015-04-05T09:47:22Z</time>
      </trkpt>
      <trkpt lat="44.55115" lon="5.81272">
        <ele>1238.8</ele>
        <time>2015-04-05T09:47:25Z</time>
      </trkpt>
      <trkpt lat="44.55105" lon="5.81278">
        <ele>1235.2</ele>
        <time>2015-04-05T09:47:28Z</time>
      </trkpt>
      <trkpt lat="44.55096" lon="5.81288">
        <ele>1232.7</ele>
        <time>2015-04-05T09:47:31Z</time>
      </trkpt>
      <trkpt lat="44.5509" lon="5.81297">
        <ele>1231.6</ele>
        <time>2015-04-05T09:47:33Z</time>
      </trkpt>
      <trkpt lat="44.55082" lon="5.81308">
        <ele>1229.4</ele>
        <time>2015-04-05T09:47:36Z</time>
      </trkpt>
      <trkpt lat="44.55073" lon="5.81323">
        <ele>1228.4</ele>
        <time>2015-04-05T09:47:39Z</time>
      </trkpt>
      <trkpt lat="44.55066" lon="5.81339">
        <ele>1228.7</ele>
        <time>2015-04-05T09:47:42Z</time>
      </trkpt>
      <trkpt lat="44.5506" lon="5.8135">
        <ele>1229.8</ele>
        <time>2015-04-05T09:47:44Z</time>
      </trkpt>
      <trkpt lat="44.55053" lon="5.81362">
        <ele>1230.2</ele>
        <time>2015-04-05T09:47:46Z</time>
      </trkpt>
      <trkpt lat="44.55046" lon="5.81372">
        <ele>1230.1</ele>
        <time>2015-04-05T09:47:48Z</time>
      </trkpt>
      <trkpt lat="44.55037" lon="5.81388">
        <ele>1231</ele>
        <time>2015-04-05T09:47:51Z</time>
      </trkpt>
      <trkpt lat="44.55032" lon="5.81398">
        <ele>1231.8</ele>
        <time>2015-04-05T09:47:53Z</time>
      </trkpt>
      <trkpt lat="44.55027" lon="5.81408">
        <ele>1232.1</ele>
        <time>2015-04-05T09:47:55Z</time>
      </trkpt>
      <trkpt lat="44.5502" lon="5.81419">
        <ele>1232.1</ele>
        <time>2015-04-05T09:47:57Z</time>
      </trkpt>
      <trkpt lat="44.55013" lon="5.81434">
        <ele>1233.2</ele>
        <time>2015-04-05T09:48:00Z</time>
      </trkpt>
      <trkpt lat="44.55008" lon="5.81451">
        <ele>1235.9</ele>
        <time>2015-04-05T09:48:03Z</time>
      </trkpt>
      <trkpt lat="44.55006" lon="5.81468">
        <ele>1240.2</ele>
        <time>2015-04-05T09:48:06Z</time>
      </trkpt>
      <trkpt lat="44.54999" lon="5.81479">
        <ele>1240.1</ele>
        <time>2015-04-05T09:48:09Z</time>
      </trkpt>
      <trkpt lat="44.54992" lon="5.81494">
        <ele>1240.6</ele>
        <time>2015-04-05T09:48:12Z</time>
      </trkpt>
      <trkpt lat="44.54986" lon="5.81502">
        <ele>1239.6</ele>
        <time>2015-04-05T09:48:14Z</time>
      </trkpt>
      <trkpt lat="44.54973" lon="5.81511">
        <ele>1234.8</ele>
        <time>2015-04-05T09:48:17Z</time>
      </trkpt>
      <trkpt lat="44.54962" lon="5.81516">
        <ele>1230.6</ele>
        <time>2015-04-05T09:48:20Z</time>
      </trkpt>
      <trkpt lat="44.54951" lon="5.81521">
        <ele>1226.4</ele>
        <time>2015-04-05T09:48:24Z</time>
      </trkpt>
      <trkpt lat="44.5494" lon="5.81525">
        <ele>1221.9</ele>
        <time>2015-04-05T09:48:27Z</time>
      </trkpt>
      <trkpt lat="44.54931" lon="5.8153">
        <ele>1218.9</ele>
        <time>2015-04-05T09:48:29Z</time>
      </trkpt>
      <trkpt lat="44.54921" lon="5.81535">
        <ele>1215.7</ele>
        <time>2015-04-05T09:48:31Z</time>
      </trkpt>
      <trkpt lat="44.54911" lon="5.81542">
        <ele>1213.4</ele>
        <time>2015-04-05T09:48:33Z</time>
      </trkpt>
      <trkpt lat="44.54902" lon="5.81546">
        <ele>1210.8</ele>
        <time>2015-04-05T09:48:35Z</time>
      </trkpt>
      <trkpt lat="44.54891" lon="5.81552">
        <ele>1207.7</ele>
        <time>2015-04-05T09:48:38Z</time>
      </trkpt>
      <trkpt lat="44.54881" lon="5.81564">
        <ele>1207.9</ele>
        <time>2015-04-05T09:48:41Z</time>
      </trkpt>
      <trkpt lat="44.54875" lon="5.81574">
        <ele>1208.7</ele>
        <time>2015-04-05T09:48:43Z</time>
      </trkpt>
      <trkpt lat="44.54867" lon="5.81582">
        <ele>1207.7</ele>
        <time>2015-04-05T09:48:45Z</time>
      </trkpt>
      <trkpt lat="44.54858" lon="5.81588">
        <ele>1205.9</ele>
        <time>2015-04-05T09:48:47Z</time>
      </trkpt>
      <trkpt lat="44.54849" lon="5.81593">
        <ele>1204.1</ele>
        <time>2015-04-05T09:48:49Z</time>
      </trkpt>
      <trkpt lat="44.5484" lon="5.81597">
        <ele>1202.1</ele>
        <time>2015-04-05T09:48:51Z</time>
      </trkpt>
      <trkpt lat="44.54831" lon="5.81604">
        <ele>1201.3</ele>
        <time>2015-04-05T09:48:53Z</time>
      </trkpt>
      <trkpt lat="44.54822" lon="5.81608">
        <ele>1199.3</ele>
        <time>2015-04-05T09:48:55Z</time>
      </trkpt>
      <trkpt lat="44.54813" lon="5.81608">
        <ele>1196.1</ele>
        <time>2015-04-05T09:48:57Z</time>
      </trkpt>
      <trkpt lat="44.54803" lon="5.81609">
        <ele>1193</ele>
        <time>2015-04-05T09:48:59Z</time>
      </trkpt>
      <trkpt lat="44.54794" lon="5.81611">
        <ele>1190.6</ele>
        <time>2015-04-05T09:49:01Z</time>
      </trkpt>
      <trkpt lat="44.54784" lon="5.81612">
        <ele>1187.2</ele>
        <time>2015-04-05T09:49:03Z</time>
      </trkpt>
      <trkpt lat="44.54775" lon="5.81613">
        <ele>1184.5</ele>
        <time>2015-04-05T09:49:05Z</time>
      </trkpt>
      <trkpt lat="44.54766" lon="5.81617">
        <ele>1182.6</ele>
        <time>2015-04-05T09:49:07Z</time>
      </trkpt>
      <trkpt lat="44.54757" lon="5.81623">
        <ele>1182.1</ele>
        <time>2015-04-05T09:49:09Z</time>
      </trkpt>
      <trkpt lat="44.54747" lon="5.81631">
        <ele>1182.1</ele>
        <time>2015-04-05T09:49:11Z</time>
      </trkpt>
      <trkpt lat="44.54739" lon="5.81638">
        <ele>1181.9</ele>
        <time>2015-04-05T09:49:13Z</time>
      </trkpt>
      <trkpt lat="44.54728" lon="5.81645">
        <ele>1180.1</ele>
        <time>2015-04-05T09:49:16Z</time>
      </trkpt>
      <trkpt lat="44.54719" lon="5.81646">
        <ele>1176.9</ele>
        <time>2015-04-05T09:49:19Z</time>
      </trkpt>
      <trkpt lat="44.54709" lon="5.8165">
        <ele>1174.5</ele>
        <time>2015-04-05T09:49:22Z</time>
      </trkpt>
      <trkpt lat="44.547" lon="5.81653">
        <ele>1172.4</ele>
        <time>2015-04-05T09:49:26Z</time>
      </trkpt>
      <trkpt lat="44.5469" lon="5.81658">
        <ele>1170.1</ele>
        <time>2015-04-05T09:49:30Z</time>
      </trkpt>
      <trkpt lat="44.54682" lon="5.81668">
        <ele>1171.7</ele>
        <time>2015-04-05T09:49:34Z</time>
      </trkpt>
      <trkpt lat="44.54671" lon="5.81676">
        <ele>1170.5</ele>
        <time>2015-04-05T09:49:38Z</time>
      </trkpt>
      <trkpt lat="44.54663" lon="5.81685">
        <ele>1170.4</ele>
        <time>2015-04-05T09:49:42Z</time>
      </trkpt>
      <trkpt lat="44.54652" lon="5.81692">
        <ele>1168.5</ele>
        <time>2015-04-05T09:49:47Z</time>
      </trkpt>
      <trkpt lat="44.54643" lon="5.81696">
        <ele>1165.5</ele>
        <time>2015-04-05T09:49:50Z</time>
      </trkpt>
      <trkpt lat="44.54632" lon="5.817">
        <ele>1162.3</ele>
        <time>2015-04-05T09:49:53Z</time>
      </trkpt>
      <trkpt lat="44.54622" lon="5.81705">
        <ele>1160.1</ele>
        <time>2015-04-05T09:49:57Z</time>
      </trkpt>
      <trkpt lat="44.54612" lon="5.81702">
        <ele>1154.5</ele>
        <time>2015-04-05T09:50:03Z</time>
      </trkpt>
      <trkpt lat="44.54602" lon="5.81701">
        <ele>1149</ele>
        <time>2015-04-05T09:50:07Z</time>
      </trkpt>
      <trkpt lat="44.54593" lon="5.81705">
        <ele>1147.4</ele>
        <time>2015-04-05T09:50:11Z</time>
      </trkpt>
      <trkpt lat="44.54588" lon="5.81719">
        <ele>1152.9</ele>
        <time>2015-04-05T09:50:16Z</time>
      </trkpt>
      <trkpt lat="44.54582" lon="5.8173">
        <ele>1156</ele>
        <time>2015-04-05T09:50:21Z</time>
      </trkpt>
      <trkpt lat="44.54574" lon="5.81734">
        <ele>1153.8</ele>
        <time>2015-04-05T09:50:25Z</time>
      </trkpt>
      <trkpt lat="44.54564" lon="5.81742">
        <ele>1153</ele>
        <time>2015-04-05T09:50:28Z</time>
      </trkpt>
      <trkpt lat="44.54555" lon="5.81748">
        <ele>1151.1</ele>
        <time>2015-04-05T09:50:31Z</time>
      </trkpt>
      <trkpt lat="44.54545" lon="5.8175">
        <ele>1147.1</ele>
        <time>2015-04-05T09:50:34Z</time>
      </trkpt>
      <trkpt lat="44.54534" lon="5.81751">
        <ele>1141.6</ele>
        <time>2015-04-05T09:50:37Z</time>
      </trkpt>
      <trkpt lat="44.54525" lon="5.81755">
        <ele>1137.4</ele>
        <time>2015-04-05T09:50:40Z</time>
      </trkpt>
      <trkpt lat="44.54518" lon="5.81764">
        <ele>1136.1</ele>
        <time>2015-04-05T09:53:19Z</time>
      </trkpt>
      <trkpt lat="44.54506" lon="5.81766">
        <ele>1130.5</ele>
        <time>2015-04-05T09:53:25Z</time>
      </trkpt>
      <trkpt lat="44.54494" lon="5.81765">
        <ele>1124.3</ele>
        <time>2015-04-05T09:53:28Z</time>
      </trkpt>
      <trkpt lat="44.54483" lon="5.81767">
        <ele>1120.3</ele>
        <time>2015-04-05T09:53:30Z</time>
      </trkpt>
      <trkpt lat="44.54473" lon="5.81769">
        <ele>1116.3</ele>
        <time>2015-04-05T09:53:32Z</time>
      </trkpt>
      <trkpt lat="44.54464" lon="5.81771">
        <ele>1112.8</ele>
        <time>2015-04-05T09:53:34Z</time>
      </trkpt>
      <trkpt lat="44.54452" lon="5.81774">
        <ele>1108.7</ele>
        <time>2015-04-05T09:53:37Z</time>
      </trkpt>
      <trkpt lat="44.54442" lon="5.81781">
        <ele>1106.2</ele>
        <time>2015-04-05T09:53:40Z</time>
      </trkpt>
      <trkpt lat="44.54432" lon="5.81778">
        <ele>1100.9</ele>
        <time>2015-04-05T09:53:45Z</time>
      </trkpt>
      <trkpt lat="44.54422" lon="5.81782">
        <ele>1097.6</ele>
        <time>2015-04-05T09:53:50Z</time>
      </trkpt>
      <trkpt lat="44.54413" lon="5.81773">
        <ele>1091.4</ele>
        <time>2015-04-05T09:53:56Z</time>
      </trkpt>
      <trkpt lat="44.54407" lon="5.81761">
        <ele>1086</ele>
        <time>2015-04-05T09:54:00Z</time>
      </trkpt>
      <trkpt lat="44.54399" lon="5.81752">
        <ele>1081.4</ele>
        <time>2015-04-05T09:54:05Z</time>
      </trkpt>
      <trkpt lat="44.54392" lon="5.81742">
        <ele>1075.8</ele>
        <time>2015-04-05T09:54:12Z</time>
      </trkpt>
      <trkpt lat="44.54385" lon="5.81733">
        <ele>1070</ele>
        <time>2015-04-05T09:54:18Z</time>
      </trkpt>
      <trkpt lat="44.5438" lon="5.81721">
        <ele>1064.6</ele>
        <time>2015-04-05T09:54:22Z</time>
      </trkpt>
      <trkpt lat="44.5437" lon="5.81713">
        <ele>1059.9</ele>
        <time>2015-04-05T09:54:27Z</time>
      </trkpt>
      <trkpt lat="44.54359" lon="5.81711">
        <ele>1057.3</ele>
        <time>2015-04-05T09:54:30Z</time>
      </trkpt>
      <trkpt lat="44.5435" lon="5.81712">
        <ele>1055.6</ele>
        <time>2015-04-05T09:54:33Z</time>
      </trkpt>
      <trkpt lat="44.54338" lon="5.81713">
        <ele>1053.1</ele>
        <time>2015-04-05T09:54:36Z</time>
      </trkpt>
      <trkpt lat="44.54327" lon="5.81711">
        <ele>1049.6</ele>
        <time>2015-04-05T09:54:39Z</time>
      </trkpt>
      <trkpt lat="44.54317" lon="5.81712">
        <ele>1046.5</ele>
        <time>2015-04-05T09:54:42Z</time>
      </trkpt>
      <trkpt lat="44.54305" lon="5.81715">
        <ele>1042.9</ele>
        <time>2015-04-05T09:54:45Z</time>
      </trkpt>
      <trkpt lat="44.54293" lon="5.81716">
        <ele>1038.9</ele>
        <time>2015-04-05T09:54:48Z</time>
      </trkpt>
      <trkpt lat="44.54282" lon="5.81718">
        <ele>1035</ele>
        <time>2015-04-05T09:54:51Z</time>
      </trkpt>
      <trkpt lat="44.54271" lon="5.81717">
        <ele>1031.1</ele>
        <time>2015-04-05T09:54:54Z</time>
      </trkpt>
      <trkpt lat="44.54258" lon="5.81718">
        <ele>1026.7</ele>
        <time>2015-04-05T09:54:58Z</time>
      </trkpt>
      <trkpt lat="44.54249" lon="5.81718">
        <ele>1023.6</ele>
        <time>2015-04-05T09:55:00Z</time>
      </trkpt>
      <trkpt lat="44.54238" lon="5.8172">
        <ele>1021.1</ele>
        <time>2015-04-05T09:55:03Z</time>
      </trkpt>
      <trkpt lat="44.54229" lon="5.8172">
        <ele>1019.2</ele>
        <time>2015-04-05T09:55:06Z</time>
      </trkpt>
      <trkpt lat="44.5422" lon="5.81718">
        <ele>1017.7</ele>
        <time>2015-04-05T09:55:09Z</time>
      </trkpt>
      <trkpt lat="44.54207" lon="5.81715">
        <ele>1015.4</ele>
        <time>2015-04-05T09:55:12Z</time>
      </trkpt>
      <trkpt lat="44.54196" lon="5.81716">
        <ele>1013.2</ele>
        <time>2015-04-05T09:55:14Z</time>
      </trkpt>
      <trkpt lat="44.54184" lon="5.81718">
        <ele>1010.5</ele>
        <time>2015-04-05T09:55:16Z</time>
      </trkpt>
      <trkpt lat="44.54174" lon="5.8172">
        <ele>1008.2</ele>
        <time>2015-04-05T09:55:18Z</time>
      </trkpt>
      <trkpt lat="44.54163" lon="5.81724">
        <ele>1005.4</ele>
        <time>2015-04-05T09:55:21Z</time>
      </trkpt>
      <trkpt lat="44.54153" lon="5.81726">
        <ele>1004.2</ele>
        <time>2015-04-05T09:55:23Z</time>
      </trkpt>
      <trkpt lat="44.54144" lon="5.81726">
        <ele>1003.3</ele>
        <time>2015-04-05T09:55:25Z</time>
      </trkpt>
      <trkpt lat="44.54133" lon="5.81727">
        <ele>1002.1</ele>
        <time>2015-04-05T09:55:27Z</time>
      </trkpt>
      <trkpt lat="44.54121" lon="5.81729">
        <ele>1000.6</ele>
        <time>2015-04-05T09:55:29Z</time>
      </trkpt>
      <trkpt lat="44.54108" lon="5.8173">
        <ele>999.2</ele>
        <time>2015-04-05T09:55:31Z</time>
      </trkpt>
      <trkpt lat="44.54094" lon="5.8173">
        <ele>997.9</ele>
        <time>2015-04-05T09:55:33Z</time>
      </trkpt>
      <trkpt lat="44.54082" lon="5.81733">
        <ele>996.4</ele>
        <time>2015-04-05T09:55:35Z</time>
      </trkpt>
      <trkpt lat="44.54069" lon="5.81733">
        <ele>996.2</ele>
        <time>2015-04-05T09:55:37Z</time>
      </trkpt>
      <trkpt lat="44.54058" lon="5.81737">
        <ele>995.5</ele>
        <time>2015-04-05T09:55:39Z</time>
      </trkpt>
      <trkpt lat="44.54045" lon="5.8174">
        <ele>995</ele>
        <time>2015-04-05T09:55:41Z</time>
      </trkpt>
      <trkpt lat="44.54032" lon="5.81742">
        <ele>994.7</ele>
        <time>2015-04-05T09:55:43Z</time>
      </trkpt>
      <trkpt lat="44.54018" lon="5.81745">
        <ele>994.4</ele>
        <time>2015-04-05T09:55:45Z</time>
      </trkpt>
      <trkpt lat="44.54004" lon="5.81748">
        <ele>994.2</ele>
        <time>2015-04-05T09:55:47Z</time>
      </trkpt>
      <trkpt lat="44.53991" lon="5.81751">
        <ele>993.3</ele>
        <time>2015-04-05T09:55:49Z</time>
      </trkpt>
      <trkpt lat="44.53977" lon="5.8175">
        <ele>993.2</ele>
        <time>2015-04-05T09:55:51Z</time>
      </trkpt>
      <trkpt lat="44.53965" lon="5.81747">
        <ele>993</ele>
        <time>2015-04-05T09:55:53Z</time>
      </trkpt>
      <trkpt lat="44.53954" lon="5.81742">
        <ele>992.9</ele>
        <time>2015-04-05T09:55:55Z</time>
      </trkpt>
      <trkpt lat="44.53943" lon="5.81738">
        <ele>992.7</ele>
        <time>2015-04-05T09:55:58Z</time>
      </trkpt>
      <trkpt lat="44.53934" lon="5.81738">
        <ele>992.3</ele>
        <time>2015-04-05T09:56:06Z</time>
      </trkpt>
      <trkpt lat="44.53925" lon="5.81743">
        <ele>991.7</ele>
        <time>2015-04-05T09:56:38Z</time>
      </trkpt>
      <trkpt lat="44.53916" lon="5.81745">
        <ele>991.2</ele>
        <time>2015-04-05T09:59:18Z</time>
      </trkpt>
      <trkpt lat="44.53906" lon="5.81749">
        <ele>990</ele>
        <time>2015-04-05T09:59:23Z</time>
      </trkpt>
      <trkpt lat="44.53894" lon="5.81749">
        <ele>988.9</ele>
        <time>2015-04-05T09:59:26Z</time>
      </trkpt>
      <trkpt lat="44.53886" lon="5.81756">
        <ele>986.3</ele>
        <time>2015-04-05T09:59:28Z</time>
      </trkpt>
      <trkpt lat="44.53877" lon="5.81763">
        <ele>983.1</ele>
        <time>2015-04-05T09:59:30Z</time>
      </trkpt>
      <trkpt lat="44.53867" lon="5.81767">
        <ele>980.7</ele>
        <time>2015-04-05T09:59:32Z</time>
      </trkpt>
      <trkpt lat="44.53857" lon="5.81771">
        <ele>978.7</ele>
        <time>2015-04-05T09:59:34Z</time>
      </trkpt>
      <trkpt lat="44.53845" lon="5.81778">
        <ele>975.7</ele>
        <time>2015-04-05T09:59:36Z</time>
      </trkpt>
      <trkpt lat="44.53833" lon="5.81781">
        <ele>974</ele>
        <time>2015-04-05T09:59:38Z</time>
      </trkpt>
      <trkpt lat="44.53821" lon="5.81783">
        <ele>973</ele>
        <time>2015-04-05T09:59:40Z</time>
      </trkpt>
      <trkpt lat="44.53808" lon="5.81788">
        <ele>971.1</ele>
        <time>2015-04-05T09:59:42Z</time>
      </trkpt>
      <trkpt lat="44.53796" lon="5.81794">
        <ele>969</ele>
        <time>2015-04-05T09:59:44Z</time>
      </trkpt>
      <trkpt lat="44.53787" lon="5.81806">
        <ele>965.6</ele>
        <time>2015-04-05T09:59:46Z</time>
      </trkpt>
      <trkpt lat="44.53779" lon="5.81821">
        <ele>961.4</ele>
        <time>2015-04-05T09:59:48Z</time>
      </trkpt>
      <trkpt lat="44.53775" lon="5.81835">
        <ele>957.7</ele>
        <time>2015-04-05T09:59:50Z</time>
      </trkpt>
      <trkpt lat="44.53774" lon="5.8185">
        <ele>950.6</ele>
        <time>2015-04-05T09:59:52Z</time>
      </trkpt>
      <trkpt lat="44.53774" lon="5.81863">
        <ele>944.6</ele>
        <time>2015-04-05T09:59:54Z</time>
      </trkpt>
      <trkpt lat="44.53768" lon="5.8188">
        <ele>937.2</ele>
        <time>2015-04-05T09:59:57Z</time>
      </trkpt>
      <trkpt lat="44.53761" lon="5.81891">
        <ele>932.6</ele>
        <time>2015-04-05T09:59:59Z</time>
      </trkpt>
      <trkpt lat="44.53756" lon="5.81907">
        <ele>925.7</ele>
        <time>2015-04-05T10:00:03Z</time>
      </trkpt>
      <trkpt lat="44.53756" lon="5.81922">
        <ele>919.8</ele>
        <time>2015-04-05T10:00:06Z</time>
      </trkpt>
      <trkpt lat="44.53755" lon="5.81937">
        <ele>915</ele>
        <time>2015-04-05T10:00:09Z</time>
      </trkpt>
      <trkpt lat="44.53754" lon="5.8195">
        <ele>910.7</ele>
        <time>2015-04-05T10:00:13Z</time>
      </trkpt>
      <trkpt lat="44.5375" lon="5.81962">
        <ele>907.3</ele>
        <time>2015-04-05T10:00:26Z</time>
      </trkpt>
      <trkpt lat="44.5375" lon="5.81977">
        <ele>902.8</ele>
        <time>2015-04-05T10:00:48Z</time>
      </trkpt>
      <trkpt lat="44.5375" lon="5.8199">
        <ele>898.5</ele>
        <time>2015-04-05T10:00:59Z</time>
      </trkpt>
      <trkpt lat="44.53753" lon="5.82003">
        <ele>893.8</ele>
        <time>2015-04-05T10:01:02Z</time>
      </trkpt>
      <trkpt lat="44.53748" lon="5.82017">
        <ele>892.2</ele>
        <time>2015-04-05T10:01:05Z</time>
      </trkpt>
      <trkpt lat="44.53741" lon="5.82027">
        <ele>893.1</ele>
        <time>2015-04-05T10:01:08Z</time>
      </trkpt>
      <trkpt lat="44.53736" lon="5.82038">
        <ele>892.6</ele>
        <time>2015-04-05T10:01:20Z</time>
      </trkpt>
      <trkpt lat="44.53733" lon="5.82051">
        <ele>891</ele>
        <time>2015-04-05T10:02:04Z</time>
      </trkpt>
      <trkpt lat="44.53727" lon="5.82065">
        <ele>890.3</ele>
        <time>2015-04-05T10:02:10Z</time>
      </trkpt>
      <trkpt lat="44.53721" lon="5.82076">
        <ele>890.4</ele>
        <time>2015-04-05T10:02:13Z</time>
      </trkpt>
      <trkpt lat="44.53715" lon="5.82086">
        <ele>890.7</ele>
        <time>2015-04-05T10:02:16Z</time>
      </trkpt>
      <trkpt lat="44.53712" lon="5.82099">
        <ele>888.9</ele>
        <time>2015-04-05T10:02:19Z</time>
      </trkpt>
      <trkpt lat="44.53707" lon="5.82114">
        <ele>887.4</ele>
        <time>2015-04-05T10:02:23Z</time>
      </trkpt>
      <trkpt lat="44.53703" lon="5.82126">
        <ele>885.8</ele>
        <time>2015-04-05T10:02:27Z</time>
      </trkpt>
      <trkpt lat="44.53708" lon="5.82139">
        <ele>880.9</ele>
        <time>2015-04-05T10:02:32Z</time>
      </trkpt>
      <trkpt lat="44.53702" lon="5.82152">
        <ele>880</ele>
        <time>2015-04-05T10:02:39Z</time>
      </trkpt>
      <trkpt lat="44.53695" lon="5.82161">
        <ele>880.4</ele>
        <time>2015-04-05T10:02:44Z</time>
      </trkpt>
      <trkpt lat="44.53692" lon="5.82174">
        <ele>878.4</ele>
        <time>2015-04-05T10:02:49Z</time>
      </trkpt>
      <trkpt lat="44.53688" lon="5.82186">
        <ele>876.6</ele>
        <time>2015-04-05T10:02:53Z</time>
      </trkpt>
      <trkpt lat="44.53681" lon="5.82195">
        <ele>876.7</ele>
        <time>2015-04-05T10:02:57Z</time>
      </trkpt>
      <trkpt lat="44.53676" lon="5.82206">
        <ele>875.6</ele>
        <time>2015-04-05T10:03:37Z</time>
      </trkpt>
      <trkpt lat="44.53672" lon="5.82218">
        <ele>873.3</ele>
        <time>2015-04-05T10:03:43Z</time>
      </trkpt>
      <trkpt lat="44.5367" lon="5.82231">
        <ele>870.7</ele>
        <time>2015-04-05T10:03:48Z</time>
      </trkpt>
      <trkpt lat="44.53665" lon="5.82242">
        <ele>869.1</ele>
        <time>2015-04-05T10:03:51Z</time>
      </trkpt>
      <trkpt lat="44.5366" lon="5.82254">
        <ele>867.4</ele>
        <time>2015-04-05T10:03:55Z</time>
      </trkpt>
      <trkpt lat="44.53657" lon="5.82269">
        <ele>865.6</ele>
        <time>2015-04-05T10:03:59Z</time>
      </trkpt>
      <trkpt lat="44.53652" lon="5.82279">
        <ele>864.9</ele>
        <time>2015-04-05T10:04:03Z</time>
      </trkpt>
      <trkpt lat="44.53647" lon="5.82293">
        <ele>863.2</ele>
        <time>2015-04-05T10:04:08Z</time>
      </trkpt>
      <trkpt lat="44.53644" lon="5.82309">
        <ele>860.5</ele>
        <time>2015-04-05T10:04:12Z</time>
      </trkpt>
      <trkpt lat="44.5364" lon="5.82321">
        <ele>859.2</ele>
        <time>2015-04-05T10:04:18Z</time>
      </trkpt>
      <trkpt lat="44.5363" lon="5.82323">
        <ele>861.6</ele>
        <time>2015-04-05T10:04:24Z</time>
      </trkpt>
      <trkpt lat="44.53622" lon="5.82331">
        <ele>862.2</ele>
        <time>2015-04-05T10:04:29Z</time>
      </trkpt>
      <trkpt lat="44.53614" lon="5.82344">
        <ele>861.5</ele>
        <time>2015-04-05T10:04:33Z</time>
      </trkpt>
      <trkpt lat="44.53609" lon="5.82359">
        <ele>859.9</ele>
        <time>2015-04-05T10:04:36Z</time>
      </trkpt>
      <trkpt lat="44.53604" lon="5.8237">
        <ele>858.6</ele>
        <time>2015-04-05T10:04:38Z</time>
      </trkpt>
      <trkpt lat="44.53598" lon="5.82384">
        <ele>856.4</ele>
        <time>2015-04-05T10:04:41Z</time>
      </trkpt>
      <trkpt lat="44.53596" lon="5.82398">
        <ele>853.5</ele>
        <time>2015-04-05T10:04:45Z</time>
      </trkpt>
      <trkpt lat="44.53591" lon="5.82412">
        <ele>850.4</ele>
        <time>2015-04-05T10:04:48Z</time>
      </trkpt>
      <trkpt lat="44.53584" lon="5.82422">
        <ele>849.1</ele>
        <time>2015-04-05T10:04:51Z</time>
      </trkpt>
      <trkpt lat="44.53576" lon="5.82435">
        <ele>847.3</ele>
        <time>2015-04-05T10:04:54Z</time>
      </trkpt>
      <trkpt lat="44.53572" lon="5.82448">
        <ele>845.5</ele>
        <time>2015-04-05T10:04:58Z</time>
      </trkpt>
      <trkpt lat="44.53568" lon="5.8246">
        <ele>843.7</ele>
        <time>2015-04-05T10:05:01Z</time>
      </trkpt>
      <trkpt lat="44.53565" lon="5.82472">
        <ele>842</ele>
        <time>2015-04-05T10:05:05Z</time>
      </trkpt>
      <trkpt lat="44.53567" lon="5.82486">
        <ele>839.3</ele>
        <time>2015-04-05T10:05:10Z</time>
      </trkpt>
      <trkpt lat="44.53576" lon="5.82485">
        <ele>838.6</ele>
        <time>2015-04-05T10:05:18Z</time>
      </trkpt>
      <trkpt lat="44.53584" lon="5.82489">
        <ele>837.2</ele>
        <time>2015-04-05T10:06:03Z</time>
      </trkpt>
      <trkpt lat="44.53578" lon="5.825">
        <ele>835.7</ele>
        <time>2015-04-05T10:06:17Z</time>
      </trkpt>
      <trkpt lat="44.53568" lon="5.82508">
        <ele>836.4</ele>
        <time>2015-04-05T10:06:20Z</time>
      </trkpt>
      <trkpt lat="44.53559" lon="5.8251">
        <ele>837.2</ele>
        <time>2015-04-05T10:06:31Z</time>
      </trkpt>
      <trkpt lat="44.53567" lon="5.82517">
        <ele>836.2</ele>
        <time>2015-04-05T10:06:39Z</time>
      </trkpt>
      <trkpt lat="44.53575" lon="5.82529">
        <ele>835.2</ele>
        <time>2015-04-05T10:06:42Z</time>
      </trkpt>
      <trkpt lat="44.53572" lon="5.82546">
        <ele>834.9</ele>
        <time>2015-04-05T10:06:45Z</time>
      </trkpt>
      <trkpt lat="44.53568" lon="5.82558">
        <ele>834.7</ele>
        <time>2015-04-05T10:06:47Z</time>
      </trkpt>
      <trkpt lat="44.5356" lon="5.8257">
        <ele>834.3</ele>
        <time>2015-04-05T10:06:50Z</time>
      </trkpt>
      <trkpt lat="44.53557" lon="5.82585">
        <ele>833.8</ele>
        <time>2015-04-05T10:06:56Z</time>
      </trkpt>
      <trkpt lat="44.53552" lon="5.82597">
        <ele>834.1</ele>
        <time>2015-04-05T10:07:00Z</time>
      </trkpt>
      <trkpt lat="44.53541" lon="5.82596">
        <ele>833.8</ele>
        <time>2015-04-05T10:07:05Z</time>
      </trkpt>
      <trkpt lat="44.53534" lon="5.82604">
        <ele>833.7</ele>
        <time>2015-04-05T10:07:10Z</time>
      </trkpt>
      <trkpt lat="44.53525" lon="5.82615">
        <ele>833.4</ele>
        <time>2015-04-05T10:07:13Z</time>
      </trkpt>
      <trkpt lat="44.53517" lon="5.82623">
        <ele>833</ele>
        <time>2015-04-05T10:07:16Z</time>
      </trkpt>
      <trkpt lat="44.5351" lon="5.82633">
        <ele>832.5</ele>
        <time>2015-04-05T10:07:19Z</time>
      </trkpt>
      <trkpt lat="44.53503" lon="5.82641">
        <ele>831.9</ele>
        <time>2015-04-05T10:07:22Z</time>
      </trkpt>
      <trkpt lat="44.53493" lon="5.82644">
        <ele>831.3</ele>
        <time>2015-04-05T10:07:25Z</time>
      </trkpt>
      <trkpt lat="44.53482" lon="5.82642">
        <ele>830.9</ele>
        <time>2015-04-05T10:07:28Z</time>
      </trkpt>
      <trkpt lat="44.53472" lon="5.82638">
        <ele>830.6</ele>
        <time>2015-04-05T10:07:31Z</time>
      </trkpt>
      <trkpt lat="44.53463" lon="5.82632">
        <ele>830.4</ele>
        <time>2015-04-05T10:07:36Z</time>
      </trkpt>
      <trkpt lat="44.53454" lon="5.82632">
        <ele>830.1</ele>
        <time>2015-04-05T10:08:20Z</time>
      </trkpt>
      <trkpt lat="44.53447" lon="5.82621">
        <ele>830.3</ele>
        <time>2015-04-05T10:13:54Z</time>
      </trkpt>
      <trkpt lat="44.53441" lon="5.82607">
        <ele>830.6</ele>
        <time>2015-04-05T10:13:59Z</time>
      </trkpt>
      <trkpt lat="44.53436" lon="5.82594">
        <ele>831</ele>
        <time>2015-04-05T10:14:03Z</time>
      </trkpt>
      <trkpt lat="44.53431" lon="5.82579">
        <ele>831.8</ele>
        <time>2015-04-05T10:14:07Z</time>
      </trkpt>
      <trkpt lat="44.53427" lon="5.82567">
        <ele>832.8</ele>
        <time>2015-04-05T10:14:10Z</time>
      </trkpt>
      <trkpt lat="44.53422" lon="5.82554">
        <ele>833.7</ele>
        <time>2015-04-05T10:14:13Z</time>
      </trkpt>
      <trkpt lat="44.53417" lon="5.82541">
        <ele>834.6</ele>
        <time>2015-04-05T10:14:16Z</time>
      </trkpt>
      <trkpt lat="44.53411" lon="5.82528">
        <ele>835</ele>
        <time>2015-04-05T10:14:19Z</time>
      </trkpt>
      <trkpt lat="44.53405" lon="5.82513">
        <ele>835.4</ele>
        <time>2015-04-05T10:14:22Z</time>
      </trkpt>
      <trkpt lat="44.534" lon="5.82499">
        <ele>835.6</ele>
        <time>2015-04-05T10:14:25Z</time>
      </trkpt>
      <trkpt lat="44.53394" lon="5.82484">
        <ele>835.4</ele>
        <time>2015-04-05T10:14:28Z</time>
      </trkpt>
      <trkpt lat="44.53389" lon="5.8247">
        <ele>835.2</ele>
        <time>2015-04-05T10:14:31Z</time>
      </trkpt>
      <trkpt lat="44.53383" lon="5.82455">
        <ele>835.2</ele>
        <time>2015-04-05T10:14:34Z</time>
      </trkpt>
      <trkpt lat="44.53378" lon="5.82438">
        <ele>835.3</ele>
        <time>2015-04-05T10:14:37Z</time>
      </trkpt>
      <trkpt lat="44.53373" lon="5.82425">
        <ele>835.4</ele>
        <time>2015-04-05T10:14:39Z</time>
      </trkpt>
      <trkpt lat="44.53369" lon="5.82413">
        <ele>835.5</ele>
        <time>2015-04-05T10:14:41Z</time>
      </trkpt>
      <trkpt lat="44.53365" lon="5.82401">
        <ele>835.5</ele>
        <time>2015-04-05T10:14:43Z</time>
      </trkpt>
      <trkpt lat="44.53361" lon="5.82388">
        <ele>835.5</ele>
        <time>2015-04-05T10:14:45Z</time>
      </trkpt>
      <trkpt lat="44.53358" lon="5.82375">
        <ele>835.6</ele>
        <time>2015-04-05T10:14:47Z</time>
      </trkpt>
      <trkpt lat="44.53355" lon="5.82361">
        <ele>835.6</ele>
        <time>2015-04-05T10:14:49Z</time>
      </trkpt>
      <trkpt lat="44.53352" lon="5.82347">
        <ele>835.6</ele>
        <time>2015-04-05T10:14:51Z</time>
      </trkpt>
      <trkpt lat="44.5335" lon="5.82333">
        <ele>835.8</ele>
        <time>2015-04-05T10:14:53Z</time>
      </trkpt>
      <trkpt lat="44.53346" lon="5.82319">
        <ele>835.5</ele>
        <time>2015-04-05T10:14:55Z</time>
      </trkpt>
      <trkpt lat="44.53343" lon="5.82304">
        <ele>835.3</ele>
        <time>2015-04-05T10:14:57Z</time>
      </trkpt>
      <trkpt lat="44.53341" lon="5.82288">
        <ele>835</ele>
        <time>2015-04-05T10:14:59Z</time>
      </trkpt>
      <trkpt lat="44.53338" lon="5.82272">
        <ele>834.7</ele>
        <time>2015-04-05T10:15:01Z</time>
      </trkpt>
      <trkpt lat="44.53335" lon="5.82256">
        <ele>834.3</ele>
        <time>2015-04-05T10:15:03Z</time>
      </trkpt>
      <trkpt lat="44.53332" lon="5.82241">
        <ele>833.6</ele>
        <time>2015-04-05T10:15:05Z</time>
      </trkpt>
      <trkpt lat="44.5333" lon="5.82225">
        <ele>832.9</ele>
        <time>2015-04-05T10:15:07Z</time>
      </trkpt>
      <trkpt lat="44.53327" lon="5.8221">
        <ele>832.3</ele>
        <time>2015-04-05T10:15:09Z</time>
      </trkpt>
      <trkpt lat="44.53324" lon="5.82195">
        <ele>831.8</ele>
        <time>2015-04-05T10:15:11Z</time>
      </trkpt>
      <trkpt lat="44.53322" lon="5.82181">
        <ele>831.3</ele>
        <time>2015-04-05T10:15:13Z</time>
      </trkpt>
      <trkpt lat="44.5332" lon="5.82166">
        <ele>830.9</ele>
        <time>2015-04-05T10:15:15Z</time>
      </trkpt>
      <trkpt lat="44.5332" lon="5.82152">
        <ele>830.9</ele>
        <time>2015-04-05T10:15:17Z</time>
      </trkpt>
      <trkpt lat="44.5332" lon="5.82138">
        <ele>830.9</ele>
        <time>2015-04-05T10:15:19Z</time>
      </trkpt>
      <trkpt lat="44.53321" lon="5.82125">
        <ele>831</ele>
        <time>2015-04-05T10:15:21Z</time>
      </trkpt>
      <trkpt lat="44.53324" lon="5.82107">
        <ele>831.3</ele>
        <time>2015-04-05T10:15:24Z</time>
      </trkpt>
      <trkpt lat="44.53328" lon="5.8209">
        <ele>831.6</ele>
        <time>2015-04-05T10:15:27Z</time>
      </trkpt>
      <trkpt lat="44.53336" lon="5.82079">
        <ele>832.5</ele>
        <time>2015-04-05T10:15:30Z</time>
      </trkpt>
      <trkpt lat="44.53342" lon="5.82067">
        <ele>833.4</ele>
        <time>2015-04-05T10:15:33Z</time>
      </trkpt>
      <trkpt lat="44.53336" lon="5.82054">
        <ele>832.5</ele>
        <time>2015-04-05T10:15:36Z</time>
      </trkpt>
      <trkpt lat="44.53329" lon="5.82045">
        <ele>831.6</ele>
        <time>2015-04-05T10:15:38Z</time>
      </trkpt>
      <trkpt lat="44.53321" lon="5.82035">
        <ele>831</ele>
        <time>2015-04-05T10:15:40Z</time>
      </trkpt>
      <trkpt lat="44.53315" lon="5.82023">
        <ele>830.3</ele>
        <time>2015-04-05T10:15:42Z</time>
      </trkpt>
      <trkpt lat="44.53308" lon="5.8201">
        <ele>829.6</ele>
        <time>2015-04-05T10:15:44Z</time>
      </trkpt>
      <trkpt lat="44.53301" lon="5.81998">
        <ele>828.9</ele>
        <time>2015-04-05T10:15:46Z</time>
      </trkpt>
      <trkpt lat="44.53295" lon="5.81985">
        <ele>828</ele>
        <time>2015-04-05T10:15:48Z</time>
      </trkpt>
      <trkpt lat="44.53289" lon="5.81974">
        <ele>827.1</ele>
        <time>2015-04-05T10:15:50Z</time>
      </trkpt>
      <trkpt lat="44.53281" lon="5.81964">
        <ele>826.1</ele>
        <time>2015-04-05T10:15:52Z</time>
      </trkpt>
      <trkpt lat="44.53274" lon="5.81957">
        <ele>825.2</ele>
        <time>2015-04-05T10:15:54Z</time>
      </trkpt>
      <trkpt lat="44.53264" lon="5.81947">
        <ele>824</ele>
        <time>2015-04-05T10:15:57Z</time>
      </trkpt>
      <trkpt lat="44.53254" lon="5.81936">
        <ele>822.9</ele>
        <time>2015-04-05T10:16:00Z</time>
      </trkpt>
      <trkpt lat="44.53247" lon="5.81928">
        <ele>822.1</ele>
        <time>2015-04-05T10:16:02Z</time>
      </trkpt>
      <trkpt lat="44.53239" lon="5.81917">
        <ele>821.5</ele>
        <time>2015-04-05T10:16:04Z</time>
      </trkpt>
      <trkpt lat="44.53231" lon="5.81904">
        <ele>821.3</ele>
        <time>2015-04-05T10:16:06Z</time>
      </trkpt>
      <trkpt lat="44.53224" lon="5.81888">
        <ele>821.2</ele>
        <time>2015-04-05T10:16:08Z</time>
      </trkpt>
      <trkpt lat="44.53218" lon="5.81871">
        <ele>821.1</ele>
        <time>2015-04-05T10:16:10Z</time>
      </trkpt>
      <trkpt lat="44.53212" lon="5.81854">
        <ele>821</ele>
        <time>2015-04-05T10:16:12Z</time>
      </trkpt>
      <trkpt lat="44.53207" lon="5.81837">
        <ele>820.9</ele>
        <time>2015-04-05T10:16:14Z</time>
      </trkpt>
      <trkpt lat="44.53202" lon="5.81819">
        <ele>820.7</ele>
        <time>2015-04-05T10:16:16Z</time>
      </trkpt>
      <trkpt lat="44.53197" lon="5.81802">
        <ele>820.5</ele>
        <time>2015-04-05T10:16:18Z</time>
      </trkpt>
      <trkpt lat="44.53192" lon="5.81785">
        <ele>820.1</ele>
        <time>2015-04-05T10:16:20Z</time>
      </trkpt>
      <trkpt lat="44.53185" lon="5.81769">
        <ele>819.7</ele>
        <time>2015-04-05T10:16:22Z</time>
      </trkpt>
      <trkpt lat="44.5318" lon="5.81753">
        <ele>819.2</ele>
        <time>2015-04-05T10:16:24Z</time>
      </trkpt>
      <trkpt lat="44.53172" lon="5.81737">
        <ele>818.7</ele>
        <time>2015-04-05T10:16:26Z</time>
      </trkpt>
      <trkpt lat="44.53164" lon="5.81723">
        <ele>818.2</ele>
        <time>2015-04-05T10:16:28Z</time>
      </trkpt>
      <trkpt lat="44.53157" lon="5.81709">
        <ele>818.1</ele>
        <time>2015-04-05T10:16:30Z</time>
      </trkpt>
      <trkpt lat="44.53152" lon="5.81698">
        <ele>818</ele>
        <time>2015-04-05T10:16:32Z</time>
      </trkpt>
      <trkpt lat="44.53142" lon="5.81693">
        <ele>817.7</ele>
        <time>2015-04-05T10:20:59Z</time>
      </trkpt>
      <trkpt lat="44.53137" lon="5.81679">
        <ele>817.7</ele>
        <time>2015-04-05T10:21:02Z</time>
      </trkpt>
      <trkpt lat="44.53131" lon="5.81668">
        <ele>817.7</ele>
        <time>2015-04-05T10:21:04Z</time>
      </trkpt>
      <trkpt lat="44.53125" lon="5.81657">
        <ele>817.5</ele>
        <time>2015-04-05T10:21:06Z</time>
      </trkpt>
      <trkpt lat="44.53118" lon="5.81645">
        <ele>817.3</ele>
        <time>2015-04-05T10:21:08Z</time>
      </trkpt>
      <trkpt lat="44.53111" lon="5.81632">
        <ele>817</ele>
        <time>2015-04-05T10:21:10Z</time>
      </trkpt>
      <trkpt lat="44.53104" lon="5.81619">
        <ele>816.7</ele>
        <time>2015-04-05T10:21:12Z</time>
      </trkpt>
      <trkpt lat="44.53096" lon="5.81606">
        <ele>816.4</ele>
        <time>2015-04-05T10:21:14Z</time>
      </trkpt>
      <trkpt lat="44.53088" lon="5.81591">
        <ele>816.2</ele>
        <time>2015-04-05T10:21:16Z</time>
      </trkpt>
      <trkpt lat="44.5308" lon="5.81576">
        <ele>815.8</ele>
        <time>2015-04-05T10:21:18Z</time>
      </trkpt>
      <trkpt lat="44.53072" lon="5.8156">
        <ele>815.5</ele>
        <time>2015-04-05T10:21:20Z</time>
      </trkpt>
      <trkpt lat="44.53064" lon="5.81546">
        <ele>815.2</ele>
        <time>2015-04-05T10:21:22Z</time>
      </trkpt>
      <trkpt lat="44.53057" lon="5.81532">
        <ele>814.9</ele>
        <time>2015-04-05T10:21:24Z</time>
      </trkpt>
      <trkpt lat="44.5305" lon="5.81518">
        <ele>814.7</ele>
        <time>2015-04-05T10:21:26Z</time>
      </trkpt>
      <trkpt lat="44.53043" lon="5.81504">
        <ele>814.5</ele>
        <time>2015-04-05T10:21:28Z</time>
      </trkpt>
      <trkpt lat="44.53036" lon="5.8149">
        <ele>814.4</ele>
        <time>2015-04-05T10:21:30Z</time>
      </trkpt>
      <trkpt lat="44.53029" lon="5.81476">
        <ele>814.3</ele>
        <time>2015-04-05T10:21:32Z</time>
      </trkpt>
      <trkpt lat="44.53022" lon="5.81462">
        <ele>814.3</ele>
        <time>2015-04-05T10:21:34Z</time>
      </trkpt>
      <trkpt lat="44.53014" lon="5.81447">
        <ele>814.2</ele>
        <time>2015-04-05T10:21:36Z</time>
      </trkpt>
      <trkpt lat="44.53007" lon="5.81433">
        <ele>814.1</ele>
        <time>2015-04-05T10:21:38Z</time>
      </trkpt>
      <trkpt lat="44.52999" lon="5.81419">
        <ele>814</ele>
        <time>2015-04-05T10:21:40Z</time>
      </trkpt>
      <trkpt lat="44.52992" lon="5.81405">
        <ele>813.8</ele>
        <time>2015-04-05T10:21:42Z</time>
      </trkpt>
      <trkpt lat="44.52984" lon="5.81391">
        <ele>813.7</ele>
        <time>2015-04-05T10:21:44Z</time>
      </trkpt>
      <trkpt lat="44.52977" lon="5.81377">
        <ele>813.6</ele>
        <time>2015-04-05T10:21:46Z</time>
      </trkpt>
      <trkpt lat="44.52969" lon="5.81362">
        <ele>813.5</ele>
        <time>2015-04-05T10:21:48Z</time>
      </trkpt>
      <trkpt lat="44.52962" lon="5.81348">
        <ele>813.5</ele>
        <time>2015-04-05T10:21:50Z</time>
      </trkpt>
      <trkpt lat="44.52954" lon="5.81333">
        <ele>813.5</ele>
        <time>2015-04-05T10:21:52Z</time>
      </trkpt>
      <trkpt lat="44.52947" lon="5.81318">
        <ele>813.6</ele>
        <time>2015-04-05T10:21:54Z</time>
      </trkpt>
      <trkpt lat="44.52939" lon="5.81303">
        <ele>813.7</ele>
        <time>2015-04-05T10:21:56Z</time>
      </trkpt>
      <trkpt lat="44.52931" lon="5.81288">
        <ele>813.8</ele>
        <time>2015-04-05T10:21:58Z</time>
      </trkpt>
      <trkpt lat="44.52924" lon="5.81274">
        <ele>813.9</ele>
        <time>2015-04-05T10:22:00Z</time>
      </trkpt>
      <trkpt lat="44.52916" lon="5.81259">
        <ele>813.9</ele>
        <time>2015-04-05T10:22:02Z</time>
      </trkpt>
      <trkpt lat="44.52909" lon="5.81245">
        <ele>813.7</ele>
        <time>2015-04-05T10:22:04Z</time>
      </trkpt>
      <trkpt lat="44.52901" lon="5.8123">
        <ele>813.5</ele>
        <time>2015-04-05T10:22:06Z</time>
      </trkpt>
      <trkpt lat="44.52893" lon="5.81214">
        <ele>813.2</ele>
        <time>2015-04-05T10:22:08Z</time>
      </trkpt>
      <trkpt lat="44.52885" lon="5.81199">
        <ele>813.1</ele>
        <time>2015-04-05T10:22:10Z</time>
      </trkpt>
      <trkpt lat="44.52877" lon="5.81184">
        <ele>813</ele>
        <time>2015-04-05T10:22:12Z</time>
      </trkpt>
      <trkpt lat="44.52869" lon="5.81168">
        <ele>813</ele>
        <time>2015-04-05T10:22:14Z</time>
      </trkpt>
      <trkpt lat="44.5286" lon="5.81152">
        <ele>813.1</ele>
        <time>2015-04-05T10:22:16Z</time>
      </trkpt>
      <trkpt lat="44.52852" lon="5.81137">
        <ele>813.1</ele>
        <time>2015-04-05T10:22:18Z</time>
      </trkpt>
      <trkpt lat="44.52844" lon="5.81121">
        <ele>813.1</ele>
        <time>2015-04-05T10:22:20Z</time>
      </trkpt>
      <trkpt lat="44.52836" lon="5.81106">
        <ele>813</ele>
        <time>2015-04-05T10:22:22Z</time>
      </trkpt>
      <trkpt lat="44.52828" lon="5.81091">
        <ele>812.9</ele>
        <time>2015-04-05T10:22:24Z</time>
      </trkpt>
      <trkpt lat="44.5282" lon="5.81075">
        <ele>812.8</ele>
        <time>2015-04-05T10:22:26Z</time>
      </trkpt>
      <trkpt lat="44.52812" lon="5.81059">
        <ele>812.9</ele>
        <time>2015-04-05T10:22:28Z</time>
      </trkpt>
      <trkpt lat="44.52805" lon="5.81044">
        <ele>813</ele>
        <time>2015-04-05T10:22:30Z</time>
      </trkpt>
      <trkpt lat="44.52797" lon="5.81029">
        <ele>813.1</ele>
        <time>2015-04-05T10:22:32Z</time>
      </trkpt>
      <trkpt lat="44.52789" lon="5.81014">
        <ele>813.2</ele>
        <time>2015-04-05T10:22:34Z</time>
      </trkpt>
      <trkpt lat="44.52781" lon="5.80999">
        <ele>813.4</ele>
        <time>2015-04-05T10:22:36Z</time>
      </trkpt>
      <trkpt lat="44.52773" lon="5.80983">
        <ele>813.3</ele>
        <time>2015-04-05T10:22:38Z</time>
      </trkpt>
      <trkpt lat="44.52765" lon="5.80967">
        <ele>813.2</ele>
        <time>2015-04-05T10:22:40Z</time>
      </trkpt>
      <trkpt lat="44.52757" lon="5.80951">
        <ele>813.1</ele>
        <time>2015-04-05T10:22:42Z</time>
      </trkpt>
      <trkpt lat="44.52748" lon="5.80935">
        <ele>812.9</ele>
        <time>2015-04-05T10:22:44Z</time>
      </trkpt>
      <trkpt lat="44.52741" lon="5.8092">
        <ele>812.5</ele>
        <time>2015-04-05T10:22:46Z</time>
      </trkpt>
      <trkpt lat="44.52733" lon="5.80904">
        <ele>812.1</ele>
        <time>2015-04-05T10:22:48Z</time>
      </trkpt>
      <trkpt lat="44.52725" lon="5.80889">
        <ele>811.7</ele>
        <time>2015-04-05T10:22:50Z</time>
      </trkpt>
      <trkpt lat="44.52717" lon="5.80875">
        <ele>811.3</ele>
        <time>2015-04-05T10:22:52Z</time>
      </trkpt>
      <trkpt lat="44.5271" lon="5.8086">
        <ele>811</ele>
        <time>2015-04-05T10:22:54Z</time>
      </trkpt>
      <trkpt lat="44.52702" lon="5.80846">
        <ele>810.8</ele>
        <time>2015-04-05T10:22:56Z</time>
      </trkpt>
      <trkpt lat="44.52695" lon="5.80831">
        <ele>810.6</ele>
        <time>2015-04-05T10:22:58Z</time>
      </trkpt>
      <trkpt lat="44.52687" lon="5.80816">
        <ele>810.3</ele>
        <time>2015-04-05T10:23:00Z</time>
      </trkpt>
      <trkpt lat="44.52679" lon="5.808">
        <ele>809.9</ele>
        <time>2015-04-05T10:23:02Z</time>
      </trkpt>
      <trkpt lat="44.52671" lon="5.80785">
        <ele>809.5</ele>
        <time>2015-04-05T10:23:04Z</time>
      </trkpt>
      <trkpt lat="44.52662" lon="5.80769">
        <ele>809.1</ele>
        <time>2015-04-05T10:23:06Z</time>
      </trkpt>
      <trkpt lat="44.52654" lon="5.80752">
        <ele>808.9</ele>
        <time>2015-04-05T10:23:08Z</time>
      </trkpt>
      <trkpt lat="44.52646" lon="5.80735">
        <ele>808.6</ele>
        <time>2015-04-05T10:23:10Z</time>
      </trkpt>
      <trkpt lat="44.52638" lon="5.8072">
        <ele>808.4</ele>
        <time>2015-04-05T10:23:12Z</time>
      </trkpt>
      <trkpt lat="44.5263" lon="5.80704">
        <ele>808.2</ele>
        <time>2015-04-05T10:23:14Z</time>
      </trkpt>
      <trkpt lat="44.52621" lon="5.80687">
        <ele>808.1</ele>
        <time>2015-04-05T10:23:16Z</time>
      </trkpt>
      <trkpt lat="44.52613" lon="5.80671">
        <ele>808</ele>
        <time>2015-04-05T10:23:18Z</time>
      </trkpt>
      <trkpt lat="44.52604" lon="5.80654">
        <ele>807.8</ele>
        <time>2015-04-05T10:23:20Z</time>
      </trkpt>
      <trkpt lat="44.52595" lon="5.80637">
        <ele>807.4</ele>
        <time>2015-04-05T10:23:22Z</time>
      </trkpt>
      <trkpt lat="44.52587" lon="5.8062">
        <ele>806.9</ele>
        <time>2015-04-05T10:23:24Z</time>
      </trkpt>
      <trkpt lat="44.52578" lon="5.80604">
        <ele>806.4</ele>
        <time>2015-04-05T10:23:26Z</time>
      </trkpt>
      <trkpt lat="44.52569" lon="5.80587">
        <ele>805.9</ele>
        <time>2015-04-05T10:23:28Z</time>
      </trkpt>
      <trkpt lat="44.52561" lon="5.8057">
        <ele>805.7</ele>
        <time>2015-04-05T10:23:30Z</time>
      </trkpt>
      <trkpt lat="44.52552" lon="5.80554">
        <ele>805.5</ele>
        <time>2015-04-05T10:23:32Z</time>
      </trkpt>
      <trkpt lat="44.52543" lon="5.80537">
        <ele>805.3</ele>
        <time>2015-04-05T10:23:34Z</time>
      </trkpt>
      <trkpt lat="44.52535" lon="5.80521">
        <ele>805</ele>
        <time>2015-04-05T10:23:36Z</time>
      </trkpt>
      <trkpt lat="44.52526" lon="5.80505">
        <ele>804.7</ele>
        <time>2015-04-05T10:23:38Z</time>
      </trkpt>
      <trkpt lat="44.52517" lon="5.80488">
        <ele>804.6</ele>
        <time>2015-04-05T10:23:40Z</time>
      </trkpt>
      <trkpt lat="44.52508" lon="5.80473">
        <ele>804.6</ele>
        <time>2015-04-05T10:23:42Z</time>
      </trkpt>
      <trkpt lat="44.52498" lon="5.80459">
        <ele>804.4</ele>
        <time>2015-04-05T10:23:44Z</time>
      </trkpt>
      <trkpt lat="44.52487" lon="5.80445">
        <ele>804.2</ele>
        <time>2015-04-05T10:23:46Z</time>
      </trkpt>
      <trkpt lat="44.52479" lon="5.8043">
        <ele>804.1</ele>
        <time>2015-04-05T10:23:48Z</time>
      </trkpt>
      <trkpt lat="44.5247" lon="5.80416">
        <ele>804</ele>
        <time>2015-04-05T10:23:50Z</time>
      </trkpt>
      <trkpt lat="44.5246" lon="5.80405">
        <ele>803.9</ele>
        <time>2015-04-05T10:23:52Z</time>
      </trkpt>
      <trkpt lat="44.52447" lon="5.804">
        <ele>803.6</ele>
        <time>2015-04-05T10:23:54Z</time>
      </trkpt>
      <trkpt lat="44.52433" lon="5.804">
        <ele>803.2</ele>
        <time>2015-04-05T10:23:56Z</time>
      </trkpt>
      <trkpt lat="44.52417" lon="5.80405">
        <ele>802.5</ele>
        <time>2015-04-05T10:23:58Z</time>
      </trkpt>
      <trkpt lat="44.524" lon="5.80412">
        <ele>801.4</ele>
        <time>2015-04-05T10:24:00Z</time>
      </trkpt>
      <trkpt lat="44.52391" lon="5.80416">
        <ele>800.8</ele>
        <time>2015-04-05T10:24:01Z</time>
      </trkpt>
      <trkpt lat="44.52382" lon="5.8042">
        <ele>800.3</ele>
        <time>2015-04-05T10:24:02Z</time>
      </trkpt>
      <trkpt lat="44.52372" lon="5.80423">
        <ele>799.7</ele>
        <time>2015-04-05T10:24:03Z</time>
      </trkpt>
      <trkpt lat="44.52362" lon="5.80426">
        <ele>799.1</ele>
        <time>2015-04-05T10:24:04Z</time>
      </trkpt>
      <trkpt lat="44.52352" lon="5.80427">
        <ele>798.6</ele>
        <time>2015-04-05T10:24:05Z</time>
      </trkpt>
      <trkpt lat="44.52341" lon="5.80428">
        <ele>798</ele>
        <time>2015-04-05T10:24:06Z</time>
      </trkpt>
      <trkpt lat="44.52331" lon="5.80428">
        <ele>797.6</ele>
        <time>2015-04-05T10:24:07Z</time>
      </trkpt>
      <trkpt lat="44.52321" lon="5.8043">
        <ele>797.5</ele>
        <time>2015-04-05T10:24:08Z</time>
      </trkpt>
      <trkpt lat="44.52311" lon="5.80431">
        <ele>797.4</ele>
        <time>2015-04-05T10:24:09Z</time>
      </trkpt>
      <trkpt lat="44.52302" lon="5.80434">
        <ele>797.2</ele>
        <time>2015-04-05T10:24:10Z</time>
      </trkpt>
      <trkpt lat="44.52293" lon="5.80436">
        <ele>797</ele>
        <time>2015-04-05T10:24:11Z</time>
      </trkpt>
      <trkpt lat="44.52284" lon="5.80439">
        <ele>796.7</ele>
        <time>2015-04-05T10:24:12Z</time>
      </trkpt>
      <trkpt lat="44.52267" lon="5.80443">
        <ele>796.3</ele>
        <time>2015-04-05T10:24:14Z</time>
      </trkpt>
      <trkpt lat="44.52251" lon="5.80447">
        <ele>795.8</ele>
        <time>2015-04-05T10:24:16Z</time>
      </trkpt>
      <trkpt lat="44.52236" lon="5.8045">
        <ele>795.5</ele>
        <time>2015-04-05T10:24:18Z</time>
      </trkpt>
      <trkpt lat="44.52222" lon="5.80454">
        <ele>795.1</ele>
        <time>2015-04-05T10:24:20Z</time>
      </trkpt>
      <trkpt lat="44.52209" lon="5.80459">
        <ele>794.8</ele>
        <time>2015-04-05T10:24:22Z</time>
      </trkpt>
      <trkpt lat="44.52199" lon="5.80463">
        <ele>794.4</ele>
        <time>2015-04-05T10:24:24Z</time>
      </trkpt>
      <trkpt lat="44.52188" lon="5.80467">
        <ele>794.1</ele>
        <time>2015-04-05T10:24:26Z</time>
      </trkpt>
      <trkpt lat="44.52177" lon="5.80472">
        <ele>793.7</ele>
        <time>2015-04-05T10:24:28Z</time>
      </trkpt>
      <trkpt lat="44.52167" lon="5.80476">
        <ele>793.5</ele>
        <time>2015-04-05T10:24:30Z</time>
      </trkpt>
      <trkpt lat="44.52158" lon="5.8048">
        <ele>793.2</ele>
        <time>2015-04-05T10:24:32Z</time>
      </trkpt>
      <trkpt lat="44.52146" lon="5.80487">
        <ele>792.7</ele>
        <time>2015-04-05T10:24:35Z</time>
      </trkpt>
      <trkpt lat="44.52134" lon="5.80496">
        <ele>792.2</ele>
        <time>2015-04-05T10:24:38Z</time>
      </trkpt>
      <trkpt lat="44.52126" lon="5.80502">
        <ele>792</ele>
        <time>2015-04-05T10:24:40Z</time>
      </trkpt>
      <trkpt lat="44.52114" lon="5.80514">
        <ele>791.7</ele>
        <time>2015-04-05T10:24:43Z</time>
      </trkpt>
      <trkpt lat="44.52102" lon="5.80524">
        <ele>791.4</ele>
        <time>2015-04-05T10:24:46Z</time>
      </trkpt>
      <trkpt lat="44.52095" lon="5.80531">
        <ele>791.3</ele>
        <time>2015-04-05T10:24:48Z</time>
      </trkpt>
      <trkpt lat="44.52083" lon="5.8054">
        <ele>791</ele>
        <time>2015-04-05T10:24:51Z</time>
      </trkpt>
      <trkpt lat="44.52072" lon="5.80549">
        <ele>790.9</ele>
        <time>2015-04-05T10:24:54Z</time>
      </trkpt>
      <trkpt lat="44.52061" lon="5.80542">
        <ele>791.1</ele>
        <time>2015-04-05T10:24:57Z</time>
      </trkpt>
      <trkpt lat="44.52058" lon="5.80529">
        <ele>791.3</ele>
        <time>2015-04-05T10:24:59Z</time>
      </trkpt>
      <trkpt lat="44.52054" lon="5.80516">
        <ele>791.5</ele>
        <time>2015-04-05T10:25:01Z</time>
      </trkpt>
      <trkpt lat="44.5205" lon="5.80503">
        <ele>791.6</ele>
        <time>2015-04-05T10:25:03Z</time>
      </trkpt>
      <trkpt lat="44.52047" lon="5.80491">
        <ele>791.8</ele>
        <time>2015-04-05T10:25:05Z</time>
      </trkpt>
      <trkpt lat="44.52042" lon="5.80475">
        <ele>792.3</ele>
        <time>2015-04-05T10:25:08Z</time>
      </trkpt>
      <trkpt lat="44.52038" lon="5.8046">
        <ele>792.7</ele>
        <time>2015-04-05T10:25:11Z</time>
      </trkpt>
      <trkpt lat="44.52034" lon="5.80445">
        <ele>793</ele>
        <time>2015-04-05T10:25:14Z</time>
      </trkpt>
      <trkpt lat="44.5203" lon="5.80431">
        <ele>793.3</ele>
        <time>2015-04-05T10:25:17Z</time>
      </trkpt>
      <trkpt lat="44.52026" lon="5.80416">
        <ele>793.6</ele>
        <time>2015-04-05T10:25:20Z</time>
      </trkpt>
      <trkpt lat="44.52033" lon="5.8041">
        <ele>793.7</ele>
        <time>2015-04-05T10:25:34Z</time>
      </trkpt>
      <trkpt lat="44.52032" lon="5.80396">
        <ele>793.6</ele>
        <time>2015-04-05T10:25:42Z</time>
      </trkpt>
      <trkpt lat="44.5204" lon="5.80403">
        <ele>793.8</ele>
        <time>2015-04-05T10:26:23Z</time>
      </trkpt>
      <trkpt lat="44.52034" lon="5.80412">
        <ele>793.8</ele>
        <time>2015-04-05T10:33:59Z</time>
      </trkpt>
      <trkpt lat="44.52026" lon="5.80418">
        <ele>793.6</ele>
        <time>2015-04-05T10:34:27Z</time>
      </trkpt>
      <trkpt lat="44.52018" lon="5.80423">
        <ele>793.3</ele>
        <time>2015-04-05T10:36:00Z</time>
      </trkpt>
      <trkpt lat="44.52009" lon="5.80426">
        <ele>793</ele>
        <time>2015-04-05T10:39:15Z</time>
      </trkpt>
      <trkpt lat="44.52" lon="5.80426">
        <ele>792.8</ele>
        <time>2015-04-05T10:39:52Z</time>
      </trkpt>
      <trkpt lat="44.51991" lon="5.80427">
        <ele>792.6</ele>
        <time>2015-04-05T10:41:40Z</time>
      </trkpt>
      <trkpt lat="44.51998" lon="5.8042">
        <ele>792.9</ele>
        <time>2015-04-05T10:44:03Z</time>
      </trkpt>
      <trkpt lat="44.52006" lon="5.80413">
        <ele>793.1</ele>
        <time>2015-04-05T10:44:32Z</time>
      </trkpt>
      <trkpt lat="44.52014" lon="5.80407">
        <ele>793.3</ele>
        <time>2015-04-05T10:45:31Z</time>
      </trkpt>
      <trkpt lat="44.52018" lon="5.80395">
        <ele>793.3</ele>
        <time>2015-04-05T10:55:58Z</time>
      </trkpt>
      <trkpt lat="44.52016" lon="5.80408">
        <ele>793.3</ele>
        <time>2015-04-05T11:03:11Z</time>
      </trkpt>
      <trkpt lat="44.52019" lon="5.80422">
        <ele>793.3</ele>
        <time>2015-04-05T11:03:38Z</time>
      </trkpt>
      <trkpt lat="44.52023" lon="5.80436">
        <ele>793</ele>
        <time>2015-04-05T11:03:45Z</time>
      </trkpt>
      <trkpt lat="44.52027" lon="5.80449">
        <ele>792.8</ele>
        <time>2015-04-05T11:03:50Z</time>
      </trkpt>
      <trkpt lat="44.52032" lon="5.80461">
        <ele>792.5</ele>
        <time>2015-04-05T11:03:54Z</time>
      </trkpt>
      <trkpt lat="44.52036" lon="5.80473">
        <ele>792.2</ele>
        <time>2015-04-05T11:03:58Z</time>
      </trkpt>
      <trkpt lat="44.52043" lon="5.80487">
        <ele>791.9</ele>
        <time>2015-04-05T11:04:02Z</time>
      </trkpt>
      <trkpt lat="44.52045" lon="5.80501">
        <ele>791.5</ele>
        <time>2015-04-05T11:04:06Z</time>
      </trkpt>
      <trkpt lat="44.52047" lon="5.80514">
        <ele>791.5</ele>
        <time>2015-04-05T11:04:10Z</time>
      </trkpt>
      <trkpt lat="44.5205" lon="5.80529">
        <ele>791.3</ele>
        <time>2015-04-05T11:04:15Z</time>
      </trkpt>
      <trkpt lat="44.52053" lon="5.80543">
        <ele>791.2</ele>
        <time>2015-04-05T11:04:20Z</time>
      </trkpt>
      <trkpt lat="44.52064" lon="5.80543">
        <ele>791.1</ele>
        <time>2015-04-05T11:04:25Z</time>
      </trkpt>
      <trkpt lat="44.52073" lon="5.80535">
        <ele>791.2</ele>
        <time>2015-04-05T11:04:29Z</time>
      </trkpt>
      <trkpt lat="44.52082" lon="5.80526">
        <ele>791.4</ele>
        <time>2015-04-05T11:04:33Z</time>
      </trkpt>
      <trkpt lat="44.52091" lon="5.80516">
        <ele>791.6</ele>
        <time>2015-04-05T11:04:37Z</time>
      </trkpt>
      <trkpt lat="44.52099" lon="5.80507">
        <ele>791.8</ele>
        <time>2015-04-05T11:04:41Z</time>
      </trkpt>
      <trkpt lat="44.52108" lon="5.80499">
        <ele>792.1</ele>
        <time>2015-04-05T11:04:45Z</time>
      </trkpt>
      <trkpt lat="44.52118" lon="5.80489">
        <ele>792.5</ele>
        <time>2015-04-05T11:04:49Z</time>
      </trkpt>
      <trkpt lat="44.52129" lon="5.80481">
        <ele>792.9</ele>
        <time>2015-04-05T11:04:53Z</time>
      </trkpt>
      <trkpt lat="44.52139" lon="5.80476">
        <ele>793.3</ele>
        <time>2015-04-05T11:04:57Z</time>
      </trkpt>
      <trkpt lat="44.5215" lon="5.80471">
        <ele>793.6</ele>
        <time>2015-04-05T11:05:01Z</time>
      </trkpt>
      <trkpt lat="44.52159" lon="5.80467">
        <ele>793.9</ele>
        <time>2015-04-05T11:05:04Z</time>
      </trkpt>
      <trkpt lat="44.52169" lon="5.80463">
        <ele>794.3</ele>
        <time>2015-04-05T11:05:07Z</time>
      </trkpt>
      <trkpt lat="44.52179" lon="5.80458">
        <ele>794.6</ele>
        <time>2015-04-05T11:05:10Z</time>
      </trkpt>
      <trkpt lat="44.52189" lon="5.80454">
        <ele>795</ele>
        <time>2015-04-05T11:05:13Z</time>
      </trkpt>
      <trkpt lat="44.52201" lon="5.8045">
        <ele>795.3</ele>
        <time>2015-04-05T11:05:16Z</time>
      </trkpt>
      <trkpt lat="44.52212" lon="5.80447">
        <ele>795.6</ele>
        <time>2015-04-05T11:05:19Z</time>
      </trkpt>
      <trkpt lat="44.52223" lon="5.80444">
        <ele>795.8</ele>
        <time>2015-04-05T11:05:22Z</time>
      </trkpt>
      <trkpt lat="44.52235" lon="5.80442">
        <ele>796.1</ele>
        <time>2015-04-05T11:05:25Z</time>
      </trkpt>
      <trkpt lat="44.52246" lon="5.8044">
        <ele>796.3</ele>
        <time>2015-04-05T11:05:28Z</time>
      </trkpt>
      <trkpt lat="44.52259" lon="5.80438">
        <ele>796.6</ele>
        <time>2015-04-05T11:05:31Z</time>
      </trkpt>
      <trkpt lat="44.52271" lon="5.80435">
        <ele>796.9</ele>
        <time>2015-04-05T11:05:34Z</time>
      </trkpt>
      <trkpt lat="44.52284" lon="5.80433">
        <ele>797.1</ele>
        <time>2015-04-05T11:05:37Z</time>
      </trkpt>
      <trkpt lat="44.52296" lon="5.80431">
        <ele>797.3</ele>
        <time>2015-04-05T11:05:40Z</time>
      </trkpt>
      <trkpt lat="44.52308" lon="5.8043">
        <ele>797.4</ele>
        <time>2015-04-05T11:05:43Z</time>
      </trkpt>
      <trkpt lat="44.5232" lon="5.8043">
        <ele>797.5</ele>
        <time>2015-04-05T11:05:46Z</time>
      </trkpt>
      <trkpt lat="44.52333" lon="5.8043">
        <ele>797.5</ele>
        <time>2015-04-05T11:05:49Z</time>
      </trkpt>
      <trkpt lat="44.52343" lon="5.80429">
        <ele>798.1</ele>
        <time>2015-04-05T11:05:52Z</time>
      </trkpt>
      <trkpt lat="44.52353" lon="5.80427">
        <ele>798.7</ele>
        <time>2015-04-05T11:05:55Z</time>
      </trkpt>
      <trkpt lat="44.52363" lon="5.80426">
        <ele>799.2</ele>
        <time>2015-04-05T11:05:58Z</time>
      </trkpt>
      <trkpt lat="44.52373" lon="5.80423">
        <ele>799.7</ele>
        <time>2015-04-05T11:06:01Z</time>
      </trkpt>
      <trkpt lat="44.52382" lon="5.80421">
        <ele>800.3</ele>
        <time>2015-04-05T11:06:04Z</time>
      </trkpt>
      <trkpt lat="44.52391" lon="5.80418">
        <ele>800.8</ele>
        <time>2015-04-05T11:06:07Z</time>
      </trkpt>
      <trkpt lat="44.52403" lon="5.80414">
        <ele>801.4</ele>
        <time>2015-04-05T11:06:10Z</time>
      </trkpt>
      <trkpt lat="44.52413" lon="5.8041">
        <ele>802.1</ele>
        <time>2015-04-05T11:06:13Z</time>
      </trkpt>
      <trkpt lat="44.52422" lon="5.80406">
        <ele>802.6</ele>
        <time>2015-04-05T11:06:16Z</time>
      </trkpt>
      <trkpt lat="44.52433" lon="5.80404">
        <ele>803.1</ele>
        <time>2015-04-05T11:06:19Z</time>
      </trkpt>
      <trkpt lat="44.52444" lon="5.80403">
        <ele>803.5</ele>
        <time>2015-04-05T11:06:22Z</time>
      </trkpt>
      <trkpt lat="44.52454" lon="5.80399">
        <ele>803.9</ele>
        <time>2015-04-05T11:06:25Z</time>
      </trkpt>
      <trkpt lat="44.52455" lon="5.80383">
        <ele>804.4</ele>
        <time>2015-04-05T11:06:29Z</time>
      </trkpt>
      <trkpt lat="44.52449" lon="5.80368">
        <ele>804.7</ele>
        <time>2015-04-05T11:06:32Z</time>
      </trkpt>
      <trkpt lat="44.52441" lon="5.80354">
        <ele>805</ele>
        <time>2015-04-05T11:06:35Z</time>
      </trkpt>
      <trkpt lat="44.52436" lon="5.80343">
        <ele>805.2</ele>
        <time>2015-04-05T11:06:37Z</time>
      </trkpt>
      <trkpt lat="44.52431" lon="5.80332">
        <ele>805.3</ele>
        <time>2015-04-05T11:06:39Z</time>
      </trkpt>
      <trkpt lat="44.52425" lon="5.8032">
        <ele>805.2</ele>
        <time>2015-04-05T11:06:41Z</time>
      </trkpt>
      <trkpt lat="44.5242" lon="5.80309">
        <ele>805.1</ele>
        <time>2015-04-05T11:06:43Z</time>
      </trkpt>
      <trkpt lat="44.52414" lon="5.80298">
        <ele>804.9</ele>
        <time>2015-04-05T11:06:45Z</time>
      </trkpt>
      <trkpt lat="44.52406" lon="5.80285">
        <ele>804.6</ele>
        <time>2015-04-05T11:06:47Z</time>
      </trkpt>
      <trkpt lat="44.524" lon="5.80271">
        <ele>804.3</ele>
        <time>2015-04-05T11:06:49Z</time>
      </trkpt>
      <trkpt lat="44.52391" lon="5.80253">
        <ele>804.1</ele>
        <time>2015-04-05T11:06:51Z</time>
      </trkpt>
      <trkpt lat="44.52382" lon="5.80234">
        <ele>803.4</ele>
        <time>2015-04-05T11:06:53Z</time>
      </trkpt>
      <trkpt lat="44.52373" lon="5.80216">
        <ele>802.6</ele>
        <time>2015-04-05T11:06:55Z</time>
      </trkpt>
      <trkpt lat="44.52363" lon="5.80198">
        <ele>801.8</ele>
        <time>2015-04-05T11:06:57Z</time>
      </trkpt>
      <trkpt lat="44.52353" lon="5.8018">
        <ele>801</ele>
        <time>2015-04-05T11:06:59Z</time>
      </trkpt>
      <trkpt lat="44.52343" lon="5.80163">
        <ele>800.3</ele>
        <time>2015-04-05T11:07:01Z</time>
      </trkpt>
      <trkpt lat="44.52334" lon="5.80145">
        <ele>799.8</ele>
        <time>2015-04-05T11:07:03Z</time>
      </trkpt>
      <trkpt lat="44.52324" lon="5.80127">
        <ele>799.2</ele>
        <time>2015-04-05T11:07:05Z</time>
      </trkpt>
      <trkpt lat="44.52314" lon="5.80109">
        <ele>798.7</ele>
        <time>2015-04-05T11:07:07Z</time>
      </trkpt>
      <trkpt lat="44.52304" lon="5.8009">
        <ele>798.3</ele>
        <time>2015-04-05T11:07:09Z</time>
      </trkpt>
      <trkpt lat="44.52294" lon="5.80071">
        <ele>798.4</ele>
        <time>2015-04-05T11:07:11Z</time>
      </trkpt>
      <trkpt lat="44.52284" lon="5.80051">
        <ele>798.5</ele>
        <time>2015-04-05T11:07:13Z</time>
      </trkpt>
      <trkpt lat="44.52273" lon="5.80031">
        <ele>798.5</ele>
        <time>2015-04-05T11:07:15Z</time>
      </trkpt>
      <trkpt lat="44.52263" lon="5.80012">
        <ele>798.5</ele>
        <time>2015-04-05T11:07:17Z</time>
      </trkpt>
      <trkpt lat="44.52253" lon="5.79992">
        <ele>798.4</ele>
        <time>2015-04-05T11:07:19Z</time>
      </trkpt>
      <trkpt lat="44.52242" lon="5.79972">
        <ele>798.3</ele>
        <time>2015-04-05T11:07:21Z</time>
      </trkpt>
      <trkpt lat="44.52232" lon="5.79953">
        <ele>798.1</ele>
        <time>2015-04-05T11:07:23Z</time>
      </trkpt>
      <trkpt lat="44.52221" lon="5.79934">
        <ele>797.9</ele>
        <time>2015-04-05T11:07:25Z</time>
      </trkpt>
      <trkpt lat="44.52211" lon="5.79915">
        <ele>797.7</ele>
        <time>2015-04-05T11:07:27Z</time>
      </trkpt>
      <trkpt lat="44.52201" lon="5.79898">
        <ele>797.7</ele>
        <time>2015-04-05T11:07:29Z</time>
      </trkpt>
      <trkpt lat="44.52192" lon="5.7988">
        <ele>797.9</ele>
        <time>2015-04-05T11:07:31Z</time>
      </trkpt>
      <trkpt lat="44.52184" lon="5.79862">
        <ele>798</ele>
        <time>2015-04-05T11:07:33Z</time>
      </trkpt>
      <trkpt lat="44.52175" lon="5.79845">
        <ele>798.1</ele>
        <time>2015-04-05T11:07:35Z</time>
      </trkpt>
      <trkpt lat="44.52166" lon="5.79828">
        <ele>798.4</ele>
        <time>2015-04-05T11:07:37Z</time>
      </trkpt>
      <trkpt lat="44.52157" lon="5.7981">
        <ele>798.7</ele>
        <time>2015-04-05T11:07:39Z</time>
      </trkpt>
      <trkpt lat="44.52148" lon="5.79792">
        <ele>798.8</ele>
        <time>2015-04-05T11:07:41Z</time>
      </trkpt>
      <trkpt lat="44.52138" lon="5.79774">
        <ele>798.7</ele>
        <time>2015-04-05T11:07:43Z</time>
      </trkpt>
      <trkpt lat="44.52129" lon="5.79756">
        <ele>798.3</ele>
        <time>2015-04-05T11:07:45Z</time>
      </trkpt>
      <trkpt lat="44.5212" lon="5.79738">
        <ele>798.3</ele>
        <time>2015-04-05T11:07:47Z</time>
      </trkpt>
      <trkpt lat="44.5211" lon="5.79719">
        <ele>798.5</ele>
        <time>2015-04-05T11:07:49Z</time>
      </trkpt>
      <trkpt lat="44.52101" lon="5.79701">
        <ele>798.7</ele>
        <time>2015-04-05T11:07:51Z</time>
      </trkpt>
      <trkpt lat="44.52092" lon="5.79683">
        <ele>798.9</ele>
        <time>2015-04-05T11:07:53Z</time>
      </trkpt>
      <trkpt lat="44.52082" lon="5.79663">
        <ele>799.1</ele>
        <time>2015-04-05T11:07:55Z</time>
      </trkpt>
      <trkpt lat="44.52072" lon="5.79644">
        <ele>799.5</ele>
        <time>2015-04-05T11:07:57Z</time>
      </trkpt>
      <trkpt lat="44.52061" lon="5.79624">
        <ele>799.8</ele>
        <time>2015-04-05T11:07:59Z</time>
      </trkpt>
      <trkpt lat="44.52051" lon="5.79603">
        <ele>799.9</ele>
        <time>2015-04-05T11:08:01Z</time>
      </trkpt>
      <trkpt lat="44.52041" lon="5.79583">
        <ele>800</ele>
        <time>2015-04-05T11:08:03Z</time>
      </trkpt>
      <trkpt lat="44.52031" lon="5.79564">
        <ele>800.6</ele>
        <time>2015-04-05T11:08:05Z</time>
      </trkpt>
      <trkpt lat="44.5202" lon="5.79543">
        <ele>800.8</ele>
        <time>2015-04-05T11:08:07Z</time>
      </trkpt>
      <trkpt lat="44.5201" lon="5.79522">
        <ele>800.6</ele>
        <time>2015-04-05T11:08:09Z</time>
      </trkpt>
      <trkpt lat="44.52" lon="5.79502">
        <ele>799.9</ele>
        <time>2015-04-05T11:08:11Z</time>
      </trkpt>
      <trkpt lat="44.5199" lon="5.79482">
        <ele>800.6</ele>
        <time>2015-04-05T11:08:13Z</time>
      </trkpt>
      <trkpt lat="44.51981" lon="5.79463">
        <ele>801</ele>
        <time>2015-04-05T11:08:15Z</time>
      </trkpt>
      <trkpt lat="44.51971" lon="5.79444">
        <ele>801</ele>
        <time>2015-04-05T11:08:17Z</time>
      </trkpt>
      <trkpt lat="44.51962" lon="5.79426">
        <ele>800.6</ele>
        <time>2015-04-05T11:08:19Z</time>
      </trkpt>
      <trkpt lat="44.51953" lon="5.79408">
        <ele>800.1</ele>
        <time>2015-04-05T11:08:21Z</time>
      </trkpt>
      <trkpt lat="44.51944" lon="5.79391">
        <ele>799.5</ele>
        <time>2015-04-05T11:08:23Z</time>
      </trkpt>
      <trkpt lat="44.51933" lon="5.79372">
        <ele>798.8</ele>
        <time>2015-04-05T11:08:25Z</time>
      </trkpt>
      <trkpt lat="44.51924" lon="5.79352">
        <ele>798.3</ele>
        <time>2015-04-05T11:08:27Z</time>
      </trkpt>
      <trkpt lat="44.51915" lon="5.79332">
        <ele>798</ele>
        <time>2015-04-05T11:08:29Z</time>
      </trkpt>
      <trkpt lat="44.51906" lon="5.79314">
        <ele>798.8</ele>
        <time>2015-04-05T11:08:31Z</time>
      </trkpt>
      <trkpt lat="44.51897" lon="5.79297">
        <ele>799.3</ele>
        <time>2015-04-05T11:08:33Z</time>
      </trkpt>
      <trkpt lat="44.51889" lon="5.79281">
        <ele>799.5</ele>
        <time>2015-04-05T11:08:35Z</time>
      </trkpt>
      <trkpt lat="44.51882" lon="5.79266">
        <ele>799.5</ele>
        <time>2015-04-05T11:08:37Z</time>
      </trkpt>
      <trkpt lat="44.51874" lon="5.79251">
        <ele>799.2</ele>
        <time>2015-04-05T11:08:39Z</time>
      </trkpt>
      <trkpt lat="44.51866" lon="5.79236">
        <ele>799.3</ele>
        <time>2015-04-05T11:08:41Z</time>
      </trkpt>
      <trkpt lat="44.51859" lon="5.79221">
        <ele>799.2</ele>
        <time>2015-04-05T11:08:43Z</time>
      </trkpt>
      <trkpt lat="44.51852" lon="5.79207">
        <ele>799</ele>
        <time>2015-04-05T11:08:45Z</time>
      </trkpt>
      <trkpt lat="44.51845" lon="5.79193">
        <ele>798.6</ele>
        <time>2015-04-05T11:08:47Z</time>
      </trkpt>
      <trkpt lat="44.51838" lon="5.7918">
        <ele>798.1</ele>
        <time>2015-04-05T11:08:49Z</time>
      </trkpt>
      <trkpt lat="44.51831" lon="5.79166">
        <ele>798</ele>
        <time>2015-04-05T11:08:51Z</time>
      </trkpt>
      <trkpt lat="44.51824" lon="5.79153">
        <ele>799.6</ele>
        <time>2015-04-05T11:08:53Z</time>
      </trkpt>
      <trkpt lat="44.51818" lon="5.7914">
        <ele>801</ele>
        <time>2015-04-05T11:08:55Z</time>
      </trkpt>
      <trkpt lat="44.51811" lon="5.79128">
        <ele>802</ele>
        <time>2015-04-05T11:08:57Z</time>
      </trkpt>
      <trkpt lat="44.51804" lon="5.79114">
        <ele>803</ele>
        <time>2015-04-05T11:08:59Z</time>
      </trkpt>
      <trkpt lat="44.51797" lon="5.79099">
        <ele>803.6</ele>
        <time>2015-04-05T11:09:01Z</time>
      </trkpt>
      <trkpt lat="44.51789" lon="5.79083">
        <ele>803.9</ele>
        <time>2015-04-05T11:09:03Z</time>
      </trkpt>
      <trkpt lat="44.51781" lon="5.79067">
        <ele>805.5</ele>
        <time>2015-04-05T11:09:05Z</time>
      </trkpt>
      <trkpt lat="44.51773" lon="5.79051">
        <ele>807</ele>
        <time>2015-04-05T11:09:07Z</time>
      </trkpt>
      <trkpt lat="44.51765" lon="5.79034">
        <ele>808</ele>
        <time>2015-04-05T11:09:09Z</time>
      </trkpt>
      <trkpt lat="44.51756" lon="5.79018">
        <ele>808.7</ele>
        <time>2015-04-05T11:09:11Z</time>
      </trkpt>
      <trkpt lat="44.51747" lon="5.79001">
        <ele>809.2</ele>
        <time>2015-04-05T11:09:13Z</time>
      </trkpt>
      <trkpt lat="44.51738" lon="5.78982">
        <ele>808.8</ele>
        <time>2015-04-05T11:09:15Z</time>
      </trkpt>
      <trkpt lat="44.51729" lon="5.78965">
        <ele>808.1</ele>
        <time>2015-04-05T11:09:17Z</time>
      </trkpt>
      <trkpt lat="44.51721" lon="5.78948">
        <ele>807.3</ele>
        <time>2015-04-05T11:09:19Z</time>
      </trkpt>
      <trkpt lat="44.51712" lon="5.78931">
        <ele>806.3</ele>
        <time>2015-04-05T11:09:21Z</time>
      </trkpt>
      <trkpt lat="44.51704" lon="5.78915">
        <ele>805.2</ele>
        <time>2015-04-05T11:09:23Z</time>
      </trkpt>
      <trkpt lat="44.51695" lon="5.78899">
        <ele>804.2</ele>
        <time>2015-04-05T11:09:25Z</time>
      </trkpt>
      <trkpt lat="44.51686" lon="5.78884">
        <ele>803.2</ele>
        <time>2015-04-05T11:09:27Z</time>
      </trkpt>
      <trkpt lat="44.51676" lon="5.78868">
        <ele>802.3</ele>
        <time>2015-04-05T11:09:29Z</time>
      </trkpt>
      <trkpt lat="44.51667" lon="5.78851">
        <ele>801.6</ele>
        <time>2015-04-05T11:09:31Z</time>
      </trkpt>
      <trkpt lat="44.51657" lon="5.78834">
        <ele>801.9</ele>
        <time>2015-04-05T11:09:33Z</time>
      </trkpt>
      <trkpt lat="44.51646" lon="5.78816">
        <ele>801.9</ele>
        <time>2015-04-05T11:09:35Z</time>
      </trkpt>
      <trkpt lat="44.51636" lon="5.78798">
        <ele>801.6</ele>
        <time>2015-04-05T11:09:37Z</time>
      </trkpt>
      <trkpt lat="44.51624" lon="5.78778">
        <ele>800.9</ele>
        <time>2015-04-05T11:09:39Z</time>
      </trkpt>
      <trkpt lat="44.51619" lon="5.78768">
        <ele>800.3</ele>
        <time>2015-04-05T11:09:40Z</time>
      </trkpt>
      <trkpt lat="44.51613" lon="5.78757">
        <ele>799.5</ele>
        <time>2015-04-05T11:09:41Z</time>
      </trkpt>
      <trkpt lat="44.51607" lon="5.78747">
        <ele>798.7</ele>
        <time>2015-04-05T11:09:42Z</time>
      </trkpt>
      <trkpt lat="44.51601" lon="5.78736">
        <ele>798</ele>
        <time>2015-04-05T11:09:43Z</time>
      </trkpt>
      <trkpt lat="44.51595" lon="5.78725">
        <ele>797.1</ele>
        <time>2015-04-05T11:09:44Z</time>
      </trkpt>
      <trkpt lat="44.51588" lon="5.78715">
        <ele>796.1</ele>
        <time>2015-04-05T11:09:45Z</time>
      </trkpt>
      <trkpt lat="44.51582" lon="5.78704">
        <ele>795.3</ele>
        <time>2015-04-05T11:09:46Z</time>
      </trkpt>
      <trkpt lat="44.51576" lon="5.78693">
        <ele>795.1</ele>
        <time>2015-04-05T11:09:47Z</time>
      </trkpt>
      <trkpt lat="44.51571" lon="5.78683">
        <ele>794.7</ele>
        <time>2015-04-05T11:09:48Z</time>
      </trkpt>
      <trkpt lat="44.51565" lon="5.78672">
        <ele>794.1</ele>
        <time>2015-04-05T11:09:49Z</time>
      </trkpt>
      <trkpt lat="44.51559" lon="5.78662">
        <ele>793.4</ele>
        <time>2015-04-05T11:09:50Z</time>
      </trkpt>
      <trkpt lat="44.51553" lon="5.78652">
        <ele>792.5</ele>
        <time>2015-04-05T11:09:51Z</time>
      </trkpt>
      <trkpt lat="44.51547" lon="5.78642">
        <ele>791.6</ele>
        <time>2015-04-05T11:09:52Z</time>
      </trkpt>
      <trkpt lat="44.51541" lon="5.78632">
        <ele>790.5</ele>
        <time>2015-04-05T11:09:53Z</time>
      </trkpt>
      <trkpt lat="44.51535" lon="5.78621">
        <ele>789.4</ele>
        <time>2015-04-05T11:09:54Z</time>
      </trkpt>
      <trkpt lat="44.5153" lon="5.78611">
        <ele>788.2</ele>
        <time>2015-04-05T11:09:55Z</time>
      </trkpt>
      <trkpt lat="44.51524" lon="5.78601">
        <ele>786.9</ele>
        <time>2015-04-05T11:09:56Z</time>
      </trkpt>
      <trkpt lat="44.51513" lon="5.78582">
        <ele>784.2</ele>
        <time>2015-04-05T11:09:58Z</time>
      </trkpt>
      <trkpt lat="44.51502" lon="5.78564">
        <ele>782.4</ele>
        <time>2015-04-05T11:10:00Z</time>
      </trkpt>
      <trkpt lat="44.51492" lon="5.78546">
        <ele>782.6</ele>
        <time>2015-04-05T11:10:02Z</time>
      </trkpt>
      <trkpt lat="44.51481" lon="5.78528">
        <ele>783.1</ele>
        <time>2015-04-05T11:10:04Z</time>
      </trkpt>
      <trkpt lat="44.51471" lon="5.7851">
        <ele>783.1</ele>
        <time>2015-04-05T11:10:06Z</time>
      </trkpt>
      <trkpt lat="44.51462" lon="5.78494">
        <ele>782.9</ele>
        <time>2015-04-05T11:10:08Z</time>
      </trkpt>
      <trkpt lat="44.51453" lon="5.78479">
        <ele>782.8</ele>
        <time>2015-04-05T11:10:10Z</time>
      </trkpt>
      <trkpt lat="44.51444" lon="5.78462">
        <ele>782.4</ele>
        <time>2015-04-05T11:10:12Z</time>
      </trkpt>
      <trkpt lat="44.51434" lon="5.78446">
        <ele>781.7</ele>
        <time>2015-04-05T11:10:14Z</time>
      </trkpt>
      <trkpt lat="44.51425" lon="5.7843">
        <ele>780.9</ele>
        <time>2015-04-05T11:10:16Z</time>
      </trkpt>
      <trkpt lat="44.51415" lon="5.78414">
        <ele>780.1</ele>
        <time>2015-04-05T11:10:18Z</time>
      </trkpt>
      <trkpt lat="44.51406" lon="5.78397">
        <ele>780.2</ele>
        <time>2015-04-05T11:10:20Z</time>
      </trkpt>
      <trkpt lat="44.51395" lon="5.7838">
        <ele>780.2</ele>
        <time>2015-04-05T11:10:22Z</time>
      </trkpt>
      <trkpt lat="44.51384" lon="5.7836">
        <ele>780.1</ele>
        <time>2015-04-05T11:10:24Z</time>
      </trkpt>
      <trkpt lat="44.51373" lon="5.78341">
        <ele>779.9</ele>
        <time>2015-04-05T11:10:26Z</time>
      </trkpt>
      <trkpt lat="44.51361" lon="5.78322">
        <ele>779.5</ele>
        <time>2015-04-05T11:10:28Z</time>
      </trkpt>
      <trkpt lat="44.51356" lon="5.78312">
        <ele>779.3</ele>
        <time>2015-04-05T11:10:29Z</time>
      </trkpt>
      <trkpt lat="44.5135" lon="5.78302">
        <ele>779</ele>
        <time>2015-04-05T11:10:30Z</time>
      </trkpt>
      <trkpt lat="44.51344" lon="5.78292">
        <ele>778.8</ele>
        <time>2015-04-05T11:10:31Z</time>
      </trkpt>
      <trkpt lat="44.51339" lon="5.78281">
        <ele>778.6</ele>
        <time>2015-04-05T11:10:32Z</time>
      </trkpt>
      <trkpt lat="44.51328" lon="5.78262">
        <ele>778.3</ele>
        <time>2015-04-05T11:10:34Z</time>
      </trkpt>
      <trkpt lat="44.51317" lon="5.78243">
        <ele>778.5</ele>
        <time>2015-04-05T11:10:36Z</time>
      </trkpt>
      <trkpt lat="44.51307" lon="5.78225">
        <ele>778.8</ele>
        <time>2015-04-05T11:10:38Z</time>
      </trkpt>
      <trkpt lat="44.51297" lon="5.78207">
        <ele>779</ele>
        <time>2015-04-05T11:10:40Z</time>
      </trkpt>
      <trkpt lat="44.51286" lon="5.78189">
        <ele>779</ele>
        <time>2015-04-05T11:10:42Z</time>
      </trkpt>
      <trkpt lat="44.51276" lon="5.78172">
        <ele>779</ele>
        <time>2015-04-05T11:10:44Z</time>
      </trkpt>
      <trkpt lat="44.51266" lon="5.78154">
        <ele>778.7</ele>
        <time>2015-04-05T11:10:46Z</time>
      </trkpt>
      <trkpt lat="44.51258" lon="5.78139">
        <ele>778.3</ele>
        <time>2015-04-05T11:10:48Z</time>
      </trkpt>
      <trkpt lat="44.51249" lon="5.78124">
        <ele>778</ele>
        <time>2015-04-05T11:10:50Z</time>
      </trkpt>
      <trkpt lat="44.51242" lon="5.78111">
        <ele>777.9</ele>
        <time>2015-04-05T11:10:52Z</time>
      </trkpt>
      <trkpt lat="44.51235" lon="5.78098">
        <ele>777.8</ele>
        <time>2015-04-05T11:10:54Z</time>
      </trkpt>
      <trkpt lat="44.51227" lon="5.78085">
        <ele>777.6</ele>
        <time>2015-04-05T11:10:56Z</time>
      </trkpt>
      <trkpt lat="44.51219" lon="5.78071">
        <ele>777.1</ele>
        <time>2015-04-05T11:10:58Z</time>
      </trkpt>
      <trkpt lat="44.5121" lon="5.78056">
        <ele>776.6</ele>
        <time>2015-04-05T11:11:00Z</time>
      </trkpt>
      <trkpt lat="44.51201" lon="5.7804">
        <ele>776.2</ele>
        <time>2015-04-05T11:11:02Z</time>
      </trkpt>
      <trkpt lat="44.51192" lon="5.78025">
        <ele>775.8</ele>
        <time>2015-04-05T11:11:04Z</time>
      </trkpt>
      <trkpt lat="44.51183" lon="5.78011">
        <ele>775.5</ele>
        <time>2015-04-05T11:11:06Z</time>
      </trkpt>
      <trkpt lat="44.51173" lon="5.77996">
        <ele>775.3</ele>
        <time>2015-04-05T11:11:08Z</time>
      </trkpt>
      <trkpt lat="44.51164" lon="5.77982">
        <ele>775.4</ele>
        <time>2015-04-05T11:11:10Z</time>
      </trkpt>
      <trkpt lat="44.51154" lon="5.77967">
        <ele>775.6</ele>
        <time>2015-04-05T11:11:12Z</time>
      </trkpt>
      <trkpt lat="44.51145" lon="5.77952">
        <ele>775.7</ele>
        <time>2015-04-05T11:11:14Z</time>
      </trkpt>
      <trkpt lat="44.51135" lon="5.77937">
        <ele>775.9</ele>
        <time>2015-04-05T11:11:16Z</time>
      </trkpt>
      <trkpt lat="44.51126" lon="5.77923">
        <ele>775.9</ele>
        <time>2015-04-05T11:11:18Z</time>
      </trkpt>
      <trkpt lat="44.51117" lon="5.77909">
        <ele>775.8</ele>
        <time>2015-04-05T11:11:20Z</time>
      </trkpt>
      <trkpt lat="44.51108" lon="5.77894">
        <ele>775.7</ele>
        <time>2015-04-05T11:11:22Z</time>
      </trkpt>
      <trkpt lat="44.511" lon="5.77879">
        <ele>775.5</ele>
        <time>2015-04-05T11:11:24Z</time>
      </trkpt>
      <trkpt lat="44.51091" lon="5.77864">
        <ele>775.3</ele>
        <time>2015-04-05T11:11:26Z</time>
      </trkpt>
      <trkpt lat="44.51083" lon="5.77849">
        <ele>775</ele>
        <time>2015-04-05T11:11:28Z</time>
      </trkpt>
      <trkpt lat="44.51075" lon="5.77834">
        <ele>775</ele>
        <time>2015-04-05T11:11:30Z</time>
      </trkpt>
      <trkpt lat="44.51067" lon="5.77818">
        <ele>774.8</ele>
        <time>2015-04-05T11:11:32Z</time>
      </trkpt>
      <trkpt lat="44.51061" lon="5.77801">
        <ele>774.5</ele>
        <time>2015-04-05T11:11:34Z</time>
      </trkpt>
      <trkpt lat="44.51059" lon="5.77783">
        <ele>774.2</ele>
        <time>2015-04-05T11:11:36Z</time>
      </trkpt>
      <trkpt lat="44.51064" lon="5.77767">
        <ele>774</ele>
        <time>2015-04-05T11:11:38Z</time>
      </trkpt>
      <trkpt lat="44.5107" lon="5.77754">
        <ele>773.9</ele>
        <time>2015-04-05T11:11:40Z</time>
      </trkpt>
      <trkpt lat="44.51077" lon="5.77741">
        <ele>774</ele>
        <time>2015-04-05T11:11:42Z</time>
      </trkpt>
      <trkpt lat="44.51084" lon="5.77728">
        <ele>774.3</ele>
        <time>2015-04-05T11:11:44Z</time>
      </trkpt>
      <trkpt lat="44.51091" lon="5.77715">
        <ele>774.8</ele>
        <time>2015-04-05T11:11:46Z</time>
      </trkpt>
      <trkpt lat="44.51098" lon="5.77702">
        <ele>775.3</ele>
        <time>2015-04-05T11:11:48Z</time>
      </trkpt>
      <trkpt lat="44.51104" lon="5.77688">
        <ele>775.8</ele>
        <time>2015-04-05T11:11:50Z</time>
      </trkpt>
      <trkpt lat="44.51111" lon="5.77675">
        <ele>776.3</ele>
        <time>2015-04-05T11:11:52Z</time>
      </trkpt>
      <trkpt lat="44.51118" lon="5.77661">
        <ele>777</ele>
        <time>2015-04-05T11:11:54Z</time>
      </trkpt>
      <trkpt lat="44.51125" lon="5.77647">
        <ele>778</ele>
        <time>2015-04-05T11:11:56Z</time>
      </trkpt>
      <trkpt lat="44.51132" lon="5.77633">
        <ele>779</ele>
        <time>2015-04-05T11:11:58Z</time>
      </trkpt>
      <trkpt lat="44.51139" lon="5.77619">
        <ele>780</ele>
        <time>2015-04-05T11:12:00Z</time>
      </trkpt>
      <trkpt lat="44.51146" lon="5.77605">
        <ele>781</ele>
        <time>2015-04-05T11:12:02Z</time>
      </trkpt>
      <trkpt lat="44.51152" lon="5.7759">
        <ele>782</ele>
        <time>2015-04-05T11:12:04Z</time>
      </trkpt>
      <trkpt lat="44.51158" lon="5.77574">
        <ele>782.8</ele>
        <time>2015-04-05T11:12:06Z</time>
      </trkpt>
      <trkpt lat="44.51162" lon="5.77559">
        <ele>783.3</ele>
        <time>2015-04-05T11:12:08Z</time>
      </trkpt>
      <trkpt lat="44.51165" lon="5.77544">
        <ele>783.9</ele>
        <time>2015-04-05T11:12:10Z</time>
      </trkpt>
      <trkpt lat="44.51166" lon="5.77528">
        <ele>784.3</ele>
        <time>2015-04-05T11:12:12Z</time>
      </trkpt>
      <trkpt lat="44.51166" lon="5.77512">
        <ele>784.7</ele>
        <time>2015-04-05T11:12:14Z</time>
      </trkpt>
      <trkpt lat="44.51165" lon="5.77495">
        <ele>785.6</ele>
        <time>2015-04-05T11:12:16Z</time>
      </trkpt>
      <trkpt lat="44.51162" lon="5.77479">
        <ele>787.7</ele>
        <time>2015-04-05T11:12:18Z</time>
      </trkpt>
      <trkpt lat="44.51159" lon="5.77463">
        <ele>789.4</ele>
        <time>2015-04-05T11:12:20Z</time>
      </trkpt>
      <trkpt lat="44.51154" lon="5.77448">
        <ele>790.8</ele>
        <time>2015-04-05T11:12:22Z</time>
      </trkpt>
      <trkpt lat="44.51148" lon="5.77432">
        <ele>791.9</ele>
        <time>2015-04-05T11:12:24Z</time>
      </trkpt>
      <trkpt lat="44.51143" lon="5.77416">
        <ele>792.8</ele>
        <time>2015-04-05T11:12:26Z</time>
      </trkpt>
      <trkpt lat="44.51137" lon="5.77401">
        <ele>793.8</ele>
        <time>2015-04-05T11:12:28Z</time>
      </trkpt>
      <trkpt lat="44.51132" lon="5.77386">
        <ele>794.7</ele>
        <time>2015-04-05T11:12:30Z</time>
      </trkpt>
      <trkpt lat="44.51127" lon="5.77371">
        <ele>795.4</ele>
        <time>2015-04-05T11:12:32Z</time>
      </trkpt>
      <trkpt lat="44.51121" lon="5.77357">
        <ele>795.9</ele>
        <time>2015-04-05T11:12:34Z</time>
      </trkpt>
      <trkpt lat="44.51117" lon="5.77343">
        <ele>796.4</ele>
        <time>2015-04-05T11:12:36Z</time>
      </trkpt>
      <trkpt lat="44.51112" lon="5.7733">
        <ele>796.7</ele>
        <time>2015-04-05T11:12:38Z</time>
      </trkpt>
      <trkpt lat="44.51108" lon="5.77318">
        <ele>797.2</ele>
        <time>2015-04-05T11:12:40Z</time>
      </trkpt>
      <trkpt lat="44.51103" lon="5.77306">
        <ele>797.7</ele>
        <time>2015-04-05T11:12:42Z</time>
      </trkpt>
      <trkpt lat="44.51099" lon="5.77295">
        <ele>798</ele>
        <time>2015-04-05T11:12:44Z</time>
      </trkpt>
      <trkpt lat="44.51095" lon="5.77283">
        <ele>798.4</ele>
        <time>2015-04-05T11:12:46Z</time>
      </trkpt>
      <trkpt lat="44.51091" lon="5.77272">
        <ele>798.6</ele>
        <time>2015-04-05T11:12:48Z</time>
      </trkpt>
      <trkpt lat="44.51085" lon="5.77256">
        <ele>799</ele>
        <time>2015-04-05T11:12:51Z</time>
      </trkpt>
      <trkpt lat="44.51079" lon="5.7724">
        <ele>800.1</ele>
        <time>2015-04-05T11:12:54Z</time>
      </trkpt>
      <trkpt lat="44.51074" lon="5.77225">
        <ele>801.5</ele>
        <time>2015-04-05T11:12:57Z</time>
      </trkpt>
      <trkpt lat="44.51069" lon="5.7721">
        <ele>802.8</ele>
        <time>2015-04-05T11:13:00Z</time>
      </trkpt>
      <trkpt lat="44.51063" lon="5.77195">
        <ele>803.8</ele>
        <time>2015-04-05T11:13:03Z</time>
      </trkpt>
      <trkpt lat="44.51058" lon="5.77181">
        <ele>804.7</ele>
        <time>2015-04-05T11:13:06Z</time>
      </trkpt>
      <trkpt lat="44.51053" lon="5.77167">
        <ele>805.4</ele>
        <time>2015-04-05T11:13:09Z</time>
      </trkpt>
      <trkpt lat="44.51048" lon="5.77153">
        <ele>807</ele>
        <time>2015-04-05T11:13:12Z</time>
      </trkpt>
      <trkpt lat="44.51042" lon="5.77138">
        <ele>808.4</ele>
        <time>2015-04-05T11:13:15Z</time>
      </trkpt>
      <trkpt lat="44.51037" lon="5.77124">
        <ele>809.7</ele>
        <time>2015-04-05T11:13:18Z</time>
      </trkpt>
      <trkpt lat="44.51032" lon="5.7711">
        <ele>810.8</ele>
        <time>2015-04-05T11:13:21Z</time>
      </trkpt>
      <trkpt lat="44.51028" lon="5.77095">
        <ele>811.9</ele>
        <time>2015-04-05T11:13:24Z</time>
      </trkpt>
      <trkpt lat="44.51023" lon="5.77082">
        <ele>812.6</ele>
        <time>2015-04-05T11:13:27Z</time>
      </trkpt>
      <trkpt lat="44.51019" lon="5.7707">
        <ele>813.2</ele>
        <time>2015-04-05T11:13:30Z</time>
      </trkpt>
      <trkpt lat="44.51016" lon="5.77057">
        <ele>814.2</ele>
        <time>2015-04-05T11:13:33Z</time>
      </trkpt>
      <trkpt lat="44.51012" lon="5.77044">
        <ele>815</ele>
        <time>2015-04-05T11:13:36Z</time>
      </trkpt>
      <trkpt lat="44.51009" lon="5.77031">
        <ele>816.1</ele>
        <time>2015-04-05T11:13:39Z</time>
      </trkpt>
      <trkpt lat="44.51006" lon="5.77018">
        <ele>817</ele>
        <time>2015-04-05T11:13:42Z</time>
      </trkpt>
      <trkpt lat="44.51004" lon="5.77005">
        <ele>818</ele>
        <time>2015-04-05T11:13:45Z</time>
      </trkpt>
      <trkpt lat="44.51001" lon="5.76993">
        <ele>818.5</ele>
        <time>2015-04-05T11:13:48Z</time>
      </trkpt>
      <trkpt lat="44.50998" lon="5.76981">
        <ele>819.2</ele>
        <time>2015-04-05T11:13:51Z</time>
      </trkpt>
      <trkpt lat="44.50994" lon="5.76969">
        <ele>819.7</ele>
        <time>2015-04-05T11:13:54Z</time>
      </trkpt>
      <trkpt lat="44.50989" lon="5.76957">
        <ele>820</ele>
        <time>2015-04-05T11:13:57Z</time>
      </trkpt>
      <trkpt lat="44.50984" lon="5.76946">
        <ele>820.2</ele>
        <time>2015-04-05T11:14:00Z</time>
      </trkpt>
      <trkpt lat="44.50978" lon="5.76931">
        <ele>820.4</ele>
        <time>2015-04-05T11:14:04Z</time>
      </trkpt>
      <trkpt lat="44.50973" lon="5.7692">
        <ele>820.3</ele>
        <time>2015-04-05T11:14:07Z</time>
      </trkpt>
      <trkpt lat="44.50968" lon="5.76908">
        <ele>819.6</ele>
        <time>2015-04-05T11:14:10Z</time>
      </trkpt>
      <trkpt lat="44.50964" lon="5.76896">
        <ele>819</ele>
        <time>2015-04-05T11:14:13Z</time>
      </trkpt>
      <trkpt lat="44.5096" lon="5.76884">
        <ele>818.6</ele>
        <time>2015-04-05T11:14:16Z</time>
      </trkpt>
      <trkpt lat="44.50958" lon="5.76872">
        <ele>818.7</ele>
        <time>2015-04-05T11:14:19Z</time>
      </trkpt>
      <trkpt lat="44.50956" lon="5.76858">
        <ele>818.9</ele>
        <time>2015-04-05T11:14:22Z</time>
      </trkpt>
      <trkpt lat="44.50956" lon="5.76845">
        <ele>819.5</ele>
        <time>2015-04-05T11:14:25Z</time>
      </trkpt>
      <trkpt lat="44.50956" lon="5.76832">
        <ele>820.2</ele>
        <time>2015-04-05T11:14:28Z</time>
      </trkpt>
      <trkpt lat="44.50956" lon="5.7682">
        <ele>820.6</ele>
        <time>2015-04-05T11:14:31Z</time>
      </trkpt>
      <trkpt lat="44.50957" lon="5.76806">
        <ele>821</ele>
        <time>2015-04-05T11:14:34Z</time>
      </trkpt>
      <trkpt lat="44.50958" lon="5.76794">
        <ele>821.5</ele>
        <time>2015-04-05T11:14:37Z</time>
      </trkpt>
      <trkpt lat="44.50958" lon="5.7678">
        <ele>821.6</ele>
        <time>2015-04-05T11:14:40Z</time>
      </trkpt>
      <trkpt lat="44.50958" lon="5.76767">
        <ele>821.8</ele>
        <time>2015-04-05T11:14:43Z</time>
      </trkpt>
      <trkpt lat="44.50957" lon="5.76754">
        <ele>821.7</ele>
        <time>2015-04-05T11:14:46Z</time>
      </trkpt>
      <trkpt lat="44.50955" lon="5.7674">
        <ele>821.8</ele>
        <time>2015-04-05T11:14:49Z</time>
      </trkpt>
      <trkpt lat="44.50952" lon="5.76727">
        <ele>821.8</ele>
        <time>2015-04-05T11:14:52Z</time>
      </trkpt>
      <trkpt lat="44.50949" lon="5.76713">
        <ele>821.8</ele>
        <time>2015-04-05T11:14:55Z</time>
      </trkpt>
      <trkpt lat="44.50946" lon="5.76699">
        <ele>821.8</ele>
        <time>2015-04-05T11:14:58Z</time>
      </trkpt>
      <trkpt lat="44.50943" lon="5.76685">
        <ele>821.8</ele>
        <time>2015-04-05T11:15:01Z</time>
      </trkpt>
      <trkpt lat="44.5094" lon="5.76672">
        <ele>821.9</ele>
        <time>2015-04-05T11:15:04Z</time>
      </trkpt>
      <trkpt lat="44.50936" lon="5.76658">
        <ele>821.9</ele>
        <time>2015-04-05T11:15:07Z</time>
      </trkpt>
      <trkpt lat="44.50933" lon="5.76644">
        <ele>821.8</ele>
        <time>2015-04-05T11:15:10Z</time>
      </trkpt>
      <trkpt lat="44.5093" lon="5.7663">
        <ele>821.7</ele>
        <time>2015-04-05T11:15:13Z</time>
      </trkpt>
      <trkpt lat="44.50927" lon="5.76618">
        <ele>821.6</ele>
        <time>2015-04-05T11:15:16Z</time>
      </trkpt>
      <trkpt lat="44.50924" lon="5.76605">
        <ele>821.6</ele>
        <time>2015-04-05T11:15:19Z</time>
      </trkpt>
      <trkpt lat="44.50921" lon="5.76592">
        <ele>821.6</ele>
        <time>2015-04-05T11:15:22Z</time>
      </trkpt>
      <trkpt lat="44.50918" lon="5.76578">
        <ele>821.8</ele>
        <time>2015-04-05T11:15:25Z</time>
      </trkpt>
      <trkpt lat="44.50914" lon="5.76564">
        <ele>822.4</ele>
        <time>2015-04-05T11:15:28Z</time>
      </trkpt>
      <trkpt lat="44.50911" lon="5.7655">
        <ele>823.1</ele>
        <time>2015-04-05T11:15:31Z</time>
      </trkpt>
      <trkpt lat="44.50907" lon="5.76537">
        <ele>823.8</ele>
        <time>2015-04-05T11:15:34Z</time>
      </trkpt>
      <trkpt lat="44.50903" lon="5.76524">
        <ele>824.5</ele>
        <time>2015-04-05T11:15:37Z</time>
      </trkpt>
      <trkpt lat="44.50898" lon="5.76512">
        <ele>825.1</ele>
        <time>2015-04-05T11:15:40Z</time>
      </trkpt>
      <trkpt lat="44.50892" lon="5.76501">
        <ele>825.6</ele>
        <time>2015-04-05T11:15:43Z</time>
      </trkpt>
      <trkpt lat="44.50885" lon="5.76491">
        <ele>826.3</ele>
        <time>2015-04-05T11:15:46Z</time>
      </trkpt>
      <trkpt lat="44.50878" lon="5.76482">
        <ele>826.9</ele>
        <time>2015-04-05T11:15:49Z</time>
      </trkpt>
      <trkpt lat="44.5087" lon="5.76475">
        <ele>827.2</ele>
        <time>2015-04-05T11:15:52Z</time>
      </trkpt>
      <trkpt lat="44.50861" lon="5.76469">
        <ele>827.5</ele>
        <time>2015-04-05T11:15:55Z</time>
      </trkpt>
      <trkpt lat="44.50852" lon="5.76464">
        <ele>827.6</ele>
        <time>2015-04-05T11:15:58Z</time>
      </trkpt>
      <trkpt lat="44.50842" lon="5.76459">
        <ele>827.7</ele>
        <time>2015-04-05T11:16:01Z</time>
      </trkpt>
      <trkpt lat="44.50832" lon="5.76455">
        <ele>827.6</ele>
        <time>2015-04-05T11:16:04Z</time>
      </trkpt>
      <trkpt lat="44.50822" lon="5.7645">
        <ele>827.3</ele>
        <time>2015-04-05T11:16:07Z</time>
      </trkpt>
      <trkpt lat="44.50812" lon="5.76445">
        <ele>827.2</ele>
        <time>2015-04-05T11:16:10Z</time>
      </trkpt>
      <trkpt lat="44.50802" lon="5.76439">
        <ele>827.5</ele>
        <time>2015-04-05T11:16:13Z</time>
      </trkpt>
      <trkpt lat="44.50793" lon="5.7643">
        <ele>828.2</ele>
        <time>2015-04-05T11:16:16Z</time>
      </trkpt>
      <trkpt lat="44.50784" lon="5.7642">
        <ele>829.4</ele>
        <time>2015-04-05T11:16:19Z</time>
      </trkpt>
      <trkpt lat="44.50776" lon="5.76406">
        <ele>828.3</ele>
        <time>2015-04-05T11:16:22Z</time>
      </trkpt>
      <trkpt lat="44.5077" lon="5.76392">
        <ele>826.8</ele>
        <time>2015-04-05T11:16:25Z</time>
      </trkpt>
      <trkpt lat="44.50765" lon="5.76376">
        <ele>825.3</ele>
        <time>2015-04-05T11:16:28Z</time>
      </trkpt>
      <trkpt lat="44.5076" lon="5.76359">
        <ele>823.9</ele>
        <time>2015-04-05T11:16:31Z</time>
      </trkpt>
      <trkpt lat="44.50754" lon="5.76342">
        <ele>822.6</ele>
        <time>2015-04-05T11:16:34Z</time>
      </trkpt>
      <trkpt lat="44.50749" lon="5.76331">
        <ele>821.3</ele>
        <time>2015-04-05T11:16:36Z</time>
      </trkpt>
      <trkpt lat="44.50741" lon="5.7632">
        <ele>819.3</ele>
        <time>2015-04-05T11:16:38Z</time>
      </trkpt>
      <trkpt lat="44.50732" lon="5.7631">
        <ele>817.7</ele>
        <time>2015-04-05T11:16:40Z</time>
      </trkpt>
      <trkpt lat="44.50721" lon="5.763">
        <ele>816.2</ele>
        <time>2015-04-05T11:16:42Z</time>
      </trkpt>
      <trkpt lat="44.50709" lon="5.76288">
        <ele>815</ele>
        <time>2015-04-05T11:16:44Z</time>
      </trkpt>
      <trkpt lat="44.50697" lon="5.76276">
        <ele>814.1</ele>
        <time>2015-04-05T11:16:46Z</time>
      </trkpt>
      <trkpt lat="44.50684" lon="5.76263">
        <ele>813.6</ele>
        <time>2015-04-05T11:16:48Z</time>
      </trkpt>
      <trkpt lat="44.5067" lon="5.76249">
        <ele>813.3</ele>
        <time>2015-04-05T11:16:50Z</time>
      </trkpt>
      <trkpt lat="44.50656" lon="5.76235">
        <ele>812.1</ele>
        <time>2015-04-05T11:16:52Z</time>
      </trkpt>
      <trkpt lat="44.50641" lon="5.7622">
        <ele>811.2</ele>
        <time>2015-04-05T11:16:54Z</time>
      </trkpt>
      <trkpt lat="44.50633" lon="5.76212">
        <ele>810.7</ele>
        <time>2015-04-05T11:16:55Z</time>
      </trkpt>
      <trkpt lat="44.50626" lon="5.76205">
        <ele>810.3</ele>
        <time>2015-04-05T11:16:56Z</time>
      </trkpt>
      <trkpt lat="44.50618" lon="5.76197">
        <ele>810</ele>
        <time>2015-04-05T11:16:57Z</time>
      </trkpt>
      <trkpt lat="44.5061" lon="5.76189">
        <ele>809.7</ele>
        <time>2015-04-05T11:16:58Z</time>
      </trkpt>
      <trkpt lat="44.50602" lon="5.76181">
        <ele>809.5</ele>
        <time>2015-04-05T11:16:59Z</time>
      </trkpt>
      <trkpt lat="44.50594" lon="5.76174">
        <ele>809.3</ele>
        <time>2015-04-05T11:17:00Z</time>
      </trkpt>
      <trkpt lat="44.50586" lon="5.76166">
        <ele>809.3</ele>
        <time>2015-04-05T11:17:01Z</time>
      </trkpt>
      <trkpt lat="44.50578" lon="5.76158">
        <ele>809.3</ele>
        <time>2015-04-05T11:17:02Z</time>
      </trkpt>
      <trkpt lat="44.5057" lon="5.7615">
        <ele>809.5</ele>
        <time>2015-04-05T11:17:03Z</time>
      </trkpt>
      <trkpt lat="44.50562" lon="5.76142">
        <ele>809.6</ele>
        <time>2015-04-05T11:17:04Z</time>
      </trkpt>
      <trkpt lat="44.50554" lon="5.76133">
        <ele>809.7</ele>
        <time>2015-04-05T11:17:05Z</time>
      </trkpt>
      <trkpt lat="44.50547" lon="5.76123">
        <ele>809.4</ele>
        <time>2015-04-05T11:17:06Z</time>
      </trkpt>
      <trkpt lat="44.5054" lon="5.76111">
        <ele>809</ele>
        <time>2015-04-05T11:17:07Z</time>
      </trkpt>
      <trkpt lat="44.50534" lon="5.76099">
        <ele>808.5</ele>
        <time>2015-04-05T11:17:08Z</time>
      </trkpt>
      <trkpt lat="44.5053" lon="5.76086">
        <ele>807.6</ele>
        <time>2015-04-05T11:17:09Z</time>
      </trkpt>
      <trkpt lat="44.50527" lon="5.76073">
        <ele>807.1</ele>
        <time>2015-04-05T11:17:10Z</time>
      </trkpt>
      <trkpt lat="44.50525" lon="5.76059">
        <ele>806.6</ele>
        <time>2015-04-05T11:17:11Z</time>
      </trkpt>
      <trkpt lat="44.50524" lon="5.76045">
        <ele>805.9</ele>
        <time>2015-04-05T11:17:12Z</time>
      </trkpt>
      <trkpt lat="44.50525" lon="5.76031">
        <ele>805.1</ele>
        <time>2015-04-05T11:17:13Z</time>
      </trkpt>
      <trkpt lat="44.50526" lon="5.76018">
        <ele>804</ele>
        <time>2015-04-05T11:17:14Z</time>
      </trkpt>
      <trkpt lat="44.50528" lon="5.76004">
        <ele>802.8</ele>
        <time>2015-04-05T11:17:15Z</time>
      </trkpt>
      <trkpt lat="44.50532" lon="5.75991">
        <ele>802.6</ele>
        <time>2015-04-05T11:17:16Z</time>
      </trkpt>
      <trkpt lat="44.50537" lon="5.75979">
        <ele>802.6</ele>
        <time>2015-04-05T11:17:17Z</time>
      </trkpt>
      <trkpt lat="44.50543" lon="5.75967">
        <ele>802.3</ele>
        <time>2015-04-05T11:17:18Z</time>
      </trkpt>
      <trkpt lat="44.5055" lon="5.75956">
        <ele>801.7</ele>
        <time>2015-04-05T11:17:19Z</time>
      </trkpt>
      <trkpt lat="44.50557" lon="5.75946">
        <ele>800.9</ele>
        <time>2015-04-05T11:17:20Z</time>
      </trkpt>
      <trkpt lat="44.50565" lon="5.75936">
        <ele>799.8</ele>
        <time>2015-04-05T11:17:21Z</time>
      </trkpt>
      <trkpt lat="44.50573" lon="5.75926">
        <ele>798.7</ele>
        <time>2015-04-05T11:17:22Z</time>
      </trkpt>
      <trkpt lat="44.50581" lon="5.75917">
        <ele>797.6</ele>
        <time>2015-04-05T11:17:23Z</time>
      </trkpt>
      <trkpt lat="44.50589" lon="5.75907">
        <ele>797.7</ele>
        <time>2015-04-05T11:17:24Z</time>
      </trkpt>
      <trkpt lat="44.50597" lon="5.75897">
        <ele>798.1</ele>
        <time>2015-04-05T11:17:25Z</time>
      </trkpt>
      <trkpt lat="44.50605" lon="5.75887">
        <ele>798.4</ele>
        <time>2015-04-05T11:17:26Z</time>
      </trkpt>
      <trkpt lat="44.50614" lon="5.75878">
        <ele>798.5</ele>
        <time>2015-04-05T11:17:27Z</time>
      </trkpt>
      <trkpt lat="44.50622" lon="5.75869">
        <ele>798.6</ele>
        <time>2015-04-05T11:17:28Z</time>
      </trkpt>
      <trkpt lat="44.5063" lon="5.75861">
        <ele>798.6</ele>
        <time>2015-04-05T11:17:29Z</time>
      </trkpt>
      <trkpt lat="44.50638" lon="5.75853">
        <ele>798.5</ele>
        <time>2015-04-05T11:17:30Z</time>
      </trkpt>
      <trkpt lat="44.50646" lon="5.75846">
        <ele>798.3</ele>
        <time>2015-04-05T11:17:31Z</time>
      </trkpt>
      <trkpt lat="44.50661" lon="5.75835">
        <ele>797.5</ele>
        <time>2015-04-05T11:17:33Z</time>
      </trkpt>
      <trkpt lat="44.50669" lon="5.7583">
        <ele>797.1</ele>
        <time>2015-04-05T11:17:34Z</time>
      </trkpt>
      <trkpt lat="44.50685" lon="5.7582">
        <ele>796.2</ele>
        <time>2015-04-05T11:17:36Z</time>
      </trkpt>
      <trkpt lat="44.507" lon="5.75813">
        <ele>795</ele>
        <time>2015-04-05T11:17:38Z</time>
      </trkpt>
      <trkpt lat="44.50717" lon="5.75805">
        <ele>793.8</ele>
        <time>2015-04-05T11:17:40Z</time>
      </trkpt>
      <trkpt lat="44.50725" lon="5.75802">
        <ele>793</ele>
        <time>2015-04-05T11:17:41Z</time>
      </trkpt>
      <trkpt lat="44.50743" lon="5.75796">
        <ele>791.5</ele>
        <time>2015-04-05T11:17:43Z</time>
      </trkpt>
      <trkpt lat="44.5076" lon="5.75792">
        <ele>790.8</ele>
        <time>2015-04-05T11:17:45Z</time>
      </trkpt>
      <trkpt lat="44.50778" lon="5.75789">
        <ele>790.8</ele>
        <time>2015-04-05T11:17:47Z</time>
      </trkpt>
      <trkpt lat="44.50795" lon="5.75787">
        <ele>790.7</ele>
        <time>2015-04-05T11:17:49Z</time>
      </trkpt>
      <trkpt lat="44.50812" lon="5.75788">
        <ele>790.3</ele>
        <time>2015-04-05T11:17:51Z</time>
      </trkpt>
      <trkpt lat="44.50828" lon="5.75788">
        <ele>790</ele>
        <time>2015-04-05T11:17:53Z</time>
      </trkpt>
      <trkpt lat="44.50844" lon="5.7579">
        <ele>789.2</ele>
        <time>2015-04-05T11:17:55Z</time>
      </trkpt>
      <trkpt lat="44.5086" lon="5.75791">
        <ele>788.3</ele>
        <time>2015-04-05T11:17:57Z</time>
      </trkpt>
      <trkpt lat="44.50875" lon="5.75792">
        <ele>787.5</ele>
        <time>2015-04-05T11:17:59Z</time>
      </trkpt>
      <trkpt lat="44.5089" lon="5.75794">
        <ele>786.7</ele>
        <time>2015-04-05T11:18:01Z</time>
      </trkpt>
      <trkpt lat="44.50904" lon="5.75795">
        <ele>785.8</ele>
        <time>2015-04-05T11:18:03Z</time>
      </trkpt>
      <trkpt lat="44.50918" lon="5.75797">
        <ele>785.1</ele>
        <time>2015-04-05T11:18:05Z</time>
      </trkpt>
      <trkpt lat="44.50931" lon="5.75798">
        <ele>784.7</ele>
        <time>2015-04-05T11:18:07Z</time>
      </trkpt>
      <trkpt lat="44.50945" lon="5.75799">
        <ele>784.2</ele>
        <time>2015-04-05T11:18:09Z</time>
      </trkpt>
      <trkpt lat="44.50958" lon="5.758">
        <ele>783.8</ele>
        <time>2015-04-05T11:18:11Z</time>
      </trkpt>
      <trkpt lat="44.50971" lon="5.75801">
        <ele>783.4</ele>
        <time>2015-04-05T11:18:13Z</time>
      </trkpt>
      <trkpt lat="44.50985" lon="5.75803">
        <ele>783</ele>
        <time>2015-04-05T11:18:15Z</time>
      </trkpt>
      <trkpt lat="44.51" lon="5.75804">
        <ele>782.5</ele>
        <time>2015-04-05T11:18:17Z</time>
      </trkpt>
      <trkpt lat="44.51015" lon="5.75806">
        <ele>781.6</ele>
        <time>2015-04-05T11:18:19Z</time>
      </trkpt>
      <trkpt lat="44.5103" lon="5.75808">
        <ele>780.7</ele>
        <time>2015-04-05T11:18:21Z</time>
      </trkpt>
      <trkpt lat="44.51045" lon="5.7581">
        <ele>779.9</ele>
        <time>2015-04-05T11:18:23Z</time>
      </trkpt>
      <trkpt lat="44.51059" lon="5.75811">
        <ele>779.1</ele>
        <time>2015-04-05T11:18:25Z</time>
      </trkpt>
      <trkpt lat="44.51074" lon="5.75812">
        <ele>778.2</ele>
        <time>2015-04-05T11:18:27Z</time>
      </trkpt>
      <trkpt lat="44.51089" lon="5.75814">
        <ele>777.7</ele>
        <time>2015-04-05T11:18:29Z</time>
      </trkpt>
      <trkpt lat="44.51105" lon="5.75815">
        <ele>777.6</ele>
        <time>2015-04-05T11:18:31Z</time>
      </trkpt>
      <trkpt lat="44.5112" lon="5.75816">
        <ele>777.6</ele>
        <time>2015-04-05T11:18:33Z</time>
      </trkpt>
      <trkpt lat="44.51135" lon="5.75818">
        <ele>777.6</ele>
        <time>2015-04-05T11:18:35Z</time>
      </trkpt>
      <trkpt lat="44.5115" lon="5.75818">
        <ele>777.7</ele>
        <time>2015-04-05T11:18:37Z</time>
      </trkpt>
      <trkpt lat="44.51165" lon="5.75818">
        <ele>777.8</ele>
        <time>2015-04-05T11:18:39Z</time>
      </trkpt>
      <trkpt lat="44.5118" lon="5.75817">
        <ele>777.9</ele>
        <time>2015-04-05T11:18:41Z</time>
      </trkpt>
      <trkpt lat="44.51194" lon="5.75815">
        <ele>778</ele>
        <time>2015-04-05T11:18:43Z</time>
      </trkpt>
      <trkpt lat="44.51208" lon="5.75811">
        <ele>778.1</ele>
        <time>2015-04-05T11:18:45Z</time>
      </trkpt>
      <trkpt lat="44.51222" lon="5.75807">
        <ele>777.9</ele>
        <time>2015-04-05T11:18:47Z</time>
      </trkpt>
      <trkpt lat="44.51235" lon="5.75803">
        <ele>777.7</ele>
        <time>2015-04-05T11:18:49Z</time>
      </trkpt>
      <trkpt lat="44.51249" lon="5.75797">
        <ele>777.4</ele>
        <time>2015-04-05T11:18:51Z</time>
      </trkpt>
      <trkpt lat="44.51262" lon="5.75792">
        <ele>778</ele>
        <time>2015-04-05T11:18:53Z</time>
      </trkpt>
      <trkpt lat="44.51275" lon="5.75786">
        <ele>778.5</ele>
        <time>2015-04-05T11:18:55Z</time>
      </trkpt>
      <trkpt lat="44.51288" lon="5.7578">
        <ele>778.8</ele>
        <time>2015-04-05T11:18:57Z</time>
      </trkpt>
      <trkpt lat="44.513" lon="5.75771">
        <ele>778.5</ele>
        <time>2015-04-05T11:18:59Z</time>
      </trkpt>
      <trkpt lat="44.51312" lon="5.75759">
        <ele>777.5</ele>
        <time>2015-04-05T11:19:01Z</time>
      </trkpt>
      <trkpt lat="44.51323" lon="5.75744">
        <ele>776.3</ele>
        <time>2015-04-05T11:19:03Z</time>
      </trkpt>
      <trkpt lat="44.51334" lon="5.75727">
        <ele>775.4</ele>
        <time>2015-04-05T11:19:05Z</time>
      </trkpt>
      <trkpt lat="44.51347" lon="5.75709">
        <ele>775.1</ele>
        <time>2015-04-05T11:19:07Z</time>
      </trkpt>
      <trkpt lat="44.51354" lon="5.75701">
        <ele>774.7</ele>
        <time>2015-04-05T11:19:08Z</time>
      </trkpt>
      <trkpt lat="44.51361" lon="5.75694">
        <ele>774.1</ele>
        <time>2015-04-05T11:19:09Z</time>
      </trkpt>
      <trkpt lat="44.51369" lon="5.75688">
        <ele>773.7</ele>
        <time>2015-04-05T11:19:10Z</time>
      </trkpt>
      <trkpt lat="44.51378" lon="5.75683">
        <ele>773.1</ele>
        <time>2015-04-05T11:19:11Z</time>
      </trkpt>
      <trkpt lat="44.51387" lon="5.75679">
        <ele>772.6</ele>
        <time>2015-04-05T11:19:12Z</time>
      </trkpt>
      <trkpt lat="44.51396" lon="5.75675">
        <ele>772</ele>
        <time>2015-04-05T11:19:13Z</time>
      </trkpt>
      <trkpt lat="44.51405" lon="5.75671">
        <ele>771.1</ele>
        <time>2015-04-05T11:19:14Z</time>
      </trkpt>
      <trkpt lat="44.51414" lon="5.75667">
        <ele>770</ele>
        <time>2015-04-05T11:19:15Z</time>
      </trkpt>
      <trkpt lat="44.51422" lon="5.75661">
        <ele>768.7</ele>
        <time>2015-04-05T11:19:16Z</time>
      </trkpt>
      <trkpt lat="44.5143" lon="5.75654">
        <ele>767.1</ele>
        <time>2015-04-05T11:19:17Z</time>
      </trkpt>
      <trkpt lat="44.51438" lon="5.75647">
        <ele>765.6</ele>
        <time>2015-04-05T11:19:18Z</time>
      </trkpt>
      <trkpt lat="44.51447" lon="5.75641">
        <ele>764.1</ele>
        <time>2015-04-05T11:19:19Z</time>
      </trkpt>
      <trkpt lat="44.51455" lon="5.75633">
        <ele>762.6</ele>
        <time>2015-04-05T11:19:20Z</time>
      </trkpt>
      <trkpt lat="44.51464" lon="5.75626">
        <ele>761.3</ele>
        <time>2015-04-05T11:19:21Z</time>
      </trkpt>
      <trkpt lat="44.51472" lon="5.7562">
        <ele>760.1</ele>
        <time>2015-04-05T11:19:22Z</time>
      </trkpt>
      <trkpt lat="44.51481" lon="5.75616">
        <ele>759.1</ele>
        <time>2015-04-05T11:19:23Z</time>
      </trkpt>
      <trkpt lat="44.51491" lon="5.75615">
        <ele>758.5</ele>
        <time>2015-04-05T11:19:24Z</time>
      </trkpt>
      <trkpt lat="44.51501" lon="5.75617">
        <ele>758.2</ele>
        <time>2015-04-05T11:19:25Z</time>
      </trkpt>
      <trkpt lat="44.5151" lon="5.75621">
        <ele>758.3</ele>
        <time>2015-04-05T11:19:26Z</time>
      </trkpt>
      <trkpt lat="44.5152" lon="5.75624">
        <ele>758.2</ele>
        <time>2015-04-05T11:19:27Z</time>
      </trkpt>
      <trkpt lat="44.5153" lon="5.75623">
        <ele>757.8</ele>
        <time>2015-04-05T11:19:28Z</time>
      </trkpt>
      <trkpt lat="44.51539" lon="5.75619">
        <ele>757.3</ele>
        <time>2015-04-05T11:19:29Z</time>
      </trkpt>
      <trkpt lat="44.51548" lon="5.75613">
        <ele>756.9</ele>
        <time>2015-04-05T11:19:30Z</time>
      </trkpt>
      <trkpt lat="44.51557" lon="5.75608">
        <ele>756.7</ele>
        <time>2015-04-05T11:19:31Z</time>
      </trkpt>
      <trkpt lat="44.51573" lon="5.75598">
        <ele>756.6</ele>
        <time>2015-04-05T11:19:33Z</time>
      </trkpt>
      <trkpt lat="44.51587" lon="5.75586">
        <ele>756.9</ele>
        <time>2015-04-05T11:19:35Z</time>
      </trkpt>
      <trkpt lat="44.51599" lon="5.75571">
        <ele>756.7</ele>
        <time>2015-04-05T11:19:37Z</time>
      </trkpt>
      <trkpt lat="44.5161" lon="5.75554">
        <ele>756.7</ele>
        <time>2015-04-05T11:19:39Z</time>
      </trkpt>
      <trkpt lat="44.51622" lon="5.75537">
        <ele>756.8</ele>
        <time>2015-04-05T11:19:41Z</time>
      </trkpt>
      <trkpt lat="44.51634" lon="5.75523">
        <ele>757</ele>
        <time>2015-04-05T11:19:43Z</time>
      </trkpt>
      <trkpt lat="44.51647" lon="5.75511">
        <ele>757.4</ele>
        <time>2015-04-05T11:19:45Z</time>
      </trkpt>
      <trkpt lat="44.5166" lon="5.75501">
        <ele>757.8</ele>
        <time>2015-04-05T11:19:47Z</time>
      </trkpt>
      <trkpt lat="44.51672" lon="5.75493">
        <ele>757.7</ele>
        <time>2015-04-05T11:19:49Z</time>
      </trkpt>
      <trkpt lat="44.51683" lon="5.75486">
        <ele>757.4</ele>
        <time>2015-04-05T11:19:51Z</time>
      </trkpt>
      <trkpt lat="44.51692" lon="5.75481">
        <ele>757.3</ele>
        <time>2015-04-05T11:19:53Z</time>
      </trkpt>
      <trkpt lat="44.51701" lon="5.75476">
        <ele>757.2</ele>
        <time>2015-04-05T11:19:55Z</time>
      </trkpt>
      <trkpt lat="44.5171" lon="5.75471">
        <ele>757.1</ele>
        <time>2015-04-05T11:19:57Z</time>
      </trkpt>
      <trkpt lat="44.51718" lon="5.75465">
        <ele>757.2</ele>
        <time>2015-04-05T11:19:59Z</time>
      </trkpt>
      <trkpt lat="44.51727" lon="5.7546">
        <ele>757.2</ele>
        <time>2015-04-05T11:20:01Z</time>
      </trkpt>
      <trkpt lat="44.51736" lon="5.75455">
        <ele>757.3</ele>
        <time>2015-04-05T11:20:03Z</time>
      </trkpt>
      <trkpt lat="44.51745" lon="5.75449">
        <ele>757.5</ele>
        <time>2015-04-05T11:20:05Z</time>
      </trkpt>
      <trkpt lat="44.51754" lon="5.75444">
        <ele>757.8</ele>
        <time>2015-04-05T11:20:07Z</time>
      </trkpt>
      <trkpt lat="44.51763" lon="5.75439">
        <ele>758.2</ele>
        <time>2015-04-05T11:20:09Z</time>
      </trkpt>
      <trkpt lat="44.51775" lon="5.75431">
        <ele>758.7</ele>
        <time>2015-04-05T11:20:12Z</time>
      </trkpt>
      <trkpt lat="44.51787" lon="5.75424">
        <ele>759.3</ele>
        <time>2015-04-05T11:20:15Z</time>
      </trkpt>
      <trkpt lat="44.51799" lon="5.75417">
        <ele>759.7</ele>
        <time>2015-04-05T11:20:18Z</time>
      </trkpt>
      <trkpt lat="44.51811" lon="5.75409">
        <ele>759.9</ele>
        <time>2015-04-05T11:20:21Z</time>
      </trkpt>
      <trkpt lat="44.51819" lon="5.75404">
        <ele>760.1</ele>
        <time>2015-04-05T11:20:23Z</time>
      </trkpt>
      <trkpt lat="44.51831" lon="5.75399">
        <ele>760.5</ele>
        <time>2015-04-05T11:20:26Z</time>
      </trkpt>
      <trkpt lat="44.5184" lon="5.75394">
        <ele>760.5</ele>
        <time>2015-04-05T11:20:28Z</time>
      </trkpt>
      <trkpt lat="44.51852" lon="5.75387">
        <ele>760.6</ele>
        <time>2015-04-05T11:20:31Z</time>
      </trkpt>
      <trkpt lat="44.51864" lon="5.75379">
        <ele>760.6</ele>
        <time>2015-04-05T11:20:34Z</time>
      </trkpt>
      <trkpt lat="44.51873" lon="5.75375">
        <ele>760.7</ele>
        <time>2015-04-05T11:20:36Z</time>
      </trkpt>
      <trkpt lat="44.51881" lon="5.7537">
        <ele>760.8</ele>
        <time>2015-04-05T11:20:38Z</time>
      </trkpt>
      <trkpt lat="44.5189" lon="5.75364">
        <ele>760.8</ele>
        <time>2015-04-05T11:20:40Z</time>
      </trkpt>
      <trkpt lat="44.51899" lon="5.75359">
        <ele>760.9</ele>
        <time>2015-04-05T11:20:42Z</time>
      </trkpt>
      <trkpt lat="44.51907" lon="5.75353">
        <ele>761</ele>
        <time>2015-04-05T11:20:44Z</time>
      </trkpt>
      <trkpt lat="44.51916" lon="5.75348">
        <ele>761.1</ele>
        <time>2015-04-05T11:20:46Z</time>
      </trkpt>
      <trkpt lat="44.51924" lon="5.75343">
        <ele>761.5</ele>
        <time>2015-04-05T11:20:48Z</time>
      </trkpt>
      <trkpt lat="44.51936" lon="5.75336">
        <ele>762.2</ele>
        <time>2015-04-05T11:20:51Z</time>
      </trkpt>
      <trkpt lat="44.51948" lon="5.75329">
        <ele>762.9</ele>
        <time>2015-04-05T11:20:54Z</time>
      </trkpt>
      <trkpt lat="44.51959" lon="5.75321">
        <ele>763.7</ele>
        <time>2015-04-05T11:20:57Z</time>
      </trkpt>
      <trkpt lat="44.51971" lon="5.75314">
        <ele>764.5</ele>
        <time>2015-04-05T11:21:00Z</time>
      </trkpt>
      <trkpt lat="44.51983" lon="5.75307">
        <ele>765.3</ele>
        <time>2015-04-05T11:21:03Z</time>
      </trkpt>
      <trkpt lat="44.51994" lon="5.75299">
        <ele>766.1</ele>
        <time>2015-04-05T11:21:06Z</time>
      </trkpt>
      <trkpt lat="44.52005" lon="5.75292">
        <ele>766.6</ele>
        <time>2015-04-05T11:21:09Z</time>
      </trkpt>
      <trkpt lat="44.52015" lon="5.75284">
        <ele>767</ele>
        <time>2015-04-05T11:21:12Z</time>
      </trkpt>
      <trkpt lat="44.52026" lon="5.75276">
        <ele>767.3</ele>
        <time>2015-04-05T11:21:15Z</time>
      </trkpt>
      <trkpt lat="44.52036" lon="5.75267">
        <ele>767.7</ele>
        <time>2015-04-05T11:21:18Z</time>
      </trkpt>
      <trkpt lat="44.52044" lon="5.75254">
        <ele>768</ele>
        <time>2015-04-05T11:21:21Z</time>
      </trkpt>
      <trkpt lat="44.52048" lon="5.75243">
        <ele>768.3</ele>
        <time>2015-04-05T11:21:23Z</time>
      </trkpt>
      <trkpt lat="44.52053" lon="5.75226">
        <ele>768.9</ele>
        <time>2015-04-05T11:21:26Z</time>
      </trkpt>
      <trkpt lat="44.52056" lon="5.75209">
        <ele>769.3</ele>
        <time>2015-04-05T11:21:29Z</time>
      </trkpt>
      <trkpt lat="44.52057" lon="5.75192">
        <ele>769.8</ele>
        <time>2015-04-05T11:21:32Z</time>
      </trkpt>
      <trkpt lat="44.52058" lon="5.75176">
        <ele>770.2</ele>
        <time>2015-04-05T11:21:35Z</time>
      </trkpt>
      <trkpt lat="44.5206" lon="5.75163">
        <ele>770.7</ele>
        <time>2015-04-05T11:21:38Z</time>
      </trkpt>
      <trkpt lat="44.52062" lon="5.7515">
        <ele>771.5</ele>
        <time>2015-04-05T11:21:41Z</time>
      </trkpt>
      <trkpt lat="44.52067" lon="5.75136">
        <ele>772.7</ele>
        <time>2015-04-05T11:21:45Z</time>
      </trkpt>
      <trkpt lat="44.52075" lon="5.75127">
        <ele>773.8</ele>
        <time>2015-04-05T11:21:50Z</time>
      </trkpt>
      <trkpt lat="44.52067" lon="5.75124">
        <ele>773.4</ele>
        <time>2015-04-05T11:23:45Z</time>
      </trkpt>
      <trkpt lat="44.52058" lon="5.75123">
        <ele>772.8</ele>
        <time>2015-04-05T11:24:24Z</time>
      </trkpt>
      <trkpt lat="44.52049" lon="5.75122">
        <ele>772.1</ele>
        <time>2015-04-05T11:26:02Z</time>
      </trkpt>
      <trkpt lat="44.52059" lon="5.75123">
        <ele>772.9</ele>
        <time>2015-04-05T11:30:57Z</time>
      </trkpt>
      <trkpt lat="44.52068" lon="5.75129">
        <ele>773.2</ele>
        <time>2015-04-05T11:31:01Z</time>
      </trkpt>
      <trkpt lat="44.52076" lon="5.75137">
        <ele>773.1</ele>
        <time>2015-04-05T11:31:04Z</time>
      </trkpt>
      <trkpt lat="44.52084" lon="5.75146">
        <ele>772.8</ele>
        <time>2015-04-05T11:31:07Z</time>
      </trkpt>
      <trkpt lat="44.52092" lon="5.75154">
        <ele>772.8</ele>
        <time>2015-04-05T11:31:10Z</time>
      </trkpt>
      <trkpt lat="44.521" lon="5.75162">
        <ele>772.8</ele>
        <time>2015-04-05T11:31:13Z</time>
      </trkpt>
      <trkpt lat="44.52109" lon="5.75171">
        <ele>773</ele>
        <time>2015-04-05T11:31:16Z</time>
      </trkpt>
      <trkpt lat="44.52117" lon="5.7518">
        <ele>773.3</ele>
        <time>2015-04-05T11:31:19Z</time>
      </trkpt>
      <trkpt lat="44.52126" lon="5.75189">
        <ele>773.5</ele>
        <time>2015-04-05T11:31:22Z</time>
      </trkpt>
      <trkpt lat="44.52136" lon="5.75198">
        <ele>773.8</ele>
        <time>2015-04-05T11:31:25Z</time>
      </trkpt>
      <trkpt lat="44.52147" lon="5.75209">
        <ele>773.8</ele>
        <time>2015-04-05T11:31:28Z</time>
      </trkpt>
      <trkpt lat="44.52154" lon="5.75216">
        <ele>773.8</ele>
        <time>2015-04-05T11:31:30Z</time>
      </trkpt>
      <trkpt lat="44.52162" lon="5.75224">
        <ele>773.7</ele>
        <time>2015-04-05T11:31:32Z</time>
      </trkpt>
      <trkpt lat="44.52169" lon="5.75232">
        <ele>773.4</ele>
        <time>2015-04-05T11:31:34Z</time>
      </trkpt>
      <trkpt lat="44.52179" lon="5.75243">
        <ele>773.1</ele>
        <time>2015-04-05T11:31:37Z</time>
      </trkpt>
      <trkpt lat="44.52186" lon="5.7525">
        <ele>773</ele>
        <time>2015-04-05T11:31:39Z</time>
      </trkpt>
      <trkpt lat="44.52194" lon="5.75258">
        <ele>773.5</ele>
        <time>2015-04-05T11:31:41Z</time>
      </trkpt>
      <trkpt lat="44.52199" lon="5.75269">
        <ele>774.1</ele>
        <time>2015-04-05T11:31:43Z</time>
      </trkpt>
      <trkpt lat="44.52203" lon="5.75281">
        <ele>774.7</ele>
        <time>2015-04-05T11:31:45Z</time>
      </trkpt>
      <trkpt lat="44.52205" lon="5.75293">
        <ele>775.3</ele>
        <time>2015-04-05T11:31:47Z</time>
      </trkpt>
      <trkpt lat="44.52209" lon="5.75311">
        <ele>776.2</ele>
        <time>2015-04-05T11:31:50Z</time>
      </trkpt>
      <trkpt lat="44.52211" lon="5.75324">
        <ele>776.9</ele>
        <time>2015-04-05T11:31:52Z</time>
      </trkpt>
      <trkpt lat="44.52213" lon="5.75339">
        <ele>777.8</ele>
        <time>2015-04-05T11:31:54Z</time>
      </trkpt>
      <trkpt lat="44.52215" lon="5.75355">
        <ele>778.9</ele>
        <time>2015-04-05T11:31:56Z</time>
      </trkpt>
      <trkpt lat="44.52216" lon="5.75371">
        <ele>780.1</ele>
        <time>2015-04-05T11:31:58Z</time>
      </trkpt>
      <trkpt lat="44.52218" lon="5.75388">
        <ele>781.4</ele>
        <time>2015-04-05T11:32:00Z</time>
      </trkpt>
      <trkpt lat="44.52221" lon="5.75403">
        <ele>782.9</ele>
        <time>2015-04-05T11:32:02Z</time>
      </trkpt>
      <trkpt lat="44.52225" lon="5.75416">
        <ele>784.5</ele>
        <time>2015-04-05T11:32:04Z</time>
      </trkpt>
      <trkpt lat="44.52229" lon="5.75429">
        <ele>785.1</ele>
        <time>2015-04-05T11:32:06Z</time>
      </trkpt>
      <trkpt lat="44.52233" lon="5.75441">
        <ele>785.5</ele>
        <time>2015-04-05T11:32:08Z</time>
      </trkpt>
      <trkpt lat="44.52238" lon="5.75453">
        <ele>786.2</ele>
        <time>2015-04-05T11:32:10Z</time>
      </trkpt>
      <trkpt lat="44.52243" lon="5.75466">
        <ele>786.8</ele>
        <time>2015-04-05T11:32:12Z</time>
      </trkpt>
      <trkpt lat="44.52249" lon="5.75479">
        <ele>787.5</ele>
        <time>2015-04-05T11:32:14Z</time>
      </trkpt>
      <trkpt lat="44.52254" lon="5.75493">
        <ele>788.8</ele>
        <time>2015-04-05T11:32:16Z</time>
      </trkpt>
      <trkpt lat="44.5226" lon="5.75508">
        <ele>789.4</ele>
        <time>2015-04-05T11:32:18Z</time>
      </trkpt>
      <trkpt lat="44.52266" lon="5.75522">
        <ele>789</ele>
        <time>2015-04-05T11:32:20Z</time>
      </trkpt>
      <trkpt lat="44.52272" lon="5.75537">
        <ele>788.7</ele>
        <time>2015-04-05T11:32:22Z</time>
      </trkpt>
      <trkpt lat="44.52278" lon="5.75552">
        <ele>788.3</ele>
        <time>2015-04-05T11:32:24Z</time>
      </trkpt>
      <trkpt lat="44.52284" lon="5.75568">
        <ele>787.8</ele>
        <time>2015-04-05T11:32:26Z</time>
      </trkpt>
      <trkpt lat="44.5229" lon="5.75583">
        <ele>787.4</ele>
        <time>2015-04-05T11:32:28Z</time>
      </trkpt>
      <trkpt lat="44.52295" lon="5.75599">
        <ele>787.5</ele>
        <time>2015-04-05T11:32:30Z</time>
      </trkpt>
      <trkpt lat="44.52301" lon="5.75613">
        <ele>787.5</ele>
        <time>2015-04-05T11:32:32Z</time>
      </trkpt>
      <trkpt lat="44.52307" lon="5.75628">
        <ele>787.5</ele>
        <time>2015-04-05T11:32:34Z</time>
      </trkpt>
      <trkpt lat="44.52313" lon="5.75643">
        <ele>787.5</ele>
        <time>2015-04-05T11:32:36Z</time>
      </trkpt>
      <trkpt lat="44.52319" lon="5.75656">
        <ele>787.5</ele>
        <time>2015-04-05T11:32:38Z</time>
      </trkpt>
      <trkpt lat="44.52325" lon="5.75668">
        <ele>787.4</ele>
        <time>2015-04-05T11:32:40Z</time>
      </trkpt>
      <trkpt lat="44.52331" lon="5.75681">
        <ele>787.2</ele>
        <time>2015-04-05T11:32:42Z</time>
      </trkpt>
      <trkpt lat="44.52338" lon="5.75693">
        <ele>787.6</ele>
        <time>2015-04-05T11:32:44Z</time>
      </trkpt>
      <trkpt lat="44.52345" lon="5.75707">
        <ele>788</ele>
        <time>2015-04-05T11:32:46Z</time>
      </trkpt>
      <trkpt lat="44.52353" lon="5.7572">
        <ele>788.3</ele>
        <time>2015-04-05T11:32:48Z</time>
      </trkpt>
      <trkpt lat="44.5236" lon="5.75734">
        <ele>788.6</ele>
        <time>2015-04-05T11:32:50Z</time>
      </trkpt>
      <trkpt lat="44.52367" lon="5.75747">
        <ele>788.5</ele>
        <time>2015-04-05T11:32:52Z</time>
      </trkpt>
      <trkpt lat="44.52375" lon="5.75761">
        <ele>788.3</ele>
        <time>2015-04-05T11:32:54Z</time>
      </trkpt>
      <trkpt lat="44.52382" lon="5.75775">
        <ele>787.6</ele>
        <time>2015-04-05T11:32:56Z</time>
      </trkpt>
      <trkpt lat="44.5239" lon="5.75789">
        <ele>786.5</ele>
        <time>2015-04-05T11:32:58Z</time>
      </trkpt>
      <trkpt lat="44.52398" lon="5.75804">
        <ele>785.1</ele>
        <time>2015-04-05T11:33:00Z</time>
      </trkpt>
      <trkpt lat="44.52407" lon="5.75821">
        <ele>782.6</ele>
        <time>2015-04-05T11:33:02Z</time>
      </trkpt>
      <trkpt lat="44.52415" lon="5.75838">
        <ele>779.9</ele>
        <time>2015-04-05T11:33:05Z</time>
      </trkpt>
      <trkpt lat="44.5242" lon="5.75852">
        <ele>779.1</ele>
        <time>2015-04-05T11:33:07Z</time>
      </trkpt>
      <trkpt lat="44.52425" lon="5.75866">
        <ele>778.3</ele>
        <time>2015-04-05T11:33:09Z</time>
      </trkpt>
      <trkpt lat="44.52431" lon="5.7588">
        <ele>777.2</ele>
        <time>2015-04-05T11:33:11Z</time>
      </trkpt>
      <trkpt lat="44.52437" lon="5.75894">
        <ele>776.1</ele>
        <time>2015-04-05T11:33:13Z</time>
      </trkpt>
      <trkpt lat="44.52443" lon="5.75908">
        <ele>774.8</ele>
        <time>2015-04-05T11:33:15Z</time>
      </trkpt>
      <trkpt lat="44.5245" lon="5.75922">
        <ele>773.8</ele>
        <time>2015-04-05T11:33:17Z</time>
      </trkpt>
      <trkpt lat="44.52453" lon="5.75934">
        <ele>773</ele>
        <time>2015-04-05T11:33:19Z</time>
      </trkpt>
      <trkpt lat="44.52457" lon="5.75946">
        <ele>772</ele>
        <time>2015-04-05T11:33:21Z</time>
      </trkpt>
      <trkpt lat="44.52461" lon="5.75959">
        <ele>770.9</ele>
        <time>2015-04-05T11:33:23Z</time>
      </trkpt>
      <trkpt lat="44.52466" lon="5.75971">
        <ele>769.6</ele>
        <time>2015-04-05T11:33:25Z</time>
      </trkpt>
      <trkpt lat="44.52471" lon="5.75982">
        <ele>768.1</ele>
        <time>2015-04-05T11:33:27Z</time>
      </trkpt>
      <trkpt lat="44.52475" lon="5.75994">
        <ele>766.5</ele>
        <time>2015-04-05T11:33:29Z</time>
      </trkpt>
      <trkpt lat="44.5248" lon="5.76005">
        <ele>765.3</ele>
        <time>2015-04-05T11:33:31Z</time>
      </trkpt>
      <trkpt lat="44.52485" lon="5.76017">
        <ele>764.9</ele>
        <time>2015-04-05T11:33:33Z</time>
      </trkpt>
      <trkpt lat="44.52491" lon="5.76032">
        <ele>764.3</ele>
        <time>2015-04-05T11:33:36Z</time>
      </trkpt>
      <trkpt lat="44.52497" lon="5.76048">
        <ele>763.7</ele>
        <time>2015-04-05T11:33:39Z</time>
      </trkpt>
      <trkpt lat="44.52504" lon="5.76064">
        <ele>763.2</ele>
        <time>2015-04-05T11:33:42Z</time>
      </trkpt>
      <trkpt lat="44.52509" lon="5.76075">
        <ele>762.8</ele>
        <time>2015-04-05T11:33:44Z</time>
      </trkpt>
      <trkpt lat="44.52514" lon="5.76087">
        <ele>762.5</ele>
        <time>2015-04-05T11:33:46Z</time>
      </trkpt>
      <trkpt lat="44.52519" lon="5.76098">
        <ele>762.6</ele>
        <time>2015-04-05T11:33:48Z</time>
      </trkpt>
      <trkpt lat="44.52524" lon="5.76109">
        <ele>762.8</ele>
        <time>2015-04-05T11:33:50Z</time>
      </trkpt>
      <trkpt lat="44.5253" lon="5.76125">
        <ele>762.9</ele>
        <time>2015-04-05T11:33:53Z</time>
      </trkpt>
      <trkpt lat="44.52537" lon="5.76137">
        <ele>763</ele>
        <time>2015-04-05T11:33:55Z</time>
      </trkpt>
      <trkpt lat="44.52542" lon="5.7615">
        <ele>763.1</ele>
        <time>2015-04-05T11:33:57Z</time>
      </trkpt>
      <trkpt lat="44.52547" lon="5.76161">
        <ele>763.2</ele>
        <time>2015-04-05T11:33:59Z</time>
      </trkpt>
      <trkpt lat="44.52553" lon="5.76171">
        <ele>763.3</ele>
        <time>2015-04-05T11:34:01Z</time>
      </trkpt>
      <trkpt lat="44.5256" lon="5.76183">
        <ele>763.4</ele>
        <time>2015-04-05T11:34:03Z</time>
      </trkpt>
      <trkpt lat="44.52568" lon="5.76194">
        <ele>763.6</ele>
        <time>2015-04-05T11:34:05Z</time>
      </trkpt>
      <trkpt lat="44.52575" lon="5.76206">
        <ele>763.8</ele>
        <time>2015-04-05T11:34:07Z</time>
      </trkpt>
      <trkpt lat="44.52583" lon="5.76217">
        <ele>764</ele>
        <time>2015-04-05T11:34:09Z</time>
      </trkpt>
      <trkpt lat="44.52591" lon="5.76228">
        <ele>764.1</ele>
        <time>2015-04-05T11:34:11Z</time>
      </trkpt>
      <trkpt lat="44.52599" lon="5.76239">
        <ele>764.2</ele>
        <time>2015-04-05T11:34:13Z</time>
      </trkpt>
      <trkpt lat="44.52607" lon="5.7625">
        <ele>764.3</ele>
        <time>2015-04-05T11:34:15Z</time>
      </trkpt>
      <trkpt lat="44.52615" lon="5.76261">
        <ele>764.6</ele>
        <time>2015-04-05T11:34:17Z</time>
      </trkpt>
      <trkpt lat="44.52622" lon="5.76272">
        <ele>764.8</ele>
        <time>2015-04-05T11:34:19Z</time>
      </trkpt>
      <trkpt lat="44.5263" lon="5.76283">
        <ele>765.2</ele>
        <time>2015-04-05T11:34:21Z</time>
      </trkpt>
      <trkpt lat="44.52638" lon="5.76295">
        <ele>765.5</ele>
        <time>2015-04-05T11:34:23Z</time>
      </trkpt>
      <trkpt lat="44.52645" lon="5.76305">
        <ele>765.9</ele>
        <time>2015-04-05T11:34:25Z</time>
      </trkpt>
      <trkpt lat="44.52653" lon="5.76316">
        <ele>766.3</ele>
        <time>2015-04-05T11:34:27Z</time>
      </trkpt>
      <trkpt lat="44.52659" lon="5.76327">
        <ele>766.7</ele>
        <time>2015-04-05T11:34:29Z</time>
      </trkpt>
      <trkpt lat="44.52665" lon="5.76338">
        <ele>766.9</ele>
        <time>2015-04-05T11:34:31Z</time>
      </trkpt>
      <trkpt lat="44.52672" lon="5.7635">
        <ele>766.9</ele>
        <time>2015-04-05T11:34:33Z</time>
      </trkpt>
      <trkpt lat="44.52679" lon="5.76363">
        <ele>767</ele>
        <time>2015-04-05T11:34:35Z</time>
      </trkpt>
      <trkpt lat="44.52687" lon="5.76375">
        <ele>766.9</ele>
        <time>2015-04-05T11:34:37Z</time>
      </trkpt>
      <trkpt lat="44.52694" lon="5.76387">
        <ele>766.7</ele>
        <time>2015-04-05T11:34:39Z</time>
      </trkpt>
      <trkpt lat="44.52701" lon="5.76399">
        <ele>766.5</ele>
        <time>2015-04-05T11:34:41Z</time>
      </trkpt>
      <trkpt lat="44.52707" lon="5.76411">
        <ele>766.2</ele>
        <time>2015-04-05T11:34:43Z</time>
      </trkpt>
      <trkpt lat="44.52714" lon="5.76423">
        <ele>765.9</ele>
        <time>2015-04-05T11:34:45Z</time>
      </trkpt>
      <trkpt lat="44.52721" lon="5.76434">
        <ele>765.6</ele>
        <time>2015-04-05T11:34:47Z</time>
      </trkpt>
      <trkpt lat="44.52727" lon="5.76444">
        <ele>765.3</ele>
        <time>2015-04-05T11:34:49Z</time>
      </trkpt>
      <trkpt lat="44.52733" lon="5.76455">
        <ele>764.9</ele>
        <time>2015-04-05T11:34:51Z</time>
      </trkpt>
      <trkpt lat="44.52739" lon="5.76465">
        <ele>764.5</ele>
        <time>2015-04-05T11:34:53Z</time>
      </trkpt>
      <trkpt lat="44.52745" lon="5.76476">
        <ele>764</ele>
        <time>2015-04-05T11:34:55Z</time>
      </trkpt>
      <trkpt lat="44.52751" lon="5.76486">
        <ele>763.5</ele>
        <time>2015-04-05T11:34:57Z</time>
      </trkpt>
      <trkpt lat="44.52759" lon="5.76501">
        <ele>763.5</ele>
        <time>2015-04-05T11:35:00Z</time>
      </trkpt>
      <trkpt lat="44.52767" lon="5.76517">
        <ele>764.4</ele>
        <time>2015-04-05T11:35:03Z</time>
      </trkpt>
      <trkpt lat="44.52772" lon="5.76527">
        <ele>765</ele>
        <time>2015-04-05T11:35:05Z</time>
      </trkpt>
      <trkpt lat="44.52778" lon="5.76538">
        <ele>765.4</ele>
        <time>2015-04-05T11:35:07Z</time>
      </trkpt>
      <trkpt lat="44.52784" lon="5.76549">
        <ele>765.8</ele>
        <time>2015-04-05T11:35:09Z</time>
      </trkpt>
      <trkpt lat="44.52792" lon="5.76563">
        <ele>766.3</ele>
        <time>2015-04-05T11:35:12Z</time>
      </trkpt>
      <trkpt lat="44.52799" lon="5.76577">
        <ele>766.5</ele>
        <time>2015-04-05T11:35:15Z</time>
      </trkpt>
      <trkpt lat="44.52806" lon="5.76591">
        <ele>766.7</ele>
        <time>2015-04-05T11:35:18Z</time>
      </trkpt>
      <trkpt lat="44.52814" lon="5.76606">
        <ele>766.9</ele>
        <time>2015-04-05T11:35:21Z</time>
      </trkpt>
      <trkpt lat="44.52822" lon="5.76621">
        <ele>767</ele>
        <time>2015-04-05T11:35:24Z</time>
      </trkpt>
      <trkpt lat="44.5283" lon="5.76636">
        <ele>767</ele>
        <time>2015-04-05T11:35:27Z</time>
      </trkpt>
      <trkpt lat="44.52835" lon="5.76647">
        <ele>767.1</ele>
        <time>2015-04-05T11:35:29Z</time>
      </trkpt>
      <trkpt lat="44.5284" lon="5.76658">
        <ele>767.2</ele>
        <time>2015-04-05T11:35:31Z</time>
      </trkpt>
      <trkpt lat="44.52848" lon="5.76673">
        <ele>767.3</ele>
        <time>2015-04-05T11:35:34Z</time>
      </trkpt>
      <trkpt lat="44.52853" lon="5.76683">
        <ele>767.5</ele>
        <time>2015-04-05T11:35:36Z</time>
      </trkpt>
      <trkpt lat="44.52861" lon="5.76698">
        <ele>767.7</ele>
        <time>2015-04-05T11:35:39Z</time>
      </trkpt>
      <trkpt lat="44.52869" lon="5.76713">
        <ele>767.9</ele>
        <time>2015-04-05T11:35:42Z</time>
      </trkpt>
      <trkpt lat="44.52877" lon="5.76727">
        <ele>768</ele>
        <time>2015-04-05T11:35:45Z</time>
      </trkpt>
      <trkpt lat="44.52885" lon="5.76741">
        <ele>768.2</ele>
        <time>2015-04-05T11:35:48Z</time>
      </trkpt>
      <trkpt lat="44.52893" lon="5.76754">
        <ele>768.5</ele>
        <time>2015-04-05T11:35:51Z</time>
      </trkpt>
      <trkpt lat="44.52902" lon="5.76767">
        <ele>768.7</ele>
        <time>2015-04-05T11:35:54Z</time>
      </trkpt>
      <trkpt lat="44.52911" lon="5.7678">
        <ele>768.9</ele>
        <time>2015-04-05T11:35:57Z</time>
      </trkpt>
      <trkpt lat="44.5292" lon="5.76793">
        <ele>769.1</ele>
        <time>2015-04-05T11:36:00Z</time>
      </trkpt>
      <trkpt lat="44.5293" lon="5.76806">
        <ele>769.2</ele>
        <time>2015-04-05T11:36:03Z</time>
      </trkpt>
      <trkpt lat="44.5294" lon="5.76819">
        <ele>769.1</ele>
        <time>2015-04-05T11:36:06Z</time>
      </trkpt>
      <trkpt lat="44.52946" lon="5.76828">
        <ele>769.1</ele>
        <time>2015-04-05T11:36:08Z</time>
      </trkpt>
      <trkpt lat="44.52956" lon="5.76841">
        <ele>769</ele>
        <time>2015-04-05T11:36:11Z</time>
      </trkpt>
      <trkpt lat="44.52965" lon="5.76854">
        <ele>769</ele>
        <time>2015-04-05T11:36:14Z</time>
      </trkpt>
      <trkpt lat="44.52975" lon="5.76867">
        <ele>769</ele>
        <time>2015-04-05T11:36:17Z</time>
      </trkpt>
      <trkpt lat="44.52984" lon="5.76879">
        <ele>769</ele>
        <time>2015-04-05T11:36:20Z</time>
      </trkpt>
      <trkpt lat="44.52994" lon="5.76891">
        <ele>769</ele>
        <time>2015-04-05T11:36:23Z</time>
      </trkpt>
      <trkpt lat="44.53003" lon="5.76903">
        <ele>769.1</ele>
        <time>2015-04-05T11:36:26Z</time>
      </trkpt>
      <trkpt lat="44.53013" lon="5.76916">
        <ele>769.3</ele>
        <time>2015-04-05T11:36:29Z</time>
      </trkpt>
      <trkpt lat="44.53022" lon="5.76928">
        <ele>769.7</ele>
        <time>2015-04-05T11:36:32Z</time>
      </trkpt>
      <trkpt lat="44.53032" lon="5.76941">
        <ele>770</ele>
        <time>2015-04-05T11:36:35Z</time>
      </trkpt>
      <trkpt lat="44.53041" lon="5.76954">
        <ele>770.2</ele>
        <time>2015-04-05T11:36:38Z</time>
      </trkpt>
      <trkpt lat="44.53051" lon="5.76966">
        <ele>770.3</ele>
        <time>2015-04-05T11:36:41Z</time>
      </trkpt>
      <trkpt lat="44.53058" lon="5.76975">
        <ele>770.3</ele>
        <time>2015-04-05T11:36:43Z</time>
      </trkpt>
      <trkpt lat="44.53067" lon="5.76987">
        <ele>770.3</ele>
        <time>2015-04-05T11:36:46Z</time>
      </trkpt>
      <trkpt lat="44.53077" lon="5.77">
        <ele>770.1</ele>
        <time>2015-04-05T11:36:49Z</time>
      </trkpt>
      <trkpt lat="44.53086" lon="5.77012">
        <ele>770.2</ele>
        <time>2015-04-05T11:36:52Z</time>
      </trkpt>
      <trkpt lat="44.53095" lon="5.77024">
        <ele>770.6</ele>
        <time>2015-04-05T11:36:55Z</time>
      </trkpt>
      <trkpt lat="44.53105" lon="5.77037">
        <ele>770.9</ele>
        <time>2015-04-05T11:36:58Z</time>
      </trkpt>
      <trkpt lat="44.53114" lon="5.77049">
        <ele>771.3</ele>
        <time>2015-04-05T11:37:01Z</time>
      </trkpt>
      <trkpt lat="44.53124" lon="5.77062">
        <ele>771.7</ele>
        <time>2015-04-05T11:37:04Z</time>
      </trkpt>
      <trkpt lat="44.53134" lon="5.77075">
        <ele>772.1</ele>
        <time>2015-04-05T11:37:07Z</time>
      </trkpt>
      <trkpt lat="44.53143" lon="5.77088">
        <ele>772.4</ele>
        <time>2015-04-05T11:37:10Z</time>
      </trkpt>
      <trkpt lat="44.53153" lon="5.77101">
        <ele>772.6</ele>
        <time>2015-04-05T11:37:13Z</time>
      </trkpt>
      <trkpt lat="44.5316" lon="5.7711">
        <ele>772.6</ele>
        <time>2015-04-05T11:37:15Z</time>
      </trkpt>
      <trkpt lat="44.53167" lon="5.77119">
        <ele>772.6</ele>
        <time>2015-04-05T11:37:17Z</time>
      </trkpt>
      <trkpt lat="44.53176" lon="5.77132">
        <ele>772.4</ele>
        <time>2015-04-05T11:37:20Z</time>
      </trkpt>
      <trkpt lat="44.53183" lon="5.77141">
        <ele>772.3</ele>
        <time>2015-04-05T11:37:22Z</time>
      </trkpt>
      <trkpt lat="44.5319" lon="5.7715">
        <ele>772.2</ele>
        <time>2015-04-05T11:37:24Z</time>
      </trkpt>
      <trkpt lat="44.53197" lon="5.77159">
        <ele>772.1</ele>
        <time>2015-04-05T11:37:26Z</time>
      </trkpt>
      <trkpt lat="44.53203" lon="5.77168">
        <ele>772</ele>
        <time>2015-04-05T11:37:28Z</time>
      </trkpt>
      <trkpt lat="44.5321" lon="5.77177">
        <ele>772.1</ele>
        <time>2015-04-05T11:37:30Z</time>
      </trkpt>
      <trkpt lat="44.53216" lon="5.77186">
        <ele>772.2</ele>
        <time>2015-04-05T11:37:32Z</time>
      </trkpt>
      <trkpt lat="44.53226" lon="5.77199">
        <ele>772.4</ele>
        <time>2015-04-05T11:37:35Z</time>
      </trkpt>
      <trkpt lat="44.53233" lon="5.77209">
        <ele>772.5</ele>
        <time>2015-04-05T11:37:37Z</time>
      </trkpt>
      <trkpt lat="44.5324" lon="5.77218">
        <ele>772.6</ele>
        <time>2015-04-05T11:37:39Z</time>
      </trkpt>
      <trkpt lat="44.53247" lon="5.77227">
        <ele>772.7</ele>
        <time>2015-04-05T11:37:41Z</time>
      </trkpt>
      <trkpt lat="44.53254" lon="5.77237">
        <ele>772.9</ele>
        <time>2015-04-05T11:37:43Z</time>
      </trkpt>
      <trkpt lat="44.53263" lon="5.77249">
        <ele>773.1</ele>
        <time>2015-04-05T11:37:46Z</time>
      </trkpt>
      <trkpt lat="44.5327" lon="5.77258">
        <ele>773.4</ele>
        <time>2015-04-05T11:37:48Z</time>
      </trkpt>
      <trkpt lat="44.53277" lon="5.77266">
        <ele>773.6</ele>
        <time>2015-04-05T11:37:50Z</time>
      </trkpt>
      <trkpt lat="44.53283" lon="5.77276">
        <ele>773.9</ele>
        <time>2015-04-05T11:37:52Z</time>
      </trkpt>
      <trkpt lat="44.5329" lon="5.77285">
        <ele>774.1</ele>
        <time>2015-04-05T11:37:54Z</time>
      </trkpt>
      <trkpt lat="44.53297" lon="5.77294">
        <ele>774.3</ele>
        <time>2015-04-05T11:37:56Z</time>
      </trkpt>
      <trkpt lat="44.53304" lon="5.77303">
        <ele>774.5</ele>
        <time>2015-04-05T11:37:58Z</time>
      </trkpt>
      <trkpt lat="44.53311" lon="5.77312">
        <ele>774.7</ele>
        <time>2015-04-05T11:38:00Z</time>
      </trkpt>
      <trkpt lat="44.53318" lon="5.77322">
        <ele>774.8</ele>
        <time>2015-04-05T11:38:02Z</time>
      </trkpt>
      <trkpt lat="44.53325" lon="5.77331">
        <ele>775</ele>
        <time>2015-04-05T11:38:04Z</time>
      </trkpt>
      <trkpt lat="44.53335" lon="5.77344">
        <ele>775.1</ele>
        <time>2015-04-05T11:38:07Z</time>
      </trkpt>
      <trkpt lat="44.53344" lon="5.77356">
        <ele>775.3</ele>
        <time>2015-04-05T11:38:10Z</time>
      </trkpt>
      <trkpt lat="44.53354" lon="5.77369">
        <ele>775.5</ele>
        <time>2015-04-05T11:38:13Z</time>
      </trkpt>
      <trkpt lat="44.53364" lon="5.77382">
        <ele>775.5</ele>
        <time>2015-04-05T11:38:16Z</time>
      </trkpt>
      <trkpt lat="44.5337" lon="5.77391">
        <ele>775.5</ele>
        <time>2015-04-05T11:38:18Z</time>
      </trkpt>
      <trkpt lat="44.5338" lon="5.77404">
        <ele>775.5</ele>
        <time>2015-04-05T11:38:21Z</time>
      </trkpt>
      <trkpt lat="44.5339" lon="5.77417">
        <ele>775.3</ele>
        <time>2015-04-05T11:38:24Z</time>
      </trkpt>
      <trkpt lat="44.53396" lon="5.77426">
        <ele>775.3</ele>
        <time>2015-04-05T11:38:26Z</time>
      </trkpt>
      <trkpt lat="44.53403" lon="5.77435">
        <ele>775.3</ele>
        <time>2015-04-05T11:38:28Z</time>
      </trkpt>
      <trkpt lat="44.5341" lon="5.77444">
        <ele>775.4</ele>
        <time>2015-04-05T11:38:30Z</time>
      </trkpt>
      <trkpt lat="44.53417" lon="5.77453">
        <ele>775.4</ele>
        <time>2015-04-05T11:38:32Z</time>
      </trkpt>
      <trkpt lat="44.53424" lon="5.77462">
        <ele>775.6</ele>
        <time>2015-04-05T11:38:34Z</time>
      </trkpt>
      <trkpt lat="44.53431" lon="5.77471">
        <ele>775.8</ele>
        <time>2015-04-05T11:38:36Z</time>
      </trkpt>
      <trkpt lat="44.5344" lon="5.77485">
        <ele>776</ele>
        <time>2015-04-05T11:38:39Z</time>
      </trkpt>
      <trkpt lat="44.53445" lon="5.77495">
        <ele>776.3</ele>
        <time>2015-04-05T11:38:41Z</time>
      </trkpt>
      <trkpt lat="44.53454" lon="5.77508">
        <ele>776.6</ele>
        <time>2015-04-05T11:38:44Z</time>
      </trkpt>
      <trkpt lat="44.53464" lon="5.77518">
        <ele>776.9</ele>
        <time>2015-04-05T11:38:47Z</time>
      </trkpt>
      <trkpt lat="44.53474" lon="5.77525">
        <ele>777.1</ele>
        <time>2015-04-05T11:38:50Z</time>
      </trkpt>
      <trkpt lat="44.53485" lon="5.77532">
        <ele>777.3</ele>
        <time>2015-04-05T11:38:53Z</time>
      </trkpt>
      <trkpt lat="44.53497" lon="5.7754">
        <ele>777.5</ele>
        <time>2015-04-05T11:38:56Z</time>
      </trkpt>
      <trkpt lat="44.53507" lon="5.77546">
        <ele>777.6</ele>
        <time>2015-04-05T11:38:59Z</time>
      </trkpt>
      <trkpt lat="44.53518" lon="5.77551">
        <ele>777.7</ele>
        <time>2015-04-05T11:39:02Z</time>
      </trkpt>
      <trkpt lat="44.53529" lon="5.77557">
        <ele>777.8</ele>
        <time>2015-04-05T11:39:05Z</time>
      </trkpt>
      <trkpt lat="44.53541" lon="5.77562">
        <ele>777.9</ele>
        <time>2015-04-05T11:39:08Z</time>
      </trkpt>
      <trkpt lat="44.53551" lon="5.77567">
        <ele>777.9</ele>
        <time>2015-04-05T11:39:11Z</time>
      </trkpt>
      <trkpt lat="44.53562" lon="5.77573">
        <ele>778</ele>
        <time>2015-04-05T11:39:14Z</time>
      </trkpt>
      <trkpt lat="44.53573" lon="5.77578">
        <ele>778</ele>
        <time>2015-04-05T11:39:17Z</time>
      </trkpt>
      <trkpt lat="44.53583" lon="5.77583">
        <ele>778</ele>
        <time>2015-04-05T11:39:20Z</time>
      </trkpt>
      <trkpt lat="44.53594" lon="5.77588">
        <ele>778.1</ele>
        <time>2015-04-05T11:39:23Z</time>
      </trkpt>
      <trkpt lat="44.53605" lon="5.77593">
        <ele>778.2</ele>
        <time>2015-04-05T11:39:26Z</time>
      </trkpt>
      <trkpt lat="44.53619" lon="5.77598">
        <ele>778.3</ele>
        <time>2015-04-05T11:39:29Z</time>
      </trkpt>
      <trkpt lat="44.53629" lon="5.77604">
        <ele>778.4</ele>
        <time>2015-04-05T11:39:31Z</time>
      </trkpt>
      <trkpt lat="44.53639" lon="5.7761">
        <ele>778.6</ele>
        <time>2015-04-05T11:39:33Z</time>
      </trkpt>
      <trkpt lat="44.53648" lon="5.77614">
        <ele>778.7</ele>
        <time>2015-04-05T11:39:35Z</time>
      </trkpt>
      <trkpt lat="44.53657" lon="5.77619">
        <ele>778.8</ele>
        <time>2015-04-05T11:39:37Z</time>
      </trkpt>
      <trkpt lat="44.53666" lon="5.77623">
        <ele>779</ele>
        <time>2015-04-05T11:39:39Z</time>
      </trkpt>
      <trkpt lat="44.53674" lon="5.77627">
        <ele>779.2</ele>
        <time>2015-04-05T11:39:41Z</time>
      </trkpt>
      <trkpt lat="44.53687" lon="5.77633">
        <ele>779.5</ele>
        <time>2015-04-05T11:39:44Z</time>
      </trkpt>
      <trkpt lat="44.53696" lon="5.77637">
        <ele>779.8</ele>
        <time>2015-04-05T11:39:46Z</time>
      </trkpt>
      <trkpt lat="44.53705" lon="5.77641">
        <ele>780.1</ele>
        <time>2015-04-05T11:39:48Z</time>
      </trkpt>
      <trkpt lat="44.53717" lon="5.77647">
        <ele>780.5</ele>
        <time>2015-04-05T11:39:51Z</time>
      </trkpt>
      <trkpt lat="44.53729" lon="5.77653">
        <ele>781</ele>
        <time>2015-04-05T11:39:54Z</time>
      </trkpt>
      <trkpt lat="44.53742" lon="5.77659">
        <ele>781.6</ele>
        <time>2015-04-05T11:39:57Z</time>
      </trkpt>
      <trkpt lat="44.53752" lon="5.77664">
        <ele>781.9</ele>
        <time>2015-04-05T11:39:59Z</time>
      </trkpt>
      <trkpt lat="44.53761" lon="5.77668">
        <ele>782</ele>
        <time>2015-04-05T11:40:01Z</time>
      </trkpt>
      <trkpt lat="44.5377" lon="5.77673">
        <ele>782.1</ele>
        <time>2015-04-05T11:40:03Z</time>
      </trkpt>
      <trkpt lat="44.5378" lon="5.77677">
        <ele>782.2</ele>
        <time>2015-04-05T11:40:05Z</time>
      </trkpt>
      <trkpt lat="44.5379" lon="5.77682">
        <ele>782.3</ele>
        <time>2015-04-05T11:40:07Z</time>
      </trkpt>
      <trkpt lat="44.538" lon="5.77687">
        <ele>782.4</ele>
        <time>2015-04-05T11:40:09Z</time>
      </trkpt>
      <trkpt lat="44.5381" lon="5.77692">
        <ele>782.5</ele>
        <time>2015-04-05T11:40:11Z</time>
      </trkpt>
      <trkpt lat="44.53821" lon="5.77697">
        <ele>782.7</ele>
        <time>2015-04-05T11:40:13Z</time>
      </trkpt>
      <trkpt lat="44.53831" lon="5.77701">
        <ele>782.8</ele>
        <time>2015-04-05T11:40:15Z</time>
      </trkpt>
      <trkpt lat="44.5384" lon="5.77706">
        <ele>783</ele>
        <time>2015-04-05T11:40:17Z</time>
      </trkpt>
      <trkpt lat="44.5385" lon="5.77711">
        <ele>783.1</ele>
        <time>2015-04-05T11:40:19Z</time>
      </trkpt>
      <trkpt lat="44.5386" lon="5.77716">
        <ele>783.3</ele>
        <time>2015-04-05T11:40:21Z</time>
      </trkpt>
      <trkpt lat="44.53871" lon="5.77721">
        <ele>783.4</ele>
        <time>2015-04-05T11:40:23Z</time>
      </trkpt>
      <trkpt lat="44.53882" lon="5.77726">
        <ele>783.6</ele>
        <time>2015-04-05T11:40:25Z</time>
      </trkpt>
      <trkpt lat="44.53892" lon="5.77731">
        <ele>783.7</ele>
        <time>2015-04-05T11:40:27Z</time>
      </trkpt>
      <trkpt lat="44.53901" lon="5.77735">
        <ele>783.8</ele>
        <time>2015-04-05T11:40:29Z</time>
      </trkpt>
      <trkpt lat="44.5391" lon="5.77739">
        <ele>783.9</ele>
        <time>2015-04-05T11:40:31Z</time>
      </trkpt>
      <trkpt lat="44.53919" lon="5.77743">
        <ele>783.9</ele>
        <time>2015-04-05T11:40:33Z</time>
      </trkpt>
      <trkpt lat="44.53932" lon="5.77749">
        <ele>784.2</ele>
        <time>2015-04-05T11:40:36Z</time>
      </trkpt>
      <trkpt lat="44.53944" lon="5.77755">
        <ele>784.3</ele>
        <time>2015-04-05T11:40:39Z</time>
      </trkpt>
      <trkpt lat="44.53955" lon="5.7776">
        <ele>784.4</ele>
        <time>2015-04-05T11:40:42Z</time>
      </trkpt>
      <trkpt lat="44.53967" lon="5.77765">
        <ele>784.5</ele>
        <time>2015-04-05T11:40:45Z</time>
      </trkpt>
      <trkpt lat="44.53979" lon="5.77771">
        <ele>784.6</ele>
        <time>2015-04-05T11:40:48Z</time>
      </trkpt>
      <trkpt lat="44.53992" lon="5.77776">
        <ele>784.6</ele>
        <time>2015-04-05T11:40:51Z</time>
      </trkpt>
      <trkpt lat="44.54004" lon="5.77781">
        <ele>784.7</ele>
        <time>2015-04-05T11:40:54Z</time>
      </trkpt>
      <trkpt lat="44.54013" lon="5.77786">
        <ele>784.7</ele>
        <time>2015-04-05T11:40:57Z</time>
      </trkpt>
      <trkpt lat="44.54023" lon="5.77789">
        <ele>784.7</ele>
        <time>2015-04-05T11:41:00Z</time>
      </trkpt>
      <trkpt lat="44.54033" lon="5.77793">
        <ele>784.7</ele>
        <time>2015-04-05T11:41:03Z</time>
      </trkpt>
      <trkpt lat="44.54042" lon="5.77797">
        <ele>784.7</ele>
        <time>2015-04-05T11:41:06Z</time>
      </trkpt>
      <trkpt lat="44.54051" lon="5.77801">
        <ele>784.6</ele>
        <time>2015-04-05T11:41:09Z</time>
      </trkpt>
      <trkpt lat="44.5406" lon="5.77803">
        <ele>784.6</ele>
        <time>2015-04-05T11:41:12Z</time>
      </trkpt>
      <trkpt lat="44.5407" lon="5.77809">
        <ele>784.5</ele>
        <time>2015-04-05T11:41:16Z</time>
      </trkpt>
      <trkpt lat="44.5408" lon="5.77808">
        <ele>784.6</ele>
        <time>2015-04-05T11:41:20Z</time>
      </trkpt>
      <trkpt lat="44.54089" lon="5.7781">
        <ele>784.8</ele>
        <time>2015-04-05T11:42:07Z</time>
      </trkpt>
      <trkpt lat="44.54098" lon="5.77819">
        <ele>784.9</ele>
        <time>2015-04-05T11:42:24Z</time>
      </trkpt>
      <trkpt lat="44.54108" lon="5.77821">
        <ele>785.2</ele>
        <time>2015-04-05T11:42:27Z</time>
      </trkpt>
      <trkpt lat="44.54121" lon="5.77822">
        <ele>785.6</ele>
        <time>2015-04-05T11:42:30Z</time>
      </trkpt>
      <trkpt lat="44.54131" lon="5.77822">
        <ele>786</ele>
        <time>2015-04-05T11:42:32Z</time>
      </trkpt>
      <trkpt lat="44.5414" lon="5.77821">
        <ele>786.4</ele>
        <time>2015-04-05T11:42:34Z</time>
      </trkpt>
      <trkpt lat="44.5415" lon="5.77821">
        <ele>786.7</ele>
        <time>2015-04-05T11:42:36Z</time>
      </trkpt>
      <trkpt lat="44.54163" lon="5.77821">
        <ele>787.2</ele>
        <time>2015-04-05T11:42:39Z</time>
      </trkpt>
      <trkpt lat="44.54176" lon="5.7782">
        <ele>787.4</ele>
        <time>2015-04-05T11:42:42Z</time>
      </trkpt>
      <trkpt lat="44.54185" lon="5.77818">
        <ele>787.5</ele>
        <time>2015-04-05T11:42:44Z</time>
      </trkpt>
      <trkpt lat="44.54194" lon="5.77816">
        <ele>787.7</ele>
        <time>2015-04-05T11:42:46Z</time>
      </trkpt>
      <trkpt lat="44.54204" lon="5.77813">
        <ele>787.9</ele>
        <time>2015-04-05T11:42:48Z</time>
      </trkpt>
      <trkpt lat="44.54214" lon="5.77811">
        <ele>788.2</ele>
        <time>2015-04-05T11:42:50Z</time>
      </trkpt>
      <trkpt lat="44.54223" lon="5.77807">
        <ele>788.5</ele>
        <time>2015-04-05T11:42:52Z</time>
      </trkpt>
      <trkpt lat="44.54232" lon="5.77804">
        <ele>788.9</ele>
        <time>2015-04-05T11:42:54Z</time>
      </trkpt>
      <trkpt lat="44.54241" lon="5.77801">
        <ele>789.2</ele>
        <time>2015-04-05T11:42:56Z</time>
      </trkpt>
      <trkpt lat="44.5425" lon="5.77798">
        <ele>789.6</ele>
        <time>2015-04-05T11:42:58Z</time>
      </trkpt>
      <trkpt lat="44.54259" lon="5.77794">
        <ele>790</ele>
        <time>2015-04-05T11:43:00Z</time>
      </trkpt>
      <trkpt lat="44.54271" lon="5.77787">
        <ele>791</ele>
        <time>2015-04-05T11:43:03Z</time>
      </trkpt>
      <trkpt lat="44.54278" lon="5.77772">
        <ele>792.5</ele>
        <time>2015-04-05T11:43:06Z</time>
      </trkpt>
      <trkpt lat="44.54284" lon="5.77756">
        <ele>794.2</ele>
        <time>2015-04-05T11:43:09Z</time>
      </trkpt>
      <trkpt lat="44.54291" lon="5.77742">
        <ele>797.9</ele>
        <time>2015-04-05T11:43:12Z</time>
      </trkpt>
      <trkpt lat="44.54296" lon="5.77731">
        <ele>802.2</ele>
        <time>2015-04-05T11:43:16Z</time>
      </trkpt>
      <trkpt lat="44.54298" lon="5.77718">
        <ele>807.1</ele>
        <time>2015-04-05T11:43:21Z</time>
      </trkpt>
      <trkpt lat="44.54292" lon="5.77705">
        <ele>810.9</ele>
        <time>2015-04-05T11:43:26Z</time>
      </trkpt>
      <trkpt lat="44.54284" lon="5.77695">
        <ele>813.2</ele>
        <time>2015-04-05T11:43:31Z</time>
      </trkpt>
      <trkpt lat="44.54276" lon="5.77687">
        <ele>814.6</ele>
        <time>2015-04-05T11:43:36Z</time>
      </trkpt>
      <trkpt lat="44.54284" lon="5.77681">
        <ele>818</ele>
        <time>2015-04-05T11:43:50Z</time>
      </trkpt>
      <trkpt lat="44.54294" lon="5.77684">
        <ele>818.6</ele>
        <time>2015-04-05T11:43:57Z</time>
      </trkpt>
      <trkpt lat="44.54304" lon="5.77684">
        <ele>820.1</ele>
        <time>2015-04-05T11:44:04Z</time>
      </trkpt>
      <trkpt lat="44.54314" lon="5.77686">
        <ele>820.8</ele>
        <time>2015-04-05T11:44:11Z</time>
      </trkpt>
      <trkpt lat="44.54322" lon="5.77689">
        <ele>821.1</ele>
        <time>2015-04-05T11:44:18Z</time>
      </trkpt>
      <trkpt lat="44.54332" lon="5.77693">
        <ele>820.9</ele>
        <time>2015-04-05T11:44:24Z</time>
      </trkpt>
      <trkpt lat="44.54341" lon="5.77696">
        <ele>820.8</ele>
        <time>2015-04-05T11:44:31Z</time>
      </trkpt>
      <trkpt lat="44.54351" lon="5.777">
        <ele>820.1</ele>
        <time>2015-04-05T11:44:37Z</time>
      </trkpt>
      <trkpt lat="44.5436" lon="5.77706">
        <ele>818.9</ele>
        <time>2015-04-05T11:44:41Z</time>
      </trkpt>
      <trkpt lat="44.5437" lon="5.77715">
        <ele>816.2</ele>
        <time>2015-04-05T11:44:45Z</time>
      </trkpt>
      <trkpt lat="44.54379" lon="5.77719">
        <ele>815.4</ele>
        <time>2015-04-05T11:44:48Z</time>
      </trkpt>
      <trkpt lat="44.5439" lon="5.77723">
        <ele>814.6</ele>
        <time>2015-04-05T11:44:52Z</time>
      </trkpt>
      <trkpt lat="44.544" lon="5.77729">
        <ele>812.9</ele>
        <time>2015-04-05T11:44:57Z</time>
      </trkpt>
      <trkpt lat="44.5441" lon="5.77734">
        <ele>811.9</ele>
        <time>2015-04-05T11:45:01Z</time>
      </trkpt>
      <trkpt lat="44.5442" lon="5.77736">
        <ele>812.3</ele>
        <time>2015-04-05T11:45:06Z</time>
      </trkpt>
      <trkpt lat="44.5443" lon="5.77737">
        <ele>813.8</ele>
        <time>2015-04-05T11:45:10Z</time>
      </trkpt>
      <trkpt lat="44.5444" lon="5.7774">
        <ele>813.9</ele>
        <time>2015-04-05T11:45:20Z</time>
      </trkpt>
      <trkpt lat="44.5445" lon="5.77741">
        <ele>815.3</ele>
        <time>2015-04-05T11:45:27Z</time>
      </trkpt>
      <trkpt lat="44.5446" lon="5.77742">
        <ele>816.7</ele>
        <time>2015-04-05T11:45:36Z</time>
      </trkpt>
      <trkpt lat="44.54469" lon="5.77742">
        <ele>818.4</ele>
        <time>2015-04-05T11:45:42Z</time>
      </trkpt>
      <trkpt lat="44.54479" lon="5.77743">
        <ele>819.7</ele>
        <time>2015-04-05T11:45:49Z</time>
      </trkpt>
      <trkpt lat="44.54488" lon="5.77743">
        <ele>821.2</ele>
        <time>2015-04-05T11:46:00Z</time>
      </trkpt>
      <trkpt lat="44.54498" lon="5.77746">
        <ele>821.9</ele>
        <time>2015-04-05T11:46:11Z</time>
      </trkpt>
      <trkpt lat="44.54508" lon="5.77746">
        <ele>822.7</ele>
        <time>2015-04-05T11:46:21Z</time>
      </trkpt>
      <trkpt lat="44.54518" lon="5.77751">
        <ele>821.5</ele>
        <time>2015-04-05T11:46:26Z</time>
      </trkpt>
      <trkpt lat="44.54527" lon="5.77756">
        <ele>821</ele>
        <time>2015-04-05T11:46:34Z</time>
      </trkpt>
      <trkpt lat="44.54535" lon="5.77762">
        <ele>819.7</ele>
        <time>2015-04-05T11:46:45Z</time>
      </trkpt>
      <trkpt lat="44.54545" lon="5.77764">
        <ele>820</ele>
        <time>2015-04-05T11:46:58Z</time>
      </trkpt>
      <trkpt lat="44.54554" lon="5.77767">
        <ele>819.6</ele>
        <time>2015-04-05T11:47:25Z</time>
      </trkpt>
      <trkpt lat="44.54545" lon="5.77769">
        <ele>818.2</ele>
        <time>2015-04-05T11:48:39Z</time>
      </trkpt>
      <trkpt lat="44.54539" lon="5.77759">
        <ele>821.2</ele>
        <time>2015-04-05T11:49:01Z</time>
      </trkpt>
      <trkpt lat="44.5453" lon="5.77754">
        <ele>821.8</ele>
        <time>2015-04-05T11:49:10Z</time>
      </trkpt>
      <trkpt lat="44.54522" lon="5.77746">
        <ele>824.1</ele>
        <time>2015-04-05T11:49:20Z</time>
      </trkpt>
      <trkpt lat="44.54513" lon="5.77744">
        <ele>824.1</ele>
        <time>2015-04-05T11:49:27Z</time>
      </trkpt>
      <trkpt lat="44.54504" lon="5.7774">
        <ele>825.1</ele>
        <time>2015-04-05T11:49:34Z</time>
      </trkpt>
      <trkpt lat="44.54494" lon="5.77737">
        <ele>825</ele>
        <time>2015-04-05T11:49:40Z</time>
      </trkpt>
      <trkpt lat="44.54484" lon="5.77738">
        <ele>822.9</ele>
        <time>2015-04-05T11:49:46Z</time>
      </trkpt>
      <trkpt lat="44.54474" lon="5.77737">
        <ele>821.5</ele>
        <time>2015-04-05T11:49:52Z</time>
      </trkpt>
      <trkpt lat="44.54464" lon="5.77737">
        <ele>819.7</ele>
        <time>2015-04-05T11:49:58Z</time>
      </trkpt>
      <trkpt lat="44.54453" lon="5.77737">
        <ele>818</ele>
        <time>2015-04-05T11:50:07Z</time>
      </trkpt>
      <trkpt lat="44.54443" lon="5.77735">
        <ele>817</ele>
        <time>2015-04-05T11:50:13Z</time>
      </trkpt>
      <trkpt lat="44.54433" lon="5.77732">
        <ele>816.3</ele>
        <time>2015-04-05T11:50:20Z</time>
      </trkpt>
      <trkpt lat="44.54423" lon="5.77727">
        <ele>817</ele>
        <time>2015-04-05T11:50:25Z</time>
      </trkpt>
      <trkpt lat="44.54414" lon="5.77721">
        <ele>818.2</ele>
        <time>2015-04-05T11:50:30Z</time>
      </trkpt>
      <trkpt lat="44.54415" lon="5.77733">
        <ele>812.6</ele>
        <time>2015-04-05T11:50:41Z</time>
      </trkpt>
      <trkpt lat="44.54425" lon="5.77742">
        <ele>810.4</ele>
        <time>2015-04-05T11:50:46Z</time>
      </trkpt>
      <trkpt lat="44.54434" lon="5.77748">
        <ele>809.2</ele>
        <time>2015-04-05T11:50:49Z</time>
      </trkpt>
      <trkpt lat="44.54444" lon="5.77752">
        <ele>809.5</ele>
        <time>2015-04-05T11:50:52Z</time>
      </trkpt>
      <trkpt lat="44.54455" lon="5.77755">
        <ele>811</ele>
        <time>2015-04-05T11:50:56Z</time>
      </trkpt>
      <trkpt lat="44.54464" lon="5.77757">
        <ele>812</ele>
        <time>2015-04-05T11:51:01Z</time>
      </trkpt>
      <trkpt lat="44.54474" lon="5.77759">
        <ele>813</ele>
        <time>2015-04-05T11:51:09Z</time>
      </trkpt>
      <trkpt lat="44.54483" lon="5.77762">
        <ele>813.8</ele>
        <time>2015-04-05T11:51:15Z</time>
      </trkpt>
      <trkpt lat="44.54493" lon="5.77763">
        <ele>815.2</ele>
        <time>2015-04-05T11:51:21Z</time>
      </trkpt>
      <trkpt lat="44.54504" lon="5.77766">
        <ele>815.9</ele>
        <time>2015-04-05T11:51:25Z</time>
      </trkpt>
      <trkpt lat="44.54514" lon="5.77768">
        <ele>816.2</ele>
        <time>2015-04-05T11:51:29Z</time>
      </trkpt>
      <trkpt lat="44.54524" lon="5.77769">
        <ele>816.7</ele>
        <time>2015-04-05T11:51:34Z</time>
      </trkpt>
      <trkpt lat="44.54533" lon="5.77775">
        <ele>815.3</ele>
        <time>2015-04-05T11:51:37Z</time>
      </trkpt>
      <trkpt lat="44.54543" lon="5.77782">
        <ele>813.9</ele>
        <time>2015-04-05T11:51:40Z</time>
      </trkpt>
      <trkpt lat="44.54552" lon="5.77787">
        <ele>812.7</ele>
        <time>2015-04-05T11:51:46Z</time>
      </trkpt>
      <trkpt lat="44.5456" lon="5.77794">
        <ele>811.1</ele>
        <time>2015-04-05T11:51:51Z</time>
      </trkpt>
      <trkpt lat="44.54569" lon="5.77802">
        <ele>808.7</ele>
        <time>2015-04-05T11:51:57Z</time>
      </trkpt>
      <trkpt lat="44.54578" lon="5.77802">
        <ele>809.2</ele>
        <time>2015-04-05T11:52:02Z</time>
      </trkpt>
      <trkpt lat="44.54587" lon="5.77808">
        <ele>807.1</ele>
        <time>2015-04-05T11:52:06Z</time>
      </trkpt>
      <trkpt lat="44.54594" lon="5.77815">
        <ele>804.6</ele>
        <time>2015-04-05T11:52:27Z</time>
      </trkpt>
      <trkpt lat="44.54605" lon="5.77817">
        <ele>803.5</ele>
        <time>2015-04-05T11:53:57Z</time>
      </trkpt>
      <trkpt lat="44.54615" lon="5.7782">
        <ele>802.2</ele>
        <time>2015-04-05T11:54:02Z</time>
      </trkpt>
      <trkpt lat="44.54626" lon="5.77821">
        <ele>801.7</ele>
        <time>2015-04-05T11:54:06Z</time>
      </trkpt>
      <trkpt lat="44.54635" lon="5.77821">
        <ele>801.5</ele>
        <time>2015-04-05T11:54:09Z</time>
      </trkpt>
      <trkpt lat="44.54645" lon="5.7782">
        <ele>801.7</ele>
        <time>2015-04-05T11:54:12Z</time>
      </trkpt>
      <trkpt lat="44.54655" lon="5.77819">
        <ele>801.9</ele>
        <time>2015-04-05T11:54:15Z</time>
      </trkpt>
      <trkpt lat="44.54664" lon="5.77818">
        <ele>802.1</ele>
        <time>2015-04-05T11:54:18Z</time>
      </trkpt>
      <trkpt lat="44.54673" lon="5.77817">
        <ele>802</ele>
        <time>2015-04-05T11:54:21Z</time>
      </trkpt>
      <trkpt lat="44.54685" lon="5.77816">
        <ele>802</ele>
        <time>2015-04-05T11:54:25Z</time>
      </trkpt>
      <trkpt lat="44.54697" lon="5.77816">
        <ele>802</ele>
        <time>2015-04-05T11:54:29Z</time>
      </trkpt>
      <trkpt lat="44.54708" lon="5.77813">
        <ele>802.3</ele>
        <time>2015-04-05T11:54:33Z</time>
      </trkpt>
      <trkpt lat="44.54719" lon="5.77812">
        <ele>802.4</ele>
        <time>2015-04-05T11:54:37Z</time>
      </trkpt>
      <trkpt lat="44.5473" lon="5.7781">
        <ele>802.7</ele>
        <time>2015-04-05T11:54:41Z</time>
      </trkpt>
      <trkpt lat="44.54741" lon="5.77806">
        <ele>803.4</ele>
        <time>2015-04-05T11:54:45Z</time>
      </trkpt>
      <trkpt lat="44.54753" lon="5.77804">
        <ele>803.3</ele>
        <time>2015-04-05T11:54:48Z</time>
      </trkpt>
      <trkpt lat="44.54762" lon="5.77804">
        <ele>802.7</ele>
        <time>2015-04-05T11:54:50Z</time>
      </trkpt>
      <trkpt lat="44.54773" lon="5.77802">
        <ele>802.4</ele>
        <time>2015-04-05T11:54:53Z</time>
      </trkpt>
      <trkpt lat="44.54783" lon="5.77798">
        <ele>802.4</ele>
        <time>2015-04-05T11:54:56Z</time>
      </trkpt>
      <trkpt lat="44.54795" lon="5.77796">
        <ele>802.1</ele>
        <time>2015-04-05T11:55:00Z</time>
      </trkpt>
      <trkpt lat="44.54804" lon="5.77793">
        <ele>801.8</ele>
        <time>2015-04-05T11:55:04Z</time>
      </trkpt>
      <trkpt lat="44.54813" lon="5.77791">
        <ele>801.5</ele>
        <time>2015-04-05T11:55:08Z</time>
      </trkpt>
      <trkpt lat="44.54822" lon="5.77786">
        <ele>801.3</ele>
        <time>2015-04-05T11:55:12Z</time>
      </trkpt>
      <trkpt lat="44.54832" lon="5.77782">
        <ele>801</ele>
        <time>2015-04-05T11:55:16Z</time>
      </trkpt>
      <trkpt lat="44.54843" lon="5.77778">
        <ele>801.1</ele>
        <time>2015-04-05T11:55:20Z</time>
      </trkpt>
      <trkpt lat="44.54853" lon="5.77772">
        <ele>801.2</ele>
        <time>2015-04-05T11:55:24Z</time>
      </trkpt>
      <trkpt lat="44.54868" lon="5.77764">
        <ele>800.8</ele>
        <time>2015-04-05T11:55:29Z</time>
      </trkpt>
      <trkpt lat="44.54877" lon="5.77759">
        <ele>800.2</ele>
        <time>2015-04-05T11:55:33Z</time>
      </trkpt>
      <trkpt lat="44.54888" lon="5.77752">
        <ele>799.2</ele>
        <time>2015-04-05T11:55:37Z</time>
      </trkpt>
      <trkpt lat="44.54896" lon="5.77746">
        <ele>799.1</ele>
        <time>2015-04-05T11:55:40Z</time>
      </trkpt>
      <trkpt lat="44.54904" lon="5.77739">
        <ele>799.4</ele>
        <time>2015-04-05T11:55:43Z</time>
      </trkpt>
      <trkpt lat="44.54912" lon="5.77733">
        <ele>799.4</ele>
        <time>2015-04-05T11:55:46Z</time>
      </trkpt>
      <trkpt lat="44.54921" lon="5.77725">
        <ele>800</ele>
        <time>2015-04-05T11:55:49Z</time>
      </trkpt>
      <trkpt lat="44.54929" lon="5.77718">
        <ele>801.1</ele>
        <time>2015-04-05T11:55:52Z</time>
      </trkpt>
      <trkpt lat="44.54937" lon="5.77711">
        <ele>801.9</ele>
        <time>2015-04-05T11:55:55Z</time>
      </trkpt>
      <trkpt lat="44.54946" lon="5.77702">
        <ele>802.6</ele>
        <time>2015-04-05T11:55:59Z</time>
      </trkpt>
      <trkpt lat="44.54954" lon="5.77694">
        <ele>802.8</ele>
        <time>2015-04-05T11:56:02Z</time>
      </trkpt>
      <trkpt lat="44.54962" lon="5.77687">
        <ele>802.7</ele>
        <time>2015-04-05T11:56:05Z</time>
      </trkpt>
      <trkpt lat="44.5497" lon="5.77679">
        <ele>802.3</ele>
        <time>2015-04-05T11:56:08Z</time>
      </trkpt>
      <trkpt lat="44.54978" lon="5.7767">
        <ele>801.6</ele>
        <time>2015-04-05T11:56:11Z</time>
      </trkpt>
      <trkpt lat="44.54986" lon="5.77662">
        <ele>801.5</ele>
        <time>2015-04-05T11:56:14Z</time>
      </trkpt>
      <trkpt lat="44.54994" lon="5.77654">
        <ele>801.5</ele>
        <time>2015-04-05T11:56:17Z</time>
      </trkpt>
      <trkpt lat="44.55002" lon="5.77645">
        <ele>801.8</ele>
        <time>2015-04-05T11:56:20Z</time>
      </trkpt>
      <trkpt lat="44.55011" lon="5.77637">
        <ele>803.4</ele>
        <time>2015-04-05T11:56:23Z</time>
      </trkpt>
      <trkpt lat="44.55019" lon="5.7763">
        <ele>804.6</ele>
        <time>2015-04-05T11:56:26Z</time>
      </trkpt>
      <trkpt lat="44.55027" lon="5.77619">
        <ele>805.7</ele>
        <time>2015-04-05T11:56:30Z</time>
      </trkpt>
      <trkpt lat="44.55036" lon="5.77608">
        <ele>806.4</ele>
        <time>2015-04-05T11:56:34Z</time>
      </trkpt>
      <trkpt lat="44.55045" lon="5.77598">
        <ele>806.6</ele>
        <time>2015-04-05T11:56:38Z</time>
      </trkpt>
      <trkpt lat="44.55054" lon="5.77587">
        <ele>806.4</ele>
        <time>2015-04-05T11:56:42Z</time>
      </trkpt>
      <trkpt lat="44.55061" lon="5.77578">
        <ele>806.5</ele>
        <time>2015-04-05T11:56:45Z</time>
      </trkpt>
      <trkpt lat="44.55067" lon="5.77568">
        <ele>806.5</ele>
        <time>2015-04-05T11:56:48Z</time>
      </trkpt>
      <trkpt lat="44.55075" lon="5.77558">
        <ele>806</ele>
        <time>2015-04-05T11:56:51Z</time>
      </trkpt>
      <trkpt lat="44.55083" lon="5.77549">
        <ele>805.1</ele>
        <time>2015-04-05T11:56:54Z</time>
      </trkpt>
      <trkpt lat="44.55089" lon="5.77539">
        <ele>808.5</ele>
        <time>2015-04-05T11:56:57Z</time>
      </trkpt>
      <trkpt lat="44.55096" lon="5.77526">
        <ele>812.6</ele>
        <time>2015-04-05T11:57:01Z</time>
      </trkpt>
      <trkpt lat="44.55102" lon="5.77514">
        <ele>815.7</ele>
        <time>2015-04-05T11:57:04Z</time>
      </trkpt>
      <trkpt lat="44.55107" lon="5.77503">
        <ele>818.8</ele>
        <time>2015-04-05T11:57:07Z</time>
      </trkpt>
      <trkpt lat="44.55114" lon="5.77491">
        <ele>822.2</ele>
        <time>2015-04-05T11:57:11Z</time>
      </trkpt>
      <trkpt lat="44.55116" lon="5.77479">
        <ele>823</ele>
        <time>2015-04-05T11:57:14Z</time>
      </trkpt>
      <trkpt lat="44.55119" lon="5.77466">
        <ele>824</ele>
        <time>2015-04-05T11:57:20Z</time>
      </trkpt>
      <trkpt lat="44.55123" lon="5.77453">
        <ele>825.1</ele>
        <time>2015-04-05T11:57:27Z</time>
      </trkpt>
      <trkpt lat="44.55125" lon="5.7744">
        <ele>825.4</ele>
        <time>2015-04-05T11:57:37Z</time>
      </trkpt>
      <trkpt lat="44.55127" lon="5.77427">
        <ele>825.4</ele>
        <time>2015-04-05T11:57:46Z</time>
      </trkpt>
      <trkpt lat="44.55129" lon="5.77415">
        <ele>825.2</ele>
        <time>2015-04-05T11:57:55Z</time>
      </trkpt>
      <trkpt lat="44.5513" lon="5.77401">
        <ele>825.2</ele>
        <time>2015-04-05T11:58:05Z</time>
      </trkpt>
      <trkpt lat="44.5513" lon="5.77388">
        <ele>825.1</ele>
        <time>2015-04-05T11:58:15Z</time>
      </trkpt>
      <trkpt lat="44.55132" lon="5.77375">
        <ele>825.1</ele>
        <time>2015-04-05T11:58:23Z</time>
      </trkpt>
      <trkpt lat="44.55134" lon="5.77362">
        <ele>825</ele>
        <time>2015-04-05T11:58:31Z</time>
      </trkpt>
      <trkpt lat="44.55136" lon="5.77349">
        <ele>824.8</ele>
        <time>2015-04-05T11:58:41Z</time>
      </trkpt>
      <trkpt lat="44.55134" lon="5.77336">
        <ele>824.1</ele>
        <time>2015-04-05T11:58:51Z</time>
      </trkpt>
      <trkpt lat="44.55135" lon="5.77322">
        <ele>823.4</ele>
        <time>2015-04-05T11:59:01Z</time>
      </trkpt>
      <trkpt lat="44.55137" lon="5.77309">
        <ele>822.6</ele>
        <time>2015-04-05T11:59:10Z</time>
      </trkpt>
      <trkpt lat="44.5514" lon="5.77297">
        <ele>821.5</ele>
        <time>2015-04-05T11:59:19Z</time>
      </trkpt>
      <trkpt lat="44.55143" lon="5.77283">
        <ele>820.1</ele>
        <time>2015-04-05T11:59:29Z</time>
      </trkpt>
      <trkpt lat="44.55144" lon="5.7727">
        <ele>818.8</ele>
        <time>2015-04-05T11:59:38Z</time>
      </trkpt>
      <trkpt lat="44.55148" lon="5.77258">
        <ele>816.7</ele>
        <time>2015-04-05T11:59:47Z</time>
      </trkpt>
      <trkpt lat="44.55152" lon="5.77245">
        <ele>814.9</ele>
        <time>2015-04-05T11:59:56Z</time>
      </trkpt>
      <trkpt lat="44.55156" lon="5.77233">
        <ele>813.9</ele>
        <time>2015-04-05T12:00:05Z</time>
      </trkpt>
      <trkpt lat="44.55158" lon="5.77221">
        <ele>813.2</ele>
        <time>2015-04-05T12:00:14Z</time>
      </trkpt>
      <trkpt lat="44.55158" lon="5.77206">
        <ele>813.4</ele>
        <time>2015-04-05T12:00:22Z</time>
      </trkpt>
      <trkpt lat="44.55155" lon="5.77193">
        <ele>814.5</ele>
        <time>2015-04-05T12:00:29Z</time>
      </trkpt>
      <trkpt lat="44.55157" lon="5.7718">
        <ele>814</ele>
        <time>2015-04-05T12:00:37Z</time>
      </trkpt>
      <trkpt lat="44.55159" lon="5.77166">
        <ele>812.8</ele>
        <time>2015-04-05T12:00:46Z</time>
      </trkpt>
      <trkpt lat="44.5516" lon="5.77152">
        <ele>813.1</ele>
        <time>2015-04-05T12:00:54Z</time>
      </trkpt>
      <trkpt lat="44.5516" lon="5.77138">
        <ele>813.4</ele>
        <time>2015-04-05T12:01:02Z</time>
      </trkpt>
      <trkpt lat="44.55163" lon="5.77126">
        <ele>812.4</ele>
        <time>2015-04-05T12:01:09Z</time>
      </trkpt>
      <trkpt lat="44.55164" lon="5.77112">
        <ele>812.6</ele>
        <time>2015-04-05T12:01:16Z</time>
      </trkpt>
      <trkpt lat="44.55166" lon="5.77098">
        <ele>812</ele>
        <time>2015-04-05T12:01:24Z</time>
      </trkpt>
      <trkpt lat="44.55168" lon="5.77084">
        <ele>812.2</ele>
        <time>2015-04-05T12:01:31Z</time>
      </trkpt>
      <trkpt lat="44.55167" lon="5.7707">
        <ele>812.6</ele>
        <time>2015-04-05T12:01:37Z</time>
      </trkpt>
      <trkpt lat="44.55167" lon="5.77056">
        <ele>813.2</ele>
        <time>2015-04-05T12:01:43Z</time>
      </trkpt>
      <trkpt lat="44.55167" lon="5.77042">
        <ele>813.7</ele>
        <time>2015-04-05T12:01:49Z</time>
      </trkpt>
      <trkpt lat="44.55167" lon="5.77029">
        <ele>814.1</ele>
        <time>2015-04-05T12:01:55Z</time>
      </trkpt>
      <trkpt lat="44.55168" lon="5.77015">
        <ele>814.7</ele>
        <time>2015-04-05T12:02:02Z</time>
      </trkpt>
      <trkpt lat="44.55167" lon="5.77001">
        <ele>815</ele>
        <time>2015-04-05T12:02:08Z</time>
      </trkpt>
      <trkpt lat="44.55167" lon="5.76987">
        <ele>815.1</ele>
        <time>2015-04-05T12:02:15Z</time>
      </trkpt>
      <trkpt lat="44.55166" lon="5.76972">
        <ele>815.7</ele>
        <time>2015-04-05T12:02:22Z</time>
      </trkpt>
      <trkpt lat="44.55167" lon="5.76959">
        <ele>815.1</ele>
        <time>2015-04-05T12:02:29Z</time>
      </trkpt>
      <trkpt lat="44.55166" lon="5.76945">
        <ele>815.4</ele>
        <time>2015-04-05T12:02:38Z</time>
      </trkpt>
      <trkpt lat="44.55164" lon="5.76932">
        <ele>816.4</ele>
        <time>2015-04-05T12:02:49Z</time>
      </trkpt>
      <trkpt lat="44.55161" lon="5.76921">
        <ele>818.8</ele>
        <time>2015-04-05T12:03:02Z</time>
      </trkpt>
      <trkpt lat="44.55158" lon="5.76907">
        <ele>820.3</ele>
        <time>2015-04-05T12:07:16Z</time>
      </trkpt>
      <trkpt lat="44.55157" lon="5.76893">
        <ele>820.8</ele>
        <time>2015-04-05T12:07:24Z</time>
      </trkpt>
      <trkpt lat="44.55153" lon="5.76882">
        <ele>822.8</ele>
        <time>2015-04-05T12:07:29Z</time>
      </trkpt>
      <trkpt lat="44.55147" lon="5.76868">
        <ele>825.6</ele>
        <time>2015-04-05T12:07:34Z</time>
      </trkpt>
      <trkpt lat="44.55147" lon="5.76853">
        <ele>825.5</ele>
        <time>2015-04-05T12:07:39Z</time>
      </trkpt>
      <trkpt lat="44.55147" lon="5.76839">
        <ele>824.9</ele>
        <time>2015-04-05T12:07:44Z</time>
      </trkpt>
      <trkpt lat="44.55144" lon="5.76827">
        <ele>826.9</ele>
        <time>2015-04-05T12:07:49Z</time>
      </trkpt>
      <trkpt lat="44.55138" lon="5.76814">
        <ele>830</ele>
        <time>2015-04-05T12:07:55Z</time>
      </trkpt>
      <trkpt lat="44.55138" lon="5.768">
        <ele>830.5</ele>
        <time>2015-04-05T12:08:01Z</time>
      </trkpt>
      <trkpt lat="44.55136" lon="5.76786">
        <ele>831.7</ele>
        <time>2015-04-05T12:08:07Z</time>
      </trkpt>
      <trkpt lat="44.5513" lon="5.76774">
        <ele>835.1</ele>
        <time>2015-04-05T12:08:13Z</time>
      </trkpt>
      <trkpt lat="44.55126" lon="5.76761">
        <ele>837.6</ele>
        <time>2015-04-05T12:08:19Z</time>
      </trkpt>
      <trkpt lat="44.55121" lon="5.76748">
        <ele>840.8</ele>
        <time>2015-04-05T12:08:25Z</time>
      </trkpt>
      <trkpt lat="44.55117" lon="5.76735">
        <ele>845.7</ele>
        <time>2015-04-05T12:08:32Z</time>
      </trkpt>
      <trkpt lat="44.55115" lon="5.76723">
        <ele>849.1</ele>
        <time>2015-04-05T12:08:38Z</time>
      </trkpt>
      <trkpt lat="44.55122" lon="5.76713">
        <ele>847.7</ele>
        <time>2015-04-05T12:08:42Z</time>
      </trkpt>
      <trkpt lat="44.55129" lon="5.76702">
        <ele>846.2</ele>
        <time>2015-04-05T12:08:46Z</time>
      </trkpt>
      <trkpt lat="44.55136" lon="5.76692">
        <ele>845</ele>
        <time>2015-04-05T12:08:53Z</time>
      </trkpt>
      <trkpt lat="44.55141" lon="5.7668">
        <ele>844.8</ele>
        <time>2015-04-05T12:08:59Z</time>
      </trkpt>
      <trkpt lat="44.55146" lon="5.76668">
        <ele>844.9</ele>
        <time>2015-04-05T12:09:06Z</time>
      </trkpt>
      <trkpt lat="44.5515" lon="5.76657">
        <ele>845.8</ele>
        <time>2015-04-05T12:09:14Z</time>
      </trkpt>
      <trkpt lat="44.55152" lon="5.76644">
        <ele>848.9</ele>
        <time>2015-04-05T12:09:22Z</time>
      </trkpt>
      <trkpt lat="44.55155" lon="5.76632">
        <ele>851.3</ele>
        <time>2015-04-05T12:09:29Z</time>
      </trkpt>
      <trkpt lat="44.55159" lon="5.76619">
        <ele>853.3</ele>
        <time>2015-04-05T12:09:36Z</time>
      </trkpt>
      <trkpt lat="44.55165" lon="5.76609">
        <ele>853.5</ele>
        <time>2015-04-05T12:09:43Z</time>
      </trkpt>
      <trkpt lat="44.55169" lon="5.76596">
        <ele>856.3</ele>
        <time>2015-04-05T12:09:50Z</time>
      </trkpt>
      <trkpt lat="44.55173" lon="5.76584">
        <ele>858.8</ele>
        <time>2015-04-05T12:09:56Z</time>
      </trkpt>
      <trkpt lat="44.55178" lon="5.76572">
        <ele>861.7</ele>
        <time>2015-04-05T12:10:03Z</time>
      </trkpt>
      <trkpt lat="44.55181" lon="5.7656">
        <ele>865.9</ele>
        <time>2015-04-05T12:10:39Z</time>
      </trkpt>
      <trkpt lat="44.55189" lon="5.76549">
        <ele>868.2</ele>
        <time>2015-04-05T12:10:55Z</time>
      </trkpt>
      <trkpt lat="44.55197" lon="5.76543">
        <ele>868.1</ele>
        <time>2015-04-05T12:11:01Z</time>
      </trkpt>
      <trkpt lat="44.55204" lon="5.76533">
        <ele>870.1</ele>
        <time>2015-04-05T12:11:06Z</time>
      </trkpt>
      <trkpt lat="44.55213" lon="5.76522">
        <ele>872.6</ele>
        <time>2015-04-05T12:11:10Z</time>
      </trkpt>
      <trkpt lat="44.5522" lon="5.76509">
        <ele>876</ele>
        <time>2015-04-05T12:11:14Z</time>
      </trkpt>
      <trkpt lat="44.55228" lon="5.765">
        <ele>877.7</ele>
        <time>2015-04-05T12:11:19Z</time>
      </trkpt>
      <trkpt lat="44.55236" lon="5.76492">
        <ele>878.4</ele>
        <time>2015-04-05T12:11:23Z</time>
      </trkpt>
      <trkpt lat="44.55247" lon="5.76487">
        <ele>876.9</ele>
        <time>2015-04-05T12:11:28Z</time>
      </trkpt>
      <trkpt lat="44.55256" lon="5.7648">
        <ele>877.6</ele>
        <time>2015-04-05T12:11:32Z</time>
      </trkpt>
      <trkpt lat="44.55264" lon="5.7647">
        <ele>880.6</ele>
        <time>2015-04-05T12:11:35Z</time>
      </trkpt>
      <trkpt lat="44.5527" lon="5.76459">
        <ele>884</ele>
        <time>2015-04-05T12:11:38Z</time>
      </trkpt>
      <trkpt lat="44.55277" lon="5.76449">
        <ele>887.6</ele>
        <time>2015-04-05T12:11:41Z</time>
      </trkpt>
      <trkpt lat="44.55286" lon="5.76438">
        <ele>891.2</ele>
        <time>2015-04-05T12:11:45Z</time>
      </trkpt>
      <trkpt lat="44.55295" lon="5.7643">
        <ele>894</ele>
        <time>2015-04-05T12:11:48Z</time>
      </trkpt>
      <trkpt lat="44.55301" lon="5.76421">
        <ele>897.7</ele>
        <time>2015-04-05T12:11:51Z</time>
      </trkpt>
      <trkpt lat="44.5531" lon="5.76412">
        <ele>901.2</ele>
        <time>2015-04-05T12:11:55Z</time>
      </trkpt>
      <trkpt lat="44.5532" lon="5.76414">
        <ele>899.8</ele>
        <time>2015-04-05T12:12:00Z</time>
      </trkpt>
      <trkpt lat="44.5533" lon="5.76417">
        <ele>898.3</ele>
        <time>2015-04-05T12:12:04Z</time>
      </trkpt>
      <trkpt lat="44.5534" lon="5.7642">
        <ele>895.6</ele>
        <time>2015-04-05T12:12:08Z</time>
      </trkpt>
      <trkpt lat="44.5535" lon="5.76425">
        <ele>892.1</ele>
        <time>2015-04-05T12:12:13Z</time>
      </trkpt>
      <trkpt lat="44.55364" lon="5.76428">
        <ele>889.3</ele>
        <time>2015-04-05T12:12:20Z</time>
      </trkpt>
      <trkpt lat="44.55372" lon="5.76423">
        <ele>890.5</ele>
        <time>2015-04-05T12:12:24Z</time>
      </trkpt>
      <trkpt lat="44.55381" lon="5.76418">
        <ele>891.8</ele>
        <time>2015-04-05T12:12:27Z</time>
      </trkpt>
      <trkpt lat="44.5539" lon="5.76411">
        <ele>893.2</ele>
        <time>2015-04-05T12:12:31Z</time>
      </trkpt>
      <trkpt lat="44.55399" lon="5.76404">
        <ele>894.5</ele>
        <time>2015-04-05T12:12:36Z</time>
      </trkpt>
      <trkpt lat="44.55409" lon="5.76398">
        <ele>895.5</ele>
        <time>2015-04-05T12:12:41Z</time>
      </trkpt>
      <trkpt lat="44.55417" lon="5.76391">
        <ele>896.6</ele>
        <time>2015-04-05T12:12:46Z</time>
      </trkpt>
      <trkpt lat="44.55426" lon="5.76386">
        <ele>895.7</ele>
        <time>2015-04-05T12:12:51Z</time>
      </trkpt>
      <trkpt lat="44.55436" lon="5.7638">
        <ele>894.6</ele>
        <time>2015-04-05T12:12:56Z</time>
      </trkpt>
      <trkpt lat="44.55445" lon="5.76375">
        <ele>893.5</ele>
        <time>2015-04-05T12:13:01Z</time>
      </trkpt>
      <trkpt lat="44.55455" lon="5.76371">
        <ele>891.5</ele>
        <time>2015-04-05T12:13:06Z</time>
      </trkpt>
      <trkpt lat="44.55465" lon="5.76367">
        <ele>889.3</ele>
        <time>2015-04-05T12:13:10Z</time>
      </trkpt>
      <trkpt lat="44.55475" lon="5.76363">
        <ele>887.4</ele>
        <time>2015-04-05T12:13:15Z</time>
      </trkpt>
      <trkpt lat="44.55484" lon="5.76358">
        <ele>885.5</ele>
        <time>2015-04-05T12:13:19Z</time>
      </trkpt>
      <trkpt lat="44.55492" lon="5.76351">
        <ele>884.7</ele>
        <time>2015-04-05T12:13:23Z</time>
      </trkpt>
      <trkpt lat="44.55501" lon="5.7634">
        <ele>884.3</ele>
        <time>2015-04-05T12:13:27Z</time>
      </trkpt>
      <trkpt lat="44.55507" lon="5.76328">
        <ele>884.5</ele>
        <time>2015-04-05T12:13:30Z</time>
      </trkpt>
      <trkpt lat="44.55516" lon="5.76318">
        <ele>883.6</ele>
        <time>2015-04-05T12:13:33Z</time>
      </trkpt>
      <trkpt lat="44.55522" lon="5.76308">
        <ele>883.4</ele>
        <time>2015-04-05T12:13:36Z</time>
      </trkpt>
      <trkpt lat="44.55529" lon="5.76295">
        <ele>883.7</ele>
        <time>2015-04-05T12:13:40Z</time>
      </trkpt>
      <trkpt lat="44.55534" lon="5.76284">
        <ele>884.4</ele>
        <time>2015-04-05T12:13:44Z</time>
      </trkpt>
      <trkpt lat="44.55542" lon="5.76275">
        <ele>883.6</ele>
        <time>2015-04-05T12:13:48Z</time>
      </trkpt>
      <trkpt lat="44.5555" lon="5.76264">
        <ele>883.2</ele>
        <time>2015-04-05T12:13:53Z</time>
      </trkpt>
      <trkpt lat="44.55558" lon="5.76252">
        <ele>883</ele>
        <time>2015-04-05T12:13:57Z</time>
      </trkpt>
      <trkpt lat="44.55565" lon="5.76238">
        <ele>882.3</ele>
        <time>2015-04-05T12:14:00Z</time>
      </trkpt>
      <trkpt lat="44.55573" lon="5.76225">
        <ele>881.4</ele>
        <time>2015-04-05T12:14:03Z</time>
      </trkpt>
      <trkpt lat="44.55578" lon="5.76214">
        <ele>881.1</ele>
        <time>2015-04-05T12:14:05Z</time>
      </trkpt>
      <trkpt lat="44.55586" lon="5.76199">
        <ele>881.4</ele>
        <time>2015-04-05T12:14:08Z</time>
      </trkpt>
      <trkpt lat="44.55593" lon="5.76184">
        <ele>883.8</ele>
        <time>2015-04-05T12:14:11Z</time>
      </trkpt>
      <trkpt lat="44.55597" lon="5.76171">
        <ele>885.9</ele>
        <time>2015-04-05T12:14:14Z</time>
      </trkpt>
      <trkpt lat="44.55596" lon="5.76157">
        <ele>888.7</ele>
        <time>2015-04-05T12:14:17Z</time>
      </trkpt>
      <trkpt lat="44.55592" lon="5.76137">
        <ele>892.5</ele>
        <time>2015-04-05T12:14:20Z</time>
      </trkpt>
      <trkpt lat="44.5559" lon="5.76121">
        <ele>895.8</ele>
        <time>2015-04-05T12:14:22Z</time>
      </trkpt>
      <trkpt lat="44.55589" lon="5.76104">
        <ele>899.2</ele>
        <time>2015-04-05T12:14:25Z</time>
      </trkpt>
      <trkpt lat="44.55586" lon="5.76091">
        <ele>901.8</ele>
        <time>2015-04-05T12:14:29Z</time>
      </trkpt>
      <trkpt lat="44.5558" lon="5.7608">
        <ele>904.6</ele>
        <time>2015-04-05T12:14:33Z</time>
      </trkpt>
      <trkpt lat="44.55583" lon="5.76067">
        <ele>908.6</ele>
        <time>2015-04-05T12:14:40Z</time>
      </trkpt>
      <trkpt lat="44.55593" lon="5.76065">
        <ele>909.7</ele>
        <time>2015-04-05T12:14:47Z</time>
      </trkpt>
      <trkpt lat="44.55602" lon="5.7606">
        <ele>911.6</ele>
        <time>2015-04-05T12:14:54Z</time>
      </trkpt>
      <trkpt lat="44.5561" lon="5.76053">
        <ele>913.8</ele>
        <time>2015-04-05T12:15:00Z</time>
      </trkpt>
      <trkpt lat="44.55618" lon="5.76047">
        <ele>915.5</ele>
        <time>2015-04-05T12:15:06Z</time>
      </trkpt>
      <trkpt lat="44.55626" lon="5.76042">
        <ele>916.8</ele>
        <time>2015-04-05T12:15:13Z</time>
      </trkpt>
      <trkpt lat="44.55635" lon="5.76036">
        <ele>918.2</ele>
        <time>2015-04-05T12:15:20Z</time>
      </trkpt>
      <trkpt lat="44.55644" lon="5.76032">
        <ele>919</ele>
        <time>2015-04-05T12:15:27Z</time>
      </trkpt>
      <trkpt lat="44.55652" lon="5.76027">
        <ele>919.7</ele>
        <time>2015-04-05T12:15:35Z</time>
      </trkpt>
      <trkpt lat="44.55662" lon="5.76024">
        <ele>919.9</ele>
        <time>2015-04-05T12:15:45Z</time>
      </trkpt>
      <trkpt lat="44.55671" lon="5.76026">
        <ele>918.9</ele>
        <time>2015-04-05T12:15:53Z</time>
      </trkpt>
      <trkpt lat="44.5568" lon="5.76028">
        <ele>917.3</ele>
        <time>2015-04-05T12:16:01Z</time>
      </trkpt>
      <trkpt lat="44.55689" lon="5.76031">
        <ele>915.7</ele>
        <time>2015-04-05T12:16:08Z</time>
      </trkpt>
      <trkpt lat="44.55698" lon="5.76034">
        <ele>914</ele>
        <time>2015-04-05T12:16:15Z</time>
      </trkpt>
      <trkpt lat="44.55707" lon="5.76036">
        <ele>912.4</ele>
        <time>2015-04-05T12:16:21Z</time>
      </trkpt>
      <trkpt lat="44.55716" lon="5.76032">
        <ele>912</ele>
        <time>2015-04-05T12:16:27Z</time>
      </trkpt>
      <trkpt lat="44.55723" lon="5.76021">
        <ele>913.1</ele>
        <time>2015-04-05T12:16:34Z</time>
      </trkpt>
      <trkpt lat="44.55727" lon="5.76008">
        <ele>914.8</ele>
        <time>2015-04-05T12:16:41Z</time>
      </trkpt>
      <trkpt lat="44.55731" lon="5.75994">
        <ele>916.3</ele>
        <time>2015-04-05T12:16:48Z</time>
      </trkpt>
      <trkpt lat="44.55734" lon="5.75981">
        <ele>917.1</ele>
        <time>2015-04-05T12:16:54Z</time>
      </trkpt>
      <trkpt lat="44.55733" lon="5.75969">
        <ele>918.5</ele>
        <time>2015-04-05T12:18:04Z</time>
      </trkpt>
      <trkpt lat="44.55728" lon="5.75957">
        <ele>920.3</ele>
        <time>2015-04-05T12:20:04Z</time>
      </trkpt>
      <trkpt lat="44.55726" lon="5.75944">
        <ele>921.9</ele>
        <time>2015-04-05T12:20:15Z</time>
      </trkpt>
      <trkpt lat="44.55723" lon="5.75931">
        <ele>923.6</ele>
        <time>2015-04-05T12:20:24Z</time>
      </trkpt>
      <trkpt lat="44.55716" lon="5.75917">
        <ele>925.7</ele>
        <time>2015-04-05T12:20:34Z</time>
      </trkpt>
      <trkpt lat="44.55709" lon="5.75908">
        <ele>927.4</ele>
        <time>2015-04-05T12:20:41Z</time>
      </trkpt>
      <trkpt lat="44.55704" lon="5.75897">
        <ele>929</ele>
        <time>2015-04-05T12:20:47Z</time>
      </trkpt>
      <trkpt lat="44.55699" lon="5.75884">
        <ele>930.8</ele>
        <time>2015-04-05T12:20:54Z</time>
      </trkpt>
      <trkpt lat="44.55697" lon="5.7587">
        <ele>932.5</ele>
        <time>2015-04-05T12:21:01Z</time>
      </trkpt>
      <trkpt lat="44.55694" lon="5.75856">
        <ele>934.1</ele>
        <time>2015-04-05T12:21:09Z</time>
      </trkpt>
      <trkpt lat="44.55693" lon="5.75843">
        <ele>935.5</ele>
        <time>2015-04-05T12:21:15Z</time>
      </trkpt>
      <trkpt lat="44.55694" lon="5.75829">
        <ele>936.8</ele>
        <time>2015-04-05T12:21:22Z</time>
      </trkpt>
      <trkpt lat="44.55697" lon="5.75817">
        <ele>937.5</ele>
        <time>2015-04-05T12:21:31Z</time>
      </trkpt>
      <trkpt lat="44.55699" lon="5.75804">
        <ele>938.3</ele>
        <time>2015-04-05T12:21:41Z</time>
      </trkpt>
      <trkpt lat="44.55701" lon="5.75791">
        <ele>939.2</ele>
        <time>2015-04-05T12:21:50Z</time>
      </trkpt>
      <trkpt lat="44.55704" lon="5.75778">
        <ele>940</ele>
        <time>2015-04-05T12:21:59Z</time>
      </trkpt>
      <trkpt lat="44.55707" lon="5.75764">
        <ele>940.9</ele>
        <time>2015-04-05T12:22:07Z</time>
      </trkpt>
      <trkpt lat="44.55711" lon="5.75752">
        <ele>941.6</ele>
        <time>2015-04-05T12:22:13Z</time>
      </trkpt>
      <trkpt lat="44.55715" lon="5.75739">
        <ele>942.7</ele>
        <time>2015-04-05T12:22:18Z</time>
      </trkpt>
      <trkpt lat="44.5572" lon="5.75726">
        <ele>943.6</ele>
        <time>2015-04-05T12:22:23Z</time>
      </trkpt>
      <trkpt lat="44.55725" lon="5.75715">
        <ele>944.4</ele>
        <time>2015-04-05T12:22:28Z</time>
      </trkpt>
      <trkpt lat="44.55731" lon="5.75702">
        <ele>945.1</ele>
        <time>2015-04-05T12:22:33Z</time>
      </trkpt>
      <trkpt lat="44.55737" lon="5.7569">
        <ele>945.8</ele>
        <time>2015-04-05T12:22:37Z</time>
      </trkpt>
      <trkpt lat="44.55743" lon="5.7568">
        <ele>946.3</ele>
        <time>2015-04-05T12:22:41Z</time>
      </trkpt>
      <trkpt lat="44.5575" lon="5.75668">
        <ele>946.9</ele>
        <time>2015-04-05T12:22:45Z</time>
      </trkpt>
      <trkpt lat="44.55756" lon="5.75654">
        <ele>947.2</ele>
        <time>2015-04-05T12:22:49Z</time>
      </trkpt>
      <trkpt lat="44.55761" lon="5.75641">
        <ele>947.4</ele>
        <time>2015-04-05T12:22:53Z</time>
      </trkpt>
      <trkpt lat="44.55762" lon="5.75625">
        <ele>948.1</ele>
        <time>2015-04-05T12:22:57Z</time>
      </trkpt>
      <trkpt lat="44.55762" lon="5.75612">
        <ele>948.6</ele>
        <time>2015-04-05T12:23:01Z</time>
      </trkpt>
      <trkpt lat="44.55763" lon="5.756">
        <ele>949.2</ele>
        <time>2015-04-05T12:23:05Z</time>
      </trkpt>
      <trkpt lat="44.55763" lon="5.75586">
        <ele>949.8</ele>
        <time>2015-04-05T12:23:09Z</time>
      </trkpt>
      <trkpt lat="44.55764" lon="5.75573">
        <ele>950</ele>
        <time>2015-04-05T12:23:13Z</time>
      </trkpt>
      <trkpt lat="44.55763" lon="5.75558">
        <ele>950.3</ele>
        <time>2015-04-05T12:23:18Z</time>
      </trkpt>
      <trkpt lat="44.5576" lon="5.75543">
        <ele>950.8</ele>
        <time>2015-04-05T12:23:23Z</time>
      </trkpt>
      <trkpt lat="44.55758" lon="5.75528">
        <ele>951.4</ele>
        <time>2015-04-05T12:23:28Z</time>
      </trkpt>
      <trkpt lat="44.55756" lon="5.75514">
        <ele>951.9</ele>
        <time>2015-04-05T12:23:32Z</time>
      </trkpt>
      <trkpt lat="44.55754" lon="5.75501">
        <ele>952.4</ele>
        <time>2015-04-05T12:23:35Z</time>
      </trkpt>
      <trkpt lat="44.55752" lon="5.75488">
        <ele>952.6</ele>
        <time>2015-04-05T12:23:38Z</time>
      </trkpt>
      <trkpt lat="44.5575" lon="5.75475">
        <ele>953</ele>
        <time>2015-04-05T12:23:41Z</time>
      </trkpt>
      <trkpt lat="44.55747" lon="5.7546">
        <ele>953.3</ele>
        <time>2015-04-05T12:23:44Z</time>
      </trkpt>
      <trkpt lat="44.55745" lon="5.75445">
        <ele>953.7</ele>
        <time>2015-04-05T12:23:47Z</time>
      </trkpt>
      <trkpt lat="44.55741" lon="5.7543">
        <ele>954.1</ele>
        <time>2015-04-05T12:23:50Z</time>
      </trkpt>
      <trkpt lat="44.55738" lon="5.75416">
        <ele>954.5</ele>
        <time>2015-04-05T12:23:53Z</time>
      </trkpt>
      <trkpt lat="44.55734" lon="5.75403">
        <ele>954.3</ele>
        <time>2015-04-05T12:23:56Z</time>
      </trkpt>
      <trkpt lat="44.5573" lon="5.75388">
        <ele>954</ele>
        <time>2015-04-05T12:24:00Z</time>
      </trkpt>
      <trkpt lat="44.55725" lon="5.75375">
        <ele>954</ele>
        <time>2015-04-05T12:24:03Z</time>
      </trkpt>
      <trkpt lat="44.55718" lon="5.75361">
        <ele>954.1</ele>
        <time>2015-04-05T12:24:06Z</time>
      </trkpt>
      <trkpt lat="44.55711" lon="5.75345">
        <ele>954.2</ele>
        <time>2015-04-05T12:24:09Z</time>
      </trkpt>
      <trkpt lat="44.55706" lon="5.75333">
        <ele>954.2</ele>
        <time>2015-04-05T12:24:11Z</time>
      </trkpt>
      <trkpt lat="44.55701" lon="5.7532">
        <ele>953.5</ele>
        <time>2015-04-05T12:24:13Z</time>
      </trkpt>
      <trkpt lat="44.55693" lon="5.75308">
        <ele>953</ele>
        <time>2015-04-05T12:24:15Z</time>
      </trkpt>
      <trkpt lat="44.55684" lon="5.75298">
        <ele>953.1</ele>
        <time>2015-04-05T12:24:17Z</time>
      </trkpt>
      <trkpt lat="44.55673" lon="5.75289">
        <ele>953.2</ele>
        <time>2015-04-05T12:24:19Z</time>
      </trkpt>
      <trkpt lat="44.55665" lon="5.75279">
        <ele>952.8</ele>
        <time>2015-04-05T12:24:21Z</time>
      </trkpt>
      <trkpt lat="44.55654" lon="5.75271">
        <ele>952.4</ele>
        <time>2015-04-05T12:24:23Z</time>
      </trkpt>
      <trkpt lat="44.55643" lon="5.75265">
        <ele>952.2</ele>
        <time>2015-04-05T12:24:25Z</time>
      </trkpt>
      <trkpt lat="44.55633" lon="5.75258">
        <ele>951.9</ele>
        <time>2015-04-05T12:24:27Z</time>
      </trkpt>
      <trkpt lat="44.55627" lon="5.75246">
        <ele>951</ele>
        <time>2015-04-05T12:24:30Z</time>
      </trkpt>
      <trkpt lat="44.55624" lon="5.75232">
        <ele>949.8</ele>
        <time>2015-04-05T12:24:34Z</time>
      </trkpt>
      <trkpt lat="44.55623" lon="5.75218">
        <ele>948.5</ele>
        <time>2015-04-05T12:24:38Z</time>
      </trkpt>
      <trkpt lat="44.5562" lon="5.75204">
        <ele>947.3</ele>
        <time>2015-04-05T12:24:44Z</time>
      </trkpt>
      <trkpt lat="44.55614" lon="5.75193">
        <ele>946.6</ele>
        <time>2015-04-05T12:24:50Z</time>
      </trkpt>
      <trkpt lat="44.55607" lon="5.75183">
        <ele>946.1</ele>
        <time>2015-04-05T12:24:56Z</time>
      </trkpt>
      <trkpt lat="44.55598" lon="5.75176">
        <ele>945.9</ele>
        <time>2015-04-05T12:25:02Z</time>
      </trkpt>
      <trkpt lat="44.55589" lon="5.7518">
        <ele>946.9</ele>
        <time>2015-04-05T12:25:10Z</time>
      </trkpt>
      <trkpt lat="44.55579" lon="5.75185">
        <ele>948.7</ele>
        <time>2015-04-05T12:25:20Z</time>
      </trkpt>
      <trkpt lat="44.55571" lon="5.75189">
        <ele>951</ele>
        <time>2015-04-05T12:25:28Z</time>
      </trkpt>
      <trkpt lat="44.55561" lon="5.75196">
        <ele>953.5</ele>
        <time>2015-04-05T12:25:35Z</time>
      </trkpt>
      <trkpt lat="44.55552" lon="5.75201">
        <ele>955.8</ele>
        <time>2015-04-05T12:25:41Z</time>
      </trkpt>
      <trkpt lat="44.55546" lon="5.75212">
        <ele>957.5</ele>
        <time>2015-04-05T12:25:50Z</time>
      </trkpt>
      <trkpt lat="44.55545" lon="5.75226">
        <ele>958.3</ele>
        <time>2015-04-05T12:25:57Z</time>
      </trkpt>
      <trkpt lat="44.55545" lon="5.75241">
        <ele>959.1</ele>
        <time>2015-04-05T12:26:04Z</time>
      </trkpt>
      <trkpt lat="44.55542" lon="5.75254">
        <ele>960.1</ele>
        <time>2015-04-05T12:26:10Z</time>
      </trkpt>
      <trkpt lat="44.55538" lon="5.75267">
        <ele>961.7</ele>
        <time>2015-04-05T12:26:17Z</time>
      </trkpt>
      <trkpt lat="44.55532" lon="5.75278">
        <ele>963.1</ele>
        <time>2015-04-05T12:26:25Z</time>
      </trkpt>
      <trkpt lat="44.55524" lon="5.75287">
        <ele>964.6</ele>
        <time>2015-04-05T12:26:33Z</time>
      </trkpt>
      <trkpt lat="44.55517" lon="5.75295">
        <ele>965.8</ele>
        <time>2015-04-05T12:26:39Z</time>
      </trkpt>
      <trkpt lat="44.55511" lon="5.75304">
        <ele>966.9</ele>
        <time>2015-04-05T12:26:47Z</time>
      </trkpt>
      <trkpt lat="44.55506" lon="5.75316">
        <ele>967.9</ele>
        <time>2015-04-05T12:26:56Z</time>
      </trkpt>
      <trkpt lat="44.55501" lon="5.75328">
        <ele>968.7</ele>
        <time>2015-04-05T12:27:04Z</time>
      </trkpt>
      <trkpt lat="44.55498" lon="5.75342">
        <ele>970.4</ele>
        <time>2015-04-05T12:27:13Z</time>
      </trkpt>
      <trkpt lat="44.55493" lon="5.75353">
        <ele>972.7</ele>
        <time>2015-04-05T12:27:21Z</time>
      </trkpt>
      <trkpt lat="44.55488" lon="5.75364">
        <ele>974.9</ele>
        <time>2015-04-05T12:27:29Z</time>
      </trkpt>
      <trkpt lat="44.55483" lon="5.75375">
        <ele>977.2</ele>
        <time>2015-04-05T12:27:38Z</time>
      </trkpt>
      <trkpt lat="44.55476" lon="5.75386">
        <ele>979.5</ele>
        <time>2015-04-05T12:27:47Z</time>
      </trkpt>
      <trkpt lat="44.55472" lon="5.75397">
        <ele>981.6</ele>
        <time>2015-04-05T12:27:55Z</time>
      </trkpt>
      <trkpt lat="44.55468" lon="5.7541">
        <ele>983.8</ele>
        <time>2015-04-05T12:28:04Z</time>
      </trkpt>
      <trkpt lat="44.55465" lon="5.75423">
        <ele>985.3</ele>
        <time>2015-04-05T12:28:12Z</time>
      </trkpt>
      <trkpt lat="44.55463" lon="5.75436">
        <ele>986.5</ele>
        <time>2015-04-05T12:28:20Z</time>
      </trkpt>
      <trkpt lat="44.55459" lon="5.75449">
        <ele>987.8</ele>
        <time>2015-04-05T12:28:27Z</time>
      </trkpt>
      <trkpt lat="44.55456" lon="5.75461">
        <ele>989</ele>
        <time>2015-04-05T12:28:33Z</time>
      </trkpt>
      <trkpt lat="44.5545" lon="5.75471">
        <ele>990.4</ele>
        <time>2015-04-05T12:28:39Z</time>
      </trkpt>
      <trkpt lat="44.55442" lon="5.75478">
        <ele>992</ele>
        <time>2015-04-05T12:28:46Z</time>
      </trkpt>
      <trkpt lat="44.55432" lon="5.75481">
        <ele>993.6</ele>
        <time>2015-04-05T12:28:53Z</time>
      </trkpt>
      <trkpt lat="44.55422" lon="5.75483">
        <ele>995.2</ele>
        <time>2015-04-05T12:28:59Z</time>
      </trkpt>
      <trkpt lat="44.55412" lon="5.75487">
        <ele>996.3</ele>
        <time>2015-04-05T12:29:05Z</time>
      </trkpt>
      <trkpt lat="44.55406" lon="5.75496">
        <ele>997.1</ele>
        <time>2015-04-05T12:29:17Z</time>
      </trkpt>
      <trkpt lat="44.55414" lon="5.75488">
        <ele>996.4</ele>
        <time>2015-04-05T12:33:07Z</time>
      </trkpt>
      <trkpt lat="44.55425" lon="5.75486">
        <ele>995</ele>
        <time>2015-04-05T12:33:11Z</time>
      </trkpt>
      <trkpt lat="44.55434" lon="5.75485">
        <ele>993.6</ele>
        <time>2015-04-05T12:33:14Z</time>
      </trkpt>
      <trkpt lat="44.55445" lon="5.75477">
        <ele>991.5</ele>
        <time>2015-04-05T12:33:17Z</time>
      </trkpt>
      <trkpt lat="44.55451" lon="5.75467">
        <ele>990</ele>
        <time>2015-04-05T12:33:19Z</time>
      </trkpt>
      <trkpt lat="44.55455" lon="5.75454">
        <ele>988.6</ele>
        <time>2015-04-05T12:33:21Z</time>
      </trkpt>
      <trkpt lat="44.55459" lon="5.7544">
        <ele>987.3</ele>
        <time>2015-04-05T12:33:23Z</time>
      </trkpt>
      <trkpt lat="44.55463" lon="5.75425">
        <ele>985.8</ele>
        <time>2015-04-05T12:33:25Z</time>
      </trkpt>
      <trkpt lat="44.55466" lon="5.75409">
        <ele>983.9</ele>
        <time>2015-04-05T12:33:27Z</time>
      </trkpt>
      <trkpt lat="44.55472" lon="5.75396">
        <ele>981.5</ele>
        <time>2015-04-05T12:33:29Z</time>
      </trkpt>
      <trkpt lat="44.55478" lon="5.75386">
        <ele>979.3</ele>
        <time>2015-04-05T12:33:31Z</time>
      </trkpt>
      <trkpt lat="44.55485" lon="5.75372">
        <ele>976.4</ele>
        <time>2015-04-05T12:33:34Z</time>
      </trkpt>
      <trkpt lat="44.55491" lon="5.75357">
        <ele>973.5</ele>
        <time>2015-04-05T12:33:38Z</time>
      </trkpt>
      <trkpt lat="44.55494" lon="5.75343">
        <ele>971.2</ele>
        <time>2015-04-05T12:33:40Z</time>
      </trkpt>
      <trkpt lat="44.555" lon="5.7533">
        <ele>968.9</ele>
        <time>2015-04-05T12:33:42Z</time>
      </trkpt>
      <trkpt lat="44.55506" lon="5.75319">
        <ele>967.9</ele>
        <time>2015-04-05T12:33:44Z</time>
      </trkpt>
      <trkpt lat="44.55516" lon="5.75307">
        <ele>966.5</ele>
        <time>2015-04-05T12:33:46Z</time>
      </trkpt>
      <trkpt lat="44.55527" lon="5.75295">
        <ele>964.7</ele>
        <time>2015-04-05T12:33:48Z</time>
      </trkpt>
      <trkpt lat="44.55535" lon="5.75281">
        <ele>963</ele>
        <time>2015-04-05T12:33:50Z</time>
      </trkpt>
      <trkpt lat="44.55539" lon="5.75264">
        <ele>961.3</ele>
        <time>2015-04-05T12:33:52Z</time>
      </trkpt>
      <trkpt lat="44.55539" lon="5.75246">
        <ele>960.2</ele>
        <time>2015-04-05T12:33:54Z</time>
      </trkpt>
      <trkpt lat="44.55539" lon="5.75231">
        <ele>959.6</ele>
        <time>2015-04-05T12:33:56Z</time>
      </trkpt>
      <trkpt lat="44.55541" lon="5.75219">
        <ele>958.9</ele>
        <time>2015-04-05T12:34:05Z</time>
      </trkpt>
      <trkpt lat="44.55543" lon="5.75205">
        <ele>957.7</ele>
        <time>2015-04-05T12:35:09Z</time>
      </trkpt>
      <trkpt lat="44.55545" lon="5.75187">
        <ele>956.5</ele>
        <time>2015-04-05T12:35:13Z</time>
      </trkpt>
      <trkpt lat="44.55548" lon="5.75174">
        <ele>955.2</ele>
        <time>2015-04-05T12:35:16Z</time>
      </trkpt>
      <trkpt lat="44.55553" lon="5.75162">
        <ele>953.7</ele>
        <time>2015-04-05T12:35:22Z</time>
      </trkpt>
      <trkpt lat="44.5556" lon="5.7515">
        <ele>952.3</ele>
        <time>2015-04-05T12:35:29Z</time>
      </trkpt>
      <trkpt lat="44.55567" lon="5.75139">
        <ele>950.8</ele>
        <time>2015-04-05T12:35:35Z</time>
      </trkpt>
      <trkpt lat="44.55574" lon="5.75128">
        <ele>949.3</ele>
        <time>2015-04-05T12:35:39Z</time>
      </trkpt>
      <trkpt lat="44.55576" lon="5.75115">
        <ele>949.1</ele>
        <time>2015-04-05T12:35:42Z</time>
      </trkpt>
      <trkpt lat="44.55576" lon="5.75102">
        <ele>949.4</ele>
        <time>2015-04-05T12:35:46Z</time>
      </trkpt>
      <trkpt lat="44.55575" lon="5.75087">
        <ele>950</ele>
        <time>2015-04-05T12:35:51Z</time>
      </trkpt>
      <trkpt lat="44.55573" lon="5.75072">
        <ele>950.8</ele>
        <time>2015-04-05T12:35:56Z</time>
      </trkpt>
      <trkpt lat="44.55572" lon="5.75058">
        <ele>951.7</ele>
        <time>2015-04-05T12:36:01Z</time>
      </trkpt>
      <trkpt lat="44.55571" lon="5.75043">
        <ele>952.4</ele>
        <time>2015-04-05T12:36:06Z</time>
      </trkpt>
      <trkpt lat="44.55569" lon="5.7503">
        <ele>953.4</ele>
        <time>2015-04-05T12:36:11Z</time>
      </trkpt>
      <trkpt lat="44.55565" lon="5.75015">
        <ele>954.9</ele>
        <time>2015-04-05T12:36:16Z</time>
      </trkpt>
      <trkpt lat="44.55564" lon="5.75001">
        <ele>955.7</ele>
        <time>2015-04-05T12:36:21Z</time>
      </trkpt>
      <trkpt lat="44.55566" lon="5.74986">
        <ele>957.2</ele>
        <time>2015-04-05T12:36:26Z</time>
      </trkpt>
      <trkpt lat="44.55569" lon="5.74973">
        <ele>958.2</ele>
        <time>2015-04-05T12:36:30Z</time>
      </trkpt>
      <trkpt lat="44.55574" lon="5.74959">
        <ele>958.8</ele>
        <time>2015-04-05T12:36:34Z</time>
      </trkpt>
      <trkpt lat="44.5558" lon="5.74949">
        <ele>958.7</ele>
        <time>2015-04-05T12:36:38Z</time>
      </trkpt>
      <trkpt lat="44.55587" lon="5.7494">
        <ele>958.3</ele>
        <time>2015-04-05T12:36:42Z</time>
      </trkpt>
      <trkpt lat="44.55595" lon="5.74929">
        <ele>957.8</ele>
        <time>2015-04-05T12:36:47Z</time>
      </trkpt>
      <trkpt lat="44.55602" lon="5.74918">
        <ele>957.7</ele>
        <time>2015-04-05T12:36:52Z</time>
      </trkpt>
      <trkpt lat="44.55608" lon="5.74907">
        <ele>958</ele>
        <time>2015-04-05T12:36:57Z</time>
      </trkpt>
      <trkpt lat="44.55613" lon="5.74893">
        <ele>959</ele>
        <time>2015-04-05T12:37:02Z</time>
      </trkpt>
      <trkpt lat="44.55617" lon="5.7488">
        <ele>960.2</ele>
        <time>2015-04-05T12:37:06Z</time>
      </trkpt>
      <trkpt lat="44.55621" lon="5.74867">
        <ele>961.4</ele>
        <time>2015-04-05T12:37:10Z</time>
      </trkpt>
      <trkpt lat="44.55625" lon="5.74852">
        <ele>963.1</ele>
        <time>2015-04-05T12:37:14Z</time>
      </trkpt>
      <trkpt lat="44.55626" lon="5.74837">
        <ele>965.3</ele>
        <time>2015-04-05T12:37:18Z</time>
      </trkpt>
      <trkpt lat="44.55627" lon="5.74821">
        <ele>966.6</ele>
        <time>2015-04-05T12:37:22Z</time>
      </trkpt>
      <trkpt lat="44.55628" lon="5.74805">
        <ele>967.7</ele>
        <time>2015-04-05T12:37:26Z</time>
      </trkpt>
      <trkpt lat="44.55629" lon="5.74791">
        <ele>968.7</ele>
        <time>2015-04-05T12:37:30Z</time>
      </trkpt>
      <trkpt lat="44.5563" lon="5.74776">
        <ele>969.7</ele>
        <time>2015-04-05T12:37:34Z</time>
      </trkpt>
      <trkpt lat="44.55632" lon="5.7476">
        <ele>970.6</ele>
        <time>2015-04-05T12:37:38Z</time>
      </trkpt>
      <trkpt lat="44.55636" lon="5.74745">
        <ele>971</ele>
        <time>2015-04-05T12:37:42Z</time>
      </trkpt>
      <trkpt lat="44.5564" lon="5.7473">
        <ele>971.4</ele>
        <time>2015-04-05T12:37:46Z</time>
      </trkpt>
      <trkpt lat="44.55642" lon="5.74716">
        <ele>971.9</ele>
        <time>2015-04-05T12:37:49Z</time>
      </trkpt>
      <trkpt lat="44.55644" lon="5.74701">
        <ele>972.3</ele>
        <time>2015-04-05T12:37:52Z</time>
      </trkpt>
      <trkpt lat="44.55648" lon="5.74687">
        <ele>972.5</ele>
        <time>2015-04-05T12:37:55Z</time>
      </trkpt>
      <trkpt lat="44.55655" lon="5.74675">
        <ele>972.3</ele>
        <time>2015-04-05T12:37:58Z</time>
      </trkpt>
      <trkpt lat="44.55661" lon="5.74664">
        <ele>971.9</ele>
        <time>2015-04-05T12:38:01Z</time>
      </trkpt>
      <trkpt lat="44.55668" lon="5.74651">
        <ele>971.3</ele>
        <time>2015-04-05T12:38:04Z</time>
      </trkpt>
      <trkpt lat="44.55675" lon="5.7464">
        <ele>970.6</ele>
        <time>2015-04-05T12:38:07Z</time>
      </trkpt>
      <trkpt lat="44.55683" lon="5.7463">
        <ele>969.8</ele>
        <time>2015-04-05T12:38:10Z</time>
      </trkpt>
      <trkpt lat="44.5569" lon="5.7462">
        <ele>969.3</ele>
        <time>2015-04-05T12:38:13Z</time>
      </trkpt>
      <trkpt lat="44.55695" lon="5.74609">
        <ele>969</ele>
        <time>2015-04-05T12:38:16Z</time>
      </trkpt>
      <trkpt lat="44.557" lon="5.74598">
        <ele>968.9</ele>
        <time>2015-04-05T12:38:19Z</time>
      </trkpt>
      <trkpt lat="44.55706" lon="5.74586">
        <ele>968.7</ele>
        <time>2015-04-05T12:38:22Z</time>
      </trkpt>
      <trkpt lat="44.55715" lon="5.74571">
        <ele>967.8</ele>
        <time>2015-04-05T12:38:25Z</time>
      </trkpt>
      <trkpt lat="44.55722" lon="5.7456">
        <ele>966.9</ele>
        <time>2015-04-05T12:38:27Z</time>
      </trkpt>
      <trkpt lat="44.55728" lon="5.74549">
        <ele>965.9</ele>
        <time>2015-04-05T12:38:29Z</time>
      </trkpt>
      <trkpt lat="44.55734" lon="5.74535">
        <ele>964.9</ele>
        <time>2015-04-05T12:38:31Z</time>
      </trkpt>
      <trkpt lat="44.55736" lon="5.7452">
        <ele>964.3</ele>
        <time>2015-04-05T12:38:33Z</time>
      </trkpt>
      <trkpt lat="44.55736" lon="5.74504">
        <ele>964.1</ele>
        <time>2015-04-05T12:38:35Z</time>
      </trkpt>
      <trkpt lat="44.55736" lon="5.7449">
        <ele>964.3</ele>
        <time>2015-04-05T12:38:37Z</time>
      </trkpt>
      <trkpt lat="44.55737" lon="5.74477">
        <ele>964.1</ele>
        <time>2015-04-05T12:38:39Z</time>
      </trkpt>
      <trkpt lat="44.55739" lon="5.7446">
        <ele>963.4</ele>
        <time>2015-04-05T12:38:42Z</time>
      </trkpt>
      <trkpt lat="44.55743" lon="5.74446">
        <ele>962.6</ele>
        <time>2015-04-05T12:38:45Z</time>
      </trkpt>
      <trkpt lat="44.55747" lon="5.74433">
        <ele>961.8</ele>
        <time>2015-04-05T12:38:48Z</time>
      </trkpt>
      <trkpt lat="44.55752" lon="5.7442">
        <ele>960.4</ele>
        <time>2015-04-05T12:38:51Z</time>
      </trkpt>
      <trkpt lat="44.55758" lon="5.74405">
        <ele>959.5</ele>
        <time>2015-04-05T12:38:54Z</time>
      </trkpt>
      <trkpt lat="44.55761" lon="5.74387">
        <ele>959.6</ele>
        <time>2015-04-05T12:38:57Z</time>
      </trkpt>
      <trkpt lat="44.55759" lon="5.7437">
        <ele>960.8</ele>
        <time>2015-04-05T12:39:00Z</time>
      </trkpt>
      <trkpt lat="44.55753" lon="5.74357">
        <ele>962.6</ele>
        <time>2015-04-05T12:39:03Z</time>
      </trkpt>
      <trkpt lat="44.55745" lon="5.7435">
        <ele>964.2</ele>
        <time>2015-04-05T12:39:07Z</time>
      </trkpt>
      <trkpt lat="44.55736" lon="5.74341">
        <ele>965.8</ele>
        <time>2015-04-05T12:39:12Z</time>
      </trkpt>
      <trkpt lat="44.5573" lon="5.74331">
        <ele>967</ele>
        <time>2015-04-05T12:39:16Z</time>
      </trkpt>
      <trkpt lat="44.55724" lon="5.74318">
        <ele>968.4</ele>
        <time>2015-04-05T12:39:21Z</time>
      </trkpt>
      <trkpt lat="44.55718" lon="5.74305">
        <ele>969.8</ele>
        <time>2015-04-05T12:39:26Z</time>
      </trkpt>
      <trkpt lat="44.55712" lon="5.74293">
        <ele>971.3</ele>
        <time>2015-04-05T12:39:31Z</time>
      </trkpt>
      <trkpt lat="44.55705" lon="5.74283">
        <ele>972.6</ele>
        <time>2015-04-05T12:39:36Z</time>
      </trkpt>
      <trkpt lat="44.557" lon="5.74271">
        <ele>973.8</ele>
        <time>2015-04-05T12:39:42Z</time>
      </trkpt>
      <trkpt lat="44.55696" lon="5.74259">
        <ele>974.8</ele>
        <time>2015-04-05T12:39:47Z</time>
      </trkpt>
      <trkpt lat="44.55694" lon="5.74245">
        <ele>975.8</ele>
        <time>2015-04-05T12:39:53Z</time>
      </trkpt>
      <trkpt lat="44.55693" lon="5.74231">
        <ele>977.1</ele>
        <time>2015-04-05T12:39:59Z</time>
      </trkpt>
      <trkpt lat="44.55692" lon="5.74216">
        <ele>978.4</ele>
        <time>2015-04-05T12:40:06Z</time>
      </trkpt>
      <trkpt lat="44.55691" lon="5.74203">
        <ele>979.7</ele>
        <time>2015-04-05T12:40:12Z</time>
      </trkpt>
      <trkpt lat="44.55688" lon="5.7419">
        <ele>981.2</ele>
        <time>2015-04-05T12:40:17Z</time>
      </trkpt>
      <trkpt lat="44.55685" lon="5.74178">
        <ele>982.7</ele>
        <time>2015-04-05T12:40:22Z</time>
      </trkpt>
      <trkpt lat="44.55682" lon="5.74166">
        <ele>984.3</ele>
        <time>2015-04-05T12:40:28Z</time>
      </trkpt>
      <trkpt lat="44.55679" lon="5.74153">
        <ele>985.6</ele>
        <time>2015-04-05T12:40:34Z</time>
      </trkpt>
      <trkpt lat="44.55678" lon="5.74139">
        <ele>986.6</ele>
        <time>2015-04-05T12:40:41Z</time>
      </trkpt>
      <trkpt lat="44.55678" lon="5.74125">
        <ele>987.5</ele>
        <time>2015-04-05T12:40:48Z</time>
      </trkpt>
      <trkpt lat="44.55678" lon="5.74111">
        <ele>988.3</ele>
        <time>2015-04-05T12:40:55Z</time>
      </trkpt>
      <trkpt lat="44.5568" lon="5.74098">
        <ele>988.7</ele>
        <time>2015-04-05T12:41:01Z</time>
      </trkpt>
      <trkpt lat="44.55679" lon="5.74085">
        <ele>989.7</ele>
        <time>2015-04-05T12:41:07Z</time>
      </trkpt>
      <trkpt lat="44.55671" lon="5.74079">
        <ele>991.5</ele>
        <time>2015-04-05T12:41:13Z</time>
      </trkpt>
      <trkpt lat="44.55661" lon="5.74082">
        <ele>993.3</ele>
        <time>2015-04-05T12:41:20Z</time>
      </trkpt>
      <trkpt lat="44.55652" lon="5.74078">
        <ele>995.5</ele>
        <time>2015-04-05T12:41:26Z</time>
      </trkpt>
      <trkpt lat="44.55645" lon="5.74069">
        <ele>997.4</ele>
        <time>2015-04-05T12:41:31Z</time>
      </trkpt>
      <trkpt lat="44.55642" lon="5.74056">
        <ele>998.9</ele>
        <time>2015-04-05T12:41:37Z</time>
      </trkpt>
      <trkpt lat="44.55641" lon="5.74043">
        <ele>999.8</ele>
        <time>2015-04-05T12:41:43Z</time>
      </trkpt>
      <trkpt lat="44.55643" lon="5.74031">
        <ele>999.9</ele>
        <time>2015-04-05T12:41:49Z</time>
      </trkpt>
      <trkpt lat="44.55644" lon="5.74016">
        <ele>1000.6</ele>
        <time>2015-04-05T12:41:56Z</time>
      </trkpt>
      <trkpt lat="44.55637" lon="5.74005">
        <ele>1002.8</ele>
        <time>2015-04-05T12:42:02Z</time>
      </trkpt>
      <trkpt lat="44.5563" lon="5.73997">
        <ele>1004.8</ele>
        <time>2015-04-05T12:42:08Z</time>
      </trkpt>
      <trkpt lat="44.55623" lon="5.73989">
        <ele>1006.5</ele>
        <time>2015-04-05T12:42:14Z</time>
      </trkpt>
      <trkpt lat="44.55618" lon="5.73975">
        <ele>1007.8</ele>
        <time>2015-04-05T12:42:20Z</time>
      </trkpt>
      <trkpt lat="44.55617" lon="5.73962">
        <ele>1008</ele>
        <time>2015-04-05T12:42:25Z</time>
      </trkpt>
      <trkpt lat="44.55614" lon="5.73949">
        <ele>1008.8</ele>
        <time>2015-04-05T12:42:30Z</time>
      </trkpt>
      <trkpt lat="44.55608" lon="5.73936">
        <ele>1010.4</ele>
        <time>2015-04-05T12:42:35Z</time>
      </trkpt>
      <trkpt lat="44.55602" lon="5.73925">
        <ele>1012.1</ele>
        <time>2015-04-05T12:42:40Z</time>
      </trkpt>
      <trkpt lat="44.55598" lon="5.73911">
        <ele>1012.9</ele>
        <time>2015-04-05T12:42:46Z</time>
      </trkpt>
      <trkpt lat="44.55592" lon="5.73897">
        <ele>1013.6</ele>
        <time>2015-04-05T12:42:51Z</time>
      </trkpt>
      <trkpt lat="44.55585" lon="5.73886">
        <ele>1014.8</ele>
        <time>2015-04-05T12:42:55Z</time>
      </trkpt>
      <trkpt lat="44.55577" lon="5.7388">
        <ele>1015.6</ele>
        <time>2015-04-05T12:42:59Z</time>
      </trkpt>
      <trkpt lat="44.55569" lon="5.73869">
        <ele>1015.9</ele>
        <time>2015-04-05T12:43:04Z</time>
      </trkpt>
      <trkpt lat="44.55565" lon="5.73857">
        <ele>1015.9</ele>
        <time>2015-04-05T12:43:08Z</time>
      </trkpt>
      <trkpt lat="44.55562" lon="5.73844">
        <ele>1015.6</ele>
        <time>2015-04-05T12:43:13Z</time>
      </trkpt>
      <trkpt lat="44.55561" lon="5.7383">
        <ele>1014.9</ele>
        <time>2015-04-05T12:43:18Z</time>
      </trkpt>
      <trkpt lat="44.55562" lon="5.73816">
        <ele>1013.3</ele>
        <time>2015-04-05T12:43:24Z</time>
      </trkpt>
      <trkpt lat="44.55556" lon="5.73805">
        <ele>1013.2</ele>
        <time>2015-04-05T12:43:30Z</time>
      </trkpt>
      <trkpt lat="44.55548" lon="5.73798">
        <ele>1014</ele>
        <time>2015-04-05T12:43:35Z</time>
      </trkpt>
      <trkpt lat="44.55539" lon="5.73794">
        <ele>1015.4</ele>
        <time>2015-04-05T12:43:41Z</time>
      </trkpt>
      <trkpt lat="44.5553" lon="5.73791">
        <ele>1016.9</ele>
        <time>2015-04-05T12:43:46Z</time>
      </trkpt>
      <trkpt lat="44.55521" lon="5.73787">
        <ele>1018.3</ele>
        <time>2015-04-05T12:43:51Z</time>
      </trkpt>
      <trkpt lat="44.55512" lon="5.73779">
        <ele>1019.7</ele>
        <time>2015-04-05T12:43:58Z</time>
      </trkpt>
      <trkpt lat="44.55506" lon="5.73769">
        <ele>1020.4</ele>
        <time>2015-04-05T12:44:03Z</time>
      </trkpt>
      <trkpt lat="44.55502" lon="5.73758">
        <ele>1020.8</ele>
        <time>2015-04-05T12:44:08Z</time>
      </trkpt>
      <trkpt lat="44.55495" lon="5.73748">
        <ele>1021.8</ele>
        <time>2015-04-05T12:44:13Z</time>
      </trkpt>
      <trkpt lat="44.55486" lon="5.73742">
        <ele>1023.1</ele>
        <time>2015-04-05T12:44:18Z</time>
      </trkpt>
      <trkpt lat="44.55476" lon="5.73744">
        <ele>1025.2</ele>
        <time>2015-04-05T12:44:23Z</time>
      </trkpt>
      <trkpt lat="44.55466" lon="5.73749">
        <ele>1027.4</ele>
        <time>2015-04-05T12:44:28Z</time>
      </trkpt>
      <trkpt lat="44.55456" lon="5.73749">
        <ele>1029.4</ele>
        <time>2015-04-05T12:44:33Z</time>
      </trkpt>
      <trkpt lat="44.55446" lon="5.73743">
        <ele>1030.9</ele>
        <time>2015-04-05T12:44:39Z</time>
      </trkpt>
      <trkpt lat="44.55438" lon="5.73735">
        <ele>1032</ele>
        <time>2015-04-05T12:44:45Z</time>
      </trkpt>
      <trkpt lat="44.55428" lon="5.73728">
        <ele>1033.4</ele>
        <time>2015-04-05T12:44:51Z</time>
      </trkpt>
      <trkpt lat="44.5542" lon="5.73722">
        <ele>1034.7</ele>
        <time>2015-04-05T12:44:56Z</time>
      </trkpt>
      <trkpt lat="44.55413" lon="5.73714">
        <ele>1035.3</ele>
        <time>2015-04-05T12:45:03Z</time>
      </trkpt>
      <trkpt lat="44.55406" lon="5.73704">
        <ele>1035.4</ele>
        <time>2015-04-05T12:45:10Z</time>
      </trkpt>
      <trkpt lat="44.55398" lon="5.73696">
        <ele>1035.6</ele>
        <time>2015-04-05T12:45:16Z</time>
      </trkpt>
      <trkpt lat="44.55388" lon="5.73691">
        <ele>1036.3</ele>
        <time>2015-04-05T12:45:22Z</time>
      </trkpt>
      <trkpt lat="44.55379" lon="5.73691">
        <ele>1037.2</ele>
        <time>2015-04-05T12:45:27Z</time>
      </trkpt>
      <trkpt lat="44.55369" lon="5.73694">
        <ele>1038.5</ele>
        <time>2015-04-05T12:45:33Z</time>
      </trkpt>
      <trkpt lat="44.55359" lon="5.73694">
        <ele>1039.6</ele>
        <time>2015-04-05T12:45:39Z</time>
      </trkpt>
      <trkpt lat="44.5535" lon="5.73689">
        <ele>1039.9</ele>
        <time>2015-04-05T12:45:45Z</time>
      </trkpt>
      <trkpt lat="44.55344" lon="5.7368">
        <ele>1039.5</ele>
        <time>2015-04-05T12:45:51Z</time>
      </trkpt>
      <trkpt lat="44.55341" lon="5.73667">
        <ele>1038.3</ele>
        <time>2015-04-05T12:45:57Z</time>
      </trkpt>
      <trkpt lat="44.55338" lon="5.73654">
        <ele>1037.3</ele>
        <time>2015-04-05T12:46:03Z</time>
      </trkpt>
      <trkpt lat="44.55328" lon="5.73653">
        <ele>1038.9</ele>
        <time>2015-04-05T12:46:09Z</time>
      </trkpt>
      <trkpt lat="44.55325" lon="5.73667">
        <ele>1040.8</ele>
        <time>2015-04-05T12:46:15Z</time>
      </trkpt>
      <trkpt lat="44.55326" lon="5.73681">
        <ele>1042.1</ele>
        <time>2015-04-05T12:46:21Z</time>
      </trkpt>
      <trkpt lat="44.55327" lon="5.73695">
        <ele>1043.4</ele>
        <time>2015-04-05T12:46:28Z</time>
      </trkpt>
      <trkpt lat="44.55329" lon="5.7371">
        <ele>1044.8</ele>
        <time>2015-04-05T12:46:34Z</time>
      </trkpt>
      <trkpt lat="44.55328" lon="5.73725">
        <ele>1046.6</ele>
        <time>2015-04-05T12:46:39Z</time>
      </trkpt>
      <trkpt lat="44.55325" lon="5.73738">
        <ele>1048.6</ele>
        <time>2015-04-05T12:46:43Z</time>
      </trkpt>
      <trkpt lat="44.5532" lon="5.73754">
        <ele>1050.7</ele>
        <time>2015-04-05T12:46:47Z</time>
      </trkpt>
      <trkpt lat="44.55317" lon="5.73766">
        <ele>1052</ele>
        <time>2015-04-05T12:46:50Z</time>
      </trkpt>
      <trkpt lat="44.55314" lon="5.73778">
        <ele>1053.3</ele>
        <time>2015-04-05T12:46:53Z</time>
      </trkpt>
      <trkpt lat="44.55311" lon="5.73791">
        <ele>1054.5</ele>
        <time>2015-04-05T12:46:56Z</time>
      </trkpt>
      <trkpt lat="44.55308" lon="5.73803">
        <ele>1055.6</ele>
        <time>2015-04-05T12:46:59Z</time>
      </trkpt>
      <trkpt lat="44.55305" lon="5.73816">
        <ele>1056.7</ele>
        <time>2015-04-05T12:47:02Z</time>
      </trkpt>
      <trkpt lat="44.55303" lon="5.7383">
        <ele>1057.8</ele>
        <time>2015-04-05T12:47:05Z</time>
      </trkpt>
      <trkpt lat="44.55301" lon="5.73844">
        <ele>1058.6</ele>
        <time>2015-04-05T12:47:08Z</time>
      </trkpt>
      <trkpt lat="44.55299" lon="5.73857">
        <ele>1059.2</ele>
        <time>2015-04-05T12:47:11Z</time>
      </trkpt>
      <trkpt lat="44.55298" lon="5.73871">
        <ele>1059.8</ele>
        <time>2015-04-05T12:47:14Z</time>
      </trkpt>
      <trkpt lat="44.55296" lon="5.73886">
        <ele>1060.5</ele>
        <time>2015-04-05T12:47:18Z</time>
      </trkpt>
      <trkpt lat="44.55294" lon="5.73899">
        <ele>1061.1</ele>
        <time>2015-04-05T12:47:22Z</time>
      </trkpt>
      <trkpt lat="44.55292" lon="5.73912">
        <ele>1061.8</ele>
        <time>2015-04-05T12:47:26Z</time>
      </trkpt>
      <trkpt lat="44.5529" lon="5.73926">
        <ele>1062.7</ele>
        <time>2015-04-05T12:47:30Z</time>
      </trkpt>
      <trkpt lat="44.55291" lon="5.7394">
        <ele>1063.7</ele>
        <time>2015-04-05T12:47:34Z</time>
      </trkpt>
      <trkpt lat="44.55292" lon="5.73954">
        <ele>1064.6</ele>
        <time>2015-04-05T12:47:38Z</time>
      </trkpt>
      <trkpt lat="44.55296" lon="5.73967">
        <ele>1065.1</ele>
        <time>2015-04-05T12:47:43Z</time>
      </trkpt>
      <trkpt lat="44.55301" lon="5.73978">
        <ele>1065.2</ele>
        <time>2015-04-05T12:47:48Z</time>
      </trkpt>
      <trkpt lat="44.55309" lon="5.73989">
        <ele>1064.9</ele>
        <time>2015-04-05T12:47:53Z</time>
      </trkpt>
      <trkpt lat="44.55318" lon="5.73998">
        <ele>1064.1</ele>
        <time>2015-04-05T12:47:58Z</time>
      </trkpt>
      <trkpt lat="44.55327" lon="5.74003">
        <ele>1063</ele>
        <time>2015-04-05T12:48:03Z</time>
      </trkpt>
      <trkpt lat="44.55336" lon="5.74007">
        <ele>1061.6</ele>
        <time>2015-04-05T12:48:08Z</time>
      </trkpt>
      <trkpt lat="44.55346" lon="5.74008">
        <ele>1059.6</ele>
        <time>2015-04-05T12:48:13Z</time>
      </trkpt>
      <trkpt lat="44.55356" lon="5.74007">
        <ele>1057.3</ele>
        <time>2015-04-05T12:48:19Z</time>
      </trkpt>
      <trkpt lat="44.55366" lon="5.74011">
        <ele>1055.4</ele>
        <time>2015-04-05T12:48:24Z</time>
      </trkpt>
      <trkpt lat="44.55372" lon="5.74023">
        <ele>1054.1</ele>
        <time>2015-04-05T12:48:29Z</time>
      </trkpt>
      <trkpt lat="44.55371" lon="5.74038">
        <ele>1054.1</ele>
        <time>2015-04-05T12:48:34Z</time>
      </trkpt>
      <trkpt lat="44.55368" lon="5.74052">
        <ele>1054.7</ele>
        <time>2015-04-05T12:48:39Z</time>
      </trkpt>
      <trkpt lat="44.55364" lon="5.74065">
        <ele>1055.6</ele>
        <time>2015-04-05T12:48:44Z</time>
      </trkpt>
      <trkpt lat="44.5536" lon="5.74079">
        <ele>1056.5</ele>
        <time>2015-04-05T12:48:49Z</time>
      </trkpt>
      <trkpt lat="44.55356" lon="5.7409">
        <ele>1057</ele>
        <time>2015-04-05T12:48:53Z</time>
      </trkpt>
      <trkpt lat="44.55352" lon="5.74102">
        <ele>1057</ele>
        <time>2015-04-05T12:48:57Z</time>
      </trkpt>
      <trkpt lat="44.55347" lon="5.74115">
        <ele>1057.2</ele>
        <time>2015-04-05T12:49:02Z</time>
      </trkpt>
      <trkpt lat="44.55343" lon="5.74127">
        <ele>1057.5</ele>
        <time>2015-04-05T12:49:07Z</time>
      </trkpt>
      <trkpt lat="44.55337" lon="5.74139">
        <ele>1058</ele>
        <time>2015-04-05T12:49:13Z</time>
      </trkpt>
      <trkpt lat="44.55328" lon="5.74145">
        <ele>1060.3</ele>
        <time>2015-04-05T12:49:19Z</time>
      </trkpt>
      <trkpt lat="44.55317" lon="5.74146">
        <ele>1063.5</ele>
        <time>2015-04-05T12:49:25Z</time>
      </trkpt>
      <trkpt lat="44.55308" lon="5.74145">
        <ele>1066.2</ele>
        <time>2015-04-05T12:49:30Z</time>
      </trkpt>
      <trkpt lat="44.55298" lon="5.74144">
        <ele>1069.3</ele>
        <time>2015-04-05T12:49:36Z</time>
      </trkpt>
      <trkpt lat="44.55288" lon="5.74141">
        <ele>1072.1</ele>
        <time>2015-04-05T12:49:42Z</time>
      </trkpt>
      <trkpt lat="44.5528" lon="5.74135">
        <ele>1074.7</ele>
        <time>2015-04-05T12:49:48Z</time>
      </trkpt>
      <trkpt lat="44.55271" lon="5.74127">
        <ele>1077.1</ele>
        <time>2015-04-05T12:49:56Z</time>
      </trkpt>
      <trkpt lat="44.55264" lon="5.74119">
        <ele>1079.1</ele>
        <time>2015-04-05T12:50:03Z</time>
      </trkpt>
      <trkpt lat="44.55258" lon="5.74109">
        <ele>1080.6</ele>
        <time>2015-04-05T12:50:09Z</time>
      </trkpt>
      <trkpt lat="44.5525" lon="5.741">
        <ele>1082.3</ele>
        <time>2015-04-05T12:50:16Z</time>
      </trkpt>
      <trkpt lat="44.55241" lon="5.74104">
        <ele>1083.9</ele>
        <time>2015-04-05T12:50:24Z</time>
      </trkpt>
      <trkpt lat="44.55243" lon="5.74117">
        <ele>1084.1</ele>
        <time>2015-04-05T12:50:31Z</time>
      </trkpt>
      <trkpt lat="44.55246" lon="5.7413">
        <ele>1083.8</ele>
        <time>2015-04-05T12:50:38Z</time>
      </trkpt>
      <trkpt lat="44.55247" lon="5.74144">
        <ele>1084</ele>
        <time>2015-04-05T12:50:45Z</time>
      </trkpt>
      <trkpt lat="44.55247" lon="5.74159">
        <ele>1084.4</ele>
        <time>2015-04-05T12:50:51Z</time>
      </trkpt>
      <trkpt lat="44.55247" lon="5.74173">
        <ele>1084.5</ele>
        <time>2015-04-05T12:50:57Z</time>
      </trkpt>
      <trkpt lat="44.55245" lon="5.74188">
        <ele>1084</ele>
        <time>2015-04-05T12:51:03Z</time>
      </trkpt>
      <trkpt lat="44.55243" lon="5.742">
        <ele>1083.9</ele>
        <time>2015-04-05T12:51:08Z</time>
      </trkpt>
      <trkpt lat="44.55241" lon="5.74213">
        <ele>1083.9</ele>
        <time>2015-04-05T12:51:13Z</time>
      </trkpt>
      <trkpt lat="44.55238" lon="5.74225">
        <ele>1084.3</ele>
        <time>2015-04-05T12:51:18Z</time>
      </trkpt>
      <trkpt lat="44.55234" lon="5.74239">
        <ele>1085</ele>
        <time>2015-04-05T12:51:24Z</time>
      </trkpt>
      <trkpt lat="44.55229" lon="5.74252">
        <ele>1086</ele>
        <time>2015-04-05T12:51:31Z</time>
      </trkpt>
      <trkpt lat="44.55226" lon="5.74264">
        <ele>1086.9</ele>
        <time>2015-04-05T12:51:37Z</time>
      </trkpt>
      <trkpt lat="44.55222" lon="5.74277">
        <ele>1087.7</ele>
        <time>2015-04-05T12:51:43Z</time>
      </trkpt>
      <trkpt lat="44.55216" lon="5.74289">
        <ele>1089.5</ele>
        <time>2015-04-05T12:51:49Z</time>
      </trkpt>
      <trkpt lat="44.55208" lon="5.74294">
        <ele>1092.2</ele>
        <time>2015-04-05T12:51:57Z</time>
      </trkpt>
      <trkpt lat="44.55205" lon="5.74306">
        <ele>1093.1</ele>
        <time>2015-04-05T12:53:01Z</time>
      </trkpt>
      <trkpt lat="44.55204" lon="5.74292">
        <ele>1093.7</ele>
        <time>2015-04-05T13:01:22Z</time>
      </trkpt>
      <trkpt lat="44.55202" lon="5.74279">
        <ele>1094.8</ele>
        <time>2015-04-05T13:01:28Z</time>
      </trkpt>
      <trkpt lat="44.552" lon="5.74264">
        <ele>1095.7</ele>
        <time>2015-04-05T13:01:34Z</time>
      </trkpt>
      <trkpt lat="44.55196" lon="5.74252">
        <ele>1097.2</ele>
        <time>2015-04-05T13:01:39Z</time>
      </trkpt>
      <trkpt lat="44.5519" lon="5.74241">
        <ele>1098.9</ele>
        <time>2015-04-05T13:01:45Z</time>
      </trkpt>
      <trkpt lat="44.55183" lon="5.74232">
        <ele>1101.2</ele>
        <time>2015-04-05T13:01:52Z</time>
      </trkpt>
      <trkpt lat="44.55176" lon="5.74222">
        <ele>1103.3</ele>
        <time>2015-04-05T13:01:59Z</time>
      </trkpt>
      <trkpt lat="44.5517" lon="5.74211">
        <ele>1104.7</ele>
        <time>2015-04-05T13:02:06Z</time>
      </trkpt>
      <trkpt lat="44.55166" lon="5.74199">
        <ele>1105.2</ele>
        <time>2015-04-05T13:02:13Z</time>
      </trkpt>
      <trkpt lat="44.55162" lon="5.74186">
        <ele>1105.3</ele>
        <time>2015-04-05T13:02:20Z</time>
      </trkpt>
      <trkpt lat="44.55159" lon="5.74173">
        <ele>1105.3</ele>
        <time>2015-04-05T13:02:26Z</time>
      </trkpt>
      <trkpt lat="44.55157" lon="5.74161">
        <ele>1104.8</ele>
        <time>2015-04-05T13:02:32Z</time>
      </trkpt>
      <trkpt lat="44.55155" lon="5.74146">
        <ele>1103.7</ele>
        <time>2015-04-05T13:02:39Z</time>
      </trkpt>
      <trkpt lat="44.5515" lon="5.74133">
        <ele>1103.3</ele>
        <time>2015-04-05T13:02:45Z</time>
      </trkpt>
      <trkpt lat="44.55143" lon="5.74122">
        <ele>1103.5</ele>
        <time>2015-04-05T13:02:52Z</time>
      </trkpt>
      <trkpt lat="44.55136" lon="5.74112">
        <ele>1104.5</ele>
        <time>2015-04-05T13:02:58Z</time>
      </trkpt>
      <trkpt lat="44.55128" lon="5.74103">
        <ele>1105.4</ele>
        <time>2015-04-05T13:03:04Z</time>
      </trkpt>
      <trkpt lat="44.55122" lon="5.74094">
        <ele>1106.5</ele>
        <time>2015-04-05T13:03:10Z</time>
      </trkpt>
      <trkpt lat="44.55115" lon="5.74085">
        <ele>1107.8</ele>
        <time>2015-04-05T13:03:15Z</time>
      </trkpt>
      <trkpt lat="44.55107" lon="5.74076">
        <ele>1109.3</ele>
        <time>2015-04-05T13:03:20Z</time>
      </trkpt>
      <trkpt lat="44.55101" lon="5.74065">
        <ele>1110.3</ele>
        <time>2015-04-05T13:03:26Z</time>
      </trkpt>
      <trkpt lat="44.55098" lon="5.74053">
        <ele>1110.3</ele>
        <time>2015-04-05T13:03:32Z</time>
      </trkpt>
      <trkpt lat="44.55096" lon="5.7404">
        <ele>1110.3</ele>
        <time>2015-04-05T13:03:38Z</time>
      </trkpt>
      <trkpt lat="44.55092" lon="5.74027">
        <ele>1110.8</ele>
        <time>2015-04-05T13:03:45Z</time>
      </trkpt>
      <trkpt lat="44.55084" lon="5.74021">
        <ele>1112.7</ele>
        <time>2015-04-05T13:03:50Z</time>
      </trkpt>
      <trkpt lat="44.55074" lon="5.74016">
        <ele>1115.1</ele>
        <time>2015-04-05T13:03:56Z</time>
      </trkpt>
      <trkpt lat="44.55064" lon="5.74014">
        <ele>1117.4</ele>
        <time>2015-04-05T13:04:02Z</time>
      </trkpt>
      <trkpt lat="44.55056" lon="5.7401">
        <ele>1119.5</ele>
        <time>2015-04-05T13:04:10Z</time>
      </trkpt>
      <trkpt lat="44.55048" lon="5.74002">
        <ele>1121.2</ele>
        <time>2015-04-05T13:04:19Z</time>
      </trkpt>
      <trkpt lat="44.55045" lon="5.73989">
        <ele>1121.8</ele>
        <time>2015-04-05T13:04:26Z</time>
      </trkpt>
      <trkpt lat="44.55046" lon="5.73977">
        <ele>1120.9</ele>
        <time>2015-04-05T13:04:32Z</time>
      </trkpt>
      <trkpt lat="44.55051" lon="5.73966">
        <ele>1118.9</ele>
        <time>2015-04-05T13:04:38Z</time>
      </trkpt>
      <trkpt lat="44.55059" lon="5.73956">
        <ele>1116</ele>
        <time>2015-04-05T13:04:45Z</time>
      </trkpt>
      <trkpt lat="44.55064" lon="5.73945">
        <ele>1113.3</ele>
        <time>2015-04-05T13:04:52Z</time>
      </trkpt>
      <trkpt lat="44.55067" lon="5.73931">
        <ele>1111.3</ele>
        <time>2015-04-05T13:04:59Z</time>
      </trkpt>
      <trkpt lat="44.55068" lon="5.73917">
        <ele>1110.2</ele>
        <time>2015-04-05T13:05:06Z</time>
      </trkpt>
      <trkpt lat="44.55067" lon="5.73904">
        <ele>1110.3</ele>
        <time>2015-04-05T13:05:12Z</time>
      </trkpt>
      <trkpt lat="44.55065" lon="5.7389">
        <ele>1110.8</ele>
        <time>2015-04-05T13:05:18Z</time>
      </trkpt>
      <trkpt lat="44.55064" lon="5.73875">
        <ele>1111</ele>
        <time>2015-04-05T13:05:24Z</time>
      </trkpt>
      <trkpt lat="44.55064" lon="5.73861">
        <ele>1111</ele>
        <time>2015-04-05T13:05:30Z</time>
      </trkpt>
      <trkpt lat="44.55063" lon="5.73846">
        <ele>1111.2</ele>
        <time>2015-04-05T13:05:36Z</time>
      </trkpt>
      <trkpt lat="44.55064" lon="5.73832">
        <ele>1110.7</ele>
        <time>2015-04-05T13:05:43Z</time>
      </trkpt>
      <trkpt lat="44.55063" lon="5.73819">
        <ele>1111.7</ele>
        <time>2015-04-05T13:05:51Z</time>
      </trkpt>
      <trkpt lat="44.55055" lon="5.73812">
        <ele>1115.5</ele>
        <time>2015-04-05T13:05:56Z</time>
      </trkpt>
      <trkpt lat="44.55046" lon="5.73811">
        <ele>1119.4</ele>
        <time>2015-04-05T13:06:01Z</time>
      </trkpt>
      <trkpt lat="44.55036" lon="5.73813">
        <ele>1123.5</ele>
        <time>2015-04-05T13:06:07Z</time>
      </trkpt>
      <trkpt lat="44.55027" lon="5.73817">
        <ele>1127.2</ele>
        <time>2015-04-05T13:06:13Z</time>
      </trkpt>
      <trkpt lat="44.55018" lon="5.73821">
        <ele>1131</ele>
        <time>2015-04-05T13:06:19Z</time>
      </trkpt>
      <trkpt lat="44.55008" lon="5.73824">
        <ele>1135.2</ele>
        <time>2015-04-05T13:06:25Z</time>
      </trkpt>
      <trkpt lat="44.54999" lon="5.73826">
        <ele>1139.2</ele>
        <time>2015-04-05T13:06:30Z</time>
      </trkpt>
      <trkpt lat="44.54989" lon="5.73828">
        <ele>1142</ele>
        <time>2015-04-05T13:06:36Z</time>
      </trkpt>
      <trkpt lat="44.54979" lon="5.73826">
        <ele>1144.7</ele>
        <time>2015-04-05T13:06:42Z</time>
      </trkpt>
      <trkpt lat="44.5497" lon="5.73822">
        <ele>1147</ele>
        <time>2015-04-05T13:06:52Z</time>
      </trkpt>
      <trkpt lat="44.54962" lon="5.73815">
        <ele>1148.8</ele>
        <time>2015-04-05T13:07:02Z</time>
      </trkpt>
      <trkpt lat="44.54954" lon="5.73807">
        <ele>1150.2</ele>
        <time>2015-04-05T13:07:10Z</time>
      </trkpt>
      <trkpt lat="44.54946" lon="5.73797">
        <ele>1151.4</ele>
        <time>2015-04-05T13:07:16Z</time>
      </trkpt>
      <trkpt lat="44.54941" lon="5.73785">
        <ele>1151.8</ele>
        <time>2015-04-05T13:07:21Z</time>
      </trkpt>
      <trkpt lat="44.54934" lon="5.73774">
        <ele>1152.2</ele>
        <time>2015-04-05T13:07:26Z</time>
      </trkpt>
      <trkpt lat="44.54926" lon="5.73764">
        <ele>1152.7</ele>
        <time>2015-04-05T13:07:31Z</time>
      </trkpt>
      <trkpt lat="44.54919" lon="5.73755">
        <ele>1153.2</ele>
        <time>2015-04-05T13:07:37Z</time>
      </trkpt>
      <trkpt lat="44.54911" lon="5.73747">
        <ele>1153.8</ele>
        <time>2015-04-05T13:07:43Z</time>
      </trkpt>
      <trkpt lat="44.54904" lon="5.7374">
        <ele>1154.6</ele>
        <time>2015-04-05T13:07:49Z</time>
      </trkpt>
      <trkpt lat="44.54897" lon="5.73732">
        <ele>1155.4</ele>
        <time>2015-04-05T13:07:55Z</time>
      </trkpt>
      <trkpt lat="44.5489" lon="5.73723">
        <ele>1156</ele>
        <time>2015-04-05T13:08:01Z</time>
      </trkpt>
      <trkpt lat="44.54884" lon="5.73711">
        <ele>1155.9</ele>
        <time>2015-04-05T13:08:08Z</time>
      </trkpt>
      <trkpt lat="44.54881" lon="5.73699">
        <ele>1155.5</ele>
        <time>2015-04-05T13:08:15Z</time>
      </trkpt>
      <trkpt lat="44.54878" lon="5.73686">
        <ele>1154.8</ele>
        <time>2015-04-05T13:08:23Z</time>
      </trkpt>
      <trkpt lat="44.54874" lon="5.73675">
        <ele>1154.4</ele>
        <time>2015-04-05T13:08:29Z</time>
      </trkpt>
      <trkpt lat="44.5487" lon="5.73664">
        <ele>1154.5</ele>
        <time>2015-04-05T13:08:36Z</time>
      </trkpt>
      <trkpt lat="44.54867" lon="5.73649">
        <ele>1154.7</ele>
        <time>2015-04-05T13:08:44Z</time>
      </trkpt>
      <trkpt lat="44.54864" lon="5.73636">
        <ele>1155.1</ele>
        <time>2015-04-05T13:08:50Z</time>
      </trkpt>
      <trkpt lat="44.54861" lon="5.73623">
        <ele>1155.3</ele>
        <time>2015-04-05T13:08:56Z</time>
      </trkpt>
      <trkpt lat="44.54857" lon="5.73611">
        <ele>1155.9</ele>
        <time>2015-04-05T13:09:01Z</time>
      </trkpt>
      <trkpt lat="44.54853" lon="5.73598">
        <ele>1156.6</ele>
        <time>2015-04-05T13:09:07Z</time>
      </trkpt>
      <trkpt lat="44.5485" lon="5.73584">
        <ele>1157.2</ele>
        <time>2015-04-05T13:09:13Z</time>
      </trkpt>
      <trkpt lat="44.54847" lon="5.7357">
        <ele>1157.4</ele>
        <time>2015-04-05T13:09:19Z</time>
      </trkpt>
      <trkpt lat="44.54843" lon="5.73556">
        <ele>1158.2</ele>
        <time>2015-04-05T13:09:25Z</time>
      </trkpt>
      <trkpt lat="44.54843" lon="5.73542">
        <ele>1157.6</ele>
        <time>2015-04-05T13:09:30Z</time>
      </trkpt>
      <trkpt lat="44.54844" lon="5.73528">
        <ele>1156.6</ele>
        <time>2015-04-05T13:09:35Z</time>
      </trkpt>
      <trkpt lat="44.54843" lon="5.73513">
        <ele>1156.3</ele>
        <time>2015-04-05T13:09:40Z</time>
      </trkpt>
      <trkpt lat="44.54839" lon="5.735">
        <ele>1157.1</ele>
        <time>2015-04-05T13:09:45Z</time>
      </trkpt>
      <trkpt lat="44.54836" lon="5.73487">
        <ele>1158.5</ele>
        <time>2015-04-05T13:09:50Z</time>
      </trkpt>
      <trkpt lat="44.54835" lon="5.73473">
        <ele>1159.5</ele>
        <time>2015-04-05T13:09:56Z</time>
      </trkpt>
      <trkpt lat="44.54837" lon="5.73459">
        <ele>1159.3</ele>
        <time>2015-04-05T13:10:03Z</time>
      </trkpt>
      <trkpt lat="44.54837" lon="5.73445">
        <ele>1159.8</ele>
        <time>2015-04-05T13:10:09Z</time>
      </trkpt>
      <trkpt lat="44.54835" lon="5.73431">
        <ele>1161</ele>
        <time>2015-04-05T13:10:15Z</time>
      </trkpt>
      <trkpt lat="44.54833" lon="5.73417">
        <ele>1162</ele>
        <time>2015-04-05T13:10:21Z</time>
      </trkpt>
      <trkpt lat="44.54831" lon="5.73403">
        <ele>1163.7</ele>
        <time>2015-04-05T13:10:27Z</time>
      </trkpt>
      <trkpt lat="44.54828" lon="5.7339">
        <ele>1165.6</ele>
        <time>2015-04-05T13:10:32Z</time>
      </trkpt>
      <trkpt lat="44.54825" lon="5.73377">
        <ele>1167.2</ele>
        <time>2015-04-05T13:10:37Z</time>
      </trkpt>
      <trkpt lat="44.54824" lon="5.73363">
        <ele>1168.6</ele>
        <time>2015-04-05T13:10:43Z</time>
      </trkpt>
      <trkpt lat="44.54824" lon="5.7335">
        <ele>1169.2</ele>
        <time>2015-04-05T13:10:49Z</time>
      </trkpt>
      <trkpt lat="44.54826" lon="5.73336">
        <ele>1169.1</ele>
        <time>2015-04-05T13:10:57Z</time>
      </trkpt>
      <trkpt lat="44.54826" lon="5.73323">
        <ele>1170.2</ele>
        <time>2015-04-05T13:11:03Z</time>
      </trkpt>
      <trkpt lat="44.54824" lon="5.73308">
        <ele>1171.7</ele>
        <time>2015-04-05T13:11:09Z</time>
      </trkpt>
      <trkpt lat="44.54825" lon="5.73295">
        <ele>1172.4</ele>
        <time>2015-04-05T13:11:15Z</time>
      </trkpt>
      <trkpt lat="44.54824" lon="5.73281">
        <ele>1173.7</ele>
        <time>2015-04-05T13:11:21Z</time>
      </trkpt>
      <trkpt lat="44.54824" lon="5.73267">
        <ele>1174.7</ele>
        <time>2015-04-05T13:11:28Z</time>
      </trkpt>
      <trkpt lat="44.5482" lon="5.73254">
        <ele>1176.9</ele>
        <time>2015-04-05T13:11:34Z</time>
      </trkpt>
      <trkpt lat="44.54812" lon="5.73246">
        <ele>1179.2</ele>
        <time>2015-04-05T13:11:39Z</time>
      </trkpt>
      <trkpt lat="44.54804" lon="5.73239">
        <ele>1181.5</ele>
        <time>2015-04-05T13:11:44Z</time>
      </trkpt>
      <trkpt lat="44.54795" lon="5.73235">
        <ele>1184.2</ele>
        <time>2015-04-05T13:11:49Z</time>
      </trkpt>
      <trkpt lat="44.54785" lon="5.73234">
        <ele>1187</ele>
        <time>2015-04-05T13:11:54Z</time>
      </trkpt>
      <trkpt lat="44.54775" lon="5.73239">
        <ele>1190.1</ele>
        <time>2015-04-05T13:12:00Z</time>
      </trkpt>
      <trkpt lat="44.54766" lon="5.73241">
        <ele>1192.9</ele>
        <time>2015-04-05T13:12:05Z</time>
      </trkpt>
      <trkpt lat="44.54757" lon="5.73239">
        <ele>1195.5</ele>
        <time>2015-04-05T13:12:10Z</time>
      </trkpt>
      <trkpt lat="44.54748" lon="5.73233">
        <ele>1197.4</ele>
        <time>2015-04-05T13:12:19Z</time>
      </trkpt>
      <trkpt lat="44.54741" lon="5.73225">
        <ele>1198.5</ele>
        <time>2015-04-05T13:12:31Z</time>
      </trkpt>
      <trkpt lat="44.54733" lon="5.73217">
        <ele>1199.6</ele>
        <time>2015-04-05T13:12:42Z</time>
      </trkpt>
      <trkpt lat="44.54725" lon="5.73209">
        <ele>1201</ele>
        <time>2015-04-05T13:12:49Z</time>
      </trkpt>
      <trkpt lat="44.54719" lon="5.73199">
        <ele>1202.1</ele>
        <time>2015-04-05T13:12:56Z</time>
      </trkpt>
      <trkpt lat="44.54717" lon="5.73185">
        <ele>1202.3</ele>
        <time>2015-04-05T13:13:03Z</time>
      </trkpt>
      <trkpt lat="44.54713" lon="5.73171">
        <ele>1202.9</ele>
        <time>2015-04-05T13:13:10Z</time>
      </trkpt>
      <trkpt lat="44.5471" lon="5.73159">
        <ele>1203.5</ele>
        <time>2015-04-05T13:13:17Z</time>
      </trkpt>
      <trkpt lat="44.54709" lon="5.73146">
        <ele>1203.6</ele>
        <time>2015-04-05T13:13:24Z</time>
      </trkpt>
      <trkpt lat="44.54708" lon="5.73133">
        <ele>1203.8</ele>
        <time>2015-04-05T13:13:31Z</time>
      </trkpt>
      <trkpt lat="44.54707" lon="5.73119">
        <ele>1204</ele>
        <time>2015-04-05T13:13:38Z</time>
      </trkpt>
      <trkpt lat="44.54708" lon="5.73106">
        <ele>1203.7</ele>
        <time>2015-04-05T13:13:46Z</time>
      </trkpt>
      <trkpt lat="44.54707" lon="5.73093">
        <ele>1204</ele>
        <time>2015-04-05T13:13:54Z</time>
      </trkpt>
      <trkpt lat="44.54703" lon="5.73081">
        <ele>1205</ele>
        <time>2015-04-05T13:14:01Z</time>
      </trkpt>
      <trkpt lat="44.54697" lon="5.73071">
        <ele>1206.8</ele>
        <time>2015-04-05T13:14:07Z</time>
      </trkpt>
      <trkpt lat="44.54691" lon="5.7306">
        <ele>1208.8</ele>
        <time>2015-04-05T13:14:13Z</time>
      </trkpt>
      <trkpt lat="44.54684" lon="5.73051">
        <ele>1210.7</ele>
        <time>2015-04-05T13:14:18Z</time>
      </trkpt>
      <trkpt lat="44.5468" lon="5.73039">
        <ele>1211.7</ele>
        <time>2015-04-05T13:14:25Z</time>
      </trkpt>
      <trkpt lat="44.54679" lon="5.73025">
        <ele>1212.1</ele>
        <time>2015-04-05T13:14:33Z</time>
      </trkpt>
      <trkpt lat="44.54678" lon="5.73012">
        <ele>1212.4</ele>
        <time>2015-04-05T13:14:39Z</time>
      </trkpt>
      <trkpt lat="44.54679" lon="5.72999">
        <ele>1212.4</ele>
        <time>2015-04-05T13:14:45Z</time>
      </trkpt>
      <trkpt lat="44.54673" lon="5.72988">
        <ele>1213.9</ele>
        <time>2015-04-05T13:14:51Z</time>
      </trkpt>
      <trkpt lat="44.54664" lon="5.72985">
        <ele>1216</ele>
        <time>2015-04-05T13:14:57Z</time>
      </trkpt>
      <trkpt lat="44.54656" lon="5.72991">
        <ele>1218</ele>
        <time>2015-04-05T13:15:04Z</time>
      </trkpt>
      <trkpt lat="44.54649" lon="5.73">
        <ele>1219.6</ele>
        <time>2015-04-05T13:15:12Z</time>
      </trkpt>
      <trkpt lat="44.54641" lon="5.73008">
        <ele>1221.7</ele>
        <time>2015-04-05T13:15:21Z</time>
      </trkpt>
      <trkpt lat="44.54633" lon="5.73016">
        <ele>1223.9</ele>
        <time>2015-04-05T13:15:29Z</time>
      </trkpt>
      <trkpt lat="44.54628" lon="5.73027">
        <ele>1225.6</ele>
        <time>2015-04-05T13:15:36Z</time>
      </trkpt>
      <trkpt lat="44.54624" lon="5.7304">
        <ele>1226.9</ele>
        <time>2015-04-05T13:15:43Z</time>
      </trkpt>
      <trkpt lat="44.54619" lon="5.73052">
        <ele>1228.2</ele>
        <time>2015-04-05T13:15:50Z</time>
      </trkpt>
      <trkpt lat="44.5461" lon="5.73055">
        <ele>1230.8</ele>
        <time>2015-04-05T13:15:58Z</time>
      </trkpt>
      <trkpt lat="44.54608" lon="5.73042">
        <ele>1231.1</ele>
        <time>2015-04-05T13:16:09Z</time>
      </trkpt>
      <trkpt lat="44.54611" lon="5.7303">
        <ele>1230.1</ele>
        <time>2015-04-05T13:16:18Z</time>
      </trkpt>
      <trkpt lat="44.54615" lon="5.73017">
        <ele>1228.9</ele>
        <time>2015-04-05T13:16:27Z</time>
      </trkpt>
      <trkpt lat="44.5462" lon="5.73005">
        <ele>1227.5</ele>
        <time>2015-04-05T13:16:36Z</time>
      </trkpt>
      <trkpt lat="44.54618" lon="5.72992">
        <ele>1228</ele>
        <time>2015-04-05T13:16:43Z</time>
      </trkpt>
      <trkpt lat="44.54619" lon="5.72978">
        <ele>1228.2</ele>
        <time>2015-04-05T13:16:51Z</time>
      </trkpt>
      <trkpt lat="44.54618" lon="5.72964">
        <ele>1228.8</ele>
        <time>2015-04-05T13:16:58Z</time>
      </trkpt>
      <trkpt lat="44.54617" lon="5.72951">
        <ele>1229.3</ele>
        <time>2015-04-05T13:17:04Z</time>
      </trkpt>
      <trkpt lat="44.54616" lon="5.72938">
        <ele>1229.8</ele>
        <time>2015-04-05T13:17:10Z</time>
      </trkpt>
      <trkpt lat="44.54615" lon="5.72925">
        <ele>1230.5</ele>
        <time>2015-04-05T13:17:17Z</time>
      </trkpt>
      <trkpt lat="44.54613" lon="5.72911">
        <ele>1231.5</ele>
        <time>2015-04-05T13:17:24Z</time>
      </trkpt>
      <trkpt lat="44.54609" lon="5.72897">
        <ele>1232.9</ele>
        <time>2015-04-05T13:17:31Z</time>
      </trkpt>
      <trkpt lat="44.54607" lon="5.72885">
        <ele>1234</ele>
        <time>2015-04-05T13:17:37Z</time>
      </trkpt>
      <trkpt lat="44.54605" lon="5.72872">
        <ele>1234.9</ele>
        <time>2015-04-05T13:17:45Z</time>
      </trkpt>
      <trkpt lat="44.54604" lon="5.72858">
        <ele>1235.9</ele>
        <time>2015-04-05T13:17:53Z</time>
      </trkpt>
      <trkpt lat="44.54603" lon="5.72844">
        <ele>1236.6</ele>
        <time>2015-04-05T13:18:02Z</time>
      </trkpt>
      <trkpt lat="44.54601" lon="5.7283">
        <ele>1237.8</ele>
        <time>2015-04-05T13:18:10Z</time>
      </trkpt>
      <trkpt lat="44.54598" lon="5.72817">
        <ele>1238.6</ele>
        <time>2015-04-05T13:18:17Z</time>
      </trkpt>
      <trkpt lat="44.54594" lon="5.72806">
        <ele>1239.9</ele>
        <time>2015-04-05T13:18:23Z</time>
      </trkpt>
      <trkpt lat="44.54589" lon="5.72792">
        <ele>1241.2</ele>
        <time>2015-04-05T13:18:31Z</time>
      </trkpt>
      <trkpt lat="44.54585" lon="5.7278">
        <ele>1242.5</ele>
        <time>2015-04-05T13:18:38Z</time>
      </trkpt>
      <trkpt lat="44.54582" lon="5.72767">
        <ele>1243.4</ele>
        <time>2015-04-05T13:18:45Z</time>
      </trkpt>
      <trkpt lat="44.54578" lon="5.72754">
        <ele>1244.6</ele>
        <time>2015-04-05T13:18:52Z</time>
      </trkpt>
      <trkpt lat="44.54576" lon="5.72741">
        <ele>1245.4</ele>
        <time>2015-04-05T13:18:59Z</time>
      </trkpt>
      <trkpt lat="44.54573" lon="5.72729">
        <ele>1246.3</ele>
        <time>2015-04-05T13:19:06Z</time>
      </trkpt>
      <trkpt lat="44.5457" lon="5.72716">
        <ele>1247.2</ele>
        <time>2015-04-05T13:19:13Z</time>
      </trkpt>
      <trkpt lat="44.54566" lon="5.72704">
        <ele>1248.4</ele>
        <time>2015-04-05T13:19:20Z</time>
      </trkpt>
      <trkpt lat="44.54562" lon="5.72691">
        <ele>1249.5</ele>
        <time>2015-04-05T13:19:27Z</time>
      </trkpt>
      <trkpt lat="44.54557" lon="5.72678">
        <ele>1250.9</ele>
        <time>2015-04-05T13:19:34Z</time>
      </trkpt>
      <trkpt lat="44.54554" lon="5.72665">
        <ele>1251.9</ele>
        <time>2015-04-05T13:19:41Z</time>
      </trkpt>
      <trkpt lat="44.54551" lon="5.72652">
        <ele>1252.8</ele>
        <time>2015-04-05T13:19:49Z</time>
      </trkpt>
      <trkpt lat="44.5455" lon="5.72639">
        <ele>1253.2</ele>
        <time>2015-04-05T13:19:57Z</time>
      </trkpt>
      <trkpt lat="44.54547" lon="5.72626">
        <ele>1254.1</ele>
        <time>2015-04-05T13:20:04Z</time>
      </trkpt>
      <trkpt lat="44.54544" lon="5.72613">
        <ele>1255.1</ele>
        <time>2015-04-05T13:20:11Z</time>
      </trkpt>
      <trkpt lat="44.54541" lon="5.72601">
        <ele>1256</ele>
        <time>2015-04-05T13:20:18Z</time>
      </trkpt>
      <trkpt lat="44.54538" lon="5.72588">
        <ele>1257.2</ele>
        <time>2015-04-05T13:20:25Z</time>
      </trkpt>
      <trkpt lat="44.54538" lon="5.72574">
        <ele>1257.5</ele>
        <time>2015-04-05T13:20:34Z</time>
      </trkpt>
      <trkpt lat="44.54536" lon="5.72562">
        <ele>1258.2</ele>
        <time>2015-04-05T13:20:41Z</time>
      </trkpt>
      <trkpt lat="44.54537" lon="5.72548">
        <ele>1258.3</ele>
        <time>2015-04-05T13:20:49Z</time>
      </trkpt>
      <trkpt lat="44.54538" lon="5.72535">
        <ele>1258.5</ele>
        <time>2015-04-05T13:20:58Z</time>
      </trkpt>
      <trkpt lat="44.54538" lon="5.72522">
        <ele>1258.8</ele>
        <time>2015-04-05T13:21:07Z</time>
      </trkpt>
      <trkpt lat="44.54537" lon="5.72508">
        <ele>1259.5</ele>
        <time>2015-04-05T13:21:15Z</time>
      </trkpt>
      <trkpt lat="44.54536" lon="5.72494">
        <ele>1259.9</ele>
        <time>2015-04-05T13:21:23Z</time>
      </trkpt>
      <trkpt lat="44.54537" lon="5.7248">
        <ele>1259.6</ele>
        <time>2015-04-05T13:21:32Z</time>
      </trkpt>
      <trkpt lat="44.54535" lon="5.72467">
        <ele>1260.7</ele>
        <time>2015-04-05T13:21:40Z</time>
      </trkpt>
      <trkpt lat="44.54528" lon="5.72459">
        <ele>1263.2</ele>
        <time>2015-04-05T13:21:48Z</time>
      </trkpt>
      <trkpt lat="44.5452" lon="5.72451">
        <ele>1266.2</ele>
        <time>2015-04-05T13:21:58Z</time>
      </trkpt>
      <trkpt lat="44.54517" lon="5.72438">
        <ele>1267.8</ele>
        <time>2015-04-05T13:22:08Z</time>
      </trkpt>
      <trkpt lat="44.54513" lon="5.72425">
        <ele>1269.6</ele>
        <time>2015-04-05T13:22:17Z</time>
      </trkpt>
      <trkpt lat="44.54513" lon="5.72411">
        <ele>1270.2</ele>
        <time>2015-04-05T13:22:26Z</time>
      </trkpt>
      <trkpt lat="44.54512" lon="5.72398">
        <ele>1270.9</ele>
        <time>2015-04-05T13:22:33Z</time>
      </trkpt>
      <trkpt lat="44.54509" lon="5.72386">
        <ele>1272</ele>
        <time>2015-04-05T13:22:40Z</time>
      </trkpt>
      <trkpt lat="44.54507" lon="5.72374">
        <ele>1273</ele>
        <time>2015-04-05T13:22:47Z</time>
      </trkpt>
      <trkpt lat="44.54505" lon="5.72361">
        <ele>1274.1</ele>
        <time>2015-04-05T13:22:54Z</time>
      </trkpt>
      <trkpt lat="44.54498" lon="5.72352">
        <ele>1276.5</ele>
        <time>2015-04-05T13:23:01Z</time>
      </trkpt>
      <trkpt lat="44.54489" lon="5.72359">
        <ele>1279.3</ele>
        <time>2015-04-05T13:23:11Z</time>
      </trkpt>
      <trkpt lat="44.54489" lon="5.72372">
        <ele>1279.4</ele>
        <time>2015-04-05T13:23:22Z</time>
      </trkpt>
      <trkpt lat="44.5448" lon="5.72376">
        <ele>1282.3</ele>
        <time>2015-04-05T13:25:44Z</time>
      </trkpt>
      <trkpt lat="44.54471" lon="5.7237">
        <ele>1285.5</ele>
        <time>2015-04-05T13:26:00Z</time>
      </trkpt>
      <trkpt lat="44.5448" lon="5.72373">
        <ele>1282.4</ele>
        <time>2015-04-05T13:26:33Z</time>
      </trkpt>
      <trkpt lat="44.54489" lon="5.72377">
        <ele>1279.4</ele>
        <time>2015-04-05T13:28:02Z</time>
      </trkpt>
      <trkpt lat="44.54481" lon="5.72383">
        <ele>1282</ele>
        <time>2015-04-05T13:31:30Z</time>
      </trkpt>
      <trkpt lat="44.5449" lon="5.72382">
        <ele>1278.9</ele>
        <time>2015-04-05T13:35:33Z</time>
      </trkpt>
      <trkpt lat="44.5449" lon="5.72395">
        <ele>1278.6</ele>
        <time>2015-04-05T13:36:05Z</time>
      </trkpt>
      <trkpt lat="44.54484" lon="5.72407">
        <ele>1280.5</ele>
        <time>2015-04-05T13:36:14Z</time>
      </trkpt>
      <trkpt lat="44.54479" lon="5.72418">
        <ele>1282.4</ele>
        <time>2015-04-05T13:36:22Z</time>
      </trkpt>
      <trkpt lat="44.54474" lon="5.72429">
        <ele>1283.8</ele>
        <time>2015-04-05T13:36:30Z</time>
      </trkpt>
      <trkpt lat="44.54469" lon="5.72441">
        <ele>1285.2</ele>
        <time>2015-04-05T13:36:38Z</time>
      </trkpt>
      <trkpt lat="44.54464" lon="5.72452">
        <ele>1286.7</ele>
        <time>2015-04-05T13:36:46Z</time>
      </trkpt>
      <trkpt lat="44.54459" lon="5.72463">
        <ele>1288.5</ele>
        <time>2015-04-05T13:36:53Z</time>
      </trkpt>
      <trkpt lat="44.54453" lon="5.72475">
        <ele>1290.5</ele>
        <time>2015-04-05T13:37:00Z</time>
      </trkpt>
      <trkpt lat="44.54448" lon="5.72487">
        <ele>1292.3</ele>
        <time>2015-04-05T13:37:07Z</time>
      </trkpt>
      <trkpt lat="44.54442" lon="5.72499">
        <ele>1294.2</ele>
        <time>2015-04-05T13:37:14Z</time>
      </trkpt>
      <trkpt lat="44.54437" lon="5.72511">
        <ele>1295.3</ele>
        <time>2015-04-05T13:37:21Z</time>
      </trkpt>
      <trkpt lat="44.5443" lon="5.72522">
        <ele>1296.6</ele>
        <time>2015-04-05T13:37:28Z</time>
      </trkpt>
      <trkpt lat="44.54424" lon="5.72532">
        <ele>1297.9</ele>
        <time>2015-04-05T13:37:35Z</time>
      </trkpt>
      <trkpt lat="44.54418" lon="5.72542">
        <ele>1299.1</ele>
        <time>2015-04-05T13:37:42Z</time>
      </trkpt>
      <trkpt lat="44.54411" lon="5.72552">
        <ele>1300.5</ele>
        <time>2015-04-05T13:37:49Z</time>
      </trkpt>
      <trkpt lat="44.54404" lon="5.7256">
        <ele>1302.1</ele>
        <time>2015-04-05T13:37:55Z</time>
      </trkpt>
      <trkpt lat="44.54397" lon="5.7257">
        <ele>1303.7</ele>
        <time>2015-04-05T13:38:02Z</time>
      </trkpt>
      <trkpt lat="44.54392" lon="5.72581">
        <ele>1304.3</ele>
        <time>2015-04-05T13:38:08Z</time>
      </trkpt>
      <trkpt lat="44.54387" lon="5.72593">
        <ele>1305.1</ele>
        <time>2015-04-05T13:38:14Z</time>
      </trkpt>
      <trkpt lat="44.54384" lon="5.72605">
        <ele>1305.3</ele>
        <time>2015-04-05T13:38:19Z</time>
      </trkpt>
      <trkpt lat="44.54379" lon="5.72618">
        <ele>1306</ele>
        <time>2015-04-05T13:38:25Z</time>
      </trkpt>
      <trkpt lat="44.54375" lon="5.7263">
        <ele>1306.6</ele>
        <time>2015-04-05T13:38:31Z</time>
      </trkpt>
      <trkpt lat="44.5437" lon="5.72641">
        <ele>1307.5</ele>
        <time>2015-04-05T13:38:37Z</time>
      </trkpt>
      <trkpt lat="44.54366" lon="5.72654">
        <ele>1308.1</ele>
        <time>2015-04-05T13:38:43Z</time>
      </trkpt>
      <trkpt lat="44.54361" lon="5.72666">
        <ele>1308.7</ele>
        <time>2015-04-05T13:38:49Z</time>
      </trkpt>
      <trkpt lat="44.54356" lon="5.72678">
        <ele>1310.1</ele>
        <time>2015-04-05T13:38:55Z</time>
      </trkpt>
      <trkpt lat="44.54353" lon="5.72692">
        <ele>1311</ele>
        <time>2015-04-05T13:39:01Z</time>
      </trkpt>
      <trkpt lat="44.5435" lon="5.72706">
        <ele>1311.9</ele>
        <time>2015-04-05T13:39:07Z</time>
      </trkpt>
      <trkpt lat="44.54347" lon="5.72719">
        <ele>1312.7</ele>
        <time>2015-04-05T13:39:13Z</time>
      </trkpt>
      <trkpt lat="44.54343" lon="5.72733">
        <ele>1313.4</ele>
        <time>2015-04-05T13:39:19Z</time>
      </trkpt>
      <trkpt lat="44.5434" lon="5.72746">
        <ele>1314.3</ele>
        <time>2015-04-05T13:39:25Z</time>
      </trkpt>
      <trkpt lat="44.54335" lon="5.72759">
        <ele>1315.2</ele>
        <time>2015-04-05T13:39:31Z</time>
      </trkpt>
      <trkpt lat="44.54333" lon="5.72774">
        <ele>1315.7</ele>
        <time>2015-04-05T13:39:37Z</time>
      </trkpt>
      <trkpt lat="44.5433" lon="5.72788">
        <ele>1316.4</ele>
        <time>2015-04-05T13:39:44Z</time>
      </trkpt>
      <trkpt lat="44.54328" lon="5.72802">
        <ele>1316.7</ele>
        <time>2015-04-05T13:39:50Z</time>
      </trkpt>
      <trkpt lat="44.54326" lon="5.72816">
        <ele>1316.9</ele>
        <time>2015-04-05T13:39:56Z</time>
      </trkpt>
      <trkpt lat="44.54324" lon="5.72829">
        <ele>1317.3</ele>
        <time>2015-04-05T13:40:02Z</time>
      </trkpt>
      <trkpt lat="44.54322" lon="5.72842">
        <ele>1317.9</ele>
        <time>2015-04-05T13:40:08Z</time>
      </trkpt>
      <trkpt lat="44.5432" lon="5.72857">
        <ele>1318.4</ele>
        <time>2015-04-05T13:40:14Z</time>
      </trkpt>
      <trkpt lat="44.54318" lon="5.72872">
        <ele>1319</ele>
        <time>2015-04-05T13:40:20Z</time>
      </trkpt>
      <trkpt lat="44.54316" lon="5.72887">
        <ele>1319.4</ele>
        <time>2015-04-05T13:40:26Z</time>
      </trkpt>
      <trkpt lat="44.54314" lon="5.729">
        <ele>1319.8</ele>
        <time>2015-04-05T13:40:31Z</time>
      </trkpt>
      <trkpt lat="44.54312" lon="5.72914">
        <ele>1320.3</ele>
        <time>2015-04-05T13:40:37Z</time>
      </trkpt>
      <trkpt lat="44.5431" lon="5.72927">
        <ele>1320.9</ele>
        <time>2015-04-05T13:40:43Z</time>
      </trkpt>
      <trkpt lat="44.54306" lon="5.7294">
        <ele>1321.6</ele>
        <time>2015-04-05T13:40:49Z</time>
      </trkpt>
      <trkpt lat="44.54303" lon="5.72954">
        <ele>1322.3</ele>
        <time>2015-04-05T13:40:55Z</time>
      </trkpt>
      <trkpt lat="44.54299" lon="5.72967">
        <ele>1323.2</ele>
        <time>2015-04-05T13:41:01Z</time>
      </trkpt>
      <trkpt lat="44.54295" lon="5.72981">
        <ele>1324.1</ele>
        <time>2015-04-05T13:41:07Z</time>
      </trkpt>
      <trkpt lat="44.5429" lon="5.72994">
        <ele>1325.4</ele>
        <time>2015-04-05T13:41:13Z</time>
      </trkpt>
      <trkpt lat="44.54284" lon="5.73006">
        <ele>1326.5</ele>
        <time>2015-04-05T13:41:19Z</time>
      </trkpt>
      <trkpt lat="44.54278" lon="5.73017">
        <ele>1327.7</ele>
        <time>2015-04-05T13:41:25Z</time>
      </trkpt>
      <trkpt lat="44.54271" lon="5.73028">
        <ele>1329.1</ele>
        <time>2015-04-05T13:41:31Z</time>
      </trkpt>
      <trkpt lat="44.54262" lon="5.73036">
        <ele>1331.2</ele>
        <time>2015-04-05T13:41:36Z</time>
      </trkpt>
      <trkpt lat="44.54253" lon="5.73043">
        <ele>1333.3</ele>
        <time>2015-04-05T13:41:40Z</time>
      </trkpt>
      <trkpt lat="44.54245" lon="5.73054">
        <ele>1335</ele>
        <time>2015-04-05T13:41:45Z</time>
      </trkpt>
      <trkpt lat="44.54241" lon="5.73067">
        <ele>1335.1</ele>
        <time>2015-04-05T13:41:50Z</time>
      </trkpt>
      <trkpt lat="44.5424" lon="5.7308">
        <ele>1334.1</ele>
        <time>2015-04-05T13:41:54Z</time>
      </trkpt>
      <trkpt lat="44.54239" lon="5.73093">
        <ele>1334</ele>
        <time>2015-04-05T13:41:58Z</time>
      </trkpt>
      <trkpt lat="44.54237" lon="5.73108">
        <ele>1334.7</ele>
        <time>2015-04-05T13:42:03Z</time>
      </trkpt>
      <trkpt lat="44.54234" lon="5.73124">
        <ele>1335.3</ele>
        <time>2015-04-05T13:42:08Z</time>
      </trkpt>
      <trkpt lat="44.54231" lon="5.73138">
        <ele>1336.2</ele>
        <time>2015-04-05T13:42:13Z</time>
      </trkpt>
      <trkpt lat="44.54229" lon="5.73151">
        <ele>1337</ele>
        <time>2015-04-05T13:42:17Z</time>
      </trkpt>
      <trkpt lat="44.54225" lon="5.73164">
        <ele>1337.9</ele>
        <time>2015-04-05T13:42:22Z</time>
      </trkpt>
      <trkpt lat="44.54221" lon="5.73178">
        <ele>1339.3</ele>
        <time>2015-04-05T13:42:27Z</time>
      </trkpt>
      <trkpt lat="44.54218" lon="5.73192">
        <ele>1340.7</ele>
        <time>2015-04-05T13:42:32Z</time>
      </trkpt>
      <trkpt lat="44.54214" lon="5.73206">
        <ele>1342.1</ele>
        <time>2015-04-05T13:42:37Z</time>
      </trkpt>
      <trkpt lat="44.5421" lon="5.73219">
        <ele>1343.6</ele>
        <time>2015-04-05T13:42:42Z</time>
      </trkpt>
      <trkpt lat="44.54202" lon="5.73228">
        <ele>1346</ele>
        <time>2015-04-05T13:42:48Z</time>
      </trkpt>
      <trkpt lat="44.54194" lon="5.73233">
        <ele>1348.9</ele>
        <time>2015-04-05T13:42:54Z</time>
      </trkpt>
      <trkpt lat="44.54185" lon="5.73239">
        <ele>1352</ele>
        <time>2015-04-05T13:42:59Z</time>
      </trkpt>
      <trkpt lat="44.54174" lon="5.73243">
        <ele>1355.7</ele>
        <time>2015-04-05T13:43:03Z</time>
      </trkpt>
      <trkpt lat="44.54165" lon="5.73247">
        <ele>1358.2</ele>
        <time>2015-04-05T13:43:15Z</time>
      </trkpt>
      <trkpt lat="44.54172" lon="5.73255">
        <ele>1356.4</ele>
        <time>2015-04-05T13:44:02Z</time>
      </trkpt>
      <trkpt lat="44.54163" lon="5.73253">
        <ele>1358.4</ele>
        <time>2015-04-05T13:46:28Z</time>
      </trkpt>
      <trkpt lat="44.54154" lon="5.73259">
        <ele>1359.5</ele>
        <time>2015-04-05T13:47:43Z</time>
      </trkpt>
      <trkpt lat="44.54145" lon="5.73262">
        <ele>1360.5</ele>
        <time>2015-04-05T13:47:46Z</time>
      </trkpt>
      <trkpt lat="44.54136" lon="5.73259">
        <ele>1361.3</ele>
        <time>2015-04-05T13:47:48Z</time>
      </trkpt>
      <trkpt lat="44.54126" lon="5.73257">
        <ele>1362.2</ele>
        <time>2015-04-05T13:47:50Z</time>
      </trkpt>
      <trkpt lat="44.54116" lon="5.7325">
        <ele>1362.8</ele>
        <time>2015-04-05T13:47:53Z</time>
      </trkpt>
      <trkpt lat="44.54125" lon="5.73251">
        <ele>1362</ele>
        <time>2015-04-05T13:50:34Z</time>
      </trkpt>
      <trkpt lat="44.54117" lon="5.73244">
        <ele>1363.1</ele>
        <time>2015-04-05T13:53:06Z</time>
      </trkpt>
      <trkpt lat="44.54109" lon="5.73249">
        <ele>1363.7</ele>
        <time>2015-04-05T13:53:10Z</time>
      </trkpt>
      <trkpt lat="44.54097" lon="5.73251">
        <ele>1364.7</ele>
        <time>2015-04-05T13:53:14Z</time>
      </trkpt>
      <trkpt lat="44.54087" lon="5.73247">
        <ele>1365.9</ele>
        <time>2015-04-05T13:53:19Z</time>
      </trkpt>
      <trkpt lat="44.54078" lon="5.73247">
        <ele>1365.3</ele>
        <time>2015-04-05T13:53:58Z</time>
      </trkpt>
      <trkpt lat="44.54067" lon="5.73239">
        <ele>1364.1</ele>
        <time>2015-04-05T13:54:05Z</time>
      </trkpt>
      <trkpt lat="44.54068" lon="5.73255">
        <ele>1363.3</ele>
        <time>2015-04-05T13:54:13Z</time>
      </trkpt>
      <trkpt lat="44.54059" lon="5.7326">
        <ele>1362.1</ele>
        <time>2015-04-05T13:54:21Z</time>
      </trkpt>
      <trkpt lat="44.54052" lon="5.73271">
        <ele>1361.5</ele>
        <time>2015-04-05T13:54:26Z</time>
      </trkpt>
      <trkpt lat="44.54044" lon="5.73282">
        <ele>1361.1</ele>
        <time>2015-04-05T13:54:31Z</time>
      </trkpt>
      <trkpt lat="44.5404" lon="5.73293">
        <ele>1361.2</ele>
        <time>2015-04-05T13:54:39Z</time>
      </trkpt>
      <trkpt lat="44.54035" lon="5.73303">
        <ele>1361.2</ele>
        <time>2015-04-05T13:54:46Z</time>
      </trkpt>
      <trkpt lat="44.54032" lon="5.73316">
        <ele>1361.7</ele>
        <time>2015-04-05T13:54:50Z</time>
      </trkpt>
      <trkpt lat="44.5403" lon="5.73331">
        <ele>1362.7</ele>
        <time>2015-04-05T13:54:56Z</time>
      </trkpt>
      <trkpt lat="44.54026" lon="5.73345">
        <ele>1364.5</ele>
        <time>2015-04-05T13:55:01Z</time>
      </trkpt>
      <trkpt lat="44.54023" lon="5.7336">
        <ele>1366.8</ele>
        <time>2015-04-05T13:55:07Z</time>
      </trkpt>
      <trkpt lat="44.54018" lon="5.7337">
        <ele>1368.1</ele>
        <time>2015-04-05T13:55:11Z</time>
      </trkpt>
      <trkpt lat="44.54012" lon="5.73381">
        <ele>1369.4</ele>
        <time>2015-04-05T13:55:15Z</time>
      </trkpt>
      <trkpt lat="44.54007" lon="5.73391">
        <ele>1370.6</ele>
        <time>2015-04-05T13:55:19Z</time>
      </trkpt>
      <trkpt lat="44.53998" lon="5.734">
        <ele>1370.5</ele>
        <time>2015-04-05T13:55:23Z</time>
      </trkpt>
      <trkpt lat="44.53991" lon="5.73409">
        <ele>1368.4</ele>
        <time>2015-04-05T13:55:27Z</time>
      </trkpt>
      <trkpt lat="44.53984" lon="5.73417">
        <ele>1366.4</ele>
        <time>2015-04-05T13:55:32Z</time>
      </trkpt>
      <trkpt lat="44.53978" lon="5.73427">
        <ele>1365.1</ele>
        <time>2015-04-05T13:55:37Z</time>
      </trkpt>
      <trkpt lat="44.53974" lon="5.73414">
        <ele>1360.1</ele>
        <time>2015-04-05T13:55:54Z</time>
      </trkpt>
      <trkpt lat="44.53973" lon="5.73401">
        <ele>1356.8</ele>
        <time>2015-04-05T13:56:02Z</time>
      </trkpt>
      <trkpt lat="44.53968" lon="5.73388">
        <ele>1351.1</ele>
        <time>2015-04-05T13:56:25Z</time>
      </trkpt>
      <trkpt lat="44.53972" lon="5.73374">
        <ele>1350.3</ele>
        <time>2015-04-05T13:56:31Z</time>
      </trkpt>
      <trkpt lat="44.53977" lon="5.73364">
        <ele>1350.7</ele>
        <time>2015-04-05T13:56:35Z</time>
      </trkpt>
      <trkpt lat="44.53982" lon="5.73352">
        <ele>1351.3</ele>
        <time>2015-04-05T13:56:40Z</time>
      </trkpt>
      <trkpt lat="44.5398" lon="5.73335">
        <ele>1346.8</ele>
        <time>2015-04-05T13:56:45Z</time>
      </trkpt>
      <trkpt lat="44.53979" lon="5.73319">
        <ele>1344.4</ele>
        <time>2015-04-05T13:56:48Z</time>
      </trkpt>
      <trkpt lat="44.53977" lon="5.73306">
        <ele>1342.4</ele>
        <time>2015-04-05T13:56:52Z</time>
      </trkpt>
      <trkpt lat="44.53974" lon="5.73291">
        <ele>1340</ele>
        <time>2015-04-05T13:56:56Z</time>
      </trkpt>
      <trkpt lat="44.5397" lon="5.73278">
        <ele>1336.7</ele>
        <time>2015-04-05T13:57:01Z</time>
      </trkpt>
      <trkpt lat="44.53962" lon="5.73268">
        <ele>1332.2</ele>
        <time>2015-04-05T13:57:04Z</time>
      </trkpt>
      <trkpt lat="44.53955" lon="5.73257">
        <ele>1328.2</ele>
        <time>2015-04-05T13:57:08Z</time>
      </trkpt>
      <trkpt lat="44.53946" lon="5.73247">
        <ele>1324.2</ele>
        <time>2015-04-05T13:57:13Z</time>
      </trkpt>
      <trkpt lat="44.53938" lon="5.73238">
        <ele>1321.7</ele>
        <time>2015-04-05T13:57:17Z</time>
      </trkpt>
      <trkpt lat="44.53929" lon="5.73228">
        <ele>1319.4</ele>
        <time>2015-04-05T13:57:20Z</time>
      </trkpt>
      <trkpt lat="44.53918" lon="5.73221">
        <ele>1315.6</ele>
        <time>2015-04-05T13:57:23Z</time>
      </trkpt>
      <trkpt lat="44.5391" lon="5.73213">
        <ele>1312.3</ele>
        <time>2015-04-05T13:57:26Z</time>
      </trkpt>
      <trkpt lat="44.53903" lon="5.73205">
        <ele>1310.2</ele>
        <time>2015-04-05T13:57:29Z</time>
      </trkpt>
      <trkpt lat="44.53897" lon="5.73193">
        <ele>1309.7</ele>
        <time>2015-04-05T13:57:32Z</time>
      </trkpt>
      <trkpt lat="44.53891" lon="5.7318">
        <ele>1308.7</ele>
        <time>2015-04-05T13:57:35Z</time>
      </trkpt>
      <trkpt lat="44.53887" lon="5.73168">
        <ele>1308.7</ele>
        <time>2015-04-05T13:57:39Z</time>
      </trkpt>
      <trkpt lat="44.53883" lon="5.73156">
        <ele>1309.3</ele>
        <time>2015-04-05T13:57:43Z</time>
      </trkpt>
      <trkpt lat="44.53874" lon="5.73138">
        <ele>1308.9</ele>
        <time>2015-04-05T13:57:48Z</time>
      </trkpt>
      <trkpt lat="44.53868" lon="5.73128">
        <ele>1307.7</ele>
        <time>2015-04-05T13:57:51Z</time>
      </trkpt>
      <trkpt lat="44.53861" lon="5.73119">
        <ele>1306.4</ele>
        <time>2015-04-05T13:57:58Z</time>
      </trkpt>
      <trkpt lat="44.53854" lon="5.73112">
        <ele>1303.7</ele>
        <time>2015-04-05T13:58:41Z</time>
      </trkpt>
      <trkpt lat="44.53853" lon="5.73125">
        <ele>1300.1</ele>
        <time>2015-04-05T13:59:55Z</time>
      </trkpt>
      <trkpt lat="44.53852" lon="5.73137">
        <ele>1297.1</ele>
        <time>2015-04-05T14:00:08Z</time>
      </trkpt>
      <trkpt lat="44.53853" lon="5.7315">
        <ele>1294.7</ele>
        <time>2015-04-05T14:00:11Z</time>
      </trkpt>
      <trkpt lat="44.53852" lon="5.73164">
        <ele>1291.1</ele>
        <time>2015-04-05T14:00:14Z</time>
      </trkpt>
      <trkpt lat="44.53851" lon="5.73179">
        <ele>1287.3</ele>
        <time>2015-04-05T14:00:18Z</time>
      </trkpt>
      <trkpt lat="44.5385" lon="5.73192">
        <ele>1284.4</ele>
        <time>2015-04-05T14:00:21Z</time>
      </trkpt>
      <trkpt lat="44.53849" lon="5.73204">
        <ele>1281.5</ele>
        <time>2015-04-05T14:00:24Z</time>
      </trkpt>
      <trkpt lat="44.5385" lon="5.73222">
        <ele>1278.5</ele>
        <time>2015-04-05T14:00:28Z</time>
      </trkpt>
      <trkpt lat="44.53849" lon="5.73235">
        <ele>1275.6</ele>
        <time>2015-04-05T14:00:31Z</time>
      </trkpt>
      <trkpt lat="44.53849" lon="5.73249">
        <ele>1272.6</ele>
        <time>2015-04-05T14:00:34Z</time>
      </trkpt>
      <trkpt lat="44.5385" lon="5.73266">
        <ele>1272.9</ele>
        <time>2015-04-05T14:00:38Z</time>
      </trkpt>
      <trkpt lat="44.5385" lon="5.7328">
        <ele>1272.4</ele>
        <time>2015-04-05T14:00:41Z</time>
      </trkpt>
      <trkpt lat="44.53846" lon="5.73291">
        <ele>1270.2</ele>
        <time>2015-04-05T14:00:48Z</time>
      </trkpt>
      <trkpt lat="44.53837" lon="5.73286">
        <ele>1265</ele>
        <time>2015-04-05T14:00:56Z</time>
      </trkpt>
      <trkpt lat="44.53829" lon="5.73276">
        <ele>1261.1</ele>
        <time>2015-04-05T14:01:00Z</time>
      </trkpt>
      <trkpt lat="44.5382" lon="5.73266">
        <ele>1255.9</ele>
        <time>2015-04-05T14:01:04Z</time>
      </trkpt>
      <trkpt lat="44.53814" lon="5.73255">
        <ele>1253.1</ele>
        <time>2015-04-05T14:01:08Z</time>
      </trkpt>
      <trkpt lat="44.53806" lon="5.73245">
        <ele>1249.9</ele>
        <time>2015-04-05T14:01:12Z</time>
      </trkpt>
      <trkpt lat="44.538" lon="5.73231">
        <ele>1248.9</ele>
        <time>2015-04-05T14:01:15Z</time>
      </trkpt>
      <trkpt lat="44.53792" lon="5.73221">
        <ele>1246.7</ele>
        <time>2015-04-05T14:01:18Z</time>
      </trkpt>
      <trkpt lat="44.53785" lon="5.73213">
        <ele>1244.7</ele>
        <time>2015-04-05T14:01:21Z</time>
      </trkpt>
      <trkpt lat="44.53779" lon="5.73201">
        <ele>1243.8</ele>
        <time>2015-04-05T14:01:25Z</time>
      </trkpt>
      <trkpt lat="44.53772" lon="5.73189">
        <ele>1242.1</ele>
        <time>2015-04-05T14:01:28Z</time>
      </trkpt>
      <trkpt lat="44.53764" lon="5.73181">
        <ele>1239.8</ele>
        <time>2015-04-05T14:01:32Z</time>
      </trkpt>
      <trkpt lat="44.53755" lon="5.73175">
        <ele>1236</ele>
        <time>2015-04-05T14:01:36Z</time>
      </trkpt>
      <trkpt lat="44.53747" lon="5.73168">
        <ele>1233.2</ele>
        <time>2015-04-05T14:01:39Z</time>
      </trkpt>
      <trkpt lat="44.53738" lon="5.73183">
        <ele>1225.1</ele>
        <time>2015-04-05T14:01:47Z</time>
      </trkpt>
      <trkpt lat="44.53736" lon="5.73196">
        <ele>1221.5</ele>
        <time>2015-04-05T14:01:52Z</time>
      </trkpt>
      <trkpt lat="44.53733" lon="5.73208">
        <ele>1217.6</ele>
        <time>2015-04-05T14:01:57Z</time>
      </trkpt>
      <trkpt lat="44.53729" lon="5.7322">
        <ele>1213.1</ele>
        <time>2015-04-05T14:02:01Z</time>
      </trkpt>
      <trkpt lat="44.53726" lon="5.73233">
        <ele>1208.8</ele>
        <time>2015-04-05T14:02:05Z</time>
      </trkpt>
      <trkpt lat="44.53722" lon="5.73246">
        <ele>1204.6</ele>
        <time>2015-04-05T14:02:08Z</time>
      </trkpt>
      <trkpt lat="44.5372" lon="5.7326">
        <ele>1202</ele>
        <time>2015-04-05T14:02:11Z</time>
      </trkpt>
      <trkpt lat="44.53715" lon="5.73272">
        <ele>1198.6</ele>
        <time>2015-04-05T14:02:14Z</time>
      </trkpt>
      <trkpt lat="44.53709" lon="5.73286">
        <ele>1194.7</ele>
        <time>2015-04-05T14:02:18Z</time>
      </trkpt>
      <trkpt lat="44.53704" lon="5.73298">
        <ele>1190.8</ele>
        <time>2015-04-05T14:02:21Z</time>
      </trkpt>
      <trkpt lat="44.53699" lon="5.7331">
        <ele>1187.3</ele>
        <time>2015-04-05T14:02:24Z</time>
      </trkpt>
      <trkpt lat="44.53691" lon="5.73322">
        <ele>1182.1</ele>
        <time>2015-04-05T14:02:27Z</time>
      </trkpt>
      <trkpt lat="44.53683" lon="5.73335">
        <ele>1176.9</ele>
        <time>2015-04-05T14:02:30Z</time>
      </trkpt>
      <trkpt lat="44.53676" lon="5.73349">
        <ele>1174</ele>
        <time>2015-04-05T14:02:33Z</time>
      </trkpt>
      <trkpt lat="44.5367" lon="5.73362">
        <ele>1171.8</ele>
        <time>2015-04-05T14:02:36Z</time>
      </trkpt>
      <trkpt lat="44.53663" lon="5.73372">
        <ele>1168.7</ele>
        <time>2015-04-05T14:02:39Z</time>
      </trkpt>
      <trkpt lat="44.53656" lon="5.73383">
        <ele>1166.2</ele>
        <time>2015-04-05T14:02:42Z</time>
      </trkpt>
      <trkpt lat="44.53647" lon="5.73393">
        <ele>1161.9</ele>
        <time>2015-04-05T14:02:45Z</time>
      </trkpt>
      <trkpt lat="44.53636" lon="5.73403">
        <ele>1156.6</ele>
        <time>2015-04-05T14:02:48Z</time>
      </trkpt>
      <trkpt lat="44.53625" lon="5.73413">
        <ele>1151.5</ele>
        <time>2015-04-05T14:02:51Z</time>
      </trkpt>
      <trkpt lat="44.53615" lon="5.73423">
        <ele>1146.9</ele>
        <time>2015-04-05T14:02:54Z</time>
      </trkpt>
      <trkpt lat="44.53606" lon="5.73434">
        <ele>1143.4</ele>
        <time>2015-04-05T14:02:57Z</time>
      </trkpt>
      <trkpt lat="44.53598" lon="5.73444">
        <ele>1140.6</ele>
        <time>2015-04-05T14:03:01Z</time>
      </trkpt>
      <trkpt lat="44.53593" lon="5.73457">
        <ele>1139</ele>
        <time>2015-04-05T14:03:11Z</time>
      </trkpt>
      <trkpt lat="44.53585" lon="5.73468">
        <ele>1136.2</ele>
        <time>2015-04-05T14:03:14Z</time>
      </trkpt>
      <trkpt lat="44.53577" lon="5.73479">
        <ele>1133.1</ele>
        <time>2015-04-05T14:03:18Z</time>
      </trkpt>
      <trkpt lat="44.53571" lon="5.7349">
        <ele>1130.8</ele>
        <time>2015-04-05T14:03:22Z</time>
      </trkpt>
      <trkpt lat="44.53565" lon="5.73502">
        <ele>1128.8</ele>
        <time>2015-04-05T14:03:26Z</time>
      </trkpt>
      <trkpt lat="44.53561" lon="5.73517">
        <ele>1128.6</ele>
        <time>2015-04-05T14:03:30Z</time>
      </trkpt>
      <trkpt lat="44.53556" lon="5.73528">
        <ele>1127.3</ele>
        <time>2015-04-05T14:03:33Z</time>
      </trkpt>
      <trkpt lat="44.53548" lon="5.73539">
        <ele>1123.9</ele>
        <time>2015-04-05T14:03:36Z</time>
      </trkpt>
      <trkpt lat="44.53541" lon="5.73549">
        <ele>1121</ele>
        <time>2015-04-05T14:03:38Z</time>
      </trkpt>
      <trkpt lat="44.53535" lon="5.73558">
        <ele>1118.5</ele>
        <time>2015-04-05T14:03:40Z</time>
      </trkpt>
      <trkpt lat="44.53528" lon="5.73572">
        <ele>1115.3</ele>
        <time>2015-04-05T14:03:43Z</time>
      </trkpt>
      <trkpt lat="44.53521" lon="5.73581">
        <ele>1111.6</ele>
        <time>2015-04-05T14:03:46Z</time>
      </trkpt>
      <trkpt lat="44.53513" lon="5.73589">
        <ele>1108.3</ele>
        <time>2015-04-05T14:03:49Z</time>
      </trkpt>
      <trkpt lat="44.53505" lon="5.73597">
        <ele>1104.5</ele>
        <time>2015-04-05T14:03:52Z</time>
      </trkpt>
      <trkpt lat="44.53495" lon="5.73606">
        <ele>1100.4</ele>
        <time>2015-04-05T14:03:56Z</time>
      </trkpt>
      <trkpt lat="44.53487" lon="5.73614">
        <ele>1096.9</ele>
        <time>2015-04-05T14:03:59Z</time>
      </trkpt>
      <trkpt lat="44.53478" lon="5.73624">
        <ele>1093.5</ele>
        <time>2015-04-05T14:04:03Z</time>
      </trkpt>
      <trkpt lat="44.53471" lon="5.73633">
        <ele>1091.5</ele>
        <time>2015-04-05T14:04:06Z</time>
      </trkpt>
      <trkpt lat="44.53462" lon="5.73641">
        <ele>1087.9</ele>
        <time>2015-04-05T14:04:10Z</time>
      </trkpt>
      <trkpt lat="44.53454" lon="5.73651">
        <ele>1085.3</ele>
        <time>2015-04-05T14:04:14Z</time>
      </trkpt>
      <trkpt lat="44.53445" lon="5.73663">
        <ele>1082.9</ele>
        <time>2015-04-05T14:04:18Z</time>
      </trkpt>
      <trkpt lat="44.53436" lon="5.73673">
        <ele>1080</ele>
        <time>2015-04-05T14:04:21Z</time>
      </trkpt>
      <trkpt lat="44.53427" lon="5.73682">
        <ele>1076.6</ele>
        <time>2015-04-05T14:04:24Z</time>
      </trkpt>
      <trkpt lat="44.53421" lon="5.73694">
        <ele>1075</ele>
        <time>2015-04-05T14:04:27Z</time>
      </trkpt>
      <trkpt lat="44.5341" lon="5.73702">
        <ele>1070.3</ele>
        <time>2015-04-05T14:04:30Z</time>
      </trkpt>
      <trkpt lat="44.53401" lon="5.73707">
        <ele>1065.9</ele>
        <time>2015-04-05T14:04:33Z</time>
      </trkpt>
      <trkpt lat="44.53392" lon="5.73715">
        <ele>1062.1</ele>
        <time>2015-04-05T14:04:37Z</time>
      </trkpt>
      <trkpt lat="44.53384" lon="5.73721">
        <ele>1058.3</ele>
        <time>2015-04-05T14:04:41Z</time>
      </trkpt>
      <trkpt lat="44.53373" lon="5.73727">
        <ele>1053.3</ele>
        <time>2015-04-05T14:04:46Z</time>
      </trkpt>
      <trkpt lat="44.53365" lon="5.73734">
        <ele>1049.7</ele>
        <time>2015-04-05T14:04:50Z</time>
      </trkpt>
      <trkpt lat="44.53358" lon="5.73747">
        <ele>1048.3</ele>
        <time>2015-04-05T14:04:54Z</time>
      </trkpt>
      <trkpt lat="44.53353" lon="5.73762">
        <ele>1047.1</ele>
        <time>2015-04-05T14:04:57Z</time>
      </trkpt>
      <trkpt lat="44.53348" lon="5.73777">
        <ele>1045.5</ele>
        <time>2015-04-05T14:05:00Z</time>
      </trkpt>
      <trkpt lat="44.53347" lon="5.73793">
        <ele>1046.3</ele>
        <time>2015-04-05T14:05:04Z</time>
      </trkpt>
      <trkpt lat="44.53348" lon="5.73807">
        <ele>1048.4</ele>
        <time>2015-04-05T14:05:07Z</time>
      </trkpt>
      <trkpt lat="44.53345" lon="5.73819">
        <ele>1047.8</ele>
        <time>2015-04-05T14:05:10Z</time>
      </trkpt>
      <trkpt lat="44.53338" lon="5.7383">
        <ele>1044.5</ele>
        <time>2015-04-05T14:05:13Z</time>
      </trkpt>
      <trkpt lat="44.5333" lon="5.73839">
        <ele>1040.1</ele>
        <time>2015-04-05T14:05:16Z</time>
      </trkpt>
      <trkpt lat="44.5332" lon="5.73848">
        <ele>1033.9</ele>
        <time>2015-04-05T14:05:19Z</time>
      </trkpt>
      <trkpt lat="44.53313" lon="5.73858">
        <ele>1029.7</ele>
        <time>2015-04-05T14:05:23Z</time>
      </trkpt>
      <trkpt lat="44.53307" lon="5.73869">
        <ele>1026.4</ele>
        <time>2015-04-05T14:05:26Z</time>
      </trkpt>
      <trkpt lat="44.53302" lon="5.7388">
        <ele>1024</ele>
        <time>2015-04-05T14:05:31Z</time>
      </trkpt>
      <trkpt lat="44.53291" lon="5.7388">
        <ele>1017.8</ele>
        <time>2015-04-05T14:05:36Z</time>
      </trkpt>
      <trkpt lat="44.5328" lon="5.73885">
        <ele>1011.9</ele>
        <time>2015-04-05T14:05:40Z</time>
      </trkpt>
      <trkpt lat="44.53269" lon="5.73881">
        <ele>1005.5</ele>
        <time>2015-04-05T14:05:45Z</time>
      </trkpt>
      <trkpt lat="44.5326" lon="5.73881">
        <ele>1000.3</ele>
        <time>2015-04-05T14:06:57Z</time>
      </trkpt>
      <trkpt lat="44.53252" lon="5.7387">
        <ele>994.8</ele>
        <time>2015-04-05T14:07:09Z</time>
      </trkpt>
      <trkpt lat="44.53244" lon="5.73864">
        <ele>990.2</ele>
        <time>2015-04-05T14:07:12Z</time>
      </trkpt>
      <trkpt lat="44.53233" lon="5.73854">
        <ele>984.4</ele>
        <time>2015-04-05T14:07:15Z</time>
      </trkpt>
      <trkpt lat="44.53226" lon="5.73844">
        <ele>980.2</ele>
        <time>2015-04-05T14:07:18Z</time>
      </trkpt>
      <trkpt lat="44.53218" lon="5.73834">
        <ele>976.2</ele>
        <time>2015-04-05T14:07:22Z</time>
      </trkpt>
      <trkpt lat="44.53211" lon="5.73823">
        <ele>971</ele>
        <time>2015-04-05T14:07:27Z</time>
      </trkpt>
      <trkpt lat="44.53201" lon="5.73818">
        <ele>965.3</ele>
        <time>2015-04-05T14:07:29Z</time>
      </trkpt>
      <trkpt lat="44.53193" lon="5.73812">
        <ele>960.1</ele>
        <time>2015-04-05T14:07:31Z</time>
      </trkpt>
      <trkpt lat="44.53185" lon="5.73804">
        <ele>954.6</ele>
        <time>2015-04-05T14:07:34Z</time>
      </trkpt>
      <trkpt lat="44.53176" lon="5.73801">
        <ele>949.1</ele>
        <time>2015-04-05T14:07:37Z</time>
      </trkpt>
      <trkpt lat="44.53163" lon="5.73801">
        <ele>944.1</ele>
        <time>2015-04-05T14:07:41Z</time>
      </trkpt>
      <trkpt lat="44.53153" lon="5.73801">
        <ele>943.3</ele>
        <time>2015-04-05T14:07:43Z</time>
      </trkpt>
      <trkpt lat="44.53142" lon="5.73802">
        <ele>942.4</ele>
        <time>2015-04-05T14:07:46Z</time>
      </trkpt>
      <trkpt lat="44.53132" lon="5.7381">
        <ele>943.1</ele>
        <time>2015-04-05T14:07:49Z</time>
      </trkpt>
      <trkpt lat="44.53122" lon="5.73808">
        <ele>941.8</ele>
        <time>2015-04-05T14:07:52Z</time>
      </trkpt>
      <trkpt lat="44.53111" lon="5.73807">
        <ele>940.5</ele>
        <time>2015-04-05T14:07:55Z</time>
      </trkpt>
      <trkpt lat="44.53101" lon="5.73804">
        <ele>939</ele>
        <time>2015-04-05T14:07:58Z</time>
      </trkpt>
      <trkpt lat="44.53089" lon="5.73802">
        <ele>937.3</ele>
        <time>2015-04-05T14:08:01Z</time>
      </trkpt>
      <trkpt lat="44.53079" lon="5.73802">
        <ele>935.8</ele>
        <time>2015-04-05T14:08:04Z</time>
      </trkpt>
      <trkpt lat="44.53067" lon="5.73806">
        <ele>934.4</ele>
        <time>2015-04-05T14:08:07Z</time>
      </trkpt>
      <trkpt lat="44.53057" lon="5.73808">
        <ele>933.1</ele>
        <time>2015-04-05T14:08:10Z</time>
      </trkpt>
      <trkpt lat="44.53046" lon="5.73815">
        <ele>932.2</ele>
        <time>2015-04-05T14:08:13Z</time>
      </trkpt>
      <trkpt lat="44.53035" lon="5.73819">
        <ele>930.8</ele>
        <time>2015-04-05T14:08:16Z</time>
      </trkpt>
      <trkpt lat="44.53022" lon="5.73819">
        <ele>928.2</ele>
        <time>2015-04-05T14:08:19Z</time>
      </trkpt>
      <trkpt lat="44.53011" lon="5.73817">
        <ele>925.7</ele>
        <time>2015-04-05T14:08:22Z</time>
      </trkpt>
      <trkpt lat="44.53003" lon="5.73806">
        <ele>922.3</ele>
        <time>2015-04-05T14:08:25Z</time>
      </trkpt>
      <trkpt lat="44.52996" lon="5.73799">
        <ele>919.9</ele>
        <time>2015-04-05T14:08:28Z</time>
      </trkpt>
      <trkpt lat="44.52986" lon="5.73795">
        <ele>917.7</ele>
        <time>2015-04-05T14:08:31Z</time>
      </trkpt>
      <trkpt lat="44.52976" lon="5.73794">
        <ele>916</ele>
        <time>2015-04-05T14:08:39Z</time>
      </trkpt>
      <trkpt lat="44.52966" lon="5.73792">
        <ele>914.2</ele>
        <time>2015-04-05T14:08:48Z</time>
      </trkpt>
      <trkpt lat="44.52955" lon="5.73793">
        <ele>912.5</ele>
        <time>2015-04-05T14:08:51Z</time>
      </trkpt>
      <trkpt lat="44.52946" lon="5.73792">
        <ele>910.9</ele>
        <time>2015-04-05T14:08:54Z</time>
      </trkpt>
      <trkpt lat="44.52935" lon="5.73793">
        <ele>909.6</ele>
        <time>2015-04-05T14:08:58Z</time>
      </trkpt>
      <trkpt lat="44.52924" lon="5.73797">
        <ele>908.8</ele>
        <time>2015-04-05T14:09:01Z</time>
      </trkpt>
      <trkpt lat="44.52917" lon="5.73805">
        <ele>909.4</ele>
        <time>2015-04-05T14:09:04Z</time>
      </trkpt>
      <trkpt lat="44.52909" lon="5.73813">
        <ele>910.4</ele>
        <time>2015-04-05T14:09:07Z</time>
      </trkpt>
      <trkpt lat="44.529" lon="5.7382">
        <ele>910.8</ele>
        <time>2015-04-05T14:09:10Z</time>
      </trkpt>
      <trkpt lat="44.52887" lon="5.73821">
        <ele>909.5</ele>
        <time>2015-04-05T14:09:13Z</time>
      </trkpt>
      <trkpt lat="44.52874" lon="5.73821">
        <ele>907.7</ele>
        <time>2015-04-05T14:09:16Z</time>
      </trkpt>
      <trkpt lat="44.52865" lon="5.73822">
        <ele>907</ele>
        <time>2015-04-05T14:09:18Z</time>
      </trkpt>
      <trkpt lat="44.52854" lon="5.73823">
        <ele>905.9</ele>
        <time>2015-04-05T14:09:21Z</time>
      </trkpt>
      <trkpt lat="44.52842" lon="5.73827">
        <ele>905.4</ele>
        <time>2015-04-05T14:09:25Z</time>
      </trkpt>
      <trkpt lat="44.52833" lon="5.7383">
        <ele>904.8</ele>
        <time>2015-04-05T14:09:28Z</time>
      </trkpt>
      <trkpt lat="44.52822" lon="5.73832">
        <ele>902.3</ele>
        <time>2015-04-05T14:09:32Z</time>
      </trkpt>
      <trkpt lat="44.52813" lon="5.73835">
        <ele>899.7</ele>
        <time>2015-04-05T14:09:37Z</time>
      </trkpt>
      <trkpt lat="44.52804" lon="5.73843">
        <ele>895.5</ele>
        <time>2015-04-05T14:09:41Z</time>
      </trkpt>
      <trkpt lat="44.52796" lon="5.7385">
        <ele>891.5</ele>
        <time>2015-04-05T14:09:45Z</time>
      </trkpt>
      <trkpt lat="44.52788" lon="5.73856">
        <ele>888</ele>
        <time>2015-04-05T14:09:59Z</time>
      </trkpt>
      <trkpt lat="44.52779" lon="5.7386">
        <ele>884.7</ele>
        <time>2015-04-05T14:10:30Z</time>
      </trkpt>
      <trkpt lat="44.52768" lon="5.73867">
        <ele>880.7</ele>
        <time>2015-04-05T14:10:34Z</time>
      </trkpt>
      <trkpt lat="44.5276" lon="5.73876">
        <ele>876.9</ele>
        <time>2015-04-05T14:10:37Z</time>
      </trkpt>
      <trkpt lat="44.52749" lon="5.73885">
        <ele>872.5</ele>
        <time>2015-04-05T14:10:40Z</time>
      </trkpt>
      <trkpt lat="44.52736" lon="5.73891">
        <ele>868.2</ele>
        <time>2015-04-05T14:10:42Z</time>
      </trkpt>
      <trkpt lat="44.52725" lon="5.73894">
        <ele>865</ele>
        <time>2015-04-05T14:10:44Z</time>
      </trkpt>
      <trkpt lat="44.52734" lon="5.73892">
        <ele>867.6</ele>
        <time>2015-04-05T14:12:35Z</time>
      </trkpt>
      <trkpt lat="44.52743" lon="5.73889">
        <ele>870.3</ele>
        <time>2015-04-05T14:12:43Z</time>
      </trkpt>
      <trkpt lat="44.52746" lon="5.73904">
        <ele>868.5</ele>
        <time>2015-04-05T14:13:02Z</time>
      </trkpt>
      <trkpt lat="44.52747" lon="5.73919">
        <ele>866.1</ele>
        <time>2015-04-05T14:13:05Z</time>
      </trkpt>
      <trkpt lat="44.52747" lon="5.73935">
        <ele>862.1</ele>
        <time>2015-04-05T14:13:09Z</time>
      </trkpt>
      <trkpt lat="44.52749" lon="5.7395">
        <ele>858.5</ele>
        <time>2015-04-05T14:13:12Z</time>
      </trkpt>
      <trkpt lat="44.52748" lon="5.73966">
        <ele>854.4</ele>
        <time>2015-04-05T14:13:15Z</time>
      </trkpt>
      <trkpt lat="44.52751" lon="5.73982">
        <ele>850.8</ele>
        <time>2015-04-05T14:13:18Z</time>
      </trkpt>
      <trkpt lat="44.52753" lon="5.73996">
        <ele>847.5</ele>
        <time>2015-04-05T14:13:20Z</time>
      </trkpt>
      <trkpt lat="44.52753" lon="5.7401">
        <ele>845.1</ele>
        <time>2015-04-05T14:13:22Z</time>
      </trkpt>
      <trkpt lat="44.52753" lon="5.74025">
        <ele>843.4</ele>
        <time>2015-04-05T14:13:24Z</time>
      </trkpt>
      <trkpt lat="44.52753" lon="5.74042">
        <ele>841.4</ele>
        <time>2015-04-05T14:13:26Z</time>
      </trkpt>
      <trkpt lat="44.52753" lon="5.74058">
        <ele>839.4</ele>
        <time>2015-04-05T14:13:28Z</time>
      </trkpt>
      <trkpt lat="44.52754" lon="5.74072">
        <ele>837.9</ele>
        <time>2015-04-05T14:13:30Z</time>
      </trkpt>
      <trkpt lat="44.52756" lon="5.74091">
        <ele>836.6</ele>
        <time>2015-04-05T14:13:33Z</time>
      </trkpt>
      <trkpt lat="44.52758" lon="5.74109">
        <ele>836.4</ele>
        <time>2015-04-05T14:13:36Z</time>
      </trkpt>
      <trkpt lat="44.52761" lon="5.74125">
        <ele>836.3</ele>
        <time>2015-04-05T14:13:39Z</time>
      </trkpt>
      <trkpt lat="44.52765" lon="5.74141">
        <ele>836.2</ele>
        <time>2015-04-05T14:13:42Z</time>
      </trkpt>
      <trkpt lat="44.5277" lon="5.74158">
        <ele>836.2</ele>
        <time>2015-04-05T14:13:45Z</time>
      </trkpt>
      <trkpt lat="44.52776" lon="5.74171">
        <ele>836.2</ele>
        <time>2015-04-05T14:13:48Z</time>
      </trkpt>
      <trkpt lat="44.52775" lon="5.74184">
        <ele>835.3</ele>
        <time>2015-04-05T14:13:52Z</time>
      </trkpt>
      <trkpt lat="44.52765" lon="5.7419">
        <ele>834.1</ele>
        <time>2015-04-05T14:13:55Z</time>
      </trkpt>
      <trkpt lat="44.5276" lon="5.74177">
        <ele>834.4</ele>
        <time>2015-04-05T14:14:17Z</time>
      </trkpt>
      <trkpt lat="44.52757" lon="5.74163">
        <ele>834.8</ele>
        <time>2015-04-05T14:14:21Z</time>
      </trkpt>
      <trkpt lat="44.52752" lon="5.74149">
        <ele>834.6</ele>
        <time>2015-04-05T14:14:25Z</time>
      </trkpt>
      <trkpt lat="44.52746" lon="5.74136">
        <ele>834.4</ele>
        <time>2015-04-05T14:14:29Z</time>
      </trkpt>
      <trkpt lat="44.52737" lon="5.74132">
        <ele>833.6</ele>
        <time>2015-04-05T14:14:32Z</time>
      </trkpt>
      <trkpt lat="44.52728" lon="5.74128">
        <ele>833</ele>
        <time>2015-04-05T14:14:35Z</time>
      </trkpt>
      <trkpt lat="44.52718" lon="5.74128">
        <ele>832</ele>
        <time>2015-04-05T14:14:39Z</time>
      </trkpt>
      <trkpt lat="44.52708" lon="5.74133">
        <ele>830.9</ele>
        <time>2015-04-05T14:14:43Z</time>
      </trkpt>
      <trkpt lat="44.52699" lon="5.7414">
        <ele>829.8</ele>
        <time>2015-04-05T14:14:46Z</time>
      </trkpt>
      <trkpt lat="44.52691" lon="5.74146">
        <ele>828.7</ele>
        <time>2015-04-05T14:14:48Z</time>
      </trkpt>
      <trkpt lat="44.52681" lon="5.74151">
        <ele>827.4</ele>
        <time>2015-04-05T14:14:51Z</time>
      </trkpt>
      <trkpt lat="44.52672" lon="5.74152">
        <ele>826.4</ele>
        <time>2015-04-05T14:14:57Z</time>
      </trkpt>
      <trkpt lat="44.52665" lon="5.74142">
        <ele>826.4</ele>
        <time>2015-04-05T14:15:04Z</time>
      </trkpt>
      <trkpt lat="44.52659" lon="5.74154">
        <ele>825.4</ele>
        <time>2015-04-05T14:15:12Z</time>
      </trkpt>
      <trkpt lat="44.52652" lon="5.74164">
        <ele>824.5</ele>
        <time>2015-04-05T14:15:17Z</time>
      </trkpt>
      <trkpt lat="44.52644" lon="5.74173">
        <ele>823.7</ele>
        <time>2015-04-05T14:15:20Z</time>
      </trkpt>
      <trkpt lat="44.52636" lon="5.7418">
        <ele>822.9</ele>
        <time>2015-04-05T14:15:25Z</time>
      </trkpt>
      <trkpt lat="44.52626" lon="5.74188">
        <ele>822</ele>
        <time>2015-04-05T14:15:29Z</time>
      </trkpt>
      <trkpt lat="44.52617" lon="5.74197">
        <ele>821.1</ele>
        <time>2015-04-05T14:15:32Z</time>
      </trkpt>
      <trkpt lat="44.52608" lon="5.74204">
        <ele>820.2</ele>
        <time>2015-04-05T14:15:34Z</time>
      </trkpt>
      <trkpt lat="44.52598" lon="5.7421">
        <ele>819.3</ele>
        <time>2015-04-05T14:15:37Z</time>
      </trkpt>
      <trkpt lat="44.52586" lon="5.74217">
        <ele>818.2</ele>
        <time>2015-04-05T14:15:40Z</time>
      </trkpt>
      <trkpt lat="44.52576" lon="5.74223">
        <ele>817.3</ele>
        <time>2015-04-05T14:15:42Z</time>
      </trkpt>
      <trkpt lat="44.52568" lon="5.74228">
        <ele>816.5</ele>
        <time>2015-04-05T14:15:44Z</time>
      </trkpt>
      <trkpt lat="44.52556" lon="5.74231">
        <ele>815.7</ele>
        <time>2015-04-05T14:15:47Z</time>
      </trkpt>
      <trkpt lat="44.52546" lon="5.74235">
        <ele>814.9</ele>
        <time>2015-04-05T14:15:50Z</time>
      </trkpt>
      <trkpt lat="44.52537" lon="5.74236">
        <ele>814.3</ele>
        <time>2015-04-05T14:15:53Z</time>
      </trkpt>
      <trkpt lat="44.52528" lon="5.7424">
        <ele>813.5</ele>
        <time>2015-04-05T14:15:56Z</time>
      </trkpt>
      <trkpt lat="44.52514" lon="5.74242">
        <ele>812.6</ele>
        <time>2015-04-05T14:15:59Z</time>
      </trkpt>
      <trkpt lat="44.52503" lon="5.74243">
        <ele>811.8</ele>
        <time>2015-04-05T14:16:01Z</time>
      </trkpt>
      <trkpt lat="44.5249" lon="5.74245">
        <ele>810.8</ele>
        <time>2015-04-05T14:16:03Z</time>
      </trkpt>
      <trkpt lat="44.52475" lon="5.74247">
        <ele>809.7</ele>
        <time>2015-04-05T14:16:05Z</time>
      </trkpt>
      <trkpt lat="44.52459" lon="5.7425">
        <ele>808.6</ele>
        <time>2015-04-05T14:16:07Z</time>
      </trkpt>
      <trkpt lat="44.52443" lon="5.74252">
        <ele>807.5</ele>
        <time>2015-04-05T14:16:09Z</time>
      </trkpt>
      <trkpt lat="44.5243" lon="5.74253">
        <ele>806.6</ele>
        <time>2015-04-05T14:16:11Z</time>
      </trkpt>
      <trkpt lat="44.52419" lon="5.74256">
        <ele>805.7</ele>
        <time>2015-04-05T14:16:13Z</time>
      </trkpt>
      <trkpt lat="44.52411" lon="5.74264">
        <ele>804.5</ele>
        <time>2015-04-05T14:16:16Z</time>
      </trkpt>
      <trkpt lat="44.52408" lon="5.7428">
        <ele>803.2</ele>
        <time>2015-04-05T14:16:19Z</time>
      </trkpt>
      <trkpt lat="44.52408" lon="5.74299">
        <ele>801.9</ele>
        <time>2015-04-05T14:16:22Z</time>
      </trkpt>
      <trkpt lat="44.52408" lon="5.74313">
        <ele>800.9</ele>
        <time>2015-04-05T14:16:24Z</time>
      </trkpt>
      <trkpt lat="44.52408" lon="5.74327">
        <ele>800</ele>
        <time>2015-04-05T14:16:26Z</time>
      </trkpt>
      <trkpt lat="44.52408" lon="5.74341">
        <ele>799.3</ele>
        <time>2015-04-05T14:16:28Z</time>
      </trkpt>
      <trkpt lat="44.52409" lon="5.74353">
        <ele>798.9</ele>
        <time>2015-04-05T14:16:30Z</time>
      </trkpt>
      <trkpt lat="44.52409" lon="5.74367">
        <ele>798.4</ele>
        <time>2015-04-05T14:16:32Z</time>
      </trkpt>
      <trkpt lat="44.5241" lon="5.74381">
        <ele>798</ele>
        <time>2015-04-05T14:16:34Z</time>
      </trkpt>
      <trkpt lat="44.52411" lon="5.74396">
        <ele>797.5</ele>
        <time>2015-04-05T14:16:36Z</time>
      </trkpt>
      <trkpt lat="44.52411" lon="5.74411">
        <ele>796.9</ele>
        <time>2015-04-05T14:16:38Z</time>
      </trkpt>
      <trkpt lat="44.52412" lon="5.74426">
        <ele>796.7</ele>
        <time>2015-04-05T14:16:40Z</time>
      </trkpt>
      <trkpt lat="44.52413" lon="5.74442">
        <ele>796.5</ele>
        <time>2015-04-05T14:16:42Z</time>
      </trkpt>
      <trkpt lat="44.52413" lon="5.74459">
        <ele>796.3</ele>
        <time>2015-04-05T14:16:44Z</time>
      </trkpt>
      <trkpt lat="44.52414" lon="5.74475">
        <ele>796.2</ele>
        <time>2015-04-05T14:16:46Z</time>
      </trkpt>
      <trkpt lat="44.52415" lon="5.74492">
        <ele>796</ele>
        <time>2015-04-05T14:16:48Z</time>
      </trkpt>
      <trkpt lat="44.52417" lon="5.7451">
        <ele>795.9</ele>
        <time>2015-04-05T14:16:50Z</time>
      </trkpt>
      <trkpt lat="44.52418" lon="5.74529">
        <ele>795.7</ele>
        <time>2015-04-05T14:16:52Z</time>
      </trkpt>
      <trkpt lat="44.52419" lon="5.74549">
        <ele>795.6</ele>
        <time>2015-04-05T14:16:54Z</time>
      </trkpt>
      <trkpt lat="44.52421" lon="5.7457">
        <ele>795.4</ele>
        <time>2015-04-05T14:16:56Z</time>
      </trkpt>
      <trkpt lat="44.52423" lon="5.7459">
        <ele>795.1</ele>
        <time>2015-04-05T14:16:58Z</time>
      </trkpt>
      <trkpt lat="44.52425" lon="5.7461">
        <ele>794.5</ele>
        <time>2015-04-05T14:17:00Z</time>
      </trkpt>
      <trkpt lat="44.52426" lon="5.74629">
        <ele>793.9</ele>
        <time>2015-04-05T14:17:02Z</time>
      </trkpt>
      <trkpt lat="44.52427" lon="5.74648">
        <ele>793.3</ele>
        <time>2015-04-05T14:17:04Z</time>
      </trkpt>
      <trkpt lat="44.52427" lon="5.74669">
        <ele>792.6</ele>
        <time>2015-04-05T14:17:06Z</time>
      </trkpt>
      <trkpt lat="44.52424" lon="5.7469">
        <ele>791.6</ele>
        <time>2015-04-05T14:17:08Z</time>
      </trkpt>
      <trkpt lat="44.52417" lon="5.74712">
        <ele>790.4</ele>
        <time>2015-04-05T14:17:10Z</time>
      </trkpt>
      <trkpt lat="44.52408" lon="5.74732">
        <ele>789.3</ele>
        <time>2015-04-05T14:17:12Z</time>
      </trkpt>
      <trkpt lat="44.52397" lon="5.74752">
        <ele>788.3</ele>
        <time>2015-04-05T14:17:14Z</time>
      </trkpt>
      <trkpt lat="44.52387" lon="5.74766">
        <ele>788</ele>
        <time>2015-04-05T14:17:16Z</time>
      </trkpt>
      <trkpt lat="44.52378" lon="5.7478">
        <ele>787.6</ele>
        <time>2015-04-05T14:17:18Z</time>
      </trkpt>
      <trkpt lat="44.52368" lon="5.74794">
        <ele>787.1</ele>
        <time>2015-04-05T14:17:20Z</time>
      </trkpt>
      <trkpt lat="44.52355" lon="5.74802">
        <ele>786.2</ele>
        <time>2015-04-05T14:17:22Z</time>
      </trkpt>
      <trkpt lat="44.52342" lon="5.74808">
        <ele>785.2</ele>
        <time>2015-04-05T14:17:24Z</time>
      </trkpt>
      <trkpt lat="44.52328" lon="5.74809">
        <ele>784.5</ele>
        <time>2015-04-05T14:17:26Z</time>
      </trkpt>
      <trkpt lat="44.52313" lon="5.74814">
        <ele>784.3</ele>
        <time>2015-04-05T14:17:28Z</time>
      </trkpt>
      <trkpt lat="44.52298" lon="5.74821">
        <ele>783.9</ele>
        <time>2015-04-05T14:17:30Z</time>
      </trkpt>
      <trkpt lat="44.52282" lon="5.74829">
        <ele>783.5</ele>
        <time>2015-04-05T14:17:32Z</time>
      </trkpt>
      <trkpt lat="44.52267" lon="5.74838">
        <ele>783.2</ele>
        <time>2015-04-05T14:17:34Z</time>
      </trkpt>
      <trkpt lat="44.52251" lon="5.74847">
        <ele>783</ele>
        <time>2015-04-05T14:17:36Z</time>
      </trkpt>
      <trkpt lat="44.52234" lon="5.74856">
        <ele>782.7</ele>
        <time>2015-04-05T14:17:38Z</time>
      </trkpt>
      <trkpt lat="44.52218" lon="5.74866">
        <ele>782.5</ele>
        <time>2015-04-05T14:17:40Z</time>
      </trkpt>
      <trkpt lat="44.52209" lon="5.74871">
        <ele>782.4</ele>
        <time>2015-04-05T14:17:41Z</time>
      </trkpt>
      <trkpt lat="44.522" lon="5.74876">
        <ele>782.4</ele>
        <time>2015-04-05T14:17:42Z</time>
      </trkpt>
      <trkpt lat="44.52191" lon="5.7488">
        <ele>782.4</ele>
        <time>2015-04-05T14:17:43Z</time>
      </trkpt>
      <trkpt lat="44.52182" lon="5.74885">
        <ele>782.4</ele>
        <time>2015-04-05T14:17:44Z</time>
      </trkpt>
      <trkpt lat="44.52172" lon="5.74891">
        <ele>782.4</ele>
        <time>2015-04-05T14:17:45Z</time>
      </trkpt>
      <trkpt lat="44.52163" lon="5.74897">
        <ele>782.2</ele>
        <time>2015-04-05T14:17:46Z</time>
      </trkpt>
      <trkpt lat="44.52154" lon="5.74903">
        <ele>781.6</ele>
        <time>2015-04-05T14:17:47Z</time>
      </trkpt>
      <trkpt lat="44.52144" lon="5.74909">
        <ele>780.9</ele>
        <time>2015-04-05T14:17:48Z</time>
      </trkpt>
      <trkpt lat="44.52135" lon="5.74917">
        <ele>780.3</ele>
        <time>2015-04-05T14:17:49Z</time>
      </trkpt>
      <trkpt lat="44.52126" lon="5.74925">
        <ele>780</ele>
        <time>2015-04-05T14:17:50Z</time>
      </trkpt>
      <trkpt lat="44.52118" lon="5.74934">
        <ele>779.8</ele>
        <time>2015-04-05T14:17:51Z</time>
      </trkpt>
      <trkpt lat="44.5211" lon="5.74943">
        <ele>779.6</ele>
        <time>2015-04-05T14:17:52Z</time>
      </trkpt>
      <trkpt lat="44.521" lon="5.74956">
        <ele>779.4</ele>
        <time>2015-04-05T14:17:54Z</time>
      </trkpt>
      <trkpt lat="44.52099" lon="5.74973">
        <ele>780.2</ele>
        <time>2015-04-05T14:17:57Z</time>
      </trkpt>
      <trkpt lat="44.52097" lon="5.74976">
        <ele>780.1</ele>
        <time>2015-04-05T14:20:56Z</time>
      </trkpt>
    </trkseg>
  </trk>
</gpx>